<?xml version="1.0" encoding="UTF-8" standalone="no" ?>
<gpx xmlns="http://www.topografix.com/GPX/1/1" xmlns:xsi="http://www.w3.org/2001/XMLSchema-instance" xsi:schemaLocation="http://www.topografix.com/GPX/1/1 http://www.topografix.com/GPX/1/1/gpx.xsd" version="1.1" creator="VisuGPX - https://www.visugpx.com">
  <metadata>
    <name>151104ROBBenjamins</name>
    <desc><![CDATA[Excellente reprise]]></desc>
  </metadata>
  <trk>
    <name><![CDATA[151104ROBBenjamins]]></name>
    <trkseg>
      <trkpt lat="43.41576" lon="6.07043">
        <ele>213</ele>
        <time>2015-11-04T13:05:51Z</time>
      </trkpt>
      <trkpt lat="43.41576" lon="6.07043">
        <ele>213.19999694824</ele>
        <time>2015-11-04T13:06:19Z</time>
      </trkpt>
      <trkpt lat="43.41577" lon="6.07045">
        <ele>213.19999694824</ele>
        <time>2015-11-04T13:06:21Z</time>
      </trkpt>
      <trkpt lat="43.41578" lon="6.07049">
        <ele>213.19999694824</ele>
        <time>2015-11-04T13:06:23Z</time>
      </trkpt>
      <trkpt lat="43.41579" lon="6.07057">
        <ele>212.80000305176</ele>
        <time>2015-11-04T13:06:25Z</time>
      </trkpt>
      <trkpt lat="43.41581" lon="6.07067">
        <ele>212.39999389648</ele>
        <time>2015-11-04T13:06:27Z</time>
      </trkpt>
      <trkpt lat="43.41582" lon="6.07077">
        <ele>212.60000610352</ele>
        <time>2015-11-04T13:06:29Z</time>
      </trkpt>
      <trkpt lat="43.41583" lon="6.07086">
        <ele>212.80000305176</ele>
        <time>2015-11-04T13:06:31Z</time>
      </trkpt>
      <trkpt lat="43.41584" lon="6.07093">
        <ele>212.80000305176</ele>
        <time>2015-11-04T13:06:33Z</time>
      </trkpt>
      <trkpt lat="43.41584" lon="6.07096">
        <ele>212.80000305176</ele>
        <time>2015-11-04T13:06:34Z</time>
      </trkpt>
      <trkpt lat="43.41583" lon="6.07097">
        <ele>212.80000305176</ele>
        <time>2015-11-04T13:06:35Z</time>
      </trkpt>
      <trkpt lat="43.41584" lon="6.07097">
        <ele>212.80000305176</ele>
        <time>2015-11-04T13:06:37Z</time>
      </trkpt>
      <trkpt lat="43.41583" lon="6.07099">
        <ele>212.80000305176</ele>
        <time>2015-11-04T13:06:38Z</time>
      </trkpt>
      <trkpt lat="43.41583" lon="6.07099">
        <ele>212.80000305176</ele>
        <time>2015-11-04T13:06:39Z</time>
      </trkpt>
      <trkpt lat="43.41581" lon="6.07101">
        <ele>212.39999389648</ele>
        <time>2015-11-04T13:06:41Z</time>
      </trkpt>
      <trkpt lat="43.41576" lon="6.07106">
        <ele>212</ele>
        <time>2015-11-04T13:06:43Z</time>
      </trkpt>
      <trkpt lat="43.41573" lon="6.07109">
        <ele>211.80000305176</ele>
        <time>2015-11-04T13:06:44Z</time>
      </trkpt>
      <trkpt lat="43.4157" lon="6.07111">
        <ele>212</ele>
        <time>2015-11-04T13:06:45Z</time>
      </trkpt>
      <trkpt lat="43.41562" lon="6.07113">
        <ele>212</ele>
        <time>2015-11-04T13:06:47Z</time>
      </trkpt>
      <trkpt lat="43.41558" lon="6.07114">
        <ele>212</ele>
        <time>2015-11-04T13:06:48Z</time>
      </trkpt>
      <trkpt lat="43.41553" lon="6.07115">
        <ele>212</ele>
        <time>2015-11-04T13:06:49Z</time>
      </trkpt>
      <trkpt lat="43.41547" lon="6.07108">
        <ele>211.80000305176</ele>
        <time>2015-11-04T13:06:51Z</time>
      </trkpt>
      <trkpt lat="43.41546" lon="6.07103">
        <ele>211.60000610352</ele>
        <time>2015-11-04T13:06:52Z</time>
      </trkpt>
      <trkpt lat="43.41546" lon="6.07098">
        <ele>211.60000610352</ele>
        <time>2015-11-04T13:06:53Z</time>
      </trkpt>
      <trkpt lat="43.41545" lon="6.07087">
        <ele>211.60000610352</ele>
        <time>2015-11-04T13:06:55Z</time>
      </trkpt>
      <trkpt lat="43.41544" lon="6.07082">
        <ele>211.80000305176</ele>
        <time>2015-11-04T13:06:56Z</time>
      </trkpt>
      <trkpt lat="43.41542" lon="6.07078">
        <ele>212</ele>
        <time>2015-11-04T13:06:57Z</time>
      </trkpt>
      <trkpt lat="43.41538" lon="6.07074">
        <ele>211.80000305176</ele>
        <time>2015-11-04T13:06:58Z</time>
      </trkpt>
      <trkpt lat="43.41533" lon="6.07073">
        <ele>211.60000610352</ele>
        <time>2015-11-04T13:06:59Z</time>
      </trkpt>
      <trkpt lat="43.41522" lon="6.07075">
        <ele>211</ele>
        <time>2015-11-04T13:07:01Z</time>
      </trkpt>
      <trkpt lat="43.41517" lon="6.07076">
        <ele>210.80000305176</ele>
        <time>2015-11-04T13:07:02Z</time>
      </trkpt>
      <trkpt lat="43.41512" lon="6.07078">
        <ele>210.39999389648</ele>
        <time>2015-11-04T13:07:03Z</time>
      </trkpt>
      <trkpt lat="43.41501" lon="6.07081">
        <ele>210.19999694824</ele>
        <time>2015-11-04T13:07:05Z</time>
      </trkpt>
      <trkpt lat="43.41496" lon="6.0708">
        <ele>210.19999694824</ele>
        <time>2015-11-04T13:07:06Z</time>
      </trkpt>
      <trkpt lat="43.41491" lon="6.07079">
        <ele>210.39999389648</ele>
        <time>2015-11-04T13:07:07Z</time>
      </trkpt>
      <trkpt lat="43.41488" lon="6.07076">
        <ele>210.39999389648</ele>
        <time>2015-11-04T13:07:08Z</time>
      </trkpt>
      <trkpt lat="43.41485" lon="6.07074">
        <ele>210.39999389648</ele>
        <time>2015-11-04T13:07:09Z</time>
      </trkpt>
      <trkpt lat="43.41479" lon="6.07072">
        <ele>210.80000305176</ele>
        <time>2015-11-04T13:07:11Z</time>
      </trkpt>
      <trkpt lat="43.41474" lon="6.07073">
        <ele>210.80000305176</ele>
        <time>2015-11-04T13:07:13Z</time>
      </trkpt>
      <trkpt lat="43.41472" lon="6.07073">
        <ele>210.60000610352</ele>
        <time>2015-11-04T13:07:15Z</time>
      </trkpt>
      <trkpt lat="43.41469" lon="6.07073">
        <ele>210.60000610352</ele>
        <time>2015-11-04T13:07:17Z</time>
      </trkpt>
      <trkpt lat="43.4147" lon="6.07073">
        <ele>210.60000610352</ele>
        <time>2015-11-04T13:07:19Z</time>
      </trkpt>
      <trkpt lat="43.41469" lon="6.07073">
        <ele>210.60000610352</ele>
        <time>2015-11-04T13:07:21Z</time>
      </trkpt>
      <trkpt lat="43.41469" lon="6.07073">
        <ele>210.60000610352</ele>
        <time>2015-11-04T13:07:23Z</time>
      </trkpt>
      <trkpt lat="43.41469" lon="6.07073">
        <ele>210.60000610352</ele>
        <time>2015-11-04T13:07:25Z</time>
      </trkpt>
      <trkpt lat="43.41469" lon="6.07073">
        <ele>210.39999389648</ele>
        <time>2015-11-04T13:07:29Z</time>
      </trkpt>
      <trkpt lat="43.41468" lon="6.07071">
        <ele>210.39999389648</ele>
        <time>2015-11-04T13:07:31Z</time>
      </trkpt>
      <trkpt lat="43.41467" lon="6.07068">
        <ele>210.19999694824</ele>
        <time>2015-11-04T13:07:32Z</time>
      </trkpt>
      <trkpt lat="43.41468" lon="6.07065">
        <ele>210.19999694824</ele>
        <time>2015-11-04T13:07:33Z</time>
      </trkpt>
      <trkpt lat="43.41469" lon="6.0706">
        <ele>210</ele>
        <time>2015-11-04T13:07:35Z</time>
      </trkpt>
      <trkpt lat="43.41472" lon="6.07051">
        <ele>209.60000610352</ele>
        <time>2015-11-04T13:07:37Z</time>
      </trkpt>
      <trkpt lat="43.41474" lon="6.07047">
        <ele>209.60000610352</ele>
        <time>2015-11-04T13:07:38Z</time>
      </trkpt>
      <trkpt lat="43.41476" lon="6.07042">
        <ele>209.60000610352</ele>
        <time>2015-11-04T13:07:39Z</time>
      </trkpt>
      <trkpt lat="43.41479" lon="6.07032">
        <ele>209.80000305176</ele>
        <time>2015-11-04T13:07:41Z</time>
      </trkpt>
      <trkpt lat="43.41483" lon="6.07023">
        <ele>210.19999694824</ele>
        <time>2015-11-04T13:07:43Z</time>
      </trkpt>
      <trkpt lat="43.41484" lon="6.07019">
        <ele>210.19999694824</ele>
        <time>2015-11-04T13:07:44Z</time>
      </trkpt>
      <trkpt lat="43.41486" lon="6.07014">
        <ele>210.19999694824</ele>
        <time>2015-11-04T13:07:45Z</time>
      </trkpt>
      <trkpt lat="43.4149" lon="6.07004">
        <ele>210.19999694824</ele>
        <time>2015-11-04T13:07:47Z</time>
      </trkpt>
      <trkpt lat="43.41492" lon="6.06994">
        <ele>210.39999389648</ele>
        <time>2015-11-04T13:07:49Z</time>
      </trkpt>
      <trkpt lat="43.41492" lon="6.06983">
        <ele>210.19999694824</ele>
        <time>2015-11-04T13:07:51Z</time>
      </trkpt>
      <trkpt lat="43.41491" lon="6.06974">
        <ele>210.39999389648</ele>
        <time>2015-11-04T13:07:53Z</time>
      </trkpt>
      <trkpt lat="43.41489" lon="6.0697">
        <ele>211</ele>
        <time>2015-11-04T13:07:54Z</time>
      </trkpt>
      <trkpt lat="43.41488" lon="6.06967">
        <ele>211</ele>
        <time>2015-11-04T13:07:55Z</time>
      </trkpt>
      <trkpt lat="43.41486" lon="6.06963">
        <ele>211.19999694824</ele>
        <time>2015-11-04T13:07:56Z</time>
      </trkpt>
      <trkpt lat="43.41483" lon="6.0696">
        <ele>211.19999694824</ele>
        <time>2015-11-04T13:07:57Z</time>
      </trkpt>
      <trkpt lat="43.41479" lon="6.06952">
        <ele>211</ele>
        <time>2015-11-04T13:07:59Z</time>
      </trkpt>
      <trkpt lat="43.41471" lon="6.06942">
        <ele>211.60000610352</ele>
        <time>2015-11-04T13:08:03Z</time>
      </trkpt>
      <trkpt lat="43.41468" lon="6.06936">
        <ele>211.60000610352</ele>
        <time>2015-11-04T13:08:05Z</time>
      </trkpt>
      <trkpt lat="43.41465" lon="6.0693">
        <ele>211.60000610352</ele>
        <time>2015-11-04T13:08:07Z</time>
      </trkpt>
      <trkpt lat="43.41463" lon="6.06924">
        <ele>211.80000305176</ele>
        <time>2015-11-04T13:08:09Z</time>
      </trkpt>
      <trkpt lat="43.41465" lon="6.06922">
        <ele>212.19999694824</ele>
        <time>2015-11-04T13:08:10Z</time>
      </trkpt>
      <trkpt lat="43.41467" lon="6.0692">
        <ele>212.19999694824</ele>
        <time>2015-11-04T13:08:11Z</time>
      </trkpt>
      <trkpt lat="43.41468" lon="6.06918">
        <ele>212.39999389648</ele>
        <time>2015-11-04T13:08:12Z</time>
      </trkpt>
      <trkpt lat="43.4147" lon="6.06916">
        <ele>212.39999389648</ele>
        <time>2015-11-04T13:08:13Z</time>
      </trkpt>
      <trkpt lat="43.41473" lon="6.0691">
        <ele>212.19999694824</ele>
        <time>2015-11-04T13:08:15Z</time>
      </trkpt>
      <trkpt lat="43.41474" lon="6.06908">
        <ele>212.39999389648</ele>
        <time>2015-11-04T13:08:17Z</time>
      </trkpt>
      <trkpt lat="43.41474" lon="6.06906">
        <ele>212.39999389648</ele>
        <time>2015-11-04T13:08:18Z</time>
      </trkpt>
      <trkpt lat="43.41475" lon="6.06904">
        <ele>212.60000610352</ele>
        <time>2015-11-04T13:08:19Z</time>
      </trkpt>
      <trkpt lat="43.41475" lon="6.06898">
        <ele>212.19999694824</ele>
        <time>2015-11-04T13:08:21Z</time>
      </trkpt>
      <trkpt lat="43.41474" lon="6.06895">
        <ele>212.39999389648</ele>
        <time>2015-11-04T13:08:23Z</time>
      </trkpt>
      <trkpt lat="43.41474" lon="6.06895">
        <ele>212.39999389648</ele>
        <time>2015-11-04T13:08:25Z</time>
      </trkpt>
      <trkpt lat="43.41473" lon="6.06892">
        <ele>212.39999389648</ele>
        <time>2015-11-04T13:08:27Z</time>
      </trkpt>
      <trkpt lat="43.41474" lon="6.06885">
        <ele>212.19999694824</ele>
        <time>2015-11-04T13:08:29Z</time>
      </trkpt>
      <trkpt lat="43.41475" lon="6.06881">
        <ele>212.19999694824</ele>
        <time>2015-11-04T13:08:30Z</time>
      </trkpt>
      <trkpt lat="43.41475" lon="6.06875">
        <ele>212</ele>
        <time>2015-11-04T13:08:31Z</time>
      </trkpt>
      <trkpt lat="43.41474" lon="6.06866">
        <ele>212</ele>
        <time>2015-11-04T13:08:33Z</time>
      </trkpt>
      <trkpt lat="43.41472" lon="6.06861">
        <ele>212</ele>
        <time>2015-11-04T13:08:34Z</time>
      </trkpt>
      <trkpt lat="43.41472" lon="6.06855">
        <ele>212</ele>
        <time>2015-11-04T13:08:35Z</time>
      </trkpt>
      <trkpt lat="43.41473" lon="6.06845">
        <ele>212.19999694824</ele>
        <time>2015-11-04T13:08:37Z</time>
      </trkpt>
      <trkpt lat="43.41473" lon="6.06844">
        <ele>212.19999694824</ele>
        <time>2015-11-04T13:08:38Z</time>
      </trkpt>
      <trkpt lat="43.41473" lon="6.06842">
        <ele>212.19999694824</ele>
        <time>2015-11-04T13:08:39Z</time>
      </trkpt>
      <trkpt lat="43.41474" lon="6.06838">
        <ele>212.39999389648</ele>
        <time>2015-11-04T13:08:41Z</time>
      </trkpt>
      <trkpt lat="43.41475" lon="6.06831">
        <ele>212.19999694824</ele>
        <time>2015-11-04T13:08:43Z</time>
      </trkpt>
      <trkpt lat="43.41477" lon="6.06828">
        <ele>212.19999694824</ele>
        <time>2015-11-04T13:08:44Z</time>
      </trkpt>
      <trkpt lat="43.41479" lon="6.06824">
        <ele>212</ele>
        <time>2015-11-04T13:08:45Z</time>
      </trkpt>
      <trkpt lat="43.41482" lon="6.06815">
        <ele>211.80000305176</ele>
        <time>2015-11-04T13:08:47Z</time>
      </trkpt>
      <trkpt lat="43.41485" lon="6.06804">
        <ele>211.80000305176</ele>
        <time>2015-11-04T13:08:49Z</time>
      </trkpt>
      <trkpt lat="43.41488" lon="6.06792">
        <ele>211.80000305176</ele>
        <time>2015-11-04T13:08:51Z</time>
      </trkpt>
      <trkpt lat="43.4149" lon="6.0678">
        <ele>211.80000305176</ele>
        <time>2015-11-04T13:08:53Z</time>
      </trkpt>
      <trkpt lat="43.41492" lon="6.06766">
        <ele>212</ele>
        <time>2015-11-04T13:08:55Z</time>
      </trkpt>
      <trkpt lat="43.41493" lon="6.06759">
        <ele>212.19999694824</ele>
        <time>2015-11-04T13:08:56Z</time>
      </trkpt>
      <trkpt lat="43.41494" lon="6.06752">
        <ele>212.19999694824</ele>
        <time>2015-11-04T13:08:57Z</time>
      </trkpt>
      <trkpt lat="43.41496" lon="6.06725">
        <ele>213</ele>
        <time>2015-11-04T13:09:01Z</time>
      </trkpt>
      <trkpt lat="43.41499" lon="6.06683">
        <ele>213.60000610352</ele>
        <time>2015-11-04T13:09:07Z</time>
      </trkpt>
      <trkpt lat="43.415" lon="6.0667">
        <ele>213.80000305176</ele>
        <time>2015-11-04T13:09:09Z</time>
      </trkpt>
      <trkpt lat="43.41506" lon="6.06637">
        <ele>214.60000610352</ele>
        <time>2015-11-04T13:09:14Z</time>
      </trkpt>
      <trkpt lat="43.4151" lon="6.06617">
        <ele>214.60000610352</ele>
        <time>2015-11-04T13:09:17Z</time>
      </trkpt>
      <trkpt lat="43.41512" lon="6.06604">
        <ele>214.80000305176</ele>
        <time>2015-11-04T13:09:19Z</time>
      </trkpt>
      <trkpt lat="43.41514" lon="6.06591">
        <ele>214.80000305176</ele>
        <time>2015-11-04T13:09:21Z</time>
      </trkpt>
      <trkpt lat="43.41518" lon="6.06564">
        <ele>215</ele>
        <time>2015-11-04T13:09:25Z</time>
      </trkpt>
      <trkpt lat="43.41521" lon="6.0655">
        <ele>215</ele>
        <time>2015-11-04T13:09:27Z</time>
      </trkpt>
      <trkpt lat="43.41523" lon="6.06536">
        <ele>215</ele>
        <time>2015-11-04T13:09:29Z</time>
      </trkpt>
      <trkpt lat="43.41526" lon="6.06523">
        <ele>215.19999694824</ele>
        <time>2015-11-04T13:09:31Z</time>
      </trkpt>
      <trkpt lat="43.41529" lon="6.06511">
        <ele>215.39999389648</ele>
        <time>2015-11-04T13:09:33Z</time>
      </trkpt>
      <trkpt lat="43.41534" lon="6.065">
        <ele>215.60000610352</ele>
        <time>2015-11-04T13:09:35Z</time>
      </trkpt>
      <trkpt lat="43.41539" lon="6.0649">
        <ele>216</ele>
        <time>2015-11-04T13:09:37Z</time>
      </trkpt>
      <trkpt lat="43.41543" lon="6.06481">
        <ele>216.60000610352</ele>
        <time>2015-11-04T13:09:39Z</time>
      </trkpt>
      <trkpt lat="43.41546" lon="6.0647">
        <ele>216.60000610352</ele>
        <time>2015-11-04T13:09:41Z</time>
      </trkpt>
      <trkpt lat="43.41546" lon="6.06464">
        <ele>216.60000610352</ele>
        <time>2015-11-04T13:09:42Z</time>
      </trkpt>
      <trkpt lat="43.41546" lon="6.06458">
        <ele>216.60000610352</ele>
        <time>2015-11-04T13:09:43Z</time>
      </trkpt>
      <trkpt lat="43.41544" lon="6.06447">
        <ele>216.80000305176</ele>
        <time>2015-11-04T13:09:45Z</time>
      </trkpt>
      <trkpt lat="43.41544" lon="6.06442">
        <ele>217</ele>
        <time>2015-11-04T13:09:46Z</time>
      </trkpt>
      <trkpt lat="43.41545" lon="6.06438">
        <ele>217.39999389648</ele>
        <time>2015-11-04T13:09:47Z</time>
      </trkpt>
      <trkpt lat="43.41547" lon="6.0643">
        <ele>217.60000610352</ele>
        <time>2015-11-04T13:09:49Z</time>
      </trkpt>
      <trkpt lat="43.41548" lon="6.06421">
        <ele>217.80000305176</ele>
        <time>2015-11-04T13:09:51Z</time>
      </trkpt>
      <trkpt lat="43.4155" lon="6.06412">
        <ele>218.19999694824</ele>
        <time>2015-11-04T13:09:53Z</time>
      </trkpt>
      <trkpt lat="43.41551" lon="6.06404">
        <ele>218.60000610352</ele>
        <time>2015-11-04T13:09:55Z</time>
      </trkpt>
      <trkpt lat="43.41551" lon="6.064">
        <ele>218.80000305176</ele>
        <time>2015-11-04T13:09:56Z</time>
      </trkpt>
      <trkpt lat="43.41552" lon="6.06397">
        <ele>219</ele>
        <time>2015-11-04T13:09:57Z</time>
      </trkpt>
      <trkpt lat="43.41554" lon="6.06389">
        <ele>219.19999694824</ele>
        <time>2015-11-04T13:09:59Z</time>
      </trkpt>
      <trkpt lat="43.41556" lon="6.06378">
        <ele>220</ele>
        <time>2015-11-04T13:10:02Z</time>
      </trkpt>
      <trkpt lat="43.41557" lon="6.06374">
        <ele>220.19999694824</ele>
        <time>2015-11-04T13:10:03Z</time>
      </trkpt>
      <trkpt lat="43.41558" lon="6.06363">
        <ele>220.60000610352</ele>
        <time>2015-11-04T13:10:06Z</time>
      </trkpt>
      <trkpt lat="43.4156" lon="6.06359">
        <ele>221.19999694824</ele>
        <time>2015-11-04T13:10:07Z</time>
      </trkpt>
      <trkpt lat="43.41562" lon="6.06352">
        <ele>221.60000610352</ele>
        <time>2015-11-04T13:10:09Z</time>
      </trkpt>
      <trkpt lat="43.41565" lon="6.06345">
        <ele>221.60000610352</ele>
        <time>2015-11-04T13:10:11Z</time>
      </trkpt>
      <trkpt lat="43.41568" lon="6.06339">
        <ele>222</ele>
        <time>2015-11-04T13:10:13Z</time>
      </trkpt>
      <trkpt lat="43.4157" lon="6.06336">
        <ele>222.19999694824</ele>
        <time>2015-11-04T13:10:14Z</time>
      </trkpt>
      <trkpt lat="43.41572" lon="6.06333">
        <ele>222.60000610352</ele>
        <time>2015-11-04T13:10:15Z</time>
      </trkpt>
      <trkpt lat="43.41575" lon="6.06328">
        <ele>223.19999694824</ele>
        <time>2015-11-04T13:10:17Z</time>
      </trkpt>
      <trkpt lat="43.41578" lon="6.06323">
        <ele>223.19999694824</ele>
        <time>2015-11-04T13:10:19Z</time>
      </trkpt>
      <trkpt lat="43.41582" lon="6.06319">
        <ele>223.39999389648</ele>
        <time>2015-11-04T13:10:21Z</time>
      </trkpt>
      <trkpt lat="43.41584" lon="6.06313">
        <ele>223.60000610352</ele>
        <time>2015-11-04T13:10:23Z</time>
      </trkpt>
      <trkpt lat="43.41586" lon="6.06308">
        <ele>224</ele>
        <time>2015-11-04T13:10:25Z</time>
      </trkpt>
      <trkpt lat="43.41587" lon="6.06303">
        <ele>224.39999389648</ele>
        <time>2015-11-04T13:10:27Z</time>
      </trkpt>
      <trkpt lat="43.41588" lon="6.06297">
        <ele>224.60000610352</ele>
        <time>2015-11-04T13:10:29Z</time>
      </trkpt>
      <trkpt lat="43.41587" lon="6.06291">
        <ele>224.60000610352</ele>
        <time>2015-11-04T13:10:31Z</time>
      </trkpt>
      <trkpt lat="43.41586" lon="6.06289">
        <ele>224.60000610352</ele>
        <time>2015-11-04T13:10:32Z</time>
      </trkpt>
      <trkpt lat="43.41586" lon="6.06288">
        <ele>224.60000610352</ele>
        <time>2015-11-04T13:10:33Z</time>
      </trkpt>
      <trkpt lat="43.41586" lon="6.06284">
        <ele>224.80000305176</ele>
        <time>2015-11-04T13:10:35Z</time>
      </trkpt>
      <trkpt lat="43.41585" lon="6.06281">
        <ele>225</ele>
        <time>2015-11-04T13:10:37Z</time>
      </trkpt>
      <trkpt lat="43.41585" lon="6.06279">
        <ele>225.19999694824</ele>
        <time>2015-11-04T13:10:38Z</time>
      </trkpt>
      <trkpt lat="43.41585" lon="6.06278">
        <ele>225.19999694824</ele>
        <time>2015-11-04T13:10:39Z</time>
      </trkpt>
      <trkpt lat="43.41585" lon="6.06274">
        <ele>225.19999694824</ele>
        <time>2015-11-04T13:10:41Z</time>
      </trkpt>
      <trkpt lat="43.41585" lon="6.06273">
        <ele>225.19999694824</ele>
        <time>2015-11-04T13:10:42Z</time>
      </trkpt>
      <trkpt lat="43.41585" lon="6.06272">
        <ele>225.39999389648</ele>
        <time>2015-11-04T13:10:43Z</time>
      </trkpt>
      <trkpt lat="43.41585" lon="6.06271">
        <ele>225.39999389648</ele>
        <time>2015-11-04T13:10:44Z</time>
      </trkpt>
      <trkpt lat="43.41585" lon="6.06271">
        <ele>225.39999389648</ele>
        <time>2015-11-04T13:10:45Z</time>
      </trkpt>
      <trkpt lat="43.41585" lon="6.06271">
        <ele>225.60000610352</ele>
        <time>2015-11-04T13:10:50Z</time>
      </trkpt>
      <trkpt lat="43.41585" lon="6.06271">
        <ele>225.60000610352</ele>
        <time>2015-11-04T13:11:01Z</time>
      </trkpt>
      <trkpt lat="43.41586" lon="6.0627">
        <ele>225.60000610352</ele>
        <time>2015-11-04T13:11:02Z</time>
      </trkpt>
      <trkpt lat="43.41587" lon="6.06269">
        <ele>225.60000610352</ele>
        <time>2015-11-04T13:11:03Z</time>
      </trkpt>
      <trkpt lat="43.41591" lon="6.06264">
        <ele>225.60000610352</ele>
        <time>2015-11-04T13:11:05Z</time>
      </trkpt>
      <trkpt lat="43.41593" lon="6.06261">
        <ele>225.60000610352</ele>
        <time>2015-11-04T13:11:06Z</time>
      </trkpt>
      <trkpt lat="43.41595" lon="6.06259">
        <ele>225.60000610352</ele>
        <time>2015-11-04T13:11:07Z</time>
      </trkpt>
      <trkpt lat="43.41597" lon="6.06257">
        <ele>225.80000305176</ele>
        <time>2015-11-04T13:11:09Z</time>
      </trkpt>
      <trkpt lat="43.41599" lon="6.06257">
        <ele>226.19999694824</ele>
        <time>2015-11-04T13:11:11Z</time>
      </trkpt>
      <trkpt lat="43.41599" lon="6.06257">
        <ele>226.39999389648</ele>
        <time>2015-11-04T13:11:13Z</time>
      </trkpt>
      <trkpt lat="43.41599" lon="6.06257">
        <ele>226.19999694824</ele>
        <time>2015-11-04T13:11:15Z</time>
      </trkpt>
      <trkpt lat="43.41599" lon="6.06256">
        <ele>226.19999694824</ele>
        <time>2015-11-04T13:11:16Z</time>
      </trkpt>
      <trkpt lat="43.41599" lon="6.06255">
        <ele>226</ele>
        <time>2015-11-04T13:11:17Z</time>
      </trkpt>
      <trkpt lat="43.416" lon="6.06255">
        <ele>226</ele>
        <time>2015-11-04T13:11:19Z</time>
      </trkpt>
      <trkpt lat="43.41601" lon="6.0625">
        <ele>226.19999694824</ele>
        <time>2015-11-04T13:11:21Z</time>
      </trkpt>
      <trkpt lat="43.41603" lon="6.06244">
        <ele>226.19999694824</ele>
        <time>2015-11-04T13:11:23Z</time>
      </trkpt>
      <trkpt lat="43.41605" lon="6.06236">
        <ele>226.19999694824</ele>
        <time>2015-11-04T13:11:25Z</time>
      </trkpt>
      <trkpt lat="43.41607" lon="6.06232">
        <ele>226</ele>
        <time>2015-11-04T13:11:26Z</time>
      </trkpt>
      <trkpt lat="43.41608" lon="6.06227">
        <ele>225.80000305176</ele>
        <time>2015-11-04T13:11:27Z</time>
      </trkpt>
      <trkpt lat="43.41608" lon="6.06217">
        <ele>226</ele>
        <time>2015-11-04T13:11:29Z</time>
      </trkpt>
      <trkpt lat="43.41608" lon="6.06208">
        <ele>226.19999694824</ele>
        <time>2015-11-04T13:11:31Z</time>
      </trkpt>
      <trkpt lat="43.41607" lon="6.06203">
        <ele>226.19999694824</ele>
        <time>2015-11-04T13:11:32Z</time>
      </trkpt>
      <trkpt lat="43.41605" lon="6.06198">
        <ele>226</ele>
        <time>2015-11-04T13:11:33Z</time>
      </trkpt>
      <trkpt lat="43.41601" lon="6.06189">
        <ele>225.60000610352</ele>
        <time>2015-11-04T13:11:35Z</time>
      </trkpt>
      <trkpt lat="43.41601" lon="6.06177">
        <ele>224.80000305176</ele>
        <time>2015-11-04T13:11:37Z</time>
      </trkpt>
      <trkpt lat="43.41603" lon="6.06171">
        <ele>224.39999389648</ele>
        <time>2015-11-04T13:11:38Z</time>
      </trkpt>
      <trkpt lat="43.41605" lon="6.06165">
        <ele>224</ele>
        <time>2015-11-04T13:11:39Z</time>
      </trkpt>
      <trkpt lat="43.41613" lon="6.06155">
        <ele>223.60000610352</ele>
        <time>2015-11-04T13:11:41Z</time>
      </trkpt>
      <trkpt lat="43.41617" lon="6.0615">
        <ele>223.60000610352</ele>
        <time>2015-11-04T13:11:42Z</time>
      </trkpt>
      <trkpt lat="43.41621" lon="6.06145">
        <ele>223.80000305176</ele>
        <time>2015-11-04T13:11:43Z</time>
      </trkpt>
      <trkpt lat="43.41627" lon="6.06136">
        <ele>224.19999694824</ele>
        <time>2015-11-04T13:11:45Z</time>
      </trkpt>
      <trkpt lat="43.41632" lon="6.06127">
        <ele>224.39999389648</ele>
        <time>2015-11-04T13:11:47Z</time>
      </trkpt>
      <trkpt lat="43.41631" lon="6.06121">
        <ele>224.39999389648</ele>
        <time>2015-11-04T13:11:48Z</time>
      </trkpt>
      <trkpt lat="43.41627" lon="6.06116">
        <ele>224</ele>
        <time>2015-11-04T13:11:49Z</time>
      </trkpt>
      <trkpt lat="43.41619" lon="6.061">
        <ele>223.39999389648</ele>
        <time>2015-11-04T13:11:51Z</time>
      </trkpt>
      <trkpt lat="43.41618" lon="6.06098">
        <ele>223.39999389648</ele>
        <time>2015-11-04T13:11:52Z</time>
      </trkpt>
      <trkpt lat="43.41618" lon="6.06091">
        <ele>223.39999389648</ele>
        <time>2015-11-04T13:11:53Z</time>
      </trkpt>
      <trkpt lat="43.41617" lon="6.06084">
        <ele>223.60000610352</ele>
        <time>2015-11-04T13:11:54Z</time>
      </trkpt>
      <trkpt lat="43.41617" lon="6.06077">
        <ele>223.80000305176</ele>
        <time>2015-11-04T13:11:55Z</time>
      </trkpt>
      <trkpt lat="43.41616" lon="6.0607">
        <ele>223.80000305176</ele>
        <time>2015-11-04T13:11:56Z</time>
      </trkpt>
      <trkpt lat="43.41617" lon="6.06064">
        <ele>224</ele>
        <time>2015-11-04T13:11:57Z</time>
      </trkpt>
      <trkpt lat="43.41618" lon="6.06057">
        <ele>224.19999694824</ele>
        <time>2015-11-04T13:11:58Z</time>
      </trkpt>
      <trkpt lat="43.41618" lon="6.0605">
        <ele>224.39999389648</ele>
        <time>2015-11-04T13:11:59Z</time>
      </trkpt>
      <trkpt lat="43.41619" lon="6.06043">
        <ele>224.60000610352</ele>
        <time>2015-11-04T13:12:00Z</time>
      </trkpt>
      <trkpt lat="43.41621" lon="6.0603">
        <ele>225.19999694824</ele>
        <time>2015-11-04T13:12:02Z</time>
      </trkpt>
      <trkpt lat="43.41625" lon="6.06006">
        <ele>225.80000305176</ele>
        <time>2015-11-04T13:12:06Z</time>
      </trkpt>
      <trkpt lat="43.41627" lon="6.05993">
        <ele>226.60000610352</ele>
        <time>2015-11-04T13:12:08Z</time>
      </trkpt>
      <trkpt lat="43.41628" lon="6.05982">
        <ele>227</ele>
        <time>2015-11-04T13:12:10Z</time>
      </trkpt>
      <trkpt lat="43.41629" lon="6.05971">
        <ele>227.19999694824</ele>
        <time>2015-11-04T13:12:12Z</time>
      </trkpt>
      <trkpt lat="43.4163" lon="6.05966">
        <ele>227.19999694824</ele>
        <time>2015-11-04T13:12:13Z</time>
      </trkpt>
      <trkpt lat="43.41631" lon="6.0596">
        <ele>227.60000610352</ele>
        <time>2015-11-04T13:12:14Z</time>
      </trkpt>
      <trkpt lat="43.41632" lon="6.05955">
        <ele>227.80000305176</ele>
        <time>2015-11-04T13:12:15Z</time>
      </trkpt>
      <trkpt lat="43.41632" lon="6.05949">
        <ele>227.80000305176</ele>
        <time>2015-11-04T13:12:16Z</time>
      </trkpt>
      <trkpt lat="43.41634" lon="6.05941">
        <ele>227.80000305176</ele>
        <time>2015-11-04T13:12:17Z</time>
      </trkpt>
      <trkpt lat="43.41636" lon="6.05927">
        <ele>228.19999694824</ele>
        <time>2015-11-04T13:12:20Z</time>
      </trkpt>
      <trkpt lat="43.41637" lon="6.05916">
        <ele>228.60000610352</ele>
        <time>2015-11-04T13:12:22Z</time>
      </trkpt>
      <trkpt lat="43.41638" lon="6.05904">
        <ele>228.60000610352</ele>
        <time>2015-11-04T13:12:24Z</time>
      </trkpt>
      <trkpt lat="43.4164" lon="6.05892">
        <ele>229</ele>
        <time>2015-11-04T13:12:26Z</time>
      </trkpt>
      <trkpt lat="43.4164" lon="6.05882">
        <ele>229.19999694824</ele>
        <time>2015-11-04T13:12:28Z</time>
      </trkpt>
      <trkpt lat="43.41642" lon="6.05872">
        <ele>229.19999694824</ele>
        <time>2015-11-04T13:12:30Z</time>
      </trkpt>
      <trkpt lat="43.41643" lon="6.05861">
        <ele>229.39999389648</ele>
        <time>2015-11-04T13:12:32Z</time>
      </trkpt>
      <trkpt lat="43.41644" lon="6.0585">
        <ele>229.60000610352</ele>
        <time>2015-11-04T13:12:34Z</time>
      </trkpt>
      <trkpt lat="43.41644" lon="6.0584">
        <ele>229.60000610352</ele>
        <time>2015-11-04T13:12:36Z</time>
      </trkpt>
      <trkpt lat="43.41644" lon="6.0583">
        <ele>230</ele>
        <time>2015-11-04T13:12:38Z</time>
      </trkpt>
      <trkpt lat="43.41645" lon="6.05824">
        <ele>230</ele>
        <time>2015-11-04T13:12:39Z</time>
      </trkpt>
      <trkpt lat="43.41645" lon="6.0581">
        <ele>230</ele>
        <time>2015-11-04T13:12:42Z</time>
      </trkpt>
      <trkpt lat="43.41645" lon="6.05799">
        <ele>230</ele>
        <time>2015-11-04T13:12:44Z</time>
      </trkpt>
      <trkpt lat="43.41645" lon="6.05779">
        <ele>230.19999694824</ele>
        <time>2015-11-04T13:12:48Z</time>
      </trkpt>
      <trkpt lat="43.41646" lon="6.05768">
        <ele>230.19999694824</ele>
        <time>2015-11-04T13:12:50Z</time>
      </trkpt>
      <trkpt lat="43.41646" lon="6.0574">
        <ele>230</ele>
        <time>2015-11-04T13:12:55Z</time>
      </trkpt>
      <trkpt lat="43.41645" lon="6.05722">
        <ele>230.19999694824</ele>
        <time>2015-11-04T13:12:58Z</time>
      </trkpt>
      <trkpt lat="43.41645" lon="6.05711">
        <ele>230</ele>
        <time>2015-11-04T13:13:00Z</time>
      </trkpt>
      <trkpt lat="43.41645" lon="6.05699">
        <ele>230</ele>
        <time>2015-11-04T13:13:02Z</time>
      </trkpt>
      <trkpt lat="43.41642" lon="6.05673">
        <ele>229.60000610352</ele>
        <time>2015-11-04T13:13:06Z</time>
      </trkpt>
      <trkpt lat="43.4164" lon="6.05659">
        <ele>229.39999389648</ele>
        <time>2015-11-04T13:13:08Z</time>
      </trkpt>
      <trkpt lat="43.41639" lon="6.05646">
        <ele>229.19999694824</ele>
        <time>2015-11-04T13:13:10Z</time>
      </trkpt>
      <trkpt lat="43.41638" lon="6.05639">
        <ele>229</ele>
        <time>2015-11-04T13:13:11Z</time>
      </trkpt>
      <trkpt lat="43.41637" lon="6.05632">
        <ele>228.80000305176</ele>
        <time>2015-11-04T13:13:12Z</time>
      </trkpt>
      <trkpt lat="43.41637" lon="6.05626">
        <ele>228.60000610352</ele>
        <time>2015-11-04T13:13:13Z</time>
      </trkpt>
      <trkpt lat="43.41636" lon="6.05619">
        <ele>228.60000610352</ele>
        <time>2015-11-04T13:13:14Z</time>
      </trkpt>
      <trkpt lat="43.41634" lon="6.05607">
        <ele>228.60000610352</ele>
        <time>2015-11-04T13:13:16Z</time>
      </trkpt>
      <trkpt lat="43.41632" lon="6.05595">
        <ele>228.60000610352</ele>
        <time>2015-11-04T13:13:18Z</time>
      </trkpt>
      <trkpt lat="43.4163" lon="6.05582">
        <ele>228.39999389648</ele>
        <time>2015-11-04T13:13:20Z</time>
      </trkpt>
      <trkpt lat="43.41628" lon="6.05568">
        <ele>228.39999389648</ele>
        <time>2015-11-04T13:13:22Z</time>
      </trkpt>
      <trkpt lat="43.41625" lon="6.05554">
        <ele>228</ele>
        <time>2015-11-04T13:13:24Z</time>
      </trkpt>
      <trkpt lat="43.41622" lon="6.0554">
        <ele>228</ele>
        <time>2015-11-04T13:13:26Z</time>
      </trkpt>
      <trkpt lat="43.41618" lon="6.05524">
        <ele>227.80000305176</ele>
        <time>2015-11-04T13:13:28Z</time>
      </trkpt>
      <trkpt lat="43.41614" lon="6.05508">
        <ele>227.39999389648</ele>
        <time>2015-11-04T13:13:30Z</time>
      </trkpt>
      <trkpt lat="43.41605" lon="6.05477">
        <ele>227.39999389648</ele>
        <time>2015-11-04T13:13:34Z</time>
      </trkpt>
      <trkpt lat="43.416" lon="6.05461">
        <ele>227.39999389648</ele>
        <time>2015-11-04T13:13:36Z</time>
      </trkpt>
      <trkpt lat="43.41595" lon="6.05445">
        <ele>227.19999694824</ele>
        <time>2015-11-04T13:13:38Z</time>
      </trkpt>
      <trkpt lat="43.4159" lon="6.0543">
        <ele>227</ele>
        <time>2015-11-04T13:13:40Z</time>
      </trkpt>
      <trkpt lat="43.41586" lon="6.05413">
        <ele>227</ele>
        <time>2015-11-04T13:13:42Z</time>
      </trkpt>
      <trkpt lat="43.4158" lon="6.05397">
        <ele>227.19999694824</ele>
        <time>2015-11-04T13:13:44Z</time>
      </trkpt>
      <trkpt lat="43.41574" lon="6.05381">
        <ele>227.19999694824</ele>
        <time>2015-11-04T13:13:46Z</time>
      </trkpt>
      <trkpt lat="43.41569" lon="6.05366">
        <ele>226.80000305176</ele>
        <time>2015-11-04T13:13:48Z</time>
      </trkpt>
      <trkpt lat="43.41562" lon="6.0535">
        <ele>226.60000610352</ele>
        <time>2015-11-04T13:13:50Z</time>
      </trkpt>
      <trkpt lat="43.41555" lon="6.05335">
        <ele>227</ele>
        <time>2015-11-04T13:13:52Z</time>
      </trkpt>
      <trkpt lat="43.4155" lon="6.05319">
        <ele>226.39999389648</ele>
        <time>2015-11-04T13:13:54Z</time>
      </trkpt>
      <trkpt lat="43.41545" lon="6.05303">
        <ele>225.80000305176</ele>
        <time>2015-11-04T13:13:56Z</time>
      </trkpt>
      <trkpt lat="43.41541" lon="6.05289">
        <ele>225.80000305176</ele>
        <time>2015-11-04T13:13:58Z</time>
      </trkpt>
      <trkpt lat="43.41537" lon="6.05274">
        <ele>225.60000610352</ele>
        <time>2015-11-04T13:14:00Z</time>
      </trkpt>
      <trkpt lat="43.41525" lon="6.05245">
        <ele>225</ele>
        <time>2015-11-04T13:14:04Z</time>
      </trkpt>
      <trkpt lat="43.41522" lon="6.05238">
        <ele>224.60000610352</ele>
        <time>2015-11-04T13:14:05Z</time>
      </trkpt>
      <trkpt lat="43.41519" lon="6.05231">
        <ele>224.39999389648</ele>
        <time>2015-11-04T13:14:06Z</time>
      </trkpt>
      <trkpt lat="43.41513" lon="6.05218">
        <ele>224.19999694824</ele>
        <time>2015-11-04T13:14:08Z</time>
      </trkpt>
      <trkpt lat="43.41507" lon="6.05204">
        <ele>223.80000305176</ele>
        <time>2015-11-04T13:14:10Z</time>
      </trkpt>
      <trkpt lat="43.41501" lon="6.05191">
        <ele>223.80000305176</ele>
        <time>2015-11-04T13:14:12Z</time>
      </trkpt>
      <trkpt lat="43.41499" lon="6.05186">
        <ele>223.80000305176</ele>
        <time>2015-11-04T13:14:13Z</time>
      </trkpt>
      <trkpt lat="43.41496" lon="6.05181">
        <ele>223.80000305176</ele>
        <time>2015-11-04T13:14:14Z</time>
      </trkpt>
      <trkpt lat="43.41493" lon="6.05172">
        <ele>223.80000305176</ele>
        <time>2015-11-04T13:14:16Z</time>
      </trkpt>
      <trkpt lat="43.41494" lon="6.05167">
        <ele>224</ele>
        <time>2015-11-04T13:14:17Z</time>
      </trkpt>
      <trkpt lat="43.41496" lon="6.05163">
        <ele>224</ele>
        <time>2015-11-04T13:14:18Z</time>
      </trkpt>
      <trkpt lat="43.41502" lon="6.05159">
        <ele>223.80000305176</ele>
        <time>2015-11-04T13:14:19Z</time>
      </trkpt>
      <trkpt lat="43.41502" lon="6.05159">
        <ele>223.80000305176</ele>
        <time>2015-11-04T13:14:20Z</time>
      </trkpt>
      <trkpt lat="43.41509" lon="6.05157">
        <ele>224.19999694824</ele>
        <time>2015-11-04T13:14:22Z</time>
      </trkpt>
      <trkpt lat="43.41513" lon="6.05157">
        <ele>224.19999694824</ele>
        <time>2015-11-04T13:14:23Z</time>
      </trkpt>
      <trkpt lat="43.41517" lon="6.05156">
        <ele>224</ele>
        <time>2015-11-04T13:14:24Z</time>
      </trkpt>
      <trkpt lat="43.41525" lon="6.05155">
        <ele>224.19999694824</ele>
        <time>2015-11-04T13:14:26Z</time>
      </trkpt>
      <trkpt lat="43.41532" lon="6.05154">
        <ele>224.39999389648</ele>
        <time>2015-11-04T13:14:28Z</time>
      </trkpt>
      <trkpt lat="43.41539" lon="6.05153">
        <ele>224.80000305176</ele>
        <time>2015-11-04T13:14:30Z</time>
      </trkpt>
      <trkpt lat="43.41546" lon="6.05153">
        <ele>225.39999389648</ele>
        <time>2015-11-04T13:14:32Z</time>
      </trkpt>
      <trkpt lat="43.4155" lon="6.05154">
        <ele>225.60000610352</ele>
        <time>2015-11-04T13:14:33Z</time>
      </trkpt>
      <trkpt lat="43.41553" lon="6.05154">
        <ele>225.60000610352</ele>
        <time>2015-11-04T13:14:34Z</time>
      </trkpt>
      <trkpt lat="43.4156" lon="6.05155">
        <ele>226.19999694824</ele>
        <time>2015-11-04T13:14:36Z</time>
      </trkpt>
      <trkpt lat="43.41565" lon="6.05156">
        <ele>227</ele>
        <time>2015-11-04T13:14:38Z</time>
      </trkpt>
      <trkpt lat="43.41568" lon="6.05157">
        <ele>227.19999694824</ele>
        <time>2015-11-04T13:14:39Z</time>
      </trkpt>
      <trkpt lat="43.41571" lon="6.05157">
        <ele>227.60000610352</ele>
        <time>2015-11-04T13:14:40Z</time>
      </trkpt>
      <trkpt lat="43.41576" lon="6.05158">
        <ele>228</ele>
        <time>2015-11-04T13:14:42Z</time>
      </trkpt>
      <trkpt lat="43.41582" lon="6.0516">
        <ele>228.39999389648</ele>
        <time>2015-11-04T13:14:44Z</time>
      </trkpt>
      <trkpt lat="43.41587" lon="6.0516">
        <ele>228.60000610352</ele>
        <time>2015-11-04T13:14:46Z</time>
      </trkpt>
      <trkpt lat="43.41593" lon="6.05161">
        <ele>229</ele>
        <time>2015-11-04T13:14:48Z</time>
      </trkpt>
      <trkpt lat="43.41598" lon="6.05161">
        <ele>229.19999694824</ele>
        <time>2015-11-04T13:14:50Z</time>
      </trkpt>
      <trkpt lat="43.41604" lon="6.05162">
        <ele>229.60000610352</ele>
        <time>2015-11-04T13:14:52Z</time>
      </trkpt>
      <trkpt lat="43.41609" lon="6.05163">
        <ele>230</ele>
        <time>2015-11-04T13:14:54Z</time>
      </trkpt>
      <trkpt lat="43.4162" lon="6.05164">
        <ele>230.60000610352</ele>
        <time>2015-11-04T13:14:58Z</time>
      </trkpt>
      <trkpt lat="43.41625" lon="6.05164">
        <ele>231</ele>
        <time>2015-11-04T13:15:00Z</time>
      </trkpt>
      <trkpt lat="43.41635" lon="6.05165">
        <ele>231.39999389648</ele>
        <time>2015-11-04T13:15:04Z</time>
      </trkpt>
      <trkpt lat="43.4164" lon="6.05166">
        <ele>231.80000305176</ele>
        <time>2015-11-04T13:15:06Z</time>
      </trkpt>
      <trkpt lat="43.41644" lon="6.05166">
        <ele>231.80000305176</ele>
        <time>2015-11-04T13:15:08Z</time>
      </trkpt>
      <trkpt lat="43.41647" lon="6.05167">
        <ele>232.39999389648</ele>
        <time>2015-11-04T13:15:09Z</time>
      </trkpt>
      <trkpt lat="43.41653" lon="6.05167">
        <ele>233.19999694824</ele>
        <time>2015-11-04T13:15:12Z</time>
      </trkpt>
      <trkpt lat="43.41654" lon="6.05167">
        <ele>233.39999389648</ele>
        <time>2015-11-04T13:15:13Z</time>
      </trkpt>
      <trkpt lat="43.41656" lon="6.05167">
        <ele>233.60000610352</ele>
        <time>2015-11-04T13:15:14Z</time>
      </trkpt>
      <trkpt lat="43.4166" lon="6.05165">
        <ele>233.80000305176</ele>
        <time>2015-11-04T13:15:16Z</time>
      </trkpt>
      <trkpt lat="43.41663" lon="6.05163">
        <ele>234</ele>
        <time>2015-11-04T13:15:18Z</time>
      </trkpt>
      <trkpt lat="43.41668" lon="6.05162">
        <ele>234.19999694824</ele>
        <time>2015-11-04T13:15:20Z</time>
      </trkpt>
      <trkpt lat="43.41671" lon="6.05159">
        <ele>234.19999694824</ele>
        <time>2015-11-04T13:15:22Z</time>
      </trkpt>
      <trkpt lat="43.41674" lon="6.05156">
        <ele>234.80000305176</ele>
        <time>2015-11-04T13:15:24Z</time>
      </trkpt>
      <trkpt lat="43.41677" lon="6.05151">
        <ele>235.19999694824</ele>
        <time>2015-11-04T13:15:26Z</time>
      </trkpt>
      <trkpt lat="43.4168" lon="6.05146">
        <ele>235.19999694824</ele>
        <time>2015-11-04T13:15:28Z</time>
      </trkpt>
      <trkpt lat="43.41684" lon="6.05142">
        <ele>235.39999389648</ele>
        <time>2015-11-04T13:15:30Z</time>
      </trkpt>
      <trkpt lat="43.4169" lon="6.05134">
        <ele>236</ele>
        <time>2015-11-04T13:15:34Z</time>
      </trkpt>
      <trkpt lat="43.41693" lon="6.0513">
        <ele>236.19999694824</ele>
        <time>2015-11-04T13:15:36Z</time>
      </trkpt>
      <trkpt lat="43.41702" lon="6.05122">
        <ele>236.60000610352</ele>
        <time>2015-11-04T13:15:40Z</time>
      </trkpt>
      <trkpt lat="43.41706" lon="6.05119">
        <ele>236.80000305176</ele>
        <time>2015-11-04T13:15:42Z</time>
      </trkpt>
      <trkpt lat="43.4171" lon="6.05117">
        <ele>237.19999694824</ele>
        <time>2015-11-04T13:15:44Z</time>
      </trkpt>
      <trkpt lat="43.41714" lon="6.05114">
        <ele>237.39999389648</ele>
        <time>2015-11-04T13:15:46Z</time>
      </trkpt>
      <trkpt lat="43.41722" lon="6.05108">
        <ele>238</ele>
        <time>2015-11-04T13:15:50Z</time>
      </trkpt>
      <trkpt lat="43.41726" lon="6.05106">
        <ele>238</ele>
        <time>2015-11-04T13:15:52Z</time>
      </trkpt>
      <trkpt lat="43.41727" lon="6.05106">
        <ele>238.39999389648</ele>
        <time>2015-11-04T13:15:53Z</time>
      </trkpt>
      <trkpt lat="43.41729" lon="6.05106">
        <ele>238.60000610352</ele>
        <time>2015-11-04T13:15:54Z</time>
      </trkpt>
      <trkpt lat="43.41733" lon="6.05107">
        <ele>238.60000610352</ele>
        <time>2015-11-04T13:15:56Z</time>
      </trkpt>
      <trkpt lat="43.41735" lon="6.05109">
        <ele>239</ele>
        <time>2015-11-04T13:15:57Z</time>
      </trkpt>
      <trkpt lat="43.41736" lon="6.05112">
        <ele>239</ele>
        <time>2015-11-04T13:15:58Z</time>
      </trkpt>
      <trkpt lat="43.41737" lon="6.05117">
        <ele>239.80000305176</ele>
        <time>2015-11-04T13:16:00Z</time>
      </trkpt>
      <trkpt lat="43.41737" lon="6.05124">
        <ele>240</ele>
        <time>2015-11-04T13:16:02Z</time>
      </trkpt>
      <trkpt lat="43.41737" lon="6.05127">
        <ele>240</ele>
        <time>2015-11-04T13:16:03Z</time>
      </trkpt>
      <trkpt lat="43.41737" lon="6.0513">
        <ele>240</ele>
        <time>2015-11-04T13:16:04Z</time>
      </trkpt>
      <trkpt lat="43.41736" lon="6.05137">
        <ele>240</ele>
        <time>2015-11-04T13:16:06Z</time>
      </trkpt>
      <trkpt lat="43.41736" lon="6.05144">
        <ele>240</ele>
        <time>2015-11-04T13:16:08Z</time>
      </trkpt>
      <trkpt lat="43.41736" lon="6.0515">
        <ele>240.19999694824</ele>
        <time>2015-11-04T13:16:10Z</time>
      </trkpt>
      <trkpt lat="43.41736" lon="6.05155">
        <ele>240.19999694824</ele>
        <time>2015-11-04T13:16:12Z</time>
      </trkpt>
      <trkpt lat="43.41737" lon="6.05161">
        <ele>240.39999389648</ele>
        <time>2015-11-04T13:16:14Z</time>
      </trkpt>
      <trkpt lat="43.41738" lon="6.05166">
        <ele>240.39999389648</ele>
        <time>2015-11-04T13:16:16Z</time>
      </trkpt>
      <trkpt lat="43.4174" lon="6.0517">
        <ele>240.39999389648</ele>
        <time>2015-11-04T13:16:18Z</time>
      </trkpt>
      <trkpt lat="43.41743" lon="6.05174">
        <ele>240.39999389648</ele>
        <time>2015-11-04T13:16:20Z</time>
      </trkpt>
      <trkpt lat="43.41748" lon="6.05176">
        <ele>240.39999389648</ele>
        <time>2015-11-04T13:16:22Z</time>
      </trkpt>
      <trkpt lat="43.41752" lon="6.05178">
        <ele>240.80000305176</ele>
        <time>2015-11-04T13:16:24Z</time>
      </trkpt>
      <trkpt lat="43.41757" lon="6.05178">
        <ele>241</ele>
        <time>2015-11-04T13:16:26Z</time>
      </trkpt>
      <trkpt lat="43.41771" lon="6.05179">
        <ele>241.80000305176</ele>
        <time>2015-11-04T13:16:32Z</time>
      </trkpt>
      <trkpt lat="43.41774" lon="6.05179">
        <ele>242</ele>
        <time>2015-11-04T13:16:33Z</time>
      </trkpt>
      <trkpt lat="43.41781" lon="6.05179">
        <ele>242.39999389648</ele>
        <time>2015-11-04T13:16:36Z</time>
      </trkpt>
      <trkpt lat="43.41786" lon="6.05181">
        <ele>242.60000610352</ele>
        <time>2015-11-04T13:16:38Z</time>
      </trkpt>
      <trkpt lat="43.41796" lon="6.05181">
        <ele>243</ele>
        <time>2015-11-04T13:16:42Z</time>
      </trkpt>
      <trkpt lat="43.41801" lon="6.05182">
        <ele>243.19999694824</ele>
        <time>2015-11-04T13:16:44Z</time>
      </trkpt>
      <trkpt lat="43.41812" lon="6.05182">
        <ele>243.80000305176</ele>
        <time>2015-11-04T13:16:48Z</time>
      </trkpt>
      <trkpt lat="43.41814" lon="6.05182">
        <ele>244</ele>
        <time>2015-11-04T13:16:49Z</time>
      </trkpt>
      <trkpt lat="43.41817" lon="6.05183">
        <ele>244.19999694824</ele>
        <time>2015-11-04T13:16:50Z</time>
      </trkpt>
      <trkpt lat="43.41823" lon="6.05183">
        <ele>244.39999389648</ele>
        <time>2015-11-04T13:16:52Z</time>
      </trkpt>
      <trkpt lat="43.41834" lon="6.05184">
        <ele>245</ele>
        <time>2015-11-04T13:16:57Z</time>
      </trkpt>
      <trkpt lat="43.41839" lon="6.05184">
        <ele>245.19999694824</ele>
        <time>2015-11-04T13:16:59Z</time>
      </trkpt>
      <trkpt lat="43.41848" lon="6.05183">
        <ele>246</ele>
        <time>2015-11-04T13:17:03Z</time>
      </trkpt>
      <trkpt lat="43.41853" lon="6.05182">
        <ele>246.39999389648</ele>
        <time>2015-11-04T13:17:05Z</time>
      </trkpt>
      <trkpt lat="43.41863" lon="6.05179">
        <ele>246.80000305176</ele>
        <time>2015-11-04T13:17:09Z</time>
      </trkpt>
      <trkpt lat="43.41868" lon="6.05177">
        <ele>247</ele>
        <time>2015-11-04T13:17:11Z</time>
      </trkpt>
      <trkpt lat="43.4187" lon="6.05176">
        <ele>247.19999694824</ele>
        <time>2015-11-04T13:17:12Z</time>
      </trkpt>
      <trkpt lat="43.41872" lon="6.05175">
        <ele>247.19999694824</ele>
        <time>2015-11-04T13:17:13Z</time>
      </trkpt>
      <trkpt lat="43.41874" lon="6.05175">
        <ele>247.39999389648</ele>
        <time>2015-11-04T13:17:14Z</time>
      </trkpt>
      <trkpt lat="43.41877" lon="6.05175">
        <ele>247.39999389648</ele>
        <time>2015-11-04T13:17:15Z</time>
      </trkpt>
      <trkpt lat="43.41877" lon="6.05174">
        <ele>247.80000305176</ele>
        <time>2015-11-04T13:17:18Z</time>
      </trkpt>
      <trkpt lat="43.41877" lon="6.05174">
        <ele>248</ele>
        <time>2015-11-04T13:17:20Z</time>
      </trkpt>
      <trkpt lat="43.41876" lon="6.05173">
        <ele>248.19999694824</ele>
        <time>2015-11-04T13:17:22Z</time>
      </trkpt>
      <trkpt lat="43.41876" lon="6.05173">
        <ele>248.39999389648</ele>
        <time>2015-11-04T13:17:23Z</time>
      </trkpt>
      <trkpt lat="43.41877" lon="6.05173">
        <ele>248.60000610352</ele>
        <time>2015-11-04T13:17:24Z</time>
      </trkpt>
      <trkpt lat="43.41879" lon="6.05172">
        <ele>248.80000305176</ele>
        <time>2015-11-04T13:17:26Z</time>
      </trkpt>
      <trkpt lat="43.41882" lon="6.0517">
        <ele>249</ele>
        <time>2015-11-04T13:17:28Z</time>
      </trkpt>
      <trkpt lat="43.41883" lon="6.05169">
        <ele>249.19999694824</ele>
        <time>2015-11-04T13:17:29Z</time>
      </trkpt>
      <trkpt lat="43.41885" lon="6.05168">
        <ele>249.19999694824</ele>
        <time>2015-11-04T13:17:30Z</time>
      </trkpt>
      <trkpt lat="43.41888" lon="6.05167">
        <ele>249.60000610352</ele>
        <time>2015-11-04T13:17:32Z</time>
      </trkpt>
      <trkpt lat="43.4189" lon="6.05166">
        <ele>249.80000305176</ele>
        <time>2015-11-04T13:17:33Z</time>
      </trkpt>
      <trkpt lat="43.41892" lon="6.05163">
        <ele>250</ele>
        <time>2015-11-04T13:17:34Z</time>
      </trkpt>
      <trkpt lat="43.41896" lon="6.05161">
        <ele>250.19999694824</ele>
        <time>2015-11-04T13:17:36Z</time>
      </trkpt>
      <trkpt lat="43.41898" lon="6.05162">
        <ele>250.39999389648</ele>
        <time>2015-11-04T13:17:37Z</time>
      </trkpt>
      <trkpt lat="43.41903" lon="6.05164">
        <ele>250.60000610352</ele>
        <time>2015-11-04T13:17:38Z</time>
      </trkpt>
      <trkpt lat="43.41917" lon="6.05161">
        <ele>250.39999389648</ele>
        <time>2015-11-04T13:17:40Z</time>
      </trkpt>
      <trkpt lat="43.41922" lon="6.0516">
        <ele>250.60000610352</ele>
        <time>2015-11-04T13:17:41Z</time>
      </trkpt>
      <trkpt lat="43.41925" lon="6.05158">
        <ele>250.80000305176</ele>
        <time>2015-11-04T13:17:42Z</time>
      </trkpt>
      <trkpt lat="43.41932" lon="6.05155">
        <ele>251</ele>
        <time>2015-11-04T13:17:44Z</time>
      </trkpt>
      <trkpt lat="43.41938" lon="6.05151">
        <ele>251</ele>
        <time>2015-11-04T13:17:46Z</time>
      </trkpt>
      <trkpt lat="43.41948" lon="6.05146">
        <ele>251.60000610352</ele>
        <time>2015-11-04T13:17:49Z</time>
      </trkpt>
      <trkpt lat="43.41951" lon="6.05145">
        <ele>251.60000610352</ele>
        <time>2015-11-04T13:17:50Z</time>
      </trkpt>
      <trkpt lat="43.41956" lon="6.05142">
        <ele>252</ele>
        <time>2015-11-04T13:17:52Z</time>
      </trkpt>
      <trkpt lat="43.41961" lon="6.05139">
        <ele>252.19999694824</ele>
        <time>2015-11-04T13:17:54Z</time>
      </trkpt>
      <trkpt lat="43.41967" lon="6.05136">
        <ele>252.39999389648</ele>
        <time>2015-11-04T13:17:56Z</time>
      </trkpt>
      <trkpt lat="43.41971" lon="6.05134">
        <ele>252.80000305176</ele>
        <time>2015-11-04T13:17:58Z</time>
      </trkpt>
      <trkpt lat="43.41976" lon="6.05133">
        <ele>253.19999694824</ele>
        <time>2015-11-04T13:18:00Z</time>
      </trkpt>
      <trkpt lat="43.41981" lon="6.05132">
        <ele>253.19999694824</ele>
        <time>2015-11-04T13:18:02Z</time>
      </trkpt>
      <trkpt lat="43.41987" lon="6.05132">
        <ele>253.60000610352</ele>
        <time>2015-11-04T13:18:04Z</time>
      </trkpt>
      <trkpt lat="43.41992" lon="6.05133">
        <ele>253.60000610352</ele>
        <time>2015-11-04T13:18:06Z</time>
      </trkpt>
      <trkpt lat="43.41999" lon="6.0513">
        <ele>254</ele>
        <time>2015-11-04T13:18:09Z</time>
      </trkpt>
      <trkpt lat="43.42002" lon="6.05129">
        <ele>254.19999694824</ele>
        <time>2015-11-04T13:18:10Z</time>
      </trkpt>
      <trkpt lat="43.42008" lon="6.05129">
        <ele>254.39999389648</ele>
        <time>2015-11-04T13:18:12Z</time>
      </trkpt>
      <trkpt lat="43.42013" lon="6.05129">
        <ele>254.39999389648</ele>
        <time>2015-11-04T13:18:14Z</time>
      </trkpt>
      <trkpt lat="43.42018" lon="6.05127">
        <ele>254.60000610352</ele>
        <time>2015-11-04T13:18:16Z</time>
      </trkpt>
      <trkpt lat="43.42023" lon="6.05125">
        <ele>254.60000610352</ele>
        <time>2015-11-04T13:18:18Z</time>
      </trkpt>
      <trkpt lat="43.42028" lon="6.05123">
        <ele>254.60000610352</ele>
        <time>2015-11-04T13:18:20Z</time>
      </trkpt>
      <trkpt lat="43.42031" lon="6.05121">
        <ele>254.60000610352</ele>
        <time>2015-11-04T13:18:21Z</time>
      </trkpt>
      <trkpt lat="43.42033" lon="6.0512">
        <ele>254.80000305176</ele>
        <time>2015-11-04T13:18:22Z</time>
      </trkpt>
      <trkpt lat="43.42038" lon="6.05119">
        <ele>255</ele>
        <time>2015-11-04T13:18:24Z</time>
      </trkpt>
      <trkpt lat="43.42043" lon="6.05118">
        <ele>255</ele>
        <time>2015-11-04T13:18:26Z</time>
      </trkpt>
      <trkpt lat="43.42047" lon="6.05117">
        <ele>255.60000610352</ele>
        <time>2015-11-04T13:18:28Z</time>
      </trkpt>
      <trkpt lat="43.42051" lon="6.05116">
        <ele>255.39999389648</ele>
        <time>2015-11-04T13:18:30Z</time>
      </trkpt>
      <trkpt lat="43.42056" lon="6.05115">
        <ele>255.80000305176</ele>
        <time>2015-11-04T13:18:32Z</time>
      </trkpt>
      <trkpt lat="43.4206" lon="6.05113">
        <ele>255.80000305176</ele>
        <time>2015-11-04T13:18:34Z</time>
      </trkpt>
      <trkpt lat="43.42064" lon="6.05113">
        <ele>256</ele>
        <time>2015-11-04T13:18:36Z</time>
      </trkpt>
      <trkpt lat="43.42069" lon="6.05112">
        <ele>256.39999389648</ele>
        <time>2015-11-04T13:18:38Z</time>
      </trkpt>
      <trkpt lat="43.42073" lon="6.05112">
        <ele>256.60000610352</ele>
        <time>2015-11-04T13:18:40Z</time>
      </trkpt>
      <trkpt lat="43.42079" lon="6.05112">
        <ele>256.79998779297</ele>
        <time>2015-11-04T13:18:42Z</time>
      </trkpt>
      <trkpt lat="43.42084" lon="6.05113">
        <ele>256.79998779297</ele>
        <time>2015-11-04T13:18:44Z</time>
      </trkpt>
      <trkpt lat="43.42089" lon="6.05113">
        <ele>257.20001220703</ele>
        <time>2015-11-04T13:18:46Z</time>
      </trkpt>
      <trkpt lat="43.42094" lon="6.05114">
        <ele>257.20001220703</ele>
        <time>2015-11-04T13:18:48Z</time>
      </trkpt>
      <trkpt lat="43.42099" lon="6.05114">
        <ele>257.60000610352</ele>
        <time>2015-11-04T13:18:50Z</time>
      </trkpt>
      <trkpt lat="43.42102" lon="6.05114">
        <ele>257.79998779297</ele>
        <time>2015-11-04T13:18:51Z</time>
      </trkpt>
      <trkpt lat="43.4211" lon="6.05113">
        <ele>258.20001220703</ele>
        <time>2015-11-04T13:18:54Z</time>
      </trkpt>
      <trkpt lat="43.42115" lon="6.05113">
        <ele>258.39999389648</ele>
        <time>2015-11-04T13:18:56Z</time>
      </trkpt>
      <trkpt lat="43.4212" lon="6.05113">
        <ele>259</ele>
        <time>2015-11-04T13:18:58Z</time>
      </trkpt>
      <trkpt lat="43.42122" lon="6.05113">
        <ele>259.20001220703</ele>
        <time>2015-11-04T13:18:59Z</time>
      </trkpt>
      <trkpt lat="43.42123" lon="6.05113">
        <ele>259.20001220703</ele>
        <time>2015-11-04T13:19:00Z</time>
      </trkpt>
      <trkpt lat="43.42125" lon="6.05114">
        <ele>259.60000610352</ele>
        <time>2015-11-04T13:19:02Z</time>
      </trkpt>
      <trkpt lat="43.42126" lon="6.05114">
        <ele>259.79998779297</ele>
        <time>2015-11-04T13:19:04Z</time>
      </trkpt>
      <trkpt lat="43.42126" lon="6.05115">
        <ele>259.79998779297</ele>
        <time>2015-11-04T13:19:06Z</time>
      </trkpt>
      <trkpt lat="43.42126" lon="6.05114">
        <ele>259.79998779297</ele>
        <time>2015-11-04T13:19:08Z</time>
      </trkpt>
      <trkpt lat="43.42126" lon="6.05114">
        <ele>259.60000610352</ele>
        <time>2015-11-04T13:19:14Z</time>
      </trkpt>
      <trkpt lat="43.42126" lon="6.05114">
        <ele>259.79998779297</ele>
        <time>2015-11-04T13:19:42Z</time>
      </trkpt>
      <trkpt lat="43.42126" lon="6.05115">
        <ele>259.79998779297</ele>
        <time>2015-11-04T13:19:44Z</time>
      </trkpt>
      <trkpt lat="43.42126" lon="6.05115">
        <ele>260</ele>
        <time>2015-11-04T13:19:50Z</time>
      </trkpt>
      <trkpt lat="43.42126" lon="6.05115">
        <ele>259.20001220703</ele>
        <time>2015-11-04T13:20:22Z</time>
      </trkpt>
      <trkpt lat="43.42126" lon="6.05115">
        <ele>259.20001220703</ele>
        <time>2015-11-04T13:20:24Z</time>
      </trkpt>
      <trkpt lat="43.42126" lon="6.05115">
        <ele>259.39999389648</ele>
        <time>2015-11-04T13:20:30Z</time>
      </trkpt>
      <trkpt lat="43.42126" lon="6.05115">
        <ele>259.79998779297</ele>
        <time>2015-11-04T13:20:38Z</time>
      </trkpt>
      <trkpt lat="43.42126" lon="6.05115">
        <ele>260</ele>
        <time>2015-11-04T13:20:42Z</time>
      </trkpt>
      <trkpt lat="43.42126" lon="6.05115">
        <ele>259.79998779297</ele>
        <time>2015-11-04T13:20:44Z</time>
      </trkpt>
      <trkpt lat="43.42126" lon="6.05115">
        <ele>259.60000610352</ele>
        <time>2015-11-04T13:20:46Z</time>
      </trkpt>
      <trkpt lat="43.42128" lon="6.05117">
        <ele>259.79998779297</ele>
        <time>2015-11-04T13:20:47Z</time>
      </trkpt>
      <trkpt lat="43.42129" lon="6.0512">
        <ele>259.79998779297</ele>
        <time>2015-11-04T13:20:48Z</time>
      </trkpt>
      <trkpt lat="43.42133" lon="6.05126">
        <ele>260</ele>
        <time>2015-11-04T13:20:50Z</time>
      </trkpt>
      <trkpt lat="43.42138" lon="6.05133">
        <ele>260</ele>
        <time>2015-11-04T13:20:52Z</time>
      </trkpt>
      <trkpt lat="43.42143" lon="6.05139">
        <ele>260</ele>
        <time>2015-11-04T13:20:54Z</time>
      </trkpt>
      <trkpt lat="43.42148" lon="6.05145">
        <ele>260.39999389648</ele>
        <time>2015-11-04T13:20:56Z</time>
      </trkpt>
      <trkpt lat="43.42153" lon="6.0515">
        <ele>260.60000610352</ele>
        <time>2015-11-04T13:20:58Z</time>
      </trkpt>
      <trkpt lat="43.42158" lon="6.05154">
        <ele>261</ele>
        <time>2015-11-04T13:21:00Z</time>
      </trkpt>
      <trkpt lat="43.42163" lon="6.05157">
        <ele>261</ele>
        <time>2015-11-04T13:21:02Z</time>
      </trkpt>
      <trkpt lat="43.42168" lon="6.0516">
        <ele>261.20001220703</ele>
        <time>2015-11-04T13:21:04Z</time>
      </trkpt>
      <trkpt lat="43.42173" lon="6.05163">
        <ele>261.39999389648</ele>
        <time>2015-11-04T13:21:06Z</time>
      </trkpt>
      <trkpt lat="43.42178" lon="6.05167">
        <ele>261.39999389648</ele>
        <time>2015-11-04T13:21:08Z</time>
      </trkpt>
      <trkpt lat="43.42184" lon="6.0517">
        <ele>261.20001220703</ele>
        <time>2015-11-04T13:21:10Z</time>
      </trkpt>
      <trkpt lat="43.42189" lon="6.05174">
        <ele>261.79998779297</ele>
        <time>2015-11-04T13:21:12Z</time>
      </trkpt>
      <trkpt lat="43.42192" lon="6.05176">
        <ele>262</ele>
        <time>2015-11-04T13:21:13Z</time>
      </trkpt>
      <trkpt lat="43.422" lon="6.05182">
        <ele>262</ele>
        <time>2015-11-04T13:21:16Z</time>
      </trkpt>
      <trkpt lat="43.42205" lon="6.05185">
        <ele>262.39999389648</ele>
        <time>2015-11-04T13:21:18Z</time>
      </trkpt>
      <trkpt lat="43.4221" lon="6.05188">
        <ele>262.60000610352</ele>
        <time>2015-11-04T13:21:20Z</time>
      </trkpt>
      <trkpt lat="43.42216" lon="6.05191">
        <ele>263</ele>
        <time>2015-11-04T13:21:22Z</time>
      </trkpt>
      <trkpt lat="43.4222" lon="6.05194">
        <ele>263.39999389648</ele>
        <time>2015-11-04T13:21:24Z</time>
      </trkpt>
      <trkpt lat="43.42225" lon="6.05199">
        <ele>263.60000610352</ele>
        <time>2015-11-04T13:21:26Z</time>
      </trkpt>
      <trkpt lat="43.42229" lon="6.05204">
        <ele>263.79998779297</ele>
        <time>2015-11-04T13:21:28Z</time>
      </trkpt>
      <trkpt lat="43.42233" lon="6.0521">
        <ele>264.20001220703</ele>
        <time>2015-11-04T13:21:30Z</time>
      </trkpt>
      <trkpt lat="43.42238" lon="6.05212">
        <ele>264.39999389648</ele>
        <time>2015-11-04T13:21:32Z</time>
      </trkpt>
      <trkpt lat="43.42243" lon="6.05212">
        <ele>264.60000610352</ele>
        <time>2015-11-04T13:21:34Z</time>
      </trkpt>
      <trkpt lat="43.42249" lon="6.05212">
        <ele>265.20001220703</ele>
        <time>2015-11-04T13:21:36Z</time>
      </trkpt>
      <trkpt lat="43.42254" lon="6.05212">
        <ele>265.39999389648</ele>
        <time>2015-11-04T13:21:38Z</time>
      </trkpt>
      <trkpt lat="43.4226" lon="6.05212">
        <ele>265.60000610352</ele>
        <time>2015-11-04T13:21:40Z</time>
      </trkpt>
      <trkpt lat="43.42265" lon="6.05212">
        <ele>265.79998779297</ele>
        <time>2015-11-04T13:21:42Z</time>
      </trkpt>
      <trkpt lat="43.42276" lon="6.05213">
        <ele>266.20001220703</ele>
        <time>2015-11-04T13:21:46Z</time>
      </trkpt>
      <trkpt lat="43.42281" lon="6.05213">
        <ele>266.60000610352</ele>
        <time>2015-11-04T13:21:48Z</time>
      </trkpt>
      <trkpt lat="43.42286" lon="6.05215">
        <ele>266.60000610352</ele>
        <time>2015-11-04T13:21:50Z</time>
      </trkpt>
      <trkpt lat="43.42291" lon="6.05216">
        <ele>266.79998779297</ele>
        <time>2015-11-04T13:21:52Z</time>
      </trkpt>
      <trkpt lat="43.42295" lon="6.05217">
        <ele>267</ele>
        <time>2015-11-04T13:21:54Z</time>
      </trkpt>
      <trkpt lat="43.42297" lon="6.05218">
        <ele>267</ele>
        <time>2015-11-04T13:21:55Z</time>
      </trkpt>
      <trkpt lat="43.42302" lon="6.0522">
        <ele>267.39999389648</ele>
        <time>2015-11-04T13:21:58Z</time>
      </trkpt>
      <trkpt lat="43.42306" lon="6.05221">
        <ele>267.39999389648</ele>
        <time>2015-11-04T13:22:00Z</time>
      </trkpt>
      <trkpt lat="43.42307" lon="6.05221">
        <ele>267.39999389648</ele>
        <time>2015-11-04T13:22:01Z</time>
      </trkpt>
      <trkpt lat="43.42311" lon="6.05222">
        <ele>267.60000610352</ele>
        <time>2015-11-04T13:22:03Z</time>
      </trkpt>
      <trkpt lat="43.42313" lon="6.05221">
        <ele>267.79998779297</ele>
        <time>2015-11-04T13:22:04Z</time>
      </trkpt>
      <trkpt lat="43.42317" lon="6.05222">
        <ele>268</ele>
        <time>2015-11-04T13:22:06Z</time>
      </trkpt>
      <trkpt lat="43.42321" lon="6.05222">
        <ele>268.39999389648</ele>
        <time>2015-11-04T13:22:08Z</time>
      </trkpt>
      <trkpt lat="43.42325" lon="6.05223">
        <ele>268.60000610352</ele>
        <time>2015-11-04T13:22:10Z</time>
      </trkpt>
      <trkpt lat="43.42326" lon="6.05224">
        <ele>268.79998779297</ele>
        <time>2015-11-04T13:22:11Z</time>
      </trkpt>
      <trkpt lat="43.42327" lon="6.05225">
        <ele>269.20001220703</ele>
        <time>2015-11-04T13:22:12Z</time>
      </trkpt>
      <trkpt lat="43.4233" lon="6.05227">
        <ele>269.60000610352</ele>
        <time>2015-11-04T13:22:14Z</time>
      </trkpt>
      <trkpt lat="43.42331" lon="6.05227">
        <ele>269.60000610352</ele>
        <time>2015-11-04T13:22:15Z</time>
      </trkpt>
      <trkpt lat="43.42333" lon="6.05228">
        <ele>270</ele>
        <time>2015-11-04T13:22:16Z</time>
      </trkpt>
      <trkpt lat="43.42337" lon="6.05229">
        <ele>270.39999389648</ele>
        <time>2015-11-04T13:22:18Z</time>
      </trkpt>
      <trkpt lat="43.4234" lon="6.05229">
        <ele>270.79998779297</ele>
        <time>2015-11-04T13:22:20Z</time>
      </trkpt>
      <trkpt lat="43.42341" lon="6.0523">
        <ele>271</ele>
        <time>2015-11-04T13:22:21Z</time>
      </trkpt>
      <trkpt lat="43.42342" lon="6.0523">
        <ele>271</ele>
        <time>2015-11-04T13:22:22Z</time>
      </trkpt>
      <trkpt lat="43.42346" lon="6.05231">
        <ele>271.20001220703</ele>
        <time>2015-11-04T13:22:24Z</time>
      </trkpt>
      <trkpt lat="43.42349" lon="6.05231">
        <ele>271.39999389648</ele>
        <time>2015-11-04T13:22:26Z</time>
      </trkpt>
      <trkpt lat="43.42353" lon="6.05231">
        <ele>271.60000610352</ele>
        <time>2015-11-04T13:22:28Z</time>
      </trkpt>
      <trkpt lat="43.42355" lon="6.0523">
        <ele>271.79998779297</ele>
        <time>2015-11-04T13:22:30Z</time>
      </trkpt>
      <trkpt lat="43.42359" lon="6.05228">
        <ele>272</ele>
        <time>2015-11-04T13:22:32Z</time>
      </trkpt>
      <trkpt lat="43.42362" lon="6.05228">
        <ele>272</ele>
        <time>2015-11-04T13:22:34Z</time>
      </trkpt>
      <trkpt lat="43.42366" lon="6.05226">
        <ele>272.20001220703</ele>
        <time>2015-11-04T13:22:36Z</time>
      </trkpt>
      <trkpt lat="43.42369" lon="6.05225">
        <ele>272.60000610352</ele>
        <time>2015-11-04T13:22:38Z</time>
      </trkpt>
      <trkpt lat="43.42372" lon="6.05224">
        <ele>272.79998779297</ele>
        <time>2015-11-04T13:22:40Z</time>
      </trkpt>
      <trkpt lat="43.42375" lon="6.05224">
        <ele>272.79998779297</ele>
        <time>2015-11-04T13:22:42Z</time>
      </trkpt>
      <trkpt lat="43.4238" lon="6.05225">
        <ele>273.39999389648</ele>
        <time>2015-11-04T13:22:45Z</time>
      </trkpt>
      <trkpt lat="43.42386" lon="6.05224">
        <ele>274</ele>
        <time>2015-11-04T13:22:48Z</time>
      </trkpt>
      <trkpt lat="43.4239" lon="6.05223">
        <ele>273.79998779297</ele>
        <time>2015-11-04T13:22:50Z</time>
      </trkpt>
      <trkpt lat="43.42393" lon="6.05223">
        <ele>273.60000610352</ele>
        <time>2015-11-04T13:22:52Z</time>
      </trkpt>
      <trkpt lat="43.42397" lon="6.05222">
        <ele>274</ele>
        <time>2015-11-04T13:22:54Z</time>
      </trkpt>
      <trkpt lat="43.424" lon="6.05221">
        <ele>274</ele>
        <time>2015-11-04T13:22:56Z</time>
      </trkpt>
      <trkpt lat="43.42402" lon="6.0522">
        <ele>274.20001220703</ele>
        <time>2015-11-04T13:22:57Z</time>
      </trkpt>
      <trkpt lat="43.42404" lon="6.0522">
        <ele>274.39999389648</ele>
        <time>2015-11-04T13:22:58Z</time>
      </trkpt>
      <trkpt lat="43.42405" lon="6.0522">
        <ele>274.60000610352</ele>
        <time>2015-11-04T13:22:59Z</time>
      </trkpt>
      <trkpt lat="43.42407" lon="6.0522">
        <ele>274.60000610352</ele>
        <time>2015-11-04T13:23:00Z</time>
      </trkpt>
      <trkpt lat="43.42411" lon="6.05219">
        <ele>274.60000610352</ele>
        <time>2015-11-04T13:23:02Z</time>
      </trkpt>
      <trkpt lat="43.42414" lon="6.05219">
        <ele>274.60000610352</ele>
        <time>2015-11-04T13:23:04Z</time>
      </trkpt>
      <trkpt lat="43.42418" lon="6.05219">
        <ele>274.79998779297</ele>
        <time>2015-11-04T13:23:06Z</time>
      </trkpt>
      <trkpt lat="43.42422" lon="6.05219">
        <ele>274.79998779297</ele>
        <time>2015-11-04T13:23:08Z</time>
      </trkpt>
      <trkpt lat="43.4243" lon="6.05219">
        <ele>275</ele>
        <time>2015-11-04T13:23:12Z</time>
      </trkpt>
      <trkpt lat="43.42434" lon="6.05219">
        <ele>275</ele>
        <time>2015-11-04T13:23:14Z</time>
      </trkpt>
      <trkpt lat="43.42436" lon="6.05219">
        <ele>275.20001220703</ele>
        <time>2015-11-04T13:23:15Z</time>
      </trkpt>
      <trkpt lat="43.42438" lon="6.05218">
        <ele>275.39999389648</ele>
        <time>2015-11-04T13:23:16Z</time>
      </trkpt>
      <trkpt lat="43.42442" lon="6.05217">
        <ele>275.39999389648</ele>
        <time>2015-11-04T13:23:18Z</time>
      </trkpt>
      <trkpt lat="43.42448" lon="6.05216">
        <ele>275.60000610352</ele>
        <time>2015-11-04T13:23:20Z</time>
      </trkpt>
      <trkpt lat="43.42453" lon="6.05215">
        <ele>276</ele>
        <time>2015-11-04T13:23:22Z</time>
      </trkpt>
      <trkpt lat="43.42455" lon="6.05214">
        <ele>276.39999389648</ele>
        <time>2015-11-04T13:23:23Z</time>
      </trkpt>
      <trkpt lat="43.42456" lon="6.05213">
        <ele>277</ele>
        <time>2015-11-04T13:23:24Z</time>
      </trkpt>
      <trkpt lat="43.42459" lon="6.05212">
        <ele>277.79998779297</ele>
        <time>2015-11-04T13:23:26Z</time>
      </trkpt>
      <trkpt lat="43.42459" lon="6.05213">
        <ele>278.60000610352</ele>
        <time>2015-11-04T13:23:28Z</time>
      </trkpt>
      <trkpt lat="43.42459" lon="6.05214">
        <ele>278.39999389648</ele>
        <time>2015-11-04T13:23:30Z</time>
      </trkpt>
      <trkpt lat="43.4246" lon="6.05214">
        <ele>278.79998779297</ele>
        <time>2015-11-04T13:23:32Z</time>
      </trkpt>
      <trkpt lat="43.42461" lon="6.05214">
        <ele>279.20001220703</ele>
        <time>2015-11-04T13:23:34Z</time>
      </trkpt>
      <trkpt lat="43.42461" lon="6.05214">
        <ele>279.20001220703</ele>
        <time>2015-11-04T13:23:36Z</time>
      </trkpt>
      <trkpt lat="43.42463" lon="6.05214">
        <ele>279.20001220703</ele>
        <time>2015-11-04T13:23:38Z</time>
      </trkpt>
      <trkpt lat="43.42463" lon="6.05214">
        <ele>279.20001220703</ele>
        <time>2015-11-04T13:23:40Z</time>
      </trkpt>
      <trkpt lat="43.42463" lon="6.05214">
        <ele>279.39999389648</ele>
        <time>2015-11-04T13:23:46Z</time>
      </trkpt>
      <trkpt lat="43.42463" lon="6.05214">
        <ele>279.60000610352</ele>
        <time>2015-11-04T13:23:56Z</time>
      </trkpt>
      <trkpt lat="43.42463" lon="6.05214">
        <ele>279.60000610352</ele>
        <time>2015-11-04T13:23:58Z</time>
      </trkpt>
      <trkpt lat="43.42463" lon="6.05214">
        <ele>279.60000610352</ele>
        <time>2015-11-04T13:24:01Z</time>
      </trkpt>
      <trkpt lat="43.42464" lon="6.05214">
        <ele>279.60000610352</ele>
        <time>2015-11-04T13:24:02Z</time>
      </trkpt>
      <trkpt lat="43.42465" lon="6.05214">
        <ele>279.39999389648</ele>
        <time>2015-11-04T13:24:04Z</time>
      </trkpt>
      <trkpt lat="43.42469" lon="6.05213">
        <ele>279.39999389648</ele>
        <time>2015-11-04T13:24:06Z</time>
      </trkpt>
      <trkpt lat="43.42474" lon="6.05214">
        <ele>279.39999389648</ele>
        <time>2015-11-04T13:24:08Z</time>
      </trkpt>
      <trkpt lat="43.42481" lon="6.05214">
        <ele>279.39999389648</ele>
        <time>2015-11-04T13:24:10Z</time>
      </trkpt>
      <trkpt lat="43.42482" lon="6.05214">
        <ele>279.39999389648</ele>
        <time>2015-11-04T13:24:11Z</time>
      </trkpt>
      <trkpt lat="43.42488" lon="6.05217">
        <ele>279.39999389648</ele>
        <time>2015-11-04T13:24:13Z</time>
      </trkpt>
      <trkpt lat="43.42494" lon="6.05221">
        <ele>278.79998779297</ele>
        <time>2015-11-04T13:24:15Z</time>
      </trkpt>
      <trkpt lat="43.42497" lon="6.05222">
        <ele>278.60000610352</ele>
        <time>2015-11-04T13:24:16Z</time>
      </trkpt>
      <trkpt lat="43.42504" lon="6.05222">
        <ele>278.79998779297</ele>
        <time>2015-11-04T13:24:19Z</time>
      </trkpt>
      <trkpt lat="43.42509" lon="6.05223">
        <ele>279</ele>
        <time>2015-11-04T13:24:21Z</time>
      </trkpt>
      <trkpt lat="43.42514" lon="6.05224">
        <ele>279.20001220703</ele>
        <time>2015-11-04T13:24:23Z</time>
      </trkpt>
      <trkpt lat="43.42518" lon="6.05223">
        <ele>279.20001220703</ele>
        <time>2015-11-04T13:24:25Z</time>
      </trkpt>
      <trkpt lat="43.42522" lon="6.05223">
        <ele>279.39999389648</ele>
        <time>2015-11-04T13:24:27Z</time>
      </trkpt>
      <trkpt lat="43.42527" lon="6.05223">
        <ele>279.39999389648</ele>
        <time>2015-11-04T13:24:29Z</time>
      </trkpt>
      <trkpt lat="43.42529" lon="6.05223">
        <ele>279.39999389648</ele>
        <time>2015-11-04T13:24:30Z</time>
      </trkpt>
      <trkpt lat="43.4253" lon="6.05223">
        <ele>279.39999389648</ele>
        <time>2015-11-04T13:24:31Z</time>
      </trkpt>
      <trkpt lat="43.42535" lon="6.05222">
        <ele>279.39999389648</ele>
        <time>2015-11-04T13:24:33Z</time>
      </trkpt>
      <trkpt lat="43.4254" lon="6.0522">
        <ele>279.60000610352</ele>
        <time>2015-11-04T13:24:35Z</time>
      </trkpt>
      <trkpt lat="43.42544" lon="6.0522">
        <ele>280</ele>
        <time>2015-11-04T13:24:37Z</time>
      </trkpt>
      <trkpt lat="43.42545" lon="6.0522">
        <ele>280.20001220703</ele>
        <time>2015-11-04T13:24:38Z</time>
      </trkpt>
      <trkpt lat="43.42546" lon="6.0522">
        <ele>280.39999389648</ele>
        <time>2015-11-04T13:24:39Z</time>
      </trkpt>
      <trkpt lat="43.42547" lon="6.0522">
        <ele>281</ele>
        <time>2015-11-04T13:24:41Z</time>
      </trkpt>
      <trkpt lat="43.42547" lon="6.0522">
        <ele>281.20001220703</ele>
        <time>2015-11-04T13:24:43Z</time>
      </trkpt>
      <trkpt lat="43.42549" lon="6.05219">
        <ele>281.39999389648</ele>
        <time>2015-11-04T13:24:45Z</time>
      </trkpt>
      <trkpt lat="43.42551" lon="6.05218">
        <ele>281.60000610352</ele>
        <time>2015-11-04T13:24:47Z</time>
      </trkpt>
      <trkpt lat="43.42553" lon="6.05217">
        <ele>281.79998779297</ele>
        <time>2015-11-04T13:24:49Z</time>
      </trkpt>
      <trkpt lat="43.42554" lon="6.05217">
        <ele>281.79998779297</ele>
        <time>2015-11-04T13:24:51Z</time>
      </trkpt>
      <trkpt lat="43.42556" lon="6.05216">
        <ele>281.79998779297</ele>
        <time>2015-11-04T13:24:52Z</time>
      </trkpt>
      <trkpt lat="43.42556" lon="6.05216">
        <ele>282</ele>
        <time>2015-11-04T13:24:53Z</time>
      </trkpt>
      <trkpt lat="43.42556" lon="6.05216">
        <ele>282</ele>
        <time>2015-11-04T13:24:54Z</time>
      </trkpt>
      <trkpt lat="43.42557" lon="6.05216">
        <ele>282.20001220703</ele>
        <time>2015-11-04T13:24:55Z</time>
      </trkpt>
      <trkpt lat="43.42557" lon="6.05216">
        <ele>282.20001220703</ele>
        <time>2015-11-04T13:24:59Z</time>
      </trkpt>
      <trkpt lat="43.42557" lon="6.05216">
        <ele>282.60000610352</ele>
        <time>2015-11-04T13:25:02Z</time>
      </trkpt>
      <trkpt lat="43.4256" lon="6.05216">
        <ele>282.39999389648</ele>
        <time>2015-11-04T13:25:05Z</time>
      </trkpt>
      <trkpt lat="43.42564" lon="6.05217">
        <ele>282.20001220703</ele>
        <time>2015-11-04T13:25:07Z</time>
      </trkpt>
      <trkpt lat="43.42569" lon="6.05217">
        <ele>282</ele>
        <time>2015-11-04T13:25:09Z</time>
      </trkpt>
      <trkpt lat="43.42575" lon="6.0522">
        <ele>282</ele>
        <time>2015-11-04T13:25:11Z</time>
      </trkpt>
      <trkpt lat="43.42576" lon="6.0522">
        <ele>282</ele>
        <time>2015-11-04T13:25:12Z</time>
      </trkpt>
      <trkpt lat="43.4258" lon="6.05223">
        <ele>282.20001220703</ele>
        <time>2015-11-04T13:25:14Z</time>
      </trkpt>
      <trkpt lat="43.42585" lon="6.05227">
        <ele>282</ele>
        <time>2015-11-04T13:25:16Z</time>
      </trkpt>
      <trkpt lat="43.42588" lon="6.05229">
        <ele>282</ele>
        <time>2015-11-04T13:25:17Z</time>
      </trkpt>
      <trkpt lat="43.4259" lon="6.05231">
        <ele>282</ele>
        <time>2015-11-04T13:25:18Z</time>
      </trkpt>
      <trkpt lat="43.42599" lon="6.05239">
        <ele>282</ele>
        <time>2015-11-04T13:25:22Z</time>
      </trkpt>
      <trkpt lat="43.42603" lon="6.05242">
        <ele>282.20001220703</ele>
        <time>2015-11-04T13:25:24Z</time>
      </trkpt>
      <trkpt lat="43.42607" lon="6.05246">
        <ele>282.20001220703</ele>
        <time>2015-11-04T13:25:26Z</time>
      </trkpt>
      <trkpt lat="43.42613" lon="6.05251">
        <ele>282.20001220703</ele>
        <time>2015-11-04T13:25:28Z</time>
      </trkpt>
      <trkpt lat="43.42616" lon="6.05253">
        <ele>282</ele>
        <time>2015-11-04T13:25:29Z</time>
      </trkpt>
      <trkpt lat="43.42618" lon="6.05254">
        <ele>282.20001220703</ele>
        <time>2015-11-04T13:25:30Z</time>
      </trkpt>
      <trkpt lat="43.42621" lon="6.05255">
        <ele>283.39999389648</ele>
        <time>2015-11-04T13:25:32Z</time>
      </trkpt>
      <trkpt lat="43.42623" lon="6.05258">
        <ele>283.79998779297</ele>
        <time>2015-11-04T13:25:33Z</time>
      </trkpt>
      <trkpt lat="43.42624" lon="6.0526">
        <ele>283.79998779297</ele>
        <time>2015-11-04T13:25:34Z</time>
      </trkpt>
      <trkpt lat="43.42628" lon="6.05262">
        <ele>284</ele>
        <time>2015-11-04T13:25:36Z</time>
      </trkpt>
      <trkpt lat="43.4263" lon="6.05264">
        <ele>284.20001220703</ele>
        <time>2015-11-04T13:25:38Z</time>
      </trkpt>
      <trkpt lat="43.42632" lon="6.05267">
        <ele>284.60000610352</ele>
        <time>2015-11-04T13:25:40Z</time>
      </trkpt>
      <trkpt lat="43.42633" lon="6.05269">
        <ele>284.39999389648</ele>
        <time>2015-11-04T13:25:42Z</time>
      </trkpt>
      <trkpt lat="43.42635" lon="6.05272">
        <ele>284.60000610352</ele>
        <time>2015-11-04T13:25:44Z</time>
      </trkpt>
      <trkpt lat="43.4264" lon="6.05279">
        <ele>284.79998779297</ele>
        <time>2015-11-04T13:25:48Z</time>
      </trkpt>
      <trkpt lat="43.42643" lon="6.05281">
        <ele>285</ele>
        <time>2015-11-04T13:25:50Z</time>
      </trkpt>
      <trkpt lat="43.42646" lon="6.05284">
        <ele>285.20001220703</ele>
        <time>2015-11-04T13:25:52Z</time>
      </trkpt>
      <trkpt lat="43.42648" lon="6.05287">
        <ele>285.39999389648</ele>
        <time>2015-11-04T13:25:53Z</time>
      </trkpt>
      <trkpt lat="43.42649" lon="6.05288">
        <ele>285.39999389648</ele>
        <time>2015-11-04T13:25:54Z</time>
      </trkpt>
      <trkpt lat="43.42651" lon="6.05291">
        <ele>285.39999389648</ele>
        <time>2015-11-04T13:25:56Z</time>
      </trkpt>
      <trkpt lat="43.42653" lon="6.05295">
        <ele>286.20001220703</ele>
        <time>2015-11-04T13:25:58Z</time>
      </trkpt>
      <trkpt lat="43.42656" lon="6.05298">
        <ele>286.20001220703</ele>
        <time>2015-11-04T13:26:00Z</time>
      </trkpt>
      <trkpt lat="43.42658" lon="6.05301">
        <ele>286.39999389648</ele>
        <time>2015-11-04T13:26:02Z</time>
      </trkpt>
      <trkpt lat="43.42659" lon="6.05304">
        <ele>286.60000610352</ele>
        <time>2015-11-04T13:26:04Z</time>
      </trkpt>
      <trkpt lat="43.42663" lon="6.0531">
        <ele>287</ele>
        <time>2015-11-04T13:26:08Z</time>
      </trkpt>
      <trkpt lat="43.42664" lon="6.05313">
        <ele>287</ele>
        <time>2015-11-04T13:26:10Z</time>
      </trkpt>
      <trkpt lat="43.42665" lon="6.05314">
        <ele>287.20001220703</ele>
        <time>2015-11-04T13:26:11Z</time>
      </trkpt>
      <trkpt lat="43.42667" lon="6.05315">
        <ele>287.20001220703</ele>
        <time>2015-11-04T13:26:12Z</time>
      </trkpt>
      <trkpt lat="43.42668" lon="6.05318">
        <ele>287.60000610352</ele>
        <time>2015-11-04T13:26:15Z</time>
      </trkpt>
      <trkpt lat="43.42669" lon="6.05319">
        <ele>287.39999389648</ele>
        <time>2015-11-04T13:26:16Z</time>
      </trkpt>
      <trkpt lat="43.4267" lon="6.0532">
        <ele>287.39999389648</ele>
        <time>2015-11-04T13:26:17Z</time>
      </trkpt>
      <trkpt lat="43.42671" lon="6.05324">
        <ele>287.60000610352</ele>
        <time>2015-11-04T13:26:19Z</time>
      </trkpt>
      <trkpt lat="43.42672" lon="6.05325">
        <ele>287.79998779297</ele>
        <time>2015-11-04T13:26:21Z</time>
      </trkpt>
      <trkpt lat="43.42672" lon="6.05325">
        <ele>288</ele>
        <time>2015-11-04T13:26:22Z</time>
      </trkpt>
      <trkpt lat="43.42672" lon="6.05325">
        <ele>288.39999389648</ele>
        <time>2015-11-04T13:26:27Z</time>
      </trkpt>
      <trkpt lat="43.42672" lon="6.05325">
        <ele>288.39999389648</ele>
        <time>2015-11-04T13:26:29Z</time>
      </trkpt>
      <trkpt lat="43.42672" lon="6.05325">
        <ele>288.39999389648</ele>
        <time>2015-11-04T13:26:31Z</time>
      </trkpt>
      <trkpt lat="43.42672" lon="6.05325">
        <ele>288.79998779297</ele>
        <time>2015-11-04T13:26:35Z</time>
      </trkpt>
      <trkpt lat="43.42672" lon="6.05326">
        <ele>289</ele>
        <time>2015-11-04T13:26:37Z</time>
      </trkpt>
      <trkpt lat="43.42672" lon="6.05325">
        <ele>289</ele>
        <time>2015-11-04T13:26:38Z</time>
      </trkpt>
      <trkpt lat="43.42672" lon="6.05325">
        <ele>289.20001220703</ele>
        <time>2015-11-04T13:26:39Z</time>
      </trkpt>
      <trkpt lat="43.42672" lon="6.05325">
        <ele>289.39999389648</ele>
        <time>2015-11-04T13:26:40Z</time>
      </trkpt>
      <trkpt lat="43.42672" lon="6.05325">
        <ele>289.39999389648</ele>
        <time>2015-11-04T13:26:41Z</time>
      </trkpt>
      <trkpt lat="43.42672" lon="6.05325">
        <ele>289.39999389648</ele>
        <time>2015-11-04T13:26:45Z</time>
      </trkpt>
      <trkpt lat="43.42672" lon="6.05325">
        <ele>289.39999389648</ele>
        <time>2015-11-04T13:26:47Z</time>
      </trkpt>
      <trkpt lat="43.42672" lon="6.05325">
        <ele>289.39999389648</ele>
        <time>2015-11-04T13:26:49Z</time>
      </trkpt>
      <trkpt lat="43.42672" lon="6.05325">
        <ele>289.39999389648</ele>
        <time>2015-11-04T13:26:50Z</time>
      </trkpt>
      <trkpt lat="43.42672" lon="6.05325">
        <ele>289.39999389648</ele>
        <time>2015-11-04T13:26:51Z</time>
      </trkpt>
      <trkpt lat="43.42672" lon="6.05326">
        <ele>289.39999389648</ele>
        <time>2015-11-04T13:26:53Z</time>
      </trkpt>
      <trkpt lat="43.42677" lon="6.0533">
        <ele>289.39999389648</ele>
        <time>2015-11-04T13:26:55Z</time>
      </trkpt>
      <trkpt lat="43.42681" lon="6.05334">
        <ele>289.60000610352</ele>
        <time>2015-11-04T13:26:57Z</time>
      </trkpt>
      <trkpt lat="43.42685" lon="6.05335">
        <ele>289.79998779297</ele>
        <time>2015-11-04T13:26:59Z</time>
      </trkpt>
      <trkpt lat="43.42687" lon="6.05335">
        <ele>289.79998779297</ele>
        <time>2015-11-04T13:27:00Z</time>
      </trkpt>
      <trkpt lat="43.42689" lon="6.05335">
        <ele>289.79998779297</ele>
        <time>2015-11-04T13:27:01Z</time>
      </trkpt>
      <trkpt lat="43.42693" lon="6.05336">
        <ele>290</ele>
        <time>2015-11-04T13:27:03Z</time>
      </trkpt>
      <trkpt lat="43.42697" lon="6.05337">
        <ele>290.20001220703</ele>
        <time>2015-11-04T13:27:05Z</time>
      </trkpt>
      <trkpt lat="43.42699" lon="6.05337">
        <ele>290.39999389648</ele>
        <time>2015-11-04T13:27:06Z</time>
      </trkpt>
      <trkpt lat="43.42704" lon="6.05336">
        <ele>290.60000610352</ele>
        <time>2015-11-04T13:27:09Z</time>
      </trkpt>
      <trkpt lat="43.42708" lon="6.05336">
        <ele>290.79998779297</ele>
        <time>2015-11-04T13:27:11Z</time>
      </trkpt>
      <trkpt lat="43.42712" lon="6.05336">
        <ele>291</ele>
        <time>2015-11-04T13:27:13Z</time>
      </trkpt>
      <trkpt lat="43.42713" lon="6.05337">
        <ele>291.20001220703</ele>
        <time>2015-11-04T13:27:14Z</time>
      </trkpt>
      <trkpt lat="43.42715" lon="6.0534">
        <ele>291.60000610352</ele>
        <time>2015-11-04T13:27:16Z</time>
      </trkpt>
      <trkpt lat="43.42716" lon="6.05342">
        <ele>292</ele>
        <time>2015-11-04T13:27:18Z</time>
      </trkpt>
      <trkpt lat="43.42717" lon="6.05343">
        <ele>292.20001220703</ele>
        <time>2015-11-04T13:27:21Z</time>
      </trkpt>
      <trkpt lat="43.42717" lon="6.05343">
        <ele>292.20001220703</ele>
        <time>2015-11-04T13:27:23Z</time>
      </trkpt>
      <trkpt lat="43.42717" lon="6.05343">
        <ele>292.20001220703</ele>
        <time>2015-11-04T13:27:25Z</time>
      </trkpt>
      <trkpt lat="43.42717" lon="6.05343">
        <ele>292.20001220703</ele>
        <time>2015-11-04T13:27:26Z</time>
      </trkpt>
      <trkpt lat="43.42717" lon="6.05344">
        <ele>292</ele>
        <time>2015-11-04T13:27:27Z</time>
      </trkpt>
      <trkpt lat="43.42718" lon="6.05346">
        <ele>292</ele>
        <time>2015-11-04T13:27:28Z</time>
      </trkpt>
      <trkpt lat="43.42719" lon="6.05348">
        <ele>292.20001220703</ele>
        <time>2015-11-04T13:27:29Z</time>
      </trkpt>
      <trkpt lat="43.42718" lon="6.05354">
        <ele>292.39999389648</ele>
        <time>2015-11-04T13:27:31Z</time>
      </trkpt>
      <trkpt lat="43.42717" lon="6.05357">
        <ele>292.39999389648</ele>
        <time>2015-11-04T13:27:32Z</time>
      </trkpt>
      <trkpt lat="43.42717" lon="6.0536">
        <ele>292.39999389648</ele>
        <time>2015-11-04T13:27:33Z</time>
      </trkpt>
      <trkpt lat="43.42716" lon="6.05363">
        <ele>292.60000610352</ele>
        <time>2015-11-04T13:27:34Z</time>
      </trkpt>
      <trkpt lat="43.42715" lon="6.05365">
        <ele>292.60000610352</ele>
        <time>2015-11-04T13:27:35Z</time>
      </trkpt>
      <trkpt lat="43.42716" lon="6.05375">
        <ele>293.39999389648</ele>
        <time>2015-11-04T13:27:39Z</time>
      </trkpt>
      <trkpt lat="43.42716" lon="6.0538">
        <ele>293.60000610352</ele>
        <time>2015-11-04T13:27:41Z</time>
      </trkpt>
      <trkpt lat="43.42717" lon="6.05384">
        <ele>294</ele>
        <time>2015-11-04T13:27:43Z</time>
      </trkpt>
      <trkpt lat="43.42719" lon="6.05389">
        <ele>294.20001220703</ele>
        <time>2015-11-04T13:27:45Z</time>
      </trkpt>
      <trkpt lat="43.42719" lon="6.05391">
        <ele>294.20001220703</ele>
        <time>2015-11-04T13:27:46Z</time>
      </trkpt>
      <trkpt lat="43.4272" lon="6.05392">
        <ele>294.39999389648</ele>
        <time>2015-11-04T13:27:47Z</time>
      </trkpt>
      <trkpt lat="43.42722" lon="6.05396">
        <ele>294.79998779297</ele>
        <time>2015-11-04T13:27:49Z</time>
      </trkpt>
      <trkpt lat="43.42723" lon="6.05404">
        <ele>295.20001220703</ele>
        <time>2015-11-04T13:27:53Z</time>
      </trkpt>
      <trkpt lat="43.42725" lon="6.0541">
        <ele>296</ele>
        <time>2015-11-04T13:27:56Z</time>
      </trkpt>
      <trkpt lat="43.42726" lon="6.05412">
        <ele>296</ele>
        <time>2015-11-04T13:27:57Z</time>
      </trkpt>
      <trkpt lat="43.42728" lon="6.05421">
        <ele>296.39999389648</ele>
        <time>2015-11-04T13:28:01Z</time>
      </trkpt>
      <trkpt lat="43.42729" lon="6.05426">
        <ele>296.79998779297</ele>
        <time>2015-11-04T13:28:03Z</time>
      </trkpt>
      <trkpt lat="43.4273" lon="6.05432">
        <ele>297</ele>
        <time>2015-11-04T13:28:05Z</time>
      </trkpt>
      <trkpt lat="43.4273" lon="6.05437">
        <ele>296.79998779297</ele>
        <time>2015-11-04T13:28:07Z</time>
      </trkpt>
      <trkpt lat="43.4273" lon="6.05445">
        <ele>297.20001220703</ele>
        <time>2015-11-04T13:28:10Z</time>
      </trkpt>
      <trkpt lat="43.4273" lon="6.05447">
        <ele>297.39999389648</ele>
        <time>2015-11-04T13:28:11Z</time>
      </trkpt>
      <trkpt lat="43.4273" lon="6.05452">
        <ele>297.60000610352</ele>
        <time>2015-11-04T13:28:13Z</time>
      </trkpt>
      <trkpt lat="43.42729" lon="6.05455">
        <ele>297.79998779297</ele>
        <time>2015-11-04T13:28:14Z</time>
      </trkpt>
      <trkpt lat="43.42728" lon="6.05456">
        <ele>298.20001220703</ele>
        <time>2015-11-04T13:28:15Z</time>
      </trkpt>
      <trkpt lat="43.42727" lon="6.05458">
        <ele>298.20001220703</ele>
        <time>2015-11-04T13:28:16Z</time>
      </trkpt>
      <trkpt lat="43.42726" lon="6.0546">
        <ele>298.20001220703</ele>
        <time>2015-11-04T13:28:17Z</time>
      </trkpt>
      <trkpt lat="43.42725" lon="6.05464">
        <ele>298.79998779297</ele>
        <time>2015-11-04T13:28:19Z</time>
      </trkpt>
      <trkpt lat="43.42724" lon="6.05468">
        <ele>298.79998779297</ele>
        <time>2015-11-04T13:28:21Z</time>
      </trkpt>
      <trkpt lat="43.42723" lon="6.05472">
        <ele>299</ele>
        <time>2015-11-04T13:28:22Z</time>
      </trkpt>
      <trkpt lat="43.42723" lon="6.05478">
        <ele>299.20001220703</ele>
        <time>2015-11-04T13:28:25Z</time>
      </trkpt>
      <trkpt lat="43.42723" lon="6.05484">
        <ele>299.39999389648</ele>
        <time>2015-11-04T13:28:27Z</time>
      </trkpt>
      <trkpt lat="43.42724" lon="6.05486">
        <ele>299.39999389648</ele>
        <time>2015-11-04T13:28:28Z</time>
      </trkpt>
      <trkpt lat="43.42724" lon="6.05489">
        <ele>299.39999389648</ele>
        <time>2015-11-04T13:28:29Z</time>
      </trkpt>
      <trkpt lat="43.42725" lon="6.05493">
        <ele>299.60000610352</ele>
        <time>2015-11-04T13:28:31Z</time>
      </trkpt>
      <trkpt lat="43.42725" lon="6.05497">
        <ele>300</ele>
        <time>2015-11-04T13:28:33Z</time>
      </trkpt>
      <trkpt lat="43.42725" lon="6.05499">
        <ele>300</ele>
        <time>2015-11-04T13:28:34Z</time>
      </trkpt>
      <trkpt lat="43.42726" lon="6.05501">
        <ele>300</ele>
        <time>2015-11-04T13:28:35Z</time>
      </trkpt>
      <trkpt lat="43.42726" lon="6.05503">
        <ele>300.20001220703</ele>
        <time>2015-11-04T13:28:36Z</time>
      </trkpt>
      <trkpt lat="43.42726" lon="6.05505">
        <ele>300.60000610352</ele>
        <time>2015-11-04T13:28:37Z</time>
      </trkpt>
      <trkpt lat="43.42727" lon="6.05509">
        <ele>301</ele>
        <time>2015-11-04T13:28:39Z</time>
      </trkpt>
      <trkpt lat="43.42727" lon="6.05516">
        <ele>301.20001220703</ele>
        <time>2015-11-04T13:28:42Z</time>
      </trkpt>
      <trkpt lat="43.42727" lon="6.05518">
        <ele>301.39999389648</ele>
        <time>2015-11-04T13:28:43Z</time>
      </trkpt>
      <trkpt lat="43.42728" lon="6.05523">
        <ele>301.39999389648</ele>
        <time>2015-11-04T13:28:45Z</time>
      </trkpt>
      <trkpt lat="43.42728" lon="6.05531">
        <ele>302.20001220703</ele>
        <time>2015-11-04T13:28:49Z</time>
      </trkpt>
      <trkpt lat="43.42731" lon="6.05542">
        <ele>302.79998779297</ele>
        <time>2015-11-04T13:28:55Z</time>
      </trkpt>
      <trkpt lat="43.42733" lon="6.05546">
        <ele>303</ele>
        <time>2015-11-04T13:28:57Z</time>
      </trkpt>
      <trkpt lat="43.42734" lon="6.0555">
        <ele>303.20001220703</ele>
        <time>2015-11-04T13:28:59Z</time>
      </trkpt>
      <trkpt lat="43.42735" lon="6.05553">
        <ele>303.39999389648</ele>
        <time>2015-11-04T13:29:01Z</time>
      </trkpt>
      <trkpt lat="43.42736" lon="6.05557">
        <ele>303.60000610352</ele>
        <time>2015-11-04T13:29:03Z</time>
      </trkpt>
      <trkpt lat="43.42737" lon="6.05561">
        <ele>304</ele>
        <time>2015-11-04T13:29:05Z</time>
      </trkpt>
      <trkpt lat="43.42738" lon="6.05566">
        <ele>304.20001220703</ele>
        <time>2015-11-04T13:29:07Z</time>
      </trkpt>
      <trkpt lat="43.42739" lon="6.05568">
        <ele>304.39999389648</ele>
        <time>2015-11-04T13:29:08Z</time>
      </trkpt>
      <trkpt lat="43.42739" lon="6.0557">
        <ele>304.39999389648</ele>
        <time>2015-11-04T13:29:09Z</time>
      </trkpt>
      <trkpt lat="43.42741" lon="6.05571">
        <ele>304.60000610352</ele>
        <time>2015-11-04T13:29:10Z</time>
      </trkpt>
      <trkpt lat="43.42742" lon="6.05572">
        <ele>304.60000610352</ele>
        <time>2015-11-04T13:29:11Z</time>
      </trkpt>
      <trkpt lat="43.42744" lon="6.05574">
        <ele>305</ele>
        <time>2015-11-04T13:29:13Z</time>
      </trkpt>
      <trkpt lat="43.42746" lon="6.05577">
        <ele>305.39999389648</ele>
        <time>2015-11-04T13:29:15Z</time>
      </trkpt>
      <trkpt lat="43.42749" lon="6.0558">
        <ele>305.60000610352</ele>
        <time>2015-11-04T13:29:17Z</time>
      </trkpt>
      <trkpt lat="43.42751" lon="6.05583">
        <ele>306</ele>
        <time>2015-11-04T13:29:19Z</time>
      </trkpt>
      <trkpt lat="43.42752" lon="6.05585">
        <ele>306.60000610352</ele>
        <time>2015-11-04T13:29:20Z</time>
      </trkpt>
      <trkpt lat="43.42752" lon="6.05587">
        <ele>306.79998779297</ele>
        <time>2015-11-04T13:29:21Z</time>
      </trkpt>
      <trkpt lat="43.42753" lon="6.05591">
        <ele>307.20001220703</ele>
        <time>2015-11-04T13:29:23Z</time>
      </trkpt>
      <trkpt lat="43.42753" lon="6.05596">
        <ele>307.39999389648</ele>
        <time>2015-11-04T13:29:25Z</time>
      </trkpt>
      <trkpt lat="43.42753" lon="6.056">
        <ele>307.60000610352</ele>
        <time>2015-11-04T13:29:27Z</time>
      </trkpt>
      <trkpt lat="43.42753" lon="6.05602">
        <ele>308</ele>
        <time>2015-11-04T13:29:28Z</time>
      </trkpt>
      <trkpt lat="43.42753" lon="6.05604">
        <ele>308</ele>
        <time>2015-11-04T13:29:29Z</time>
      </trkpt>
      <trkpt lat="43.42752" lon="6.05609">
        <ele>308.39999389648</ele>
        <time>2015-11-04T13:29:31Z</time>
      </trkpt>
      <trkpt lat="43.42751" lon="6.05615">
        <ele>308.79998779297</ele>
        <time>2015-11-04T13:29:34Z</time>
      </trkpt>
      <trkpt lat="43.4275" lon="6.05616">
        <ele>309</ele>
        <time>2015-11-04T13:29:35Z</time>
      </trkpt>
      <trkpt lat="43.42749" lon="6.05618">
        <ele>309.39999389648</ele>
        <time>2015-11-04T13:29:36Z</time>
      </trkpt>
      <trkpt lat="43.42748" lon="6.05619">
        <ele>309.79998779297</ele>
        <time>2015-11-04T13:29:37Z</time>
      </trkpt>
      <trkpt lat="43.42747" lon="6.05623">
        <ele>310</ele>
        <time>2015-11-04T13:29:39Z</time>
      </trkpt>
      <trkpt lat="43.42745" lon="6.05628">
        <ele>310.20001220703</ele>
        <time>2015-11-04T13:29:42Z</time>
      </trkpt>
      <trkpt lat="43.42744" lon="6.05629">
        <ele>310.39999389648</ele>
        <time>2015-11-04T13:29:43Z</time>
      </trkpt>
      <trkpt lat="43.42743" lon="6.05632">
        <ele>310.60000610352</ele>
        <time>2015-11-04T13:29:45Z</time>
      </trkpt>
      <trkpt lat="43.42741" lon="6.05634">
        <ele>310.60000610352</ele>
        <time>2015-11-04T13:29:47Z</time>
      </trkpt>
      <trkpt lat="43.42738" lon="6.05636">
        <ele>311</ele>
        <time>2015-11-04T13:29:49Z</time>
      </trkpt>
      <trkpt lat="43.42733" lon="6.05641">
        <ele>311</ele>
        <time>2015-11-04T13:29:53Z</time>
      </trkpt>
      <trkpt lat="43.42731" lon="6.05644">
        <ele>311</ele>
        <time>2015-11-04T13:29:55Z</time>
      </trkpt>
      <trkpt lat="43.42729" lon="6.05647">
        <ele>311.20001220703</ele>
        <time>2015-11-04T13:29:57Z</time>
      </trkpt>
      <trkpt lat="43.42728" lon="6.0565">
        <ele>311.39999389648</ele>
        <time>2015-11-04T13:29:59Z</time>
      </trkpt>
      <trkpt lat="43.42727" lon="6.05652">
        <ele>311.60000610352</ele>
        <time>2015-11-04T13:30:00Z</time>
      </trkpt>
      <trkpt lat="43.42727" lon="6.05653">
        <ele>311.60000610352</ele>
        <time>2015-11-04T13:30:01Z</time>
      </trkpt>
      <trkpt lat="43.42725" lon="6.05657">
        <ele>311.60000610352</ele>
        <time>2015-11-04T13:30:03Z</time>
      </trkpt>
      <trkpt lat="43.42723" lon="6.05665">
        <ele>312.39999389648</ele>
        <time>2015-11-04T13:30:07Z</time>
      </trkpt>
      <trkpt lat="43.42721" lon="6.05668">
        <ele>312.60000610352</ele>
        <time>2015-11-04T13:30:09Z</time>
      </trkpt>
      <trkpt lat="43.4272" lon="6.05672">
        <ele>312.79998779297</ele>
        <time>2015-11-04T13:30:11Z</time>
      </trkpt>
      <trkpt lat="43.42717" lon="6.05675">
        <ele>313</ele>
        <time>2015-11-04T13:30:13Z</time>
      </trkpt>
      <trkpt lat="43.42715" lon="6.05676">
        <ele>313.39999389648</ele>
        <time>2015-11-04T13:30:15Z</time>
      </trkpt>
      <trkpt lat="43.42712" lon="6.05678">
        <ele>313.39999389648</ele>
        <time>2015-11-04T13:30:17Z</time>
      </trkpt>
      <trkpt lat="43.42709" lon="6.05682">
        <ele>314</ele>
        <time>2015-11-04T13:30:21Z</time>
      </trkpt>
      <trkpt lat="43.42707" lon="6.05685">
        <ele>314.39999389648</ele>
        <time>2015-11-04T13:30:23Z</time>
      </trkpt>
      <trkpt lat="43.42706" lon="6.05688">
        <ele>314.79998779297</ele>
        <time>2015-11-04T13:30:25Z</time>
      </trkpt>
      <trkpt lat="43.42705" lon="6.05692">
        <ele>315.20001220703</ele>
        <time>2015-11-04T13:30:27Z</time>
      </trkpt>
      <trkpt lat="43.42704" lon="6.05697">
        <ele>315.20001220703</ele>
        <time>2015-11-04T13:30:29Z</time>
      </trkpt>
      <trkpt lat="43.42703" lon="6.05701">
        <ele>315.79998779297</ele>
        <time>2015-11-04T13:30:31Z</time>
      </trkpt>
      <trkpt lat="43.42702" lon="6.05704">
        <ele>316.39999389648</ele>
        <time>2015-11-04T13:30:33Z</time>
      </trkpt>
      <trkpt lat="43.42701" lon="6.05706">
        <ele>316.39999389648</ele>
        <time>2015-11-04T13:30:34Z</time>
      </trkpt>
      <trkpt lat="43.42701" lon="6.05706">
        <ele>316.60000610352</ele>
        <time>2015-11-04T13:30:35Z</time>
      </trkpt>
      <trkpt lat="43.42701" lon="6.05707">
        <ele>316.79998779297</ele>
        <time>2015-11-04T13:30:36Z</time>
      </trkpt>
      <trkpt lat="43.42701" lon="6.05707">
        <ele>317</ele>
        <time>2015-11-04T13:30:38Z</time>
      </trkpt>
      <trkpt lat="43.42701" lon="6.05707">
        <ele>317</ele>
        <time>2015-11-04T13:30:39Z</time>
      </trkpt>
      <trkpt lat="43.42701" lon="6.05708">
        <ele>317.20001220703</ele>
        <time>2015-11-04T13:30:41Z</time>
      </trkpt>
      <trkpt lat="43.42701" lon="6.05709">
        <ele>317.39999389648</ele>
        <time>2015-11-04T13:30:43Z</time>
      </trkpt>
      <trkpt lat="43.42701" lon="6.05709">
        <ele>317.20001220703</ele>
        <time>2015-11-04T13:30:45Z</time>
      </trkpt>
      <trkpt lat="43.42701" lon="6.05709">
        <ele>317.39999389648</ele>
        <time>2015-11-04T13:30:49Z</time>
      </trkpt>
      <trkpt lat="43.42701" lon="6.05709">
        <ele>317.20001220703</ele>
        <time>2015-11-04T13:30:51Z</time>
      </trkpt>
      <trkpt lat="43.427" lon="6.05709">
        <ele>317.20001220703</ele>
        <time>2015-11-04T13:30:53Z</time>
      </trkpt>
      <trkpt lat="43.42701" lon="6.05709">
        <ele>317.60000610352</ele>
        <time>2015-11-04T13:30:55Z</time>
      </trkpt>
      <trkpt lat="43.427" lon="6.05711">
        <ele>317.60000610352</ele>
        <time>2015-11-04T13:30:56Z</time>
      </trkpt>
      <trkpt lat="43.427" lon="6.05713">
        <ele>317.60000610352</ele>
        <time>2015-11-04T13:30:57Z</time>
      </trkpt>
      <trkpt lat="43.42699" lon="6.05717">
        <ele>317.79998779297</ele>
        <time>2015-11-04T13:30:59Z</time>
      </trkpt>
      <trkpt lat="43.42697" lon="6.05721">
        <ele>318.20001220703</ele>
        <time>2015-11-04T13:31:01Z</time>
      </trkpt>
      <trkpt lat="43.42696" lon="6.05726">
        <ele>318.39999389648</ele>
        <time>2015-11-04T13:31:03Z</time>
      </trkpt>
      <trkpt lat="43.42697" lon="6.05731">
        <ele>318.79998779297</ele>
        <time>2015-11-04T13:31:05Z</time>
      </trkpt>
      <trkpt lat="43.42699" lon="6.05734">
        <ele>319.39999389648</ele>
        <time>2015-11-04T13:31:07Z</time>
      </trkpt>
      <trkpt lat="43.42702" lon="6.05735">
        <ele>319.60000610352</ele>
        <time>2015-11-04T13:31:09Z</time>
      </trkpt>
      <trkpt lat="43.42706" lon="6.05735">
        <ele>319.60000610352</ele>
        <time>2015-11-04T13:31:11Z</time>
      </trkpt>
      <trkpt lat="43.42709" lon="6.05735">
        <ele>319.79998779297</ele>
        <time>2015-11-04T13:31:13Z</time>
      </trkpt>
      <trkpt lat="43.42711" lon="6.05735">
        <ele>319.79998779297</ele>
        <time>2015-11-04T13:31:14Z</time>
      </trkpt>
      <trkpt lat="43.42713" lon="6.05735">
        <ele>319.79998779297</ele>
        <time>2015-11-04T13:31:15Z</time>
      </trkpt>
      <trkpt lat="43.42716" lon="6.05735">
        <ele>319.79998779297</ele>
        <time>2015-11-04T13:31:16Z</time>
      </trkpt>
      <trkpt lat="43.42721" lon="6.05736">
        <ele>320</ele>
        <time>2015-11-04T13:31:19Z</time>
      </trkpt>
      <trkpt lat="43.42724" lon="6.05736">
        <ele>320</ele>
        <time>2015-11-04T13:31:21Z</time>
      </trkpt>
      <trkpt lat="43.42728" lon="6.05737">
        <ele>319.79998779297</ele>
        <time>2015-11-04T13:31:23Z</time>
      </trkpt>
      <trkpt lat="43.42733" lon="6.05738">
        <ele>320.20001220703</ele>
        <time>2015-11-04T13:31:26Z</time>
      </trkpt>
      <trkpt lat="43.42734" lon="6.05738">
        <ele>320.39999389648</ele>
        <time>2015-11-04T13:31:27Z</time>
      </trkpt>
      <trkpt lat="43.42736" lon="6.05738">
        <ele>320.60000610352</ele>
        <time>2015-11-04T13:31:28Z</time>
      </trkpt>
      <trkpt lat="43.42738" lon="6.05739">
        <ele>320.60000610352</ele>
        <time>2015-11-04T13:31:29Z</time>
      </trkpt>
      <trkpt lat="43.4274" lon="6.05739">
        <ele>320.79998779297</ele>
        <time>2015-11-04T13:31:31Z</time>
      </trkpt>
      <trkpt lat="43.42744" lon="6.05739">
        <ele>320.79998779297</ele>
        <time>2015-11-04T13:31:33Z</time>
      </trkpt>
      <trkpt lat="43.42747" lon="6.0574">
        <ele>320.79998779297</ele>
        <time>2015-11-04T13:31:35Z</time>
      </trkpt>
      <trkpt lat="43.42749" lon="6.0574">
        <ele>321.20001220703</ele>
        <time>2015-11-04T13:31:37Z</time>
      </trkpt>
      <trkpt lat="43.42752" lon="6.05739">
        <ele>321</ele>
        <time>2015-11-04T13:31:39Z</time>
      </trkpt>
      <trkpt lat="43.42755" lon="6.05736">
        <ele>321</ele>
        <time>2015-11-04T13:31:41Z</time>
      </trkpt>
      <trkpt lat="43.42758" lon="6.05733">
        <ele>321.20001220703</ele>
        <time>2015-11-04T13:31:43Z</time>
      </trkpt>
      <trkpt lat="43.42762" lon="6.0573">
        <ele>321</ele>
        <time>2015-11-04T13:31:45Z</time>
      </trkpt>
      <trkpt lat="43.42766" lon="6.05728">
        <ele>321</ele>
        <time>2015-11-04T13:31:47Z</time>
      </trkpt>
      <trkpt lat="43.42768" lon="6.05728">
        <ele>321</ele>
        <time>2015-11-04T13:31:48Z</time>
      </trkpt>
      <trkpt lat="43.4277" lon="6.05728">
        <ele>321.20001220703</ele>
        <time>2015-11-04T13:31:49Z</time>
      </trkpt>
      <trkpt lat="43.42772" lon="6.05728">
        <ele>321.39999389648</ele>
        <time>2015-11-04T13:31:50Z</time>
      </trkpt>
      <trkpt lat="43.42773" lon="6.05728">
        <ele>321.39999389648</ele>
        <time>2015-11-04T13:31:51Z</time>
      </trkpt>
      <trkpt lat="43.42775" lon="6.05729">
        <ele>321.20001220703</ele>
        <time>2015-11-04T13:31:52Z</time>
      </trkpt>
      <trkpt lat="43.42776" lon="6.0573">
        <ele>321.20001220703</ele>
        <time>2015-11-04T13:31:53Z</time>
      </trkpt>
      <trkpt lat="43.42779" lon="6.05733">
        <ele>321.39999389648</ele>
        <time>2015-11-04T13:31:55Z</time>
      </trkpt>
      <trkpt lat="43.42782" lon="6.05733">
        <ele>321.60000610352</ele>
        <time>2015-11-04T13:31:57Z</time>
      </trkpt>
      <trkpt lat="43.42785" lon="6.05734">
        <ele>321.60000610352</ele>
        <time>2015-11-04T13:31:59Z</time>
      </trkpt>
      <trkpt lat="43.42788" lon="6.05735">
        <ele>322</ele>
        <time>2015-11-04T13:32:01Z</time>
      </trkpt>
      <trkpt lat="43.42789" lon="6.05737">
        <ele>322.20001220703</ele>
        <time>2015-11-04T13:32:02Z</time>
      </trkpt>
      <trkpt lat="43.42789" lon="6.05739">
        <ele>322.20001220703</ele>
        <time>2015-11-04T13:32:03Z</time>
      </trkpt>
      <trkpt lat="43.4279" lon="6.05739">
        <ele>322.39999389648</ele>
        <time>2015-11-04T13:32:05Z</time>
      </trkpt>
      <trkpt lat="43.42791" lon="6.0574">
        <ele>322.60000610352</ele>
        <time>2015-11-04T13:32:06Z</time>
      </trkpt>
      <trkpt lat="43.42792" lon="6.05741">
        <ele>322.60000610352</ele>
        <time>2015-11-04T13:32:07Z</time>
      </trkpt>
      <trkpt lat="43.42795" lon="6.05741">
        <ele>322.60000610352</ele>
        <time>2015-11-04T13:32:09Z</time>
      </trkpt>
      <trkpt lat="43.42799" lon="6.05741">
        <ele>322.60000610352</ele>
        <time>2015-11-04T13:32:11Z</time>
      </trkpt>
      <trkpt lat="43.42801" lon="6.0574">
        <ele>322.60000610352</ele>
        <time>2015-11-04T13:32:12Z</time>
      </trkpt>
      <trkpt lat="43.42802" lon="6.05739">
        <ele>322.39999389648</ele>
        <time>2015-11-04T13:32:13Z</time>
      </trkpt>
      <trkpt lat="43.42807" lon="6.05737">
        <ele>322.39999389648</ele>
        <time>2015-11-04T13:32:15Z</time>
      </trkpt>
      <trkpt lat="43.42809" lon="6.05735">
        <ele>322.60000610352</ele>
        <time>2015-11-04T13:32:16Z</time>
      </trkpt>
      <trkpt lat="43.42812" lon="6.05734">
        <ele>322.60000610352</ele>
        <time>2015-11-04T13:32:17Z</time>
      </trkpt>
      <trkpt lat="43.42817" lon="6.05734">
        <ele>322.39999389648</ele>
        <time>2015-11-04T13:32:19Z</time>
      </trkpt>
      <trkpt lat="43.42822" lon="6.05732">
        <ele>322.20001220703</ele>
        <time>2015-11-04T13:32:21Z</time>
      </trkpt>
      <trkpt lat="43.42826" lon="6.05731">
        <ele>322.39999389648</ele>
        <time>2015-11-04T13:32:23Z</time>
      </trkpt>
      <trkpt lat="43.4283" lon="6.05728">
        <ele>322.39999389648</ele>
        <time>2015-11-04T13:32:25Z</time>
      </trkpt>
      <trkpt lat="43.42832" lon="6.05728">
        <ele>322.39999389648</ele>
        <time>2015-11-04T13:32:27Z</time>
      </trkpt>
      <trkpt lat="43.42833" lon="6.05727">
        <ele>322.39999389648</ele>
        <time>2015-11-04T13:32:28Z</time>
      </trkpt>
      <trkpt lat="43.42835" lon="6.05724">
        <ele>322.60000610352</ele>
        <time>2015-11-04T13:32:31Z</time>
      </trkpt>
      <trkpt lat="43.42835" lon="6.05724">
        <ele>322.79998779297</ele>
        <time>2015-11-04T13:32:33Z</time>
      </trkpt>
      <trkpt lat="43.42835" lon="6.05724">
        <ele>322.60000610352</ele>
        <time>2015-11-04T13:32:39Z</time>
      </trkpt>
      <trkpt lat="43.42835" lon="6.05724">
        <ele>322.79998779297</ele>
        <time>2015-11-04T13:33:11Z</time>
      </trkpt>
      <trkpt lat="43.42835" lon="6.05724">
        <ele>322.79998779297</ele>
        <time>2015-11-04T13:33:13Z</time>
      </trkpt>
      <trkpt lat="43.42835" lon="6.05724">
        <ele>322.60000610352</ele>
        <time>2015-11-04T13:33:18Z</time>
      </trkpt>
      <trkpt lat="43.42835" lon="6.05724">
        <ele>322.60000610352</ele>
        <time>2015-11-04T13:33:51Z</time>
      </trkpt>
      <trkpt lat="43.42835" lon="6.05723">
        <ele>322.79998779297</ele>
        <time>2015-11-04T13:33:53Z</time>
      </trkpt>
      <trkpt lat="43.42835" lon="6.05723">
        <ele>322.79998779297</ele>
        <time>2015-11-04T13:33:59Z</time>
      </trkpt>
      <trkpt lat="43.42835" lon="6.05723">
        <ele>322.39999389648</ele>
        <time>2015-11-04T13:34:31Z</time>
      </trkpt>
      <trkpt lat="43.42835" lon="6.05723">
        <ele>322.39999389648</ele>
        <time>2015-11-04T13:34:32Z</time>
      </trkpt>
      <trkpt lat="43.42835" lon="6.05723">
        <ele>322.60000610352</ele>
        <time>2015-11-04T13:34:37Z</time>
      </trkpt>
      <trkpt lat="43.42835" lon="6.05723">
        <ele>322.39999389648</ele>
        <time>2015-11-04T13:35:11Z</time>
      </trkpt>
      <trkpt lat="43.42835" lon="6.05723">
        <ele>322.39999389648</ele>
        <time>2015-11-04T13:35:13Z</time>
      </trkpt>
      <trkpt lat="43.42835" lon="6.05723">
        <ele>322.39999389648</ele>
        <time>2015-11-04T13:35:20Z</time>
      </trkpt>
      <trkpt lat="43.42835" lon="6.05723">
        <ele>322.39999389648</ele>
        <time>2015-11-04T13:35:51Z</time>
      </trkpt>
      <trkpt lat="43.42835" lon="6.05723">
        <ele>322.60000610352</ele>
        <time>2015-11-04T13:35:52Z</time>
      </trkpt>
      <trkpt lat="43.42835" lon="6.05723">
        <ele>322.20001220703</ele>
        <time>2015-11-04T13:35:57Z</time>
      </trkpt>
      <trkpt lat="43.42835" lon="6.05723">
        <ele>322.20001220703</ele>
        <time>2015-11-04T13:36:31Z</time>
      </trkpt>
      <trkpt lat="43.42835" lon="6.05724">
        <ele>322.39999389648</ele>
        <time>2015-11-04T13:36:33Z</time>
      </trkpt>
      <trkpt lat="43.42835" lon="6.05724">
        <ele>322.39999389648</ele>
        <time>2015-11-04T13:36:39Z</time>
      </trkpt>
      <trkpt lat="43.42835" lon="6.05724">
        <ele>322</ele>
        <time>2015-11-04T13:37:11Z</time>
      </trkpt>
      <trkpt lat="43.42835" lon="6.05724">
        <ele>322</ele>
        <time>2015-11-04T13:37:13Z</time>
      </trkpt>
      <trkpt lat="43.42835" lon="6.05724">
        <ele>322.20001220703</ele>
        <time>2015-11-04T13:37:19Z</time>
      </trkpt>
      <trkpt lat="43.42835" lon="6.05724">
        <ele>322.20001220703</ele>
        <time>2015-11-04T13:37:51Z</time>
      </trkpt>
      <trkpt lat="43.42836" lon="6.05724">
        <ele>322.39999389648</ele>
        <time>2015-11-04T13:37:53Z</time>
      </trkpt>
      <trkpt lat="43.42836" lon="6.05724">
        <ele>322.20001220703</ele>
        <time>2015-11-04T13:37:59Z</time>
      </trkpt>
      <trkpt lat="43.42836" lon="6.05724">
        <ele>322</ele>
        <time>2015-11-04T13:38:30Z</time>
      </trkpt>
      <trkpt lat="43.42836" lon="6.05724">
        <ele>322.20001220703</ele>
        <time>2015-11-04T13:38:32Z</time>
      </trkpt>
      <trkpt lat="43.42836" lon="6.05724">
        <ele>322</ele>
        <time>2015-11-04T13:38:37Z</time>
      </trkpt>
      <trkpt lat="43.42836" lon="6.05724">
        <ele>322</ele>
        <time>2015-11-04T13:39:02Z</time>
      </trkpt>
      <trkpt lat="43.42836" lon="6.05723">
        <ele>322.20001220703</ele>
        <time>2015-11-04T13:39:04Z</time>
      </trkpt>
      <trkpt lat="43.42836" lon="6.05723">
        <ele>322</ele>
        <time>2015-11-04T13:39:06Z</time>
      </trkpt>
      <trkpt lat="43.42836" lon="6.05723">
        <ele>321.39999389648</ele>
        <time>2015-11-04T13:39:12Z</time>
      </trkpt>
      <trkpt lat="43.42836" lon="6.05723">
        <ele>321.79998779297</ele>
        <time>2015-11-04T13:39:44Z</time>
      </trkpt>
      <trkpt lat="43.42836" lon="6.05723">
        <ele>321.79998779297</ele>
        <time>2015-11-04T13:39:46Z</time>
      </trkpt>
      <trkpt lat="43.42836" lon="6.05723">
        <ele>321.79998779297</ele>
        <time>2015-11-04T13:39:52Z</time>
      </trkpt>
      <trkpt lat="43.42836" lon="6.05723">
        <ele>321.60000610352</ele>
        <time>2015-11-04T13:40:24Z</time>
      </trkpt>
      <trkpt lat="43.42836" lon="6.05722">
        <ele>321.60000610352</ele>
        <time>2015-11-04T13:40:25Z</time>
      </trkpt>
      <trkpt lat="43.42836" lon="6.05722">
        <ele>321.60000610352</ele>
        <time>2015-11-04T13:40:30Z</time>
      </trkpt>
      <trkpt lat="43.42836" lon="6.05722">
        <ele>321.60000610352</ele>
        <time>2015-11-04T13:41:04Z</time>
      </trkpt>
      <trkpt lat="43.42836" lon="6.05722">
        <ele>321.60000610352</ele>
        <time>2015-11-04T13:41:06Z</time>
      </trkpt>
      <trkpt lat="43.42836" lon="6.05722">
        <ele>321.60000610352</ele>
        <time>2015-11-04T13:41:12Z</time>
      </trkpt>
      <trkpt lat="43.42836" lon="6.05722">
        <ele>321.79998779297</ele>
        <time>2015-11-04T13:41:44Z</time>
      </trkpt>
      <trkpt lat="43.42836" lon="6.05721">
        <ele>321.79998779297</ele>
        <time>2015-11-04T13:41:46Z</time>
      </trkpt>
      <trkpt lat="43.42836" lon="6.05721">
        <ele>321.60000610352</ele>
        <time>2015-11-04T13:41:52Z</time>
      </trkpt>
      <trkpt lat="43.42836" lon="6.05721">
        <ele>322.20001220703</ele>
        <time>2015-11-04T13:42:06Z</time>
      </trkpt>
      <trkpt lat="43.42836" lon="6.05721">
        <ele>322.20001220703</ele>
        <time>2015-11-04T13:42:08Z</time>
      </trkpt>
      <trkpt lat="43.42836" lon="6.05721">
        <ele>322.20001220703</ele>
        <time>2015-11-04T13:42:10Z</time>
      </trkpt>
      <trkpt lat="43.42836" lon="6.0572">
        <ele>322.20001220703</ele>
        <time>2015-11-04T13:42:12Z</time>
      </trkpt>
      <trkpt lat="43.42839" lon="6.05715">
        <ele>322.20001220703</ele>
        <time>2015-11-04T13:42:15Z</time>
      </trkpt>
      <trkpt lat="43.4284" lon="6.05713">
        <ele>322.20001220703</ele>
        <time>2015-11-04T13:42:16Z</time>
      </trkpt>
      <trkpt lat="43.42841" lon="6.05707">
        <ele>321.79998779297</ele>
        <time>2015-11-04T13:42:18Z</time>
      </trkpt>
      <trkpt lat="43.42842" lon="6.05699">
        <ele>322</ele>
        <time>2015-11-04T13:42:20Z</time>
      </trkpt>
      <trkpt lat="43.42843" lon="6.05695">
        <ele>322</ele>
        <time>2015-11-04T13:42:21Z</time>
      </trkpt>
      <trkpt lat="43.42844" lon="6.05691">
        <ele>322</ele>
        <time>2015-11-04T13:42:22Z</time>
      </trkpt>
      <trkpt lat="43.42845" lon="6.05682">
        <ele>322</ele>
        <time>2015-11-04T13:42:24Z</time>
      </trkpt>
      <trkpt lat="43.42847" lon="6.05673">
        <ele>321.79998779297</ele>
        <time>2015-11-04T13:42:26Z</time>
      </trkpt>
      <trkpt lat="43.42847" lon="6.05664">
        <ele>322</ele>
        <time>2015-11-04T13:42:28Z</time>
      </trkpt>
      <trkpt lat="43.42849" lon="6.05654">
        <ele>321.79998779297</ele>
        <time>2015-11-04T13:42:30Z</time>
      </trkpt>
      <trkpt lat="43.4285" lon="6.05642">
        <ele>321.60000610352</ele>
        <time>2015-11-04T13:42:32Z</time>
      </trkpt>
      <trkpt lat="43.42851" lon="6.05636">
        <ele>321</ele>
        <time>2015-11-04T13:42:33Z</time>
      </trkpt>
      <trkpt lat="43.42852" lon="6.0563">
        <ele>320.79998779297</ele>
        <time>2015-11-04T13:42:34Z</time>
      </trkpt>
      <trkpt lat="43.42853" lon="6.05617">
        <ele>320.60000610352</ele>
        <time>2015-11-04T13:42:36Z</time>
      </trkpt>
      <trkpt lat="43.42854" lon="6.05606">
        <ele>320.79998779297</ele>
        <time>2015-11-04T13:42:38Z</time>
      </trkpt>
      <trkpt lat="43.42855" lon="6.05601">
        <ele>320.79998779297</ele>
        <time>2015-11-04T13:42:39Z</time>
      </trkpt>
      <trkpt lat="43.42855" lon="6.05595">
        <ele>321</ele>
        <time>2015-11-04T13:42:40Z</time>
      </trkpt>
      <trkpt lat="43.42856" lon="6.05584">
        <ele>321</ele>
        <time>2015-11-04T13:42:42Z</time>
      </trkpt>
      <trkpt lat="43.42857" lon="6.05572">
        <ele>320.60000610352</ele>
        <time>2015-11-04T13:42:44Z</time>
      </trkpt>
      <trkpt lat="43.42858" lon="6.05566">
        <ele>320.39999389648</ele>
        <time>2015-11-04T13:42:45Z</time>
      </trkpt>
      <trkpt lat="43.42859" lon="6.05559">
        <ele>320</ele>
        <time>2015-11-04T13:42:46Z</time>
      </trkpt>
      <trkpt lat="43.4286" lon="6.05547">
        <ele>319.79998779297</ele>
        <time>2015-11-04T13:42:48Z</time>
      </trkpt>
      <trkpt lat="43.42862" lon="6.0554">
        <ele>320.20001220703</ele>
        <time>2015-11-04T13:42:50Z</time>
      </trkpt>
      <trkpt lat="43.42862" lon="6.05538">
        <ele>320.20001220703</ele>
        <time>2015-11-04T13:42:51Z</time>
      </trkpt>
      <trkpt lat="43.42863" lon="6.05537">
        <ele>320.39999389648</ele>
        <time>2015-11-04T13:42:52Z</time>
      </trkpt>
      <trkpt lat="43.42863" lon="6.05534">
        <ele>320.79998779297</ele>
        <time>2015-11-04T13:42:54Z</time>
      </trkpt>
      <trkpt lat="43.42864" lon="6.05532">
        <ele>320.79998779297</ele>
        <time>2015-11-04T13:42:55Z</time>
      </trkpt>
      <trkpt lat="43.42864" lon="6.0553">
        <ele>320.79998779297</ele>
        <time>2015-11-04T13:42:56Z</time>
      </trkpt>
      <trkpt lat="43.42865" lon="6.05526">
        <ele>320.79998779297</ele>
        <time>2015-11-04T13:42:58Z</time>
      </trkpt>
      <trkpt lat="43.42865" lon="6.05523">
        <ele>320.79998779297</ele>
        <time>2015-11-04T13:42:59Z</time>
      </trkpt>
      <trkpt lat="43.42865" lon="6.05521">
        <ele>320.79998779297</ele>
        <time>2015-11-04T13:43:00Z</time>
      </trkpt>
      <trkpt lat="43.42866" lon="6.05516">
        <ele>321</ele>
        <time>2015-11-04T13:43:02Z</time>
      </trkpt>
      <trkpt lat="43.42867" lon="6.05513">
        <ele>321</ele>
        <time>2015-11-04T13:43:03Z</time>
      </trkpt>
      <trkpt lat="43.42867" lon="6.0551">
        <ele>320.79998779297</ele>
        <time>2015-11-04T13:43:04Z</time>
      </trkpt>
      <trkpt lat="43.42867" lon="6.05502">
        <ele>320.79998779297</ele>
        <time>2015-11-04T13:43:06Z</time>
      </trkpt>
      <trkpt lat="43.42868" lon="6.05492">
        <ele>320.39999389648</ele>
        <time>2015-11-04T13:43:08Z</time>
      </trkpt>
      <trkpt lat="43.42869" lon="6.05487">
        <ele>320.20001220703</ele>
        <time>2015-11-04T13:43:09Z</time>
      </trkpt>
      <trkpt lat="43.4287" lon="6.05481">
        <ele>320.20001220703</ele>
        <time>2015-11-04T13:43:10Z</time>
      </trkpt>
      <trkpt lat="43.4287" lon="6.0547">
        <ele>320.60000610352</ele>
        <time>2015-11-04T13:43:12Z</time>
      </trkpt>
      <trkpt lat="43.42871" lon="6.05465">
        <ele>320.60000610352</ele>
        <time>2015-11-04T13:43:13Z</time>
      </trkpt>
      <trkpt lat="43.42872" lon="6.0546">
        <ele>320.39999389648</ele>
        <time>2015-11-04T13:43:14Z</time>
      </trkpt>
      <trkpt lat="43.42875" lon="6.05437">
        <ele>320.79998779297</ele>
        <time>2015-11-04T13:43:18Z</time>
      </trkpt>
      <trkpt lat="43.4288" lon="6.05402">
        <ele>321</ele>
        <time>2015-11-04T13:43:24Z</time>
      </trkpt>
      <trkpt lat="43.42881" lon="6.05389">
        <ele>321.60000610352</ele>
        <time>2015-11-04T13:43:26Z</time>
      </trkpt>
      <trkpt lat="43.42881" lon="6.05378">
        <ele>321.79998779297</ele>
        <time>2015-11-04T13:43:28Z</time>
      </trkpt>
      <trkpt lat="43.42882" lon="6.05368">
        <ele>322.60000610352</ele>
        <time>2015-11-04T13:43:30Z</time>
      </trkpt>
      <trkpt lat="43.42882" lon="6.05358">
        <ele>323.39999389648</ele>
        <time>2015-11-04T13:43:32Z</time>
      </trkpt>
      <trkpt lat="43.42883" lon="6.05354">
        <ele>323.79998779297</ele>
        <time>2015-11-04T13:43:33Z</time>
      </trkpt>
      <trkpt lat="43.42883" lon="6.05349">
        <ele>324</ele>
        <time>2015-11-04T13:43:34Z</time>
      </trkpt>
      <trkpt lat="43.42886" lon="6.0534">
        <ele>324.20001220703</ele>
        <time>2015-11-04T13:43:36Z</time>
      </trkpt>
      <trkpt lat="43.42887" lon="6.05332">
        <ele>324.39999389648</ele>
        <time>2015-11-04T13:43:38Z</time>
      </trkpt>
      <trkpt lat="43.42889" lon="6.05324">
        <ele>324.79998779297</ele>
        <time>2015-11-04T13:43:40Z</time>
      </trkpt>
      <trkpt lat="43.42889" lon="6.05317">
        <ele>325.20001220703</ele>
        <time>2015-11-04T13:43:42Z</time>
      </trkpt>
      <trkpt lat="43.42891" lon="6.05303">
        <ele>325.79998779297</ele>
        <time>2015-11-04T13:43:46Z</time>
      </trkpt>
      <trkpt lat="43.42891" lon="6.05297">
        <ele>326</ele>
        <time>2015-11-04T13:43:48Z</time>
      </trkpt>
      <trkpt lat="43.42892" lon="6.05291">
        <ele>326</ele>
        <time>2015-11-04T13:43:50Z</time>
      </trkpt>
      <trkpt lat="43.42893" lon="6.05285">
        <ele>326</ele>
        <time>2015-11-04T13:43:52Z</time>
      </trkpt>
      <trkpt lat="43.42894" lon="6.05275">
        <ele>326.39999389648</ele>
        <time>2015-11-04T13:43:56Z</time>
      </trkpt>
      <trkpt lat="43.42895" lon="6.05268">
        <ele>326.39999389648</ele>
        <time>2015-11-04T13:43:59Z</time>
      </trkpt>
      <trkpt lat="43.42894" lon="6.05261">
        <ele>326.20001220703</ele>
        <time>2015-11-04T13:44:02Z</time>
      </trkpt>
      <trkpt lat="43.42894" lon="6.05257">
        <ele>326.20001220703</ele>
        <time>2015-11-04T13:44:04Z</time>
      </trkpt>
      <trkpt lat="43.42895" lon="6.05253">
        <ele>326.20001220703</ele>
        <time>2015-11-04T13:44:06Z</time>
      </trkpt>
      <trkpt lat="43.42896" lon="6.05249">
        <ele>326.20001220703</ele>
        <time>2015-11-04T13:44:09Z</time>
      </trkpt>
      <trkpt lat="43.42895" lon="6.05249">
        <ele>326.39999389648</ele>
        <time>2015-11-04T13:44:10Z</time>
      </trkpt>
      <trkpt lat="43.42896" lon="6.05248">
        <ele>326.20001220703</ele>
        <time>2015-11-04T13:44:12Z</time>
      </trkpt>
      <trkpt lat="43.42896" lon="6.05248">
        <ele>326.20001220703</ele>
        <time>2015-11-04T13:44:18Z</time>
      </trkpt>
      <trkpt lat="43.42896" lon="6.05248">
        <ele>326.20001220703</ele>
        <time>2015-11-04T13:44:49Z</time>
      </trkpt>
      <trkpt lat="43.42896" lon="6.05248">
        <ele>326.39999389648</ele>
        <time>2015-11-04T13:44:50Z</time>
      </trkpt>
      <trkpt lat="43.42896" lon="6.05248">
        <ele>326.20001220703</ele>
        <time>2015-11-04T13:44:56Z</time>
      </trkpt>
      <trkpt lat="43.42896" lon="6.05248">
        <ele>326.20001220703</ele>
        <time>2015-11-04T13:45:00Z</time>
      </trkpt>
      <trkpt lat="43.42896" lon="6.05247">
        <ele>325.79998779297</ele>
        <time>2015-11-04T13:45:02Z</time>
      </trkpt>
      <trkpt lat="43.42896" lon="6.05245">
        <ele>325.79998779297</ele>
        <time>2015-11-04T13:45:03Z</time>
      </trkpt>
      <trkpt lat="43.42896" lon="6.05243">
        <ele>325.79998779297</ele>
        <time>2015-11-04T13:45:04Z</time>
      </trkpt>
      <trkpt lat="43.42897" lon="6.05236">
        <ele>325.79998779297</ele>
        <time>2015-11-04T13:45:06Z</time>
      </trkpt>
      <trkpt lat="43.42898" lon="6.05228">
        <ele>325.39999389648</ele>
        <time>2015-11-04T13:45:08Z</time>
      </trkpt>
      <trkpt lat="43.429" lon="6.05218">
        <ele>325.39999389648</ele>
        <time>2015-11-04T13:45:10Z</time>
      </trkpt>
      <trkpt lat="43.429" lon="6.05214">
        <ele>325.60000610352</ele>
        <time>2015-11-04T13:45:12Z</time>
      </trkpt>
      <trkpt lat="43.42901" lon="6.05206">
        <ele>325.79998779297</ele>
        <time>2015-11-04T13:45:14Z</time>
      </trkpt>
      <trkpt lat="43.42902" lon="6.052">
        <ele>326</ele>
        <time>2015-11-04T13:45:16Z</time>
      </trkpt>
      <trkpt lat="43.42904" lon="6.05192">
        <ele>325.60000610352</ele>
        <time>2015-11-04T13:45:18Z</time>
      </trkpt>
      <trkpt lat="43.42904" lon="6.05183">
        <ele>325.39999389648</ele>
        <time>2015-11-04T13:45:20Z</time>
      </trkpt>
      <trkpt lat="43.42905" lon="6.05178">
        <ele>325.20001220703</ele>
        <time>2015-11-04T13:45:21Z</time>
      </trkpt>
      <trkpt lat="43.42905" lon="6.05173">
        <ele>325.20001220703</ele>
        <time>2015-11-04T13:45:22Z</time>
      </trkpt>
      <trkpt lat="43.42906" lon="6.05163">
        <ele>325</ele>
        <time>2015-11-04T13:45:24Z</time>
      </trkpt>
      <trkpt lat="43.42907" lon="6.05156">
        <ele>324.60000610352</ele>
        <time>2015-11-04T13:45:25Z</time>
      </trkpt>
      <trkpt lat="43.42908" lon="6.0515">
        <ele>324.20001220703</ele>
        <time>2015-11-04T13:45:26Z</time>
      </trkpt>
      <trkpt lat="43.42909" lon="6.05144">
        <ele>324</ele>
        <time>2015-11-04T13:45:27Z</time>
      </trkpt>
      <trkpt lat="43.42909" lon="6.05138">
        <ele>323.79998779297</ele>
        <time>2015-11-04T13:45:28Z</time>
      </trkpt>
      <trkpt lat="43.42911" lon="6.05128">
        <ele>323.60000610352</ele>
        <time>2015-11-04T13:45:30Z</time>
      </trkpt>
      <trkpt lat="43.42913" lon="6.05117">
        <ele>323</ele>
        <time>2015-11-04T13:45:32Z</time>
      </trkpt>
      <trkpt lat="43.42915" lon="6.05102">
        <ele>321.79998779297</ele>
        <time>2015-11-04T13:45:34Z</time>
      </trkpt>
      <trkpt lat="43.42915" lon="6.05095">
        <ele>321.39999389648</ele>
        <time>2015-11-04T13:45:35Z</time>
      </trkpt>
      <trkpt lat="43.42916" lon="6.05087">
        <ele>321.60000610352</ele>
        <time>2015-11-04T13:45:36Z</time>
      </trkpt>
      <trkpt lat="43.42917" lon="6.05073">
        <ele>321.39999389648</ele>
        <time>2015-11-04T13:45:38Z</time>
      </trkpt>
      <trkpt lat="43.42918" lon="6.05061">
        <ele>321.39999389648</ele>
        <time>2015-11-04T13:45:40Z</time>
      </trkpt>
      <trkpt lat="43.4292" lon="6.0505">
        <ele>321.39999389648</ele>
        <time>2015-11-04T13:45:42Z</time>
      </trkpt>
      <trkpt lat="43.4292" lon="6.05044">
        <ele>321.39999389648</ele>
        <time>2015-11-04T13:45:43Z</time>
      </trkpt>
      <trkpt lat="43.42921" lon="6.05038">
        <ele>321.39999389648</ele>
        <time>2015-11-04T13:45:44Z</time>
      </trkpt>
      <trkpt lat="43.42922" lon="6.05032">
        <ele>321.20001220703</ele>
        <time>2015-11-04T13:45:45Z</time>
      </trkpt>
      <trkpt lat="43.42923" lon="6.05026">
        <ele>320.79998779297</ele>
        <time>2015-11-04T13:45:46Z</time>
      </trkpt>
      <trkpt lat="43.42924" lon="6.05011">
        <ele>320.39999389648</ele>
        <time>2015-11-04T13:45:48Z</time>
      </trkpt>
      <trkpt lat="43.42924" lon="6.05003">
        <ele>320.39999389648</ele>
        <time>2015-11-04T13:45:49Z</time>
      </trkpt>
      <trkpt lat="43.42926" lon="6.04995">
        <ele>319.79998779297</ele>
        <time>2015-11-04T13:45:50Z</time>
      </trkpt>
      <trkpt lat="43.42927" lon="6.04986">
        <ele>319.60000610352</ele>
        <time>2015-11-04T13:45:51Z</time>
      </trkpt>
      <trkpt lat="43.42929" lon="6.04978">
        <ele>319</ele>
        <time>2015-11-04T13:45:52Z</time>
      </trkpt>
      <trkpt lat="43.4293" lon="6.04969">
        <ele>318.79998779297</ele>
        <time>2015-11-04T13:45:53Z</time>
      </trkpt>
      <trkpt lat="43.4293" lon="6.04961">
        <ele>318.79998779297</ele>
        <time>2015-11-04T13:45:54Z</time>
      </trkpt>
      <trkpt lat="43.42932" lon="6.04947">
        <ele>318.79998779297</ele>
        <time>2015-11-04T13:45:56Z</time>
      </trkpt>
      <trkpt lat="43.42932" lon="6.04937">
        <ele>319.20001220703</ele>
        <time>2015-11-04T13:45:58Z</time>
      </trkpt>
      <trkpt lat="43.42932" lon="6.04932">
        <ele>319.20001220703</ele>
        <time>2015-11-04T13:45:59Z</time>
      </trkpt>
      <trkpt lat="43.42933" lon="6.04927">
        <ele>318.79998779297</ele>
        <time>2015-11-04T13:46:00Z</time>
      </trkpt>
      <trkpt lat="43.42933" lon="6.04918">
        <ele>318.39999389648</ele>
        <time>2015-11-04T13:46:02Z</time>
      </trkpt>
      <trkpt lat="43.42933" lon="6.04915">
        <ele>318.39999389648</ele>
        <time>2015-11-04T13:46:03Z</time>
      </trkpt>
      <trkpt lat="43.42933" lon="6.04913">
        <ele>318.39999389648</ele>
        <time>2015-11-04T13:46:04Z</time>
      </trkpt>
      <trkpt lat="43.42933" lon="6.04912">
        <ele>318.60000610352</ele>
        <time>2015-11-04T13:46:06Z</time>
      </trkpt>
      <trkpt lat="43.42933" lon="6.04911">
        <ele>318.39999389648</ele>
        <time>2015-11-04T13:46:08Z</time>
      </trkpt>
      <trkpt lat="43.42933" lon="6.04911">
        <ele>318.60000610352</ele>
        <time>2015-11-04T13:46:14Z</time>
      </trkpt>
      <trkpt lat="43.42933" lon="6.04911">
        <ele>318.60000610352</ele>
        <time>2015-11-04T13:46:44Z</time>
      </trkpt>
      <trkpt lat="43.42933" lon="6.04911">
        <ele>318.39999389648</ele>
        <time>2015-11-04T13:46:46Z</time>
      </trkpt>
      <trkpt lat="43.42933" lon="6.04911">
        <ele>318.39999389648</ele>
        <time>2015-11-04T13:46:51Z</time>
      </trkpt>
      <trkpt lat="43.42933" lon="6.04911">
        <ele>318.39999389648</ele>
        <time>2015-11-04T13:47:02Z</time>
      </trkpt>
      <trkpt lat="43.42933" lon="6.04911">
        <ele>318.39999389648</ele>
        <time>2015-11-04T13:47:04Z</time>
      </trkpt>
      <trkpt lat="43.42934" lon="6.04904">
        <ele>318.39999389648</ele>
        <time>2015-11-04T13:47:06Z</time>
      </trkpt>
      <trkpt lat="43.42936" lon="6.04896">
        <ele>317.79998779297</ele>
        <time>2015-11-04T13:47:08Z</time>
      </trkpt>
      <trkpt lat="43.42936" lon="6.04892">
        <ele>317.20001220703</ele>
        <time>2015-11-04T13:47:09Z</time>
      </trkpt>
      <trkpt lat="43.42936" lon="6.04887">
        <ele>316.60000610352</ele>
        <time>2015-11-04T13:47:10Z</time>
      </trkpt>
      <trkpt lat="43.42941" lon="6.04878">
        <ele>315.20001220703</ele>
        <time>2015-11-04T13:47:13Z</time>
      </trkpt>
      <trkpt lat="43.42943" lon="6.04875">
        <ele>314.79998779297</ele>
        <time>2015-11-04T13:47:14Z</time>
      </trkpt>
      <trkpt lat="43.42949" lon="6.04871">
        <ele>314</ele>
        <time>2015-11-04T13:47:16Z</time>
      </trkpt>
      <trkpt lat="43.42953" lon="6.04868">
        <ele>313.39999389648</ele>
        <time>2015-11-04T13:47:18Z</time>
      </trkpt>
      <trkpt lat="43.42957" lon="6.04863">
        <ele>312.79998779297</ele>
        <time>2015-11-04T13:47:20Z</time>
      </trkpt>
      <trkpt lat="43.42962" lon="6.04859">
        <ele>311.79998779297</ele>
        <time>2015-11-04T13:47:22Z</time>
      </trkpt>
      <trkpt lat="43.42964" lon="6.04858">
        <ele>311.39999389648</ele>
        <time>2015-11-04T13:47:23Z</time>
      </trkpt>
      <trkpt lat="43.42966" lon="6.04856">
        <ele>311</ele>
        <time>2015-11-04T13:47:24Z</time>
      </trkpt>
      <trkpt lat="43.42969" lon="6.04851">
        <ele>310.39999389648</ele>
        <time>2015-11-04T13:47:26Z</time>
      </trkpt>
      <trkpt lat="43.42971" lon="6.04848">
        <ele>309.79998779297</ele>
        <time>2015-11-04T13:47:27Z</time>
      </trkpt>
      <trkpt lat="43.42973" lon="6.04847">
        <ele>309.20001220703</ele>
        <time>2015-11-04T13:47:28Z</time>
      </trkpt>
      <trkpt lat="43.42974" lon="6.04845">
        <ele>308.39999389648</ele>
        <time>2015-11-04T13:47:29Z</time>
      </trkpt>
      <trkpt lat="43.42977" lon="6.04843">
        <ele>308.20001220703</ele>
        <time>2015-11-04T13:47:30Z</time>
      </trkpt>
      <trkpt lat="43.4298" lon="6.04838">
        <ele>307.20001220703</ele>
        <time>2015-11-04T13:47:32Z</time>
      </trkpt>
      <trkpt lat="43.42984" lon="6.04833">
        <ele>305.79998779297</ele>
        <time>2015-11-04T13:47:34Z</time>
      </trkpt>
      <trkpt lat="43.42988" lon="6.04829">
        <ele>305.20001220703</ele>
        <time>2015-11-04T13:47:36Z</time>
      </trkpt>
      <trkpt lat="43.42988" lon="6.04828">
        <ele>304.79998779297</ele>
        <time>2015-11-04T13:47:37Z</time>
      </trkpt>
      <trkpt lat="43.42988" lon="6.04829">
        <ele>304.60000610352</ele>
        <time>2015-11-04T13:47:38Z</time>
      </trkpt>
      <trkpt lat="43.42988" lon="6.04828">
        <ele>304.60000610352</ele>
        <time>2015-11-04T13:47:40Z</time>
      </trkpt>
      <trkpt lat="43.42988" lon="6.04828">
        <ele>304.60000610352</ele>
        <time>2015-11-04T13:47:46Z</time>
      </trkpt>
      <trkpt lat="43.42988" lon="6.04828">
        <ele>304.60000610352</ele>
        <time>2015-11-04T13:48:04Z</time>
      </trkpt>
      <trkpt lat="43.42988" lon="6.04825">
        <ele>304.60000610352</ele>
        <time>2015-11-04T13:48:06Z</time>
      </trkpt>
      <trkpt lat="43.42989" lon="6.04822">
        <ele>304.39999389648</ele>
        <time>2015-11-04T13:48:07Z</time>
      </trkpt>
      <trkpt lat="43.4299" lon="6.04818">
        <ele>304.20001220703</ele>
        <time>2015-11-04T13:48:08Z</time>
      </trkpt>
      <trkpt lat="43.4299" lon="6.04813">
        <ele>304.20001220703</ele>
        <time>2015-11-04T13:48:09Z</time>
      </trkpt>
      <trkpt lat="43.42992" lon="6.04809">
        <ele>304.20001220703</ele>
        <time>2015-11-04T13:48:10Z</time>
      </trkpt>
      <trkpt lat="43.42994" lon="6.04807">
        <ele>304.20001220703</ele>
        <time>2015-11-04T13:48:11Z</time>
      </trkpt>
      <trkpt lat="43.42995" lon="6.04804">
        <ele>304.20001220703</ele>
        <time>2015-11-04T13:48:12Z</time>
      </trkpt>
      <trkpt lat="43.42996" lon="6.04801">
        <ele>304.20001220703</ele>
        <time>2015-11-04T13:48:13Z</time>
      </trkpt>
      <trkpt lat="43.42998" lon="6.04798">
        <ele>304</ele>
        <time>2015-11-04T13:48:14Z</time>
      </trkpt>
      <trkpt lat="43.43" lon="6.04796">
        <ele>303.60000610352</ele>
        <time>2015-11-04T13:48:16Z</time>
      </trkpt>
      <trkpt lat="43.43001" lon="6.04794">
        <ele>303.20001220703</ele>
        <time>2015-11-04T13:48:18Z</time>
      </trkpt>
      <trkpt lat="43.43003" lon="6.04792">
        <ele>303.20001220703</ele>
        <time>2015-11-04T13:48:20Z</time>
      </trkpt>
      <trkpt lat="43.43004" lon="6.0479">
        <ele>303</ele>
        <time>2015-11-04T13:48:22Z</time>
      </trkpt>
      <trkpt lat="43.43004" lon="6.0479">
        <ele>302.60000610352</ele>
        <time>2015-11-04T13:48:24Z</time>
      </trkpt>
      <trkpt lat="43.43004" lon="6.0479">
        <ele>302.20001220703</ele>
        <time>2015-11-04T13:48:29Z</time>
      </trkpt>
      <trkpt lat="43.43004" lon="6.0479">
        <ele>302.39999389648</ele>
        <time>2015-11-04T13:48:44Z</time>
      </trkpt>
      <trkpt lat="43.43005" lon="6.0479">
        <ele>302.20001220703</ele>
        <time>2015-11-04T13:48:46Z</time>
      </trkpt>
      <trkpt lat="43.43007" lon="6.04788">
        <ele>302</ele>
        <time>2015-11-04T13:48:48Z</time>
      </trkpt>
      <trkpt lat="43.43008" lon="6.04787">
        <ele>301.79998779297</ele>
        <time>2015-11-04T13:48:49Z</time>
      </trkpt>
      <trkpt lat="43.4301" lon="6.04786">
        <ele>301.39999389648</ele>
        <time>2015-11-04T13:48:50Z</time>
      </trkpt>
      <trkpt lat="43.43013" lon="6.04783">
        <ele>300.39999389648</ele>
        <time>2015-11-04T13:48:52Z</time>
      </trkpt>
      <trkpt lat="43.43016" lon="6.04781">
        <ele>299.79998779297</ele>
        <time>2015-11-04T13:48:53Z</time>
      </trkpt>
      <trkpt lat="43.43019" lon="6.04778">
        <ele>298.60000610352</ele>
        <time>2015-11-04T13:48:55Z</time>
      </trkpt>
      <trkpt lat="43.43021" lon="6.04778">
        <ele>297.39999389648</ele>
        <time>2015-11-04T13:48:56Z</time>
      </trkpt>
      <trkpt lat="43.43024" lon="6.04776">
        <ele>296.79998779297</ele>
        <time>2015-11-04T13:48:58Z</time>
      </trkpt>
      <trkpt lat="43.43024" lon="6.04776">
        <ele>296.60000610352</ele>
        <time>2015-11-04T13:49:00Z</time>
      </trkpt>
      <trkpt lat="43.43025" lon="6.04775">
        <ele>296.39999389648</ele>
        <time>2015-11-04T13:49:02Z</time>
      </trkpt>
      <trkpt lat="43.43025" lon="6.04775">
        <ele>296.39999389648</ele>
        <time>2015-11-04T13:49:08Z</time>
      </trkpt>
      <trkpt lat="43.43025" lon="6.04775">
        <ele>296.20001220703</ele>
        <time>2015-11-04T13:49:36Z</time>
      </trkpt>
      <trkpt lat="43.43025" lon="6.04774">
        <ele>296.20001220703</ele>
        <time>2015-11-04T13:49:37Z</time>
      </trkpt>
      <trkpt lat="43.43027" lon="6.04773">
        <ele>296.20001220703</ele>
        <time>2015-11-04T13:49:38Z</time>
      </trkpt>
      <trkpt lat="43.4303" lon="6.04768">
        <ele>296.20001220703</ele>
        <time>2015-11-04T13:49:40Z</time>
      </trkpt>
      <trkpt lat="43.43031" lon="6.04764">
        <ele>295.79998779297</ele>
        <time>2015-11-04T13:49:42Z</time>
      </trkpt>
      <trkpt lat="43.43032" lon="6.04759">
        <ele>296</ele>
        <time>2015-11-04T13:49:44Z</time>
      </trkpt>
      <trkpt lat="43.43035" lon="6.04753">
        <ele>296.20001220703</ele>
        <time>2015-11-04T13:49:46Z</time>
      </trkpt>
      <trkpt lat="43.43038" lon="6.04747">
        <ele>296.20001220703</ele>
        <time>2015-11-04T13:49:48Z</time>
      </trkpt>
      <trkpt lat="43.43041" lon="6.04741">
        <ele>296.60000610352</ele>
        <time>2015-11-04T13:49:50Z</time>
      </trkpt>
      <trkpt lat="43.43044" lon="6.04737">
        <ele>297</ele>
        <time>2015-11-04T13:49:52Z</time>
      </trkpt>
      <trkpt lat="43.43047" lon="6.04733">
        <ele>297.39999389648</ele>
        <time>2015-11-04T13:49:54Z</time>
      </trkpt>
      <trkpt lat="43.43049" lon="6.04728">
        <ele>297.60000610352</ele>
        <time>2015-11-04T13:49:56Z</time>
      </trkpt>
      <trkpt lat="43.43051" lon="6.04724">
        <ele>298</ele>
        <time>2015-11-04T13:49:58Z</time>
      </trkpt>
      <trkpt lat="43.43053" lon="6.0472">
        <ele>298.20001220703</ele>
        <time>2015-11-04T13:50:00Z</time>
      </trkpt>
      <trkpt lat="43.43056" lon="6.04716">
        <ele>298.39999389648</ele>
        <time>2015-11-04T13:50:02Z</time>
      </trkpt>
      <trkpt lat="43.43057" lon="6.04714">
        <ele>298.60000610352</ele>
        <time>2015-11-04T13:50:03Z</time>
      </trkpt>
      <trkpt lat="43.43058" lon="6.04711">
        <ele>298.60000610352</ele>
        <time>2015-11-04T13:50:04Z</time>
      </trkpt>
      <trkpt lat="43.43059" lon="6.04707">
        <ele>299</ele>
        <time>2015-11-04T13:50:06Z</time>
      </trkpt>
      <trkpt lat="43.4306" lon="6.04705">
        <ele>299.20001220703</ele>
        <time>2015-11-04T13:50:07Z</time>
      </trkpt>
      <trkpt lat="43.4306" lon="6.04703">
        <ele>299.60000610352</ele>
        <time>2015-11-04T13:50:08Z</time>
      </trkpt>
      <trkpt lat="43.4306" lon="6.047">
        <ele>299.60000610352</ele>
        <time>2015-11-04T13:50:09Z</time>
      </trkpt>
      <trkpt lat="43.4306" lon="6.04698">
        <ele>300</ele>
        <time>2015-11-04T13:50:10Z</time>
      </trkpt>
      <trkpt lat="43.4306" lon="6.04694">
        <ele>300.20001220703</ele>
        <time>2015-11-04T13:50:12Z</time>
      </trkpt>
      <trkpt lat="43.43058" lon="6.04689">
        <ele>300.20001220703</ele>
        <time>2015-11-04T13:50:14Z</time>
      </trkpt>
      <trkpt lat="43.43056" lon="6.04684">
        <ele>300.20001220703</ele>
        <time>2015-11-04T13:50:16Z</time>
      </trkpt>
      <trkpt lat="43.43055" lon="6.0468">
        <ele>300.39999389648</ele>
        <time>2015-11-04T13:50:18Z</time>
      </trkpt>
      <trkpt lat="43.43055" lon="6.04677">
        <ele>300.60000610352</ele>
        <time>2015-11-04T13:50:19Z</time>
      </trkpt>
      <trkpt lat="43.43054" lon="6.04675">
        <ele>300.60000610352</ele>
        <time>2015-11-04T13:50:20Z</time>
      </trkpt>
      <trkpt lat="43.43054" lon="6.04673">
        <ele>300.79998779297</ele>
        <time>2015-11-04T13:50:21Z</time>
      </trkpt>
      <trkpt lat="43.43054" lon="6.04671">
        <ele>301</ele>
        <time>2015-11-04T13:50:22Z</time>
      </trkpt>
      <trkpt lat="43.43054" lon="6.04666">
        <ele>301</ele>
        <time>2015-11-04T13:50:24Z</time>
      </trkpt>
      <trkpt lat="43.43055" lon="6.04661">
        <ele>301.20001220703</ele>
        <time>2015-11-04T13:50:26Z</time>
      </trkpt>
      <trkpt lat="43.43054" lon="6.04656">
        <ele>301</ele>
        <time>2015-11-04T13:50:28Z</time>
      </trkpt>
      <trkpt lat="43.43053" lon="6.0465">
        <ele>301.20001220703</ele>
        <time>2015-11-04T13:50:30Z</time>
      </trkpt>
      <trkpt lat="43.43052" lon="6.04645">
        <ele>301.20001220703</ele>
        <time>2015-11-04T13:50:32Z</time>
      </trkpt>
      <trkpt lat="43.43048" lon="6.04633">
        <ele>301.60000610352</ele>
        <time>2015-11-04T13:50:36Z</time>
      </trkpt>
      <trkpt lat="43.43047" lon="6.04627">
        <ele>301.60000610352</ele>
        <time>2015-11-04T13:50:38Z</time>
      </trkpt>
      <trkpt lat="43.43046" lon="6.04621">
        <ele>301.60000610352</ele>
        <time>2015-11-04T13:50:40Z</time>
      </trkpt>
      <trkpt lat="43.43045" lon="6.04609">
        <ele>301.79998779297</ele>
        <time>2015-11-04T13:50:44Z</time>
      </trkpt>
      <trkpt lat="43.43044" lon="6.04603">
        <ele>301.79998779297</ele>
        <time>2015-11-04T13:50:46Z</time>
      </trkpt>
      <trkpt lat="43.43043" lon="6.04597">
        <ele>302</ele>
        <time>2015-11-04T13:50:48Z</time>
      </trkpt>
      <trkpt lat="43.43044" lon="6.04591">
        <ele>302.60000610352</ele>
        <time>2015-11-04T13:50:50Z</time>
      </trkpt>
      <trkpt lat="43.43045" lon="6.04588">
        <ele>302.39999389648</ele>
        <time>2015-11-04T13:50:51Z</time>
      </trkpt>
      <trkpt lat="43.43045" lon="6.04584">
        <ele>302.39999389648</ele>
        <time>2015-11-04T13:50:52Z</time>
      </trkpt>
      <trkpt lat="43.43047" lon="6.04576">
        <ele>302.39999389648</ele>
        <time>2015-11-04T13:50:54Z</time>
      </trkpt>
      <trkpt lat="43.43048" lon="6.04566">
        <ele>302.79998779297</ele>
        <time>2015-11-04T13:50:56Z</time>
      </trkpt>
      <trkpt lat="43.43051" lon="6.04557">
        <ele>303</ele>
        <time>2015-11-04T13:50:58Z</time>
      </trkpt>
      <trkpt lat="43.43053" lon="6.04547">
        <ele>303.20001220703</ele>
        <time>2015-11-04T13:51:00Z</time>
      </trkpt>
      <trkpt lat="43.43055" lon="6.04538">
        <ele>303.39999389648</ele>
        <time>2015-11-04T13:51:02Z</time>
      </trkpt>
      <trkpt lat="43.43057" lon="6.04528">
        <ele>303.79998779297</ele>
        <time>2015-11-04T13:51:04Z</time>
      </trkpt>
      <trkpt lat="43.4306" lon="6.04508">
        <ele>304.20001220703</ele>
        <time>2015-11-04T13:51:08Z</time>
      </trkpt>
      <trkpt lat="43.43061" lon="6.04497">
        <ele>304.20001220703</ele>
        <time>2015-11-04T13:51:10Z</time>
      </trkpt>
      <trkpt lat="43.43066" lon="6.04478">
        <ele>305.20001220703</ele>
        <time>2015-11-04T13:51:14Z</time>
      </trkpt>
      <trkpt lat="43.4307" lon="6.04464">
        <ele>305.39999389648</ele>
        <time>2015-11-04T13:51:17Z</time>
      </trkpt>
      <trkpt lat="43.43071" lon="6.04458">
        <ele>305.60000610352</ele>
        <time>2015-11-04T13:51:18Z</time>
      </trkpt>
      <trkpt lat="43.43073" lon="6.04449">
        <ele>306</ele>
        <time>2015-11-04T13:51:20Z</time>
      </trkpt>
      <trkpt lat="43.43076" lon="6.04442">
        <ele>306.20001220703</ele>
        <time>2015-11-04T13:51:22Z</time>
      </trkpt>
      <trkpt lat="43.43079" lon="6.04434">
        <ele>306.60000610352</ele>
        <time>2015-11-04T13:51:24Z</time>
      </trkpt>
      <trkpt lat="43.43081" lon="6.04426">
        <ele>306.79998779297</ele>
        <time>2015-11-04T13:51:26Z</time>
      </trkpt>
      <trkpt lat="43.43082" lon="6.04419">
        <ele>307.60000610352</ele>
        <time>2015-11-04T13:51:28Z</time>
      </trkpt>
      <trkpt lat="43.43082" lon="6.04416">
        <ele>307.60000610352</ele>
        <time>2015-11-04T13:51:29Z</time>
      </trkpt>
      <trkpt lat="43.43082" lon="6.04409">
        <ele>308</ele>
        <time>2015-11-04T13:51:32Z</time>
      </trkpt>
      <trkpt lat="43.43082" lon="6.04406">
        <ele>308</ele>
        <time>2015-11-04T13:51:34Z</time>
      </trkpt>
      <trkpt lat="43.43084" lon="6.04402">
        <ele>308.20001220703</ele>
        <time>2015-11-04T13:51:36Z</time>
      </trkpt>
      <trkpt lat="43.43085" lon="6.04397">
        <ele>308.39999389648</ele>
        <time>2015-11-04T13:51:38Z</time>
      </trkpt>
      <trkpt lat="43.43087" lon="6.04393">
        <ele>308.39999389648</ele>
        <time>2015-11-04T13:51:40Z</time>
      </trkpt>
      <trkpt lat="43.43089" lon="6.04389">
        <ele>308.60000610352</ele>
        <time>2015-11-04T13:51:42Z</time>
      </trkpt>
      <trkpt lat="43.4309" lon="6.04386">
        <ele>308.79998779297</ele>
        <time>2015-11-04T13:51:44Z</time>
      </trkpt>
      <trkpt lat="43.43093" lon="6.04382">
        <ele>309.20001220703</ele>
        <time>2015-11-04T13:51:46Z</time>
      </trkpt>
      <trkpt lat="43.43095" lon="6.0438">
        <ele>309</ele>
        <time>2015-11-04T13:51:48Z</time>
      </trkpt>
      <trkpt lat="43.43097" lon="6.04377">
        <ele>309.20001220703</ele>
        <time>2015-11-04T13:51:50Z</time>
      </trkpt>
      <trkpt lat="43.43099" lon="6.04374">
        <ele>309.60000610352</ele>
        <time>2015-11-04T13:51:52Z</time>
      </trkpt>
      <trkpt lat="43.431" lon="6.04371">
        <ele>310</ele>
        <time>2015-11-04T13:51:54Z</time>
      </trkpt>
      <trkpt lat="43.43101" lon="6.04366">
        <ele>310.20001220703</ele>
        <time>2015-11-04T13:51:56Z</time>
      </trkpt>
      <trkpt lat="43.43102" lon="6.04363">
        <ele>310.20001220703</ele>
        <time>2015-11-04T13:51:58Z</time>
      </trkpt>
      <trkpt lat="43.43102" lon="6.04359">
        <ele>310.20001220703</ele>
        <time>2015-11-04T13:52:00Z</time>
      </trkpt>
      <trkpt lat="43.43102" lon="6.04355">
        <ele>310.39999389648</ele>
        <time>2015-11-04T13:52:02Z</time>
      </trkpt>
      <trkpt lat="43.43102" lon="6.0435">
        <ele>310.79998779297</ele>
        <time>2015-11-04T13:52:04Z</time>
      </trkpt>
      <trkpt lat="43.43103" lon="6.04346">
        <ele>311</ele>
        <time>2015-11-04T13:52:06Z</time>
      </trkpt>
      <trkpt lat="43.43105" lon="6.04342">
        <ele>311</ele>
        <time>2015-11-04T13:52:08Z</time>
      </trkpt>
      <trkpt lat="43.43105" lon="6.04337">
        <ele>311</ele>
        <time>2015-11-04T13:52:10Z</time>
      </trkpt>
      <trkpt lat="43.43104" lon="6.04333">
        <ele>310.79998779297</ele>
        <time>2015-11-04T13:52:12Z</time>
      </trkpt>
      <trkpt lat="43.43104" lon="6.04329">
        <ele>311.20001220703</ele>
        <time>2015-11-04T13:52:14Z</time>
      </trkpt>
      <trkpt lat="43.43103" lon="6.04324">
        <ele>311.60000610352</ele>
        <time>2015-11-04T13:52:16Z</time>
      </trkpt>
      <trkpt lat="43.43103" lon="6.0432">
        <ele>312</ele>
        <time>2015-11-04T13:52:18Z</time>
      </trkpt>
      <trkpt lat="43.43103" lon="6.04316">
        <ele>312.20001220703</ele>
        <time>2015-11-04T13:52:20Z</time>
      </trkpt>
      <trkpt lat="43.43103" lon="6.04312">
        <ele>312</ele>
        <time>2015-11-04T13:52:22Z</time>
      </trkpt>
      <trkpt lat="43.43102" lon="6.04307">
        <ele>312.20001220703</ele>
        <time>2015-11-04T13:52:24Z</time>
      </trkpt>
      <trkpt lat="43.43101" lon="6.04302">
        <ele>312.39999389648</ele>
        <time>2015-11-04T13:52:26Z</time>
      </trkpt>
      <trkpt lat="43.431" lon="6.04292">
        <ele>312.60000610352</ele>
        <time>2015-11-04T13:52:30Z</time>
      </trkpt>
      <trkpt lat="43.43099" lon="6.04287">
        <ele>313</ele>
        <time>2015-11-04T13:52:32Z</time>
      </trkpt>
      <trkpt lat="43.43097" lon="6.04276">
        <ele>313.20001220703</ele>
        <time>2015-11-04T13:52:36Z</time>
      </trkpt>
      <trkpt lat="43.43096" lon="6.0427">
        <ele>313.39999389648</ele>
        <time>2015-11-04T13:52:38Z</time>
      </trkpt>
      <trkpt lat="43.43095" lon="6.04265">
        <ele>313.39999389648</ele>
        <time>2015-11-04T13:52:40Z</time>
      </trkpt>
      <trkpt lat="43.43095" lon="6.04262">
        <ele>313.39999389648</ele>
        <time>2015-11-04T13:52:41Z</time>
      </trkpt>
      <trkpt lat="43.43093" lon="6.04259">
        <ele>313.60000610352</ele>
        <time>2015-11-04T13:52:42Z</time>
      </trkpt>
      <trkpt lat="43.43092" lon="6.04254">
        <ele>314</ele>
        <time>2015-11-04T13:52:44Z</time>
      </trkpt>
      <trkpt lat="43.43089" lon="6.04242">
        <ele>313.79998779297</ele>
        <time>2015-11-04T13:52:48Z</time>
      </trkpt>
      <trkpt lat="43.4308" lon="6.04221">
        <ele>314.39999389648</ele>
        <time>2015-11-04T13:52:56Z</time>
      </trkpt>
      <trkpt lat="43.43079" lon="6.04218">
        <ele>314.60000610352</ele>
        <time>2015-11-04T13:52:57Z</time>
      </trkpt>
      <trkpt lat="43.43078" lon="6.04216">
        <ele>314.39999389648</ele>
        <time>2015-11-04T13:52:58Z</time>
      </trkpt>
      <trkpt lat="43.43075" lon="6.04211">
        <ele>314.39999389648</ele>
        <time>2015-11-04T13:53:00Z</time>
      </trkpt>
      <trkpt lat="43.43074" lon="6.04206">
        <ele>314.60000610352</ele>
        <time>2015-11-04T13:53:02Z</time>
      </trkpt>
      <trkpt lat="43.43073" lon="6.04203">
        <ele>314.79998779297</ele>
        <time>2015-11-04T13:53:03Z</time>
      </trkpt>
      <trkpt lat="43.43073" lon="6.04199">
        <ele>314.79998779297</ele>
        <time>2015-11-04T13:53:04Z</time>
      </trkpt>
      <trkpt lat="43.43074" lon="6.04194">
        <ele>314.79998779297</ele>
        <time>2015-11-04T13:53:06Z</time>
      </trkpt>
      <trkpt lat="43.43075" lon="6.04192">
        <ele>315</ele>
        <time>2015-11-04T13:53:07Z</time>
      </trkpt>
      <trkpt lat="43.43076" lon="6.04189">
        <ele>315.20001220703</ele>
        <time>2015-11-04T13:53:08Z</time>
      </trkpt>
      <trkpt lat="43.43077" lon="6.04185">
        <ele>315</ele>
        <time>2015-11-04T13:53:10Z</time>
      </trkpt>
      <trkpt lat="43.43079" lon="6.04173">
        <ele>315.60000610352</ele>
        <time>2015-11-04T13:53:14Z</time>
      </trkpt>
      <trkpt lat="43.43079" lon="6.04166">
        <ele>315.79998779297</ele>
        <time>2015-11-04T13:53:16Z</time>
      </trkpt>
      <trkpt lat="43.43077" lon="6.0416">
        <ele>315.60000610352</ele>
        <time>2015-11-04T13:53:18Z</time>
      </trkpt>
      <trkpt lat="43.43076" lon="6.04155">
        <ele>315.79998779297</ele>
        <time>2015-11-04T13:53:20Z</time>
      </trkpt>
      <trkpt lat="43.43075" lon="6.04148">
        <ele>315.60000610352</ele>
        <time>2015-11-04T13:53:22Z</time>
      </trkpt>
      <trkpt lat="43.43075" lon="6.04145">
        <ele>315.79998779297</ele>
        <time>2015-11-04T13:53:23Z</time>
      </trkpt>
      <trkpt lat="43.43075" lon="6.04142">
        <ele>315.79998779297</ele>
        <time>2015-11-04T13:53:24Z</time>
      </trkpt>
      <trkpt lat="43.43077" lon="6.04136">
        <ele>316</ele>
        <time>2015-11-04T13:53:26Z</time>
      </trkpt>
      <trkpt lat="43.43077" lon="6.04134">
        <ele>316.20001220703</ele>
        <time>2015-11-04T13:53:27Z</time>
      </trkpt>
      <trkpt lat="43.43078" lon="6.04131">
        <ele>316.20001220703</ele>
        <time>2015-11-04T13:53:28Z</time>
      </trkpt>
      <trkpt lat="43.43079" lon="6.04129">
        <ele>316.20001220703</ele>
        <time>2015-11-04T13:53:29Z</time>
      </trkpt>
      <trkpt lat="43.4308" lon="6.04126">
        <ele>316.20001220703</ele>
        <time>2015-11-04T13:53:30Z</time>
      </trkpt>
      <trkpt lat="43.43082" lon="6.0412">
        <ele>316.39999389648</ele>
        <time>2015-11-04T13:53:32Z</time>
      </trkpt>
      <trkpt lat="43.43083" lon="6.04113">
        <ele>316.39999389648</ele>
        <time>2015-11-04T13:53:34Z</time>
      </trkpt>
      <trkpt lat="43.43084" lon="6.04107">
        <ele>316.60000610352</ele>
        <time>2015-11-04T13:53:36Z</time>
      </trkpt>
      <trkpt lat="43.43084" lon="6.041">
        <ele>316.60000610352</ele>
        <time>2015-11-04T13:53:38Z</time>
      </trkpt>
      <trkpt lat="43.43084" lon="6.04093">
        <ele>316.39999389648</ele>
        <time>2015-11-04T13:53:40Z</time>
      </trkpt>
      <trkpt lat="43.43083" lon="6.04087">
        <ele>316.60000610352</ele>
        <time>2015-11-04T13:53:42Z</time>
      </trkpt>
      <trkpt lat="43.43083" lon="6.04084">
        <ele>316.79998779297</ele>
        <time>2015-11-04T13:53:43Z</time>
      </trkpt>
      <trkpt lat="43.43082" lon="6.04074">
        <ele>317.20001220703</ele>
        <time>2015-11-04T13:53:46Z</time>
      </trkpt>
      <trkpt lat="43.43082" lon="6.04069">
        <ele>317.60000610352</ele>
        <time>2015-11-04T13:53:48Z</time>
      </trkpt>
      <trkpt lat="43.43082" lon="6.04063">
        <ele>317.79998779297</ele>
        <time>2015-11-04T13:53:50Z</time>
      </trkpt>
      <trkpt lat="43.43082" lon="6.04058">
        <ele>318</ele>
        <time>2015-11-04T13:53:52Z</time>
      </trkpt>
      <trkpt lat="43.4308" lon="6.04041">
        <ele>318.20001220703</ele>
        <time>2015-11-04T13:53:58Z</time>
      </trkpt>
      <trkpt lat="43.43081" lon="6.04036">
        <ele>318.39999389648</ele>
        <time>2015-11-04T13:54:00Z</time>
      </trkpt>
      <trkpt lat="43.4308" lon="6.04031">
        <ele>318.60000610352</ele>
        <time>2015-11-04T13:54:02Z</time>
      </trkpt>
      <trkpt lat="43.4308" lon="6.04027">
        <ele>318.79998779297</ele>
        <time>2015-11-04T13:54:04Z</time>
      </trkpt>
      <trkpt lat="43.43079" lon="6.04025">
        <ele>318.79998779297</ele>
        <time>2015-11-04T13:54:05Z</time>
      </trkpt>
      <trkpt lat="43.43076" lon="6.04016">
        <ele>319.39999389648</ele>
        <time>2015-11-04T13:54:09Z</time>
      </trkpt>
      <trkpt lat="43.43075" lon="6.04015">
        <ele>319.60000610352</ele>
        <time>2015-11-04T13:54:10Z</time>
      </trkpt>
      <trkpt lat="43.43074" lon="6.04011">
        <ele>319.79998779297</ele>
        <time>2015-11-04T13:54:12Z</time>
      </trkpt>
      <trkpt lat="43.43072" lon="6.04008">
        <ele>320.20001220703</ele>
        <time>2015-11-04T13:54:14Z</time>
      </trkpt>
      <trkpt lat="43.43071" lon="6.04007">
        <ele>320.39999389648</ele>
        <time>2015-11-04T13:54:15Z</time>
      </trkpt>
      <trkpt lat="43.43071" lon="6.04005">
        <ele>320.39999389648</ele>
        <time>2015-11-04T13:54:16Z</time>
      </trkpt>
      <trkpt lat="43.43071" lon="6.04004">
        <ele>320.39999389648</ele>
        <time>2015-11-04T13:54:17Z</time>
      </trkpt>
      <trkpt lat="43.4307" lon="6.04003">
        <ele>320.39999389648</ele>
        <time>2015-11-04T13:54:18Z</time>
      </trkpt>
      <trkpt lat="43.43069" lon="6.04001">
        <ele>320.60000610352</ele>
        <time>2015-11-04T13:54:20Z</time>
      </trkpt>
      <trkpt lat="43.43069" lon="6.04">
        <ele>320.60000610352</ele>
        <time>2015-11-04T13:54:22Z</time>
      </trkpt>
      <trkpt lat="43.43069" lon="6.04">
        <ele>320.60000610352</ele>
        <time>2015-11-04T13:54:24Z</time>
      </trkpt>
      <trkpt lat="43.43069" lon="6.04">
        <ele>320.79998779297</ele>
        <time>2015-11-04T13:54:28Z</time>
      </trkpt>
      <trkpt lat="43.43069" lon="6.04">
        <ele>320.60000610352</ele>
        <time>2015-11-04T13:55:00Z</time>
      </trkpt>
      <trkpt lat="43.43069" lon="6.04">
        <ele>320.60000610352</ele>
        <time>2015-11-04T13:55:02Z</time>
      </trkpt>
      <trkpt lat="43.43069" lon="6.04">
        <ele>320.79998779297</ele>
        <time>2015-11-04T13:55:07Z</time>
      </trkpt>
      <trkpt lat="43.43069" lon="6.04">
        <ele>320.60000610352</ele>
        <time>2015-11-04T13:55:40Z</time>
      </trkpt>
      <trkpt lat="43.43069" lon="6.04">
        <ele>320.39999389648</ele>
        <time>2015-11-04T13:55:42Z</time>
      </trkpt>
      <trkpt lat="43.43069" lon="6.04">
        <ele>320.60000610352</ele>
        <time>2015-11-04T13:55:48Z</time>
      </trkpt>
      <trkpt lat="43.43069" lon="6.04">
        <ele>320.60000610352</ele>
        <time>2015-11-04T13:56:20Z</time>
      </trkpt>
      <trkpt lat="43.43069" lon="6.04">
        <ele>320.79998779297</ele>
        <time>2015-11-04T13:56:22Z</time>
      </trkpt>
      <trkpt lat="43.43069" lon="6.04">
        <ele>320.79998779297</ele>
        <time>2015-11-04T13:56:28Z</time>
      </trkpt>
      <trkpt lat="43.43069" lon="6.04">
        <ele>320.79998779297</ele>
        <time>2015-11-04T13:57:08Z</time>
      </trkpt>
      <trkpt lat="43.43069" lon="6.04">
        <ele>320.39999389648</ele>
        <time>2015-11-04T13:57:28Z</time>
      </trkpt>
      <trkpt lat="43.43071" lon="6.03997">
        <ele>320.39999389648</ele>
        <time>2015-11-04T13:57:30Z</time>
      </trkpt>
      <trkpt lat="43.43072" lon="6.03993">
        <ele>320.79998779297</ele>
        <time>2015-11-04T13:57:32Z</time>
      </trkpt>
      <trkpt lat="43.43073" lon="6.03986">
        <ele>320.79998779297</ele>
        <time>2015-11-04T13:57:34Z</time>
      </trkpt>
      <trkpt lat="43.43073" lon="6.03983">
        <ele>320.79998779297</ele>
        <time>2015-11-04T13:57:35Z</time>
      </trkpt>
      <trkpt lat="43.43074" lon="6.03979">
        <ele>320.79998779297</ele>
        <time>2015-11-04T13:57:36Z</time>
      </trkpt>
      <trkpt lat="43.43076" lon="6.0397">
        <ele>320.79998779297</ele>
        <time>2015-11-04T13:57:38Z</time>
      </trkpt>
      <trkpt lat="43.43078" lon="6.03961">
        <ele>321</ele>
        <time>2015-11-04T13:57:40Z</time>
      </trkpt>
      <trkpt lat="43.43079" lon="6.03956">
        <ele>321.20001220703</ele>
        <time>2015-11-04T13:57:41Z</time>
      </trkpt>
      <trkpt lat="43.4308" lon="6.03951">
        <ele>321.20001220703</ele>
        <time>2015-11-04T13:57:42Z</time>
      </trkpt>
      <trkpt lat="43.43082" lon="6.03942">
        <ele>321.20001220703</ele>
        <time>2015-11-04T13:57:44Z</time>
      </trkpt>
      <trkpt lat="43.43083" lon="6.03938">
        <ele>321.60000610352</ele>
        <time>2015-11-04T13:57:45Z</time>
      </trkpt>
      <trkpt lat="43.43085" lon="6.03926">
        <ele>322.79998779297</ele>
        <time>2015-11-04T13:57:48Z</time>
      </trkpt>
      <trkpt lat="43.43086" lon="6.03918">
        <ele>323.39999389648</ele>
        <time>2015-11-04T13:57:50Z</time>
      </trkpt>
      <trkpt lat="43.43086" lon="6.03914">
        <ele>324</ele>
        <time>2015-11-04T13:57:51Z</time>
      </trkpt>
      <trkpt lat="43.43086" lon="6.03911">
        <ele>324.39999389648</ele>
        <time>2015-11-04T13:57:52Z</time>
      </trkpt>
      <trkpt lat="43.43087" lon="6.03903">
        <ele>324.60000610352</ele>
        <time>2015-11-04T13:57:54Z</time>
      </trkpt>
      <trkpt lat="43.43086" lon="6.03896">
        <ele>325.20001220703</ele>
        <time>2015-11-04T13:57:56Z</time>
      </trkpt>
      <trkpt lat="43.43086" lon="6.03891">
        <ele>325.39999389648</ele>
        <time>2015-11-04T13:57:58Z</time>
      </trkpt>
      <trkpt lat="43.43086" lon="6.03885">
        <ele>325.79998779297</ele>
        <time>2015-11-04T13:58:00Z</time>
      </trkpt>
      <trkpt lat="43.43086" lon="6.03882">
        <ele>326.20001220703</ele>
        <time>2015-11-04T13:58:01Z</time>
      </trkpt>
      <trkpt lat="43.43086" lon="6.03879">
        <ele>326.20001220703</ele>
        <time>2015-11-04T13:58:02Z</time>
      </trkpt>
      <trkpt lat="43.43086" lon="6.03874">
        <ele>326.39999389648</ele>
        <time>2015-11-04T13:58:04Z</time>
      </trkpt>
      <trkpt lat="43.43087" lon="6.03869">
        <ele>326.39999389648</ele>
        <time>2015-11-04T13:58:06Z</time>
      </trkpt>
      <trkpt lat="43.43088" lon="6.03863">
        <ele>326.60000610352</ele>
        <time>2015-11-04T13:58:08Z</time>
      </trkpt>
      <trkpt lat="43.43089" lon="6.03851">
        <ele>326.39999389648</ele>
        <time>2015-11-04T13:58:12Z</time>
      </trkpt>
      <trkpt lat="43.43089" lon="6.03844">
        <ele>326.39999389648</ele>
        <time>2015-11-04T13:58:14Z</time>
      </trkpt>
      <trkpt lat="43.43089" lon="6.03841">
        <ele>326.39999389648</ele>
        <time>2015-11-04T13:58:15Z</time>
      </trkpt>
      <trkpt lat="43.4309" lon="6.03838">
        <ele>326.20001220703</ele>
        <time>2015-11-04T13:58:16Z</time>
      </trkpt>
      <trkpt lat="43.4309" lon="6.03832">
        <ele>326.20001220703</ele>
        <time>2015-11-04T13:58:18Z</time>
      </trkpt>
      <trkpt lat="43.4309" lon="6.03826">
        <ele>326.39999389648</ele>
        <time>2015-11-04T13:58:20Z</time>
      </trkpt>
      <trkpt lat="43.43091" lon="6.03819">
        <ele>326.60000610352</ele>
        <time>2015-11-04T13:58:22Z</time>
      </trkpt>
      <trkpt lat="43.43092" lon="6.03812">
        <ele>326.60000610352</ele>
        <time>2015-11-04T13:58:24Z</time>
      </trkpt>
      <trkpt lat="43.43093" lon="6.03797">
        <ele>326.79998779297</ele>
        <time>2015-11-04T13:58:28Z</time>
      </trkpt>
      <trkpt lat="43.43093" lon="6.0379">
        <ele>326.79998779297</ele>
        <time>2015-11-04T13:58:30Z</time>
      </trkpt>
      <trkpt lat="43.43093" lon="6.03783">
        <ele>326.79998779297</ele>
        <time>2015-11-04T13:58:32Z</time>
      </trkpt>
      <trkpt lat="43.43093" lon="6.03768">
        <ele>326.79998779297</ele>
        <time>2015-11-04T13:58:36Z</time>
      </trkpt>
      <trkpt lat="43.43094" lon="6.03761">
        <ele>326.79998779297</ele>
        <time>2015-11-04T13:58:38Z</time>
      </trkpt>
      <trkpt lat="43.43094" lon="6.03753">
        <ele>327</ele>
        <time>2015-11-04T13:58:40Z</time>
      </trkpt>
      <trkpt lat="43.43095" lon="6.03743">
        <ele>327</ele>
        <time>2015-11-04T13:58:43Z</time>
      </trkpt>
      <trkpt lat="43.43096" lon="6.03732">
        <ele>327</ele>
        <time>2015-11-04T13:58:46Z</time>
      </trkpt>
      <trkpt lat="43.43096" lon="6.03712">
        <ele>327.39999389648</ele>
        <time>2015-11-04T13:58:52Z</time>
      </trkpt>
      <trkpt lat="43.43097" lon="6.03705">
        <ele>327.39999389648</ele>
        <time>2015-11-04T13:58:54Z</time>
      </trkpt>
      <trkpt lat="43.43097" lon="6.03698">
        <ele>327.60000610352</ele>
        <time>2015-11-04T13:58:56Z</time>
      </trkpt>
      <trkpt lat="43.43097" lon="6.0369">
        <ele>327.60000610352</ele>
        <time>2015-11-04T13:58:58Z</time>
      </trkpt>
      <trkpt lat="43.43098" lon="6.03682">
        <ele>327.79998779297</ele>
        <time>2015-11-04T13:59:00Z</time>
      </trkpt>
      <trkpt lat="43.43098" lon="6.03675">
        <ele>327.79998779297</ele>
        <time>2015-11-04T13:59:02Z</time>
      </trkpt>
      <trkpt lat="43.43099" lon="6.03667">
        <ele>327.79998779297</ele>
        <time>2015-11-04T13:59:04Z</time>
      </trkpt>
      <trkpt lat="43.43097" lon="6.0366">
        <ele>327.79998779297</ele>
        <time>2015-11-04T13:59:06Z</time>
      </trkpt>
      <trkpt lat="43.43097" lon="6.03653">
        <ele>328</ele>
        <time>2015-11-04T13:59:08Z</time>
      </trkpt>
      <trkpt lat="43.43099" lon="6.03646">
        <ele>327.79998779297</ele>
        <time>2015-11-04T13:59:10Z</time>
      </trkpt>
      <trkpt lat="43.431" lon="6.03639">
        <ele>327.79998779297</ele>
        <time>2015-11-04T13:59:12Z</time>
      </trkpt>
      <trkpt lat="43.43101" lon="6.03633">
        <ele>328.20001220703</ele>
        <time>2015-11-04T13:59:14Z</time>
      </trkpt>
      <trkpt lat="43.43102" lon="6.03618">
        <ele>328.39999389648</ele>
        <time>2015-11-04T13:59:18Z</time>
      </trkpt>
      <trkpt lat="43.43102" lon="6.03611">
        <ele>328.60000610352</ele>
        <time>2015-11-04T13:59:20Z</time>
      </trkpt>
      <trkpt lat="43.43103" lon="6.03604">
        <ele>328.79998779297</ele>
        <time>2015-11-04T13:59:22Z</time>
      </trkpt>
      <trkpt lat="43.43103" lon="6.03597">
        <ele>329.20001220703</ele>
        <time>2015-11-04T13:59:24Z</time>
      </trkpt>
      <trkpt lat="43.43104" lon="6.03591">
        <ele>329.39999389648</ele>
        <time>2015-11-04T13:59:26Z</time>
      </trkpt>
      <trkpt lat="43.43106" lon="6.03585">
        <ele>329.79998779297</ele>
        <time>2015-11-04T13:59:28Z</time>
      </trkpt>
      <trkpt lat="43.43104" lon="6.0358">
        <ele>330</ele>
        <time>2015-11-04T13:59:30Z</time>
      </trkpt>
      <trkpt lat="43.43103" lon="6.03574">
        <ele>330.20001220703</ele>
        <time>2015-11-04T13:59:32Z</time>
      </trkpt>
      <trkpt lat="43.43105" lon="6.03569">
        <ele>330.20001220703</ele>
        <time>2015-11-04T13:59:34Z</time>
      </trkpt>
      <trkpt lat="43.43106" lon="6.03557">
        <ele>330.60000610352</ele>
        <time>2015-11-04T13:59:38Z</time>
      </trkpt>
      <trkpt lat="43.43106" lon="6.03552">
        <ele>330.60000610352</ele>
        <time>2015-11-04T13:59:40Z</time>
      </trkpt>
      <trkpt lat="43.43106" lon="6.03547">
        <ele>330.60000610352</ele>
        <time>2015-11-04T13:59:42Z</time>
      </trkpt>
      <trkpt lat="43.43106" lon="6.03543">
        <ele>330.79998779297</ele>
        <time>2015-11-04T13:59:43Z</time>
      </trkpt>
      <trkpt lat="43.43106" lon="6.0354">
        <ele>330.79998779297</ele>
        <time>2015-11-04T13:59:44Z</time>
      </trkpt>
      <trkpt lat="43.43107" lon="6.03534">
        <ele>330.79998779297</ele>
        <time>2015-11-04T13:59:46Z</time>
      </trkpt>
      <trkpt lat="43.43107" lon="6.03527">
        <ele>331.20001220703</ele>
        <time>2015-11-04T13:59:48Z</time>
      </trkpt>
      <trkpt lat="43.43108" lon="6.03518">
        <ele>331.60000610352</ele>
        <time>2015-11-04T13:59:51Z</time>
      </trkpt>
      <trkpt lat="43.43108" lon="6.03514">
        <ele>331.60000610352</ele>
        <time>2015-11-04T13:59:52Z</time>
      </trkpt>
      <trkpt lat="43.43109" lon="6.03507">
        <ele>332</ele>
        <time>2015-11-04T13:59:54Z</time>
      </trkpt>
      <trkpt lat="43.43109" lon="6.03494">
        <ele>332.39999389648</ele>
        <time>2015-11-04T13:59:58Z</time>
      </trkpt>
      <trkpt lat="43.43109" lon="6.03488">
        <ele>332.60000610352</ele>
        <time>2015-11-04T14:00:00Z</time>
      </trkpt>
      <trkpt lat="43.43109" lon="6.03482">
        <ele>333</ele>
        <time>2015-11-04T14:00:02Z</time>
      </trkpt>
      <trkpt lat="43.43111" lon="6.03464">
        <ele>333.39999389648</ele>
        <time>2015-11-04T14:00:08Z</time>
      </trkpt>
      <trkpt lat="43.43111" lon="6.03458">
        <ele>333.60000610352</ele>
        <time>2015-11-04T14:00:10Z</time>
      </trkpt>
      <trkpt lat="43.43112" lon="6.03452">
        <ele>333.79998779297</ele>
        <time>2015-11-04T14:00:12Z</time>
      </trkpt>
      <trkpt lat="43.43112" lon="6.03445">
        <ele>334</ele>
        <time>2015-11-04T14:00:14Z</time>
      </trkpt>
      <trkpt lat="43.43113" lon="6.03438">
        <ele>334</ele>
        <time>2015-11-04T14:00:16Z</time>
      </trkpt>
      <trkpt lat="43.43115" lon="6.03418">
        <ele>334.20001220703</ele>
        <time>2015-11-04T14:00:22Z</time>
      </trkpt>
      <trkpt lat="43.43118" lon="6.03405">
        <ele>334.39999389648</ele>
        <time>2015-11-04T14:00:26Z</time>
      </trkpt>
      <trkpt lat="43.43118" lon="6.03398">
        <ele>334.39999389648</ele>
        <time>2015-11-04T14:00:28Z</time>
      </trkpt>
      <trkpt lat="43.43118" lon="6.03395">
        <ele>334.20001220703</ele>
        <time>2015-11-04T14:00:29Z</time>
      </trkpt>
      <trkpt lat="43.4312" lon="6.03385">
        <ele>334.39999389648</ele>
        <time>2015-11-04T14:00:32Z</time>
      </trkpt>
      <trkpt lat="43.4312" lon="6.03378">
        <ele>334.39999389648</ele>
        <time>2015-11-04T14:00:34Z</time>
      </trkpt>
      <trkpt lat="43.4312" lon="6.03375">
        <ele>334.60000610352</ele>
        <time>2015-11-04T14:00:35Z</time>
      </trkpt>
      <trkpt lat="43.43121" lon="6.03368">
        <ele>334.60000610352</ele>
        <time>2015-11-04T14:00:37Z</time>
      </trkpt>
      <trkpt lat="43.43121" lon="6.03364">
        <ele>334.79998779297</ele>
        <time>2015-11-04T14:00:38Z</time>
      </trkpt>
      <trkpt lat="43.43122" lon="6.03348">
        <ele>334.79998779297</ele>
        <time>2015-11-04T14:00:42Z</time>
      </trkpt>
      <trkpt lat="43.43123" lon="6.03338">
        <ele>335</ele>
        <time>2015-11-04T14:00:44Z</time>
      </trkpt>
      <trkpt lat="43.43123" lon="6.03329">
        <ele>335.20001220703</ele>
        <time>2015-11-04T14:00:46Z</time>
      </trkpt>
      <trkpt lat="43.43123" lon="6.0332">
        <ele>335.60000610352</ele>
        <time>2015-11-04T14:00:48Z</time>
      </trkpt>
      <trkpt lat="43.43124" lon="6.03315">
        <ele>335.79998779297</ele>
        <time>2015-11-04T14:00:49Z</time>
      </trkpt>
      <trkpt lat="43.43124" lon="6.03311">
        <ele>336.20001220703</ele>
        <time>2015-11-04T14:00:50Z</time>
      </trkpt>
      <trkpt lat="43.43124" lon="6.03302">
        <ele>336.79998779297</ele>
        <time>2015-11-04T14:00:52Z</time>
      </trkpt>
      <trkpt lat="43.43124" lon="6.03299">
        <ele>336.79998779297</ele>
        <time>2015-11-04T14:00:53Z</time>
      </trkpt>
      <trkpt lat="43.43124" lon="6.03296">
        <ele>337</ele>
        <time>2015-11-04T14:00:54Z</time>
      </trkpt>
      <trkpt lat="43.43124" lon="6.0329">
        <ele>337.39999389648</ele>
        <time>2015-11-04T14:00:56Z</time>
      </trkpt>
      <trkpt lat="43.43125" lon="6.03278">
        <ele>337.79998779297</ele>
        <time>2015-11-04T14:01:00Z</time>
      </trkpt>
      <trkpt lat="43.43126" lon="6.03276">
        <ele>338</ele>
        <time>2015-11-04T14:01:01Z</time>
      </trkpt>
      <trkpt lat="43.43126" lon="6.03274">
        <ele>337.79998779297</ele>
        <time>2015-11-04T14:01:02Z</time>
      </trkpt>
      <trkpt lat="43.43126" lon="6.03269">
        <ele>338</ele>
        <time>2015-11-04T14:01:04Z</time>
      </trkpt>
      <trkpt lat="43.43126" lon="6.03265">
        <ele>338.20001220703</ele>
        <time>2015-11-04T14:01:06Z</time>
      </trkpt>
      <trkpt lat="43.43126" lon="6.0326">
        <ele>338.39999389648</ele>
        <time>2015-11-04T14:01:08Z</time>
      </trkpt>
      <trkpt lat="43.43126" lon="6.03256">
        <ele>338.39999389648</ele>
        <time>2015-11-04T14:01:10Z</time>
      </trkpt>
      <trkpt lat="43.43127" lon="6.03252">
        <ele>338.39999389648</ele>
        <time>2015-11-04T14:01:12Z</time>
      </trkpt>
      <trkpt lat="43.43127" lon="6.03249">
        <ele>338.60000610352</ele>
        <time>2015-11-04T14:01:14Z</time>
      </trkpt>
      <trkpt lat="43.43127" lon="6.03246">
        <ele>338.79998779297</ele>
        <time>2015-11-04T14:01:16Z</time>
      </trkpt>
      <trkpt lat="43.43128" lon="6.03244">
        <ele>338.79998779297</ele>
        <time>2015-11-04T14:01:18Z</time>
      </trkpt>
      <trkpt lat="43.43128" lon="6.03243">
        <ele>339</ele>
        <time>2015-11-04T14:01:20Z</time>
      </trkpt>
      <trkpt lat="43.43128" lon="6.03243">
        <ele>339</ele>
        <time>2015-11-04T14:01:25Z</time>
      </trkpt>
      <trkpt lat="43.43128" lon="6.03243">
        <ele>339</ele>
        <time>2015-11-04T14:01:59Z</time>
      </trkpt>
      <trkpt lat="43.43128" lon="6.03243">
        <ele>338.79998779297</ele>
        <time>2015-11-04T14:02:01Z</time>
      </trkpt>
      <trkpt lat="43.43128" lon="6.03243">
        <ele>338.79998779297</ele>
        <time>2015-11-04T14:02:07Z</time>
      </trkpt>
      <trkpt lat="43.43128" lon="6.03243">
        <ele>339</ele>
        <time>2015-11-04T14:02:39Z</time>
      </trkpt>
      <trkpt lat="43.43128" lon="6.03243">
        <ele>339</ele>
        <time>2015-11-04T14:02:40Z</time>
      </trkpt>
      <trkpt lat="43.43128" lon="6.03243">
        <ele>339</ele>
        <time>2015-11-04T14:02:45Z</time>
      </trkpt>
      <trkpt lat="43.43128" lon="6.03243">
        <ele>339</ele>
        <time>2015-11-04T14:03:19Z</time>
      </trkpt>
      <trkpt lat="43.43127" lon="6.03243">
        <ele>339</ele>
        <time>2015-11-04T14:03:21Z</time>
      </trkpt>
      <trkpt lat="43.43127" lon="6.03243">
        <ele>339.39999389648</ele>
        <time>2015-11-04T14:03:27Z</time>
      </trkpt>
      <trkpt lat="43.43127" lon="6.03243">
        <ele>338.79998779297</ele>
        <time>2015-11-04T14:03:59Z</time>
      </trkpt>
      <trkpt lat="43.43127" lon="6.03243">
        <ele>338.79998779297</ele>
        <time>2015-11-04T14:04:01Z</time>
      </trkpt>
      <trkpt lat="43.43127" lon="6.03243">
        <ele>339</ele>
        <time>2015-11-04T14:04:07Z</time>
      </trkpt>
      <trkpt lat="43.43127" lon="6.03243">
        <ele>338.79998779297</ele>
        <time>2015-11-04T14:04:21Z</time>
      </trkpt>
      <trkpt lat="43.43128" lon="6.03243">
        <ele>339</ele>
        <time>2015-11-04T14:04:23Z</time>
      </trkpt>
      <trkpt lat="43.43128" lon="6.03243">
        <ele>339.20001220703</ele>
        <time>2015-11-04T14:04:25Z</time>
      </trkpt>
      <trkpt lat="43.43128" lon="6.03243">
        <ele>339</ele>
        <time>2015-11-04T14:04:31Z</time>
      </trkpt>
      <trkpt lat="43.43128" lon="6.03243">
        <ele>339.20001220703</ele>
        <time>2015-11-04T14:05:03Z</time>
      </trkpt>
      <trkpt lat="43.43128" lon="6.03243">
        <ele>339.20001220703</ele>
        <time>2015-11-04T14:05:05Z</time>
      </trkpt>
      <trkpt lat="43.43128" lon="6.03243">
        <ele>339.20001220703</ele>
        <time>2015-11-04T14:05:10Z</time>
      </trkpt>
      <trkpt lat="43.43128" lon="6.03243">
        <ele>339.20001220703</ele>
        <time>2015-11-04T14:05:43Z</time>
      </trkpt>
      <trkpt lat="43.43127" lon="6.03243">
        <ele>339.39999389648</ele>
        <time>2015-11-04T14:05:45Z</time>
      </trkpt>
      <trkpt lat="43.43127" lon="6.03243">
        <ele>339.39999389648</ele>
        <time>2015-11-04T14:05:50Z</time>
      </trkpt>
      <trkpt lat="43.43127" lon="6.03243">
        <ele>339.20001220703</ele>
        <time>2015-11-04T14:06:21Z</time>
      </trkpt>
      <trkpt lat="43.43128" lon="6.03243">
        <ele>339.39999389648</ele>
        <time>2015-11-04T14:06:23Z</time>
      </trkpt>
      <trkpt lat="43.43128" lon="6.03243">
        <ele>339.20001220703</ele>
        <time>2015-11-04T14:06:29Z</time>
      </trkpt>
      <trkpt lat="43.43128" lon="6.03243">
        <ele>339.39999389648</ele>
        <time>2015-11-04T14:07:05Z</time>
      </trkpt>
      <trkpt lat="43.43128" lon="6.03239">
        <ele>339.20001220703</ele>
        <time>2015-11-04T14:07:07Z</time>
      </trkpt>
      <trkpt lat="43.43128" lon="6.03233">
        <ele>339</ele>
        <time>2015-11-04T14:07:09Z</time>
      </trkpt>
      <trkpt lat="43.43129" lon="6.03227">
        <ele>339</ele>
        <time>2015-11-04T14:07:11Z</time>
      </trkpt>
      <trkpt lat="43.43129" lon="6.03217">
        <ele>338.60000610352</ele>
        <time>2015-11-04T14:07:13Z</time>
      </trkpt>
      <trkpt lat="43.4313" lon="6.03206">
        <ele>337.60000610352</ele>
        <time>2015-11-04T14:07:15Z</time>
      </trkpt>
      <trkpt lat="43.43131" lon="6.03193">
        <ele>336</ele>
        <time>2015-11-04T14:07:17Z</time>
      </trkpt>
      <trkpt lat="43.43131" lon="6.03186">
        <ele>334.79998779297</ele>
        <time>2015-11-04T14:07:18Z</time>
      </trkpt>
      <trkpt lat="43.43131" lon="6.03179">
        <ele>333.20001220703</ele>
        <time>2015-11-04T14:07:19Z</time>
      </trkpt>
      <trkpt lat="43.43131" lon="6.0317">
        <ele>331.79998779297</ele>
        <time>2015-11-04T14:07:20Z</time>
      </trkpt>
      <trkpt lat="43.43132" lon="6.03161">
        <ele>330.39999389648</ele>
        <time>2015-11-04T14:07:21Z</time>
      </trkpt>
      <trkpt lat="43.43132" lon="6.03153">
        <ele>329.60000610352</ele>
        <time>2015-11-04T14:07:22Z</time>
      </trkpt>
      <trkpt lat="43.43134" lon="6.03146">
        <ele>329.39999389648</ele>
        <time>2015-11-04T14:07:23Z</time>
      </trkpt>
      <trkpt lat="43.43134" lon="6.0314">
        <ele>329.79998779297</ele>
        <time>2015-11-04T14:07:24Z</time>
      </trkpt>
      <trkpt lat="43.43134" lon="6.03134">
        <ele>330.20001220703</ele>
        <time>2015-11-04T14:07:25Z</time>
      </trkpt>
      <trkpt lat="43.43135" lon="6.03124">
        <ele>331.39999389648</ele>
        <time>2015-11-04T14:07:27Z</time>
      </trkpt>
      <trkpt lat="43.43135" lon="6.03118">
        <ele>331.60000610352</ele>
        <time>2015-11-04T14:07:28Z</time>
      </trkpt>
      <trkpt lat="43.43134" lon="6.03101">
        <ele>331.60000610352</ele>
        <time>2015-11-04T14:07:31Z</time>
      </trkpt>
      <trkpt lat="43.43134" lon="6.03089">
        <ele>331.39999389648</ele>
        <time>2015-11-04T14:07:33Z</time>
      </trkpt>
      <trkpt lat="43.43135" lon="6.03079">
        <ele>331.60000610352</ele>
        <time>2015-11-04T14:07:35Z</time>
      </trkpt>
      <trkpt lat="43.43136" lon="6.03073">
        <ele>332.20001220703</ele>
        <time>2015-11-04T14:07:37Z</time>
      </trkpt>
      <trkpt lat="43.43136" lon="6.03073">
        <ele>332.79998779297</ele>
        <time>2015-11-04T14:07:39Z</time>
      </trkpt>
      <trkpt lat="43.43136" lon="6.03073">
        <ele>332.60000610352</ele>
        <time>2015-11-04T14:07:44Z</time>
      </trkpt>
      <trkpt lat="43.43136" lon="6.03073">
        <ele>332.79998779297</ele>
        <time>2015-11-04T14:08:07Z</time>
      </trkpt>
      <trkpt lat="43.43137" lon="6.03072">
        <ele>332.79998779297</ele>
        <time>2015-11-04T14:08:09Z</time>
      </trkpt>
      <trkpt lat="43.43137" lon="6.0307">
        <ele>332.60000610352</ele>
        <time>2015-11-04T14:08:11Z</time>
      </trkpt>
      <trkpt lat="43.43137" lon="6.0307">
        <ele>333</ele>
        <time>2015-11-04T14:08:15Z</time>
      </trkpt>
      <trkpt lat="43.43138" lon="6.0307">
        <ele>332.79998779297</ele>
        <time>2015-11-04T14:08:16Z</time>
      </trkpt>
      <trkpt lat="43.43138" lon="6.0307">
        <ele>332.79998779297</ele>
        <time>2015-11-04T14:08:17Z</time>
      </trkpt>
      <trkpt lat="43.43138" lon="6.0307">
        <ele>332.60000610352</ele>
        <time>2015-11-04T14:08:19Z</time>
      </trkpt>
      <trkpt lat="43.43138" lon="6.03069">
        <ele>333</ele>
        <time>2015-11-04T14:08:21Z</time>
      </trkpt>
      <trkpt lat="43.43138" lon="6.03068">
        <ele>333</ele>
        <time>2015-11-04T14:08:22Z</time>
      </trkpt>
      <trkpt lat="43.43138" lon="6.03066">
        <ele>333.20001220703</ele>
        <time>2015-11-04T14:08:24Z</time>
      </trkpt>
      <trkpt lat="43.43138" lon="6.03061">
        <ele>333.39999389648</ele>
        <time>2015-11-04T14:08:27Z</time>
      </trkpt>
      <trkpt lat="43.43137" lon="6.03059">
        <ele>333.60000610352</ele>
        <time>2015-11-04T14:08:28Z</time>
      </trkpt>
      <trkpt lat="43.43137" lon="6.03058">
        <ele>333.79998779297</ele>
        <time>2015-11-04T14:08:29Z</time>
      </trkpt>
      <trkpt lat="43.43136" lon="6.03056">
        <ele>334</ele>
        <time>2015-11-04T14:08:30Z</time>
      </trkpt>
      <trkpt lat="43.43135" lon="6.0305">
        <ele>334.60000610352</ele>
        <time>2015-11-04T14:08:34Z</time>
      </trkpt>
      <trkpt lat="43.43134" lon="6.03046">
        <ele>335</ele>
        <time>2015-11-04T14:08:36Z</time>
      </trkpt>
      <trkpt lat="43.43133" lon="6.03042">
        <ele>335.20001220703</ele>
        <time>2015-11-04T14:08:38Z</time>
      </trkpt>
      <trkpt lat="43.43132" lon="6.03039">
        <ele>335.39999389648</ele>
        <time>2015-11-04T14:08:40Z</time>
      </trkpt>
      <trkpt lat="43.43131" lon="6.03035">
        <ele>335.60000610352</ele>
        <time>2015-11-04T14:08:42Z</time>
      </trkpt>
      <trkpt lat="43.43129" lon="6.03031">
        <ele>336</ele>
        <time>2015-11-04T14:08:44Z</time>
      </trkpt>
      <trkpt lat="43.43127" lon="6.03027">
        <ele>336</ele>
        <time>2015-11-04T14:08:46Z</time>
      </trkpt>
      <trkpt lat="43.43125" lon="6.03023">
        <ele>336.20001220703</ele>
        <time>2015-11-04T14:08:48Z</time>
      </trkpt>
      <trkpt lat="43.43124" lon="6.03021">
        <ele>336.20001220703</ele>
        <time>2015-11-04T14:08:49Z</time>
      </trkpt>
      <trkpt lat="43.43122" lon="6.03019">
        <ele>336.39999389648</ele>
        <time>2015-11-04T14:08:50Z</time>
      </trkpt>
      <trkpt lat="43.43121" lon="6.03014">
        <ele>336.39999389648</ele>
        <time>2015-11-04T14:08:52Z</time>
      </trkpt>
      <trkpt lat="43.43119" lon="6.03009">
        <ele>336.60000610352</ele>
        <time>2015-11-04T14:08:54Z</time>
      </trkpt>
      <trkpt lat="43.43118" lon="6.03007">
        <ele>336.79998779297</ele>
        <time>2015-11-04T14:08:55Z</time>
      </trkpt>
      <trkpt lat="43.43115" lon="6.03">
        <ele>337.20001220703</ele>
        <time>2015-11-04T14:08:58Z</time>
      </trkpt>
      <trkpt lat="43.43113" lon="6.02995">
        <ele>337.20001220703</ele>
        <time>2015-11-04T14:09:00Z</time>
      </trkpt>
      <trkpt lat="43.43112" lon="6.02991">
        <ele>337.60000610352</ele>
        <time>2015-11-04T14:09:02Z</time>
      </trkpt>
      <trkpt lat="43.43111" lon="6.02986">
        <ele>337.79998779297</ele>
        <time>2015-11-04T14:09:04Z</time>
      </trkpt>
      <trkpt lat="43.43108" lon="6.02982">
        <ele>337.79998779297</ele>
        <time>2015-11-04T14:09:06Z</time>
      </trkpt>
      <trkpt lat="43.43105" lon="6.0298">
        <ele>338</ele>
        <time>2015-11-04T14:09:08Z</time>
      </trkpt>
      <trkpt lat="43.43102" lon="6.02976">
        <ele>338.20001220703</ele>
        <time>2015-11-04T14:09:10Z</time>
      </trkpt>
      <trkpt lat="43.431" lon="6.02973">
        <ele>338.60000610352</ele>
        <time>2015-11-04T14:09:12Z</time>
      </trkpt>
      <trkpt lat="43.43098" lon="6.02971">
        <ele>339</ele>
        <time>2015-11-04T14:09:13Z</time>
      </trkpt>
      <trkpt lat="43.43097" lon="6.02969">
        <ele>339</ele>
        <time>2015-11-04T14:09:14Z</time>
      </trkpt>
      <trkpt lat="43.43095" lon="6.02966">
        <ele>339</ele>
        <time>2015-11-04T14:09:16Z</time>
      </trkpt>
      <trkpt lat="43.43093" lon="6.02963">
        <ele>339.39999389648</ele>
        <time>2015-11-04T14:09:18Z</time>
      </trkpt>
      <trkpt lat="43.43091" lon="6.0296">
        <ele>340</ele>
        <time>2015-11-04T14:09:20Z</time>
      </trkpt>
      <trkpt lat="43.4309" lon="6.02958">
        <ele>340.20001220703</ele>
        <time>2015-11-04T14:09:21Z</time>
      </trkpt>
      <trkpt lat="43.43088" lon="6.02953">
        <ele>340.39999389648</ele>
        <time>2015-11-04T14:09:24Z</time>
      </trkpt>
      <trkpt lat="43.43087" lon="6.02951">
        <ele>340.39999389648</ele>
        <time>2015-11-04T14:09:25Z</time>
      </trkpt>
      <trkpt lat="43.43084" lon="6.02946">
        <ele>340.39999389648</ele>
        <time>2015-11-04T14:09:28Z</time>
      </trkpt>
      <trkpt lat="43.43081" lon="6.02944">
        <ele>340.79998779297</ele>
        <time>2015-11-04T14:09:30Z</time>
      </trkpt>
      <trkpt lat="43.4308" lon="6.02942">
        <ele>341.20001220703</ele>
        <time>2015-11-04T14:09:31Z</time>
      </trkpt>
      <trkpt lat="43.43079" lon="6.02941">
        <ele>341.20001220703</ele>
        <time>2015-11-04T14:09:32Z</time>
      </trkpt>
      <trkpt lat="43.43077" lon="6.02938">
        <ele>341.20001220703</ele>
        <time>2015-11-04T14:09:34Z</time>
      </trkpt>
      <trkpt lat="43.43075" lon="6.02934">
        <ele>341.60000610352</ele>
        <time>2015-11-04T14:09:36Z</time>
      </trkpt>
      <trkpt lat="43.43073" lon="6.02932">
        <ele>341.79998779297</ele>
        <time>2015-11-04T14:09:38Z</time>
      </trkpt>
      <trkpt lat="43.43068" lon="6.02925">
        <ele>341.79998779297</ele>
        <time>2015-11-04T14:09:42Z</time>
      </trkpt>
      <trkpt lat="43.43066" lon="6.02921">
        <ele>341.79998779297</ele>
        <time>2015-11-04T14:09:44Z</time>
      </trkpt>
      <trkpt lat="43.43064" lon="6.02919">
        <ele>342.60000610352</ele>
        <time>2015-11-04T14:09:46Z</time>
      </trkpt>
      <trkpt lat="43.43061" lon="6.02915">
        <ele>342.20001220703</ele>
        <time>2015-11-04T14:09:48Z</time>
      </trkpt>
      <trkpt lat="43.43058" lon="6.02911">
        <ele>342.20001220703</ele>
        <time>2015-11-04T14:09:50Z</time>
      </trkpt>
      <trkpt lat="43.43054" lon="6.02906">
        <ele>342.60000610352</ele>
        <time>2015-11-04T14:09:53Z</time>
      </trkpt>
      <trkpt lat="43.43053" lon="6.02903">
        <ele>342.60000610352</ele>
        <time>2015-11-04T14:09:54Z</time>
      </trkpt>
      <trkpt lat="43.4305" lon="6.029">
        <ele>342.60000610352</ele>
        <time>2015-11-04T14:09:56Z</time>
      </trkpt>
      <trkpt lat="43.43048" lon="6.02897">
        <ele>343</ele>
        <time>2015-11-04T14:09:58Z</time>
      </trkpt>
      <trkpt lat="43.43046" lon="6.02894">
        <ele>343.20001220703</ele>
        <time>2015-11-04T14:10:00Z</time>
      </trkpt>
      <trkpt lat="43.43044" lon="6.02891">
        <ele>343.60000610352</ele>
        <time>2015-11-04T14:10:02Z</time>
      </trkpt>
      <trkpt lat="43.43043" lon="6.0289">
        <ele>343.79998779297</ele>
        <time>2015-11-04T14:10:03Z</time>
      </trkpt>
      <trkpt lat="43.43042" lon="6.02889">
        <ele>344</ele>
        <time>2015-11-04T14:10:04Z</time>
      </trkpt>
      <trkpt lat="43.43042" lon="6.02889">
        <ele>344.20001220703</ele>
        <time>2015-11-04T14:10:06Z</time>
      </trkpt>
      <trkpt lat="43.43042" lon="6.02889">
        <ele>344.39999389648</ele>
        <time>2015-11-04T14:10:12Z</time>
      </trkpt>
      <trkpt lat="43.43042" lon="6.02889">
        <ele>344.39999389648</ele>
        <time>2015-11-04T14:10:36Z</time>
      </trkpt>
      <trkpt lat="43.43039" lon="6.02888">
        <ele>344.39999389648</ele>
        <time>2015-11-04T14:10:38Z</time>
      </trkpt>
      <trkpt lat="43.43035" lon="6.02885">
        <ele>344.60000610352</ele>
        <time>2015-11-04T14:10:40Z</time>
      </trkpt>
      <trkpt lat="43.43033" lon="6.02884">
        <ele>344.60000610352</ele>
        <time>2015-11-04T14:10:41Z</time>
      </trkpt>
      <trkpt lat="43.43032" lon="6.02883">
        <ele>344.79998779297</ele>
        <time>2015-11-04T14:10:42Z</time>
      </trkpt>
      <trkpt lat="43.43028" lon="6.02881">
        <ele>345.20001220703</ele>
        <time>2015-11-04T14:10:44Z</time>
      </trkpt>
      <trkpt lat="43.43025" lon="6.02879">
        <ele>345.20001220703</ele>
        <time>2015-11-04T14:10:46Z</time>
      </trkpt>
      <trkpt lat="43.43021" lon="6.02878">
        <ele>345.60000610352</ele>
        <time>2015-11-04T14:10:48Z</time>
      </trkpt>
      <trkpt lat="43.43018" lon="6.02876">
        <ele>345.60000610352</ele>
        <time>2015-11-04T14:10:50Z</time>
      </trkpt>
      <trkpt lat="43.43015" lon="6.02875">
        <ele>346</ele>
        <time>2015-11-04T14:10:52Z</time>
      </trkpt>
      <trkpt lat="43.43012" lon="6.02875">
        <ele>346</ele>
        <time>2015-11-04T14:10:54Z</time>
      </trkpt>
      <trkpt lat="43.43009" lon="6.02875">
        <ele>346</ele>
        <time>2015-11-04T14:10:56Z</time>
      </trkpt>
      <trkpt lat="43.43007" lon="6.02875">
        <ele>346</ele>
        <time>2015-11-04T14:10:57Z</time>
      </trkpt>
      <trkpt lat="43.43006" lon="6.02875">
        <ele>346.20001220703</ele>
        <time>2015-11-04T14:10:58Z</time>
      </trkpt>
      <trkpt lat="43.43003" lon="6.02873">
        <ele>346.79998779297</ele>
        <time>2015-11-04T14:11:00Z</time>
      </trkpt>
      <trkpt lat="43.43" lon="6.0287">
        <ele>347</ele>
        <time>2015-11-04T14:11:02Z</time>
      </trkpt>
      <trkpt lat="43.42999" lon="6.02867">
        <ele>347.20001220703</ele>
        <time>2015-11-04T14:11:03Z</time>
      </trkpt>
      <trkpt lat="43.42998" lon="6.02865">
        <ele>347.39999389648</ele>
        <time>2015-11-04T14:11:04Z</time>
      </trkpt>
      <trkpt lat="43.42996" lon="6.02861">
        <ele>347.39999389648</ele>
        <time>2015-11-04T14:11:06Z</time>
      </trkpt>
      <trkpt lat="43.42993" lon="6.02852">
        <ele>347.60000610352</ele>
        <time>2015-11-04T14:11:10Z</time>
      </trkpt>
      <trkpt lat="43.4299" lon="6.02847">
        <ele>347.79998779297</ele>
        <time>2015-11-04T14:11:12Z</time>
      </trkpt>
      <trkpt lat="43.4299" lon="6.02845">
        <ele>347.79998779297</ele>
        <time>2015-11-04T14:11:13Z</time>
      </trkpt>
      <trkpt lat="43.42989" lon="6.02843">
        <ele>348.20001220703</ele>
        <time>2015-11-04T14:11:14Z</time>
      </trkpt>
      <trkpt lat="43.42988" lon="6.02839">
        <ele>348.20001220703</ele>
        <time>2015-11-04T14:11:16Z</time>
      </trkpt>
      <trkpt lat="43.42988" lon="6.02834">
        <ele>348.39999389648</ele>
        <time>2015-11-04T14:11:18Z</time>
      </trkpt>
      <trkpt lat="43.42988" lon="6.0283">
        <ele>348.60000610352</ele>
        <time>2015-11-04T14:11:20Z</time>
      </trkpt>
      <trkpt lat="43.42988" lon="6.02825">
        <ele>349</ele>
        <time>2015-11-04T14:11:22Z</time>
      </trkpt>
      <trkpt lat="43.42988" lon="6.02824">
        <ele>349.20001220703</ele>
        <time>2015-11-04T14:11:23Z</time>
      </trkpt>
      <trkpt lat="43.42986" lon="6.0282">
        <ele>349.39999389648</ele>
        <time>2015-11-04T14:11:25Z</time>
      </trkpt>
      <trkpt lat="43.42985" lon="6.02819">
        <ele>349.39999389648</ele>
        <time>2015-11-04T14:11:26Z</time>
      </trkpt>
      <trkpt lat="43.42984" lon="6.02814">
        <ele>349.60000610352</ele>
        <time>2015-11-04T14:11:28Z</time>
      </trkpt>
      <trkpt lat="43.42982" lon="6.02808">
        <ele>350</ele>
        <time>2015-11-04T14:11:30Z</time>
      </trkpt>
      <trkpt lat="43.42981" lon="6.02806">
        <ele>350.20001220703</ele>
        <time>2015-11-04T14:11:31Z</time>
      </trkpt>
      <trkpt lat="43.42979" lon="6.028">
        <ele>350.60000610352</ele>
        <time>2015-11-04T14:11:34Z</time>
      </trkpt>
      <trkpt lat="43.42975" lon="6.0279">
        <ele>351.20001220703</ele>
        <time>2015-11-04T14:11:38Z</time>
      </trkpt>
      <trkpt lat="43.42973" lon="6.02786">
        <ele>351.39999389648</ele>
        <time>2015-11-04T14:11:40Z</time>
      </trkpt>
      <trkpt lat="43.4297" lon="6.02782">
        <ele>351.39999389648</ele>
        <time>2015-11-04T14:11:42Z</time>
      </trkpt>
      <trkpt lat="43.42966" lon="6.02778">
        <ele>351.60000610352</ele>
        <time>2015-11-04T14:11:44Z</time>
      </trkpt>
      <trkpt lat="43.42964" lon="6.02774">
        <ele>352</ele>
        <time>2015-11-04T14:11:46Z</time>
      </trkpt>
      <trkpt lat="43.42962" lon="6.02771">
        <ele>352.20001220703</ele>
        <time>2015-11-04T14:11:48Z</time>
      </trkpt>
      <trkpt lat="43.4296" lon="6.02766">
        <ele>352.39999389648</ele>
        <time>2015-11-04T14:11:50Z</time>
      </trkpt>
      <trkpt lat="43.42958" lon="6.02762">
        <ele>352.60000610352</ele>
        <time>2015-11-04T14:11:52Z</time>
      </trkpt>
      <trkpt lat="43.42955" lon="6.02758">
        <ele>353</ele>
        <time>2015-11-04T14:11:54Z</time>
      </trkpt>
      <trkpt lat="43.42954" lon="6.02757">
        <ele>353.20001220703</ele>
        <time>2015-11-04T14:11:55Z</time>
      </trkpt>
      <trkpt lat="43.42953" lon="6.02755">
        <ele>353.39999389648</ele>
        <time>2015-11-04T14:11:56Z</time>
      </trkpt>
      <trkpt lat="43.42952" lon="6.02754">
        <ele>353.60000610352</ele>
        <time>2015-11-04T14:11:57Z</time>
      </trkpt>
      <trkpt lat="43.4295" lon="6.0275">
        <ele>353.79998779297</ele>
        <time>2015-11-04T14:11:59Z</time>
      </trkpt>
      <trkpt lat="43.42948" lon="6.02748">
        <ele>353.79998779297</ele>
        <time>2015-11-04T14:12:00Z</time>
      </trkpt>
      <trkpt lat="43.42946" lon="6.02744">
        <ele>354.20001220703</ele>
        <time>2015-11-04T14:12:02Z</time>
      </trkpt>
      <trkpt lat="43.42943" lon="6.0274">
        <ele>354.39999389648</ele>
        <time>2015-11-04T14:12:04Z</time>
      </trkpt>
      <trkpt lat="43.42939" lon="6.02737">
        <ele>354.60000610352</ele>
        <time>2015-11-04T14:12:06Z</time>
      </trkpt>
      <trkpt lat="43.42936" lon="6.02734">
        <ele>354.79998779297</ele>
        <time>2015-11-04T14:12:08Z</time>
      </trkpt>
      <trkpt lat="43.42933" lon="6.02732">
        <ele>355</ele>
        <time>2015-11-04T14:12:10Z</time>
      </trkpt>
      <trkpt lat="43.4293" lon="6.02729">
        <ele>355.20001220703</ele>
        <time>2015-11-04T14:12:12Z</time>
      </trkpt>
      <trkpt lat="43.42928" lon="6.0272">
        <ele>355.60000610352</ele>
        <time>2015-11-04T14:12:16Z</time>
      </trkpt>
      <trkpt lat="43.42926" lon="6.02711">
        <ele>356.20001220703</ele>
        <time>2015-11-04T14:12:20Z</time>
      </trkpt>
      <trkpt lat="43.42926" lon="6.02707">
        <ele>356.20001220703</ele>
        <time>2015-11-04T14:12:22Z</time>
      </trkpt>
      <trkpt lat="43.42926" lon="6.02703">
        <ele>356.20001220703</ele>
        <time>2015-11-04T14:12:24Z</time>
      </trkpt>
      <trkpt lat="43.42926" lon="6.02695">
        <ele>356.79998779297</ele>
        <time>2015-11-04T14:12:28Z</time>
      </trkpt>
      <trkpt lat="43.42925" lon="6.02691">
        <ele>357</ele>
        <time>2015-11-04T14:12:30Z</time>
      </trkpt>
      <trkpt lat="43.42925" lon="6.02689">
        <ele>357.20001220703</ele>
        <time>2015-11-04T14:12:31Z</time>
      </trkpt>
      <trkpt lat="43.42924" lon="6.02688">
        <ele>357.39999389648</ele>
        <time>2015-11-04T14:12:32Z</time>
      </trkpt>
      <trkpt lat="43.42922" lon="6.02685">
        <ele>357.79998779297</ele>
        <time>2015-11-04T14:12:34Z</time>
      </trkpt>
      <trkpt lat="43.42921" lon="6.02684">
        <ele>358</ele>
        <time>2015-11-04T14:12:35Z</time>
      </trkpt>
      <trkpt lat="43.4292" lon="6.02683">
        <ele>358.20001220703</ele>
        <time>2015-11-04T14:12:36Z</time>
      </trkpt>
      <trkpt lat="43.42917" lon="6.02681">
        <ele>358.39999389648</ele>
        <time>2015-11-04T14:12:38Z</time>
      </trkpt>
      <trkpt lat="43.42915" lon="6.02679">
        <ele>358.79998779297</ele>
        <time>2015-11-04T14:12:40Z</time>
      </trkpt>
      <trkpt lat="43.42912" lon="6.02678">
        <ele>359</ele>
        <time>2015-11-04T14:12:42Z</time>
      </trkpt>
      <trkpt lat="43.4291" lon="6.02677">
        <ele>359.20001220703</ele>
        <time>2015-11-04T14:12:44Z</time>
      </trkpt>
      <trkpt lat="43.42907" lon="6.02675">
        <ele>359.39999389648</ele>
        <time>2015-11-04T14:12:46Z</time>
      </trkpt>
      <trkpt lat="43.42906" lon="6.02674">
        <ele>359.20001220703</ele>
        <time>2015-11-04T14:12:47Z</time>
      </trkpt>
      <trkpt lat="43.42905" lon="6.02672">
        <ele>359.39999389648</ele>
        <time>2015-11-04T14:12:48Z</time>
      </trkpt>
      <trkpt lat="43.42902" lon="6.02668">
        <ele>359.60000610352</ele>
        <time>2015-11-04T14:12:50Z</time>
      </trkpt>
      <trkpt lat="43.429" lon="6.02664">
        <ele>359.79998779297</ele>
        <time>2015-11-04T14:12:52Z</time>
      </trkpt>
      <trkpt lat="43.42899" lon="6.02661">
        <ele>360</ele>
        <time>2015-11-04T14:12:54Z</time>
      </trkpt>
      <trkpt lat="43.42899" lon="6.02659">
        <ele>360.20001220703</ele>
        <time>2015-11-04T14:12:55Z</time>
      </trkpt>
      <trkpt lat="43.42899" lon="6.02657">
        <ele>360.20001220703</ele>
        <time>2015-11-04T14:12:56Z</time>
      </trkpt>
      <trkpt lat="43.42899" lon="6.02653">
        <ele>360.39999389648</ele>
        <time>2015-11-04T14:12:58Z</time>
      </trkpt>
      <trkpt lat="43.42899" lon="6.02652">
        <ele>360.60000610352</ele>
        <time>2015-11-04T14:13:00Z</time>
      </trkpt>
      <trkpt lat="43.42899" lon="6.02651">
        <ele>360.60000610352</ele>
        <time>2015-11-04T14:13:02Z</time>
      </trkpt>
      <trkpt lat="43.42899" lon="6.02651">
        <ele>360.60000610352</ele>
        <time>2015-11-04T14:13:07Z</time>
      </trkpt>
      <trkpt lat="43.42899" lon="6.02651">
        <ele>360.39999389648</ele>
        <time>2015-11-04T14:13:38Z</time>
      </trkpt>
      <trkpt lat="43.42899" lon="6.02651">
        <ele>360.60000610352</ele>
        <time>2015-11-04T14:13:40Z</time>
      </trkpt>
      <trkpt lat="43.42899" lon="6.02651">
        <ele>360.39999389648</ele>
        <time>2015-11-04T14:13:44Z</time>
      </trkpt>
      <trkpt lat="43.42899" lon="6.02651">
        <ele>360.39999389648</ele>
        <time>2015-11-04T14:14:19Z</time>
      </trkpt>
      <trkpt lat="43.42899" lon="6.02651">
        <ele>360.39999389648</ele>
        <time>2015-11-04T14:14:20Z</time>
      </trkpt>
      <trkpt lat="43.42899" lon="6.02651">
        <ele>360.39999389648</ele>
        <time>2015-11-04T14:14:26Z</time>
      </trkpt>
      <trkpt lat="43.42899" lon="6.02651">
        <ele>360.60000610352</ele>
        <time>2015-11-04T14:14:54Z</time>
      </trkpt>
      <trkpt lat="43.42899" lon="6.02651">
        <ele>360.39999389648</ele>
        <time>2015-11-04T14:14:56Z</time>
      </trkpt>
      <trkpt lat="43.42899" lon="6.02648">
        <ele>360.20001220703</ele>
        <time>2015-11-04T14:14:58Z</time>
      </trkpt>
      <trkpt lat="43.42899" lon="6.02643">
        <ele>360.20001220703</ele>
        <time>2015-11-04T14:15:00Z</time>
      </trkpt>
      <trkpt lat="43.42899" lon="6.02638">
        <ele>360.39999389648</ele>
        <time>2015-11-04T14:15:02Z</time>
      </trkpt>
      <trkpt lat="43.42897" lon="6.02635">
        <ele>360.39999389648</ele>
        <time>2015-11-04T14:15:03Z</time>
      </trkpt>
      <trkpt lat="43.42896" lon="6.02633">
        <ele>360.39999389648</ele>
        <time>2015-11-04T14:15:04Z</time>
      </trkpt>
      <trkpt lat="43.42894" lon="6.02628">
        <ele>360.79998779297</ele>
        <time>2015-11-04T14:15:06Z</time>
      </trkpt>
      <trkpt lat="43.42893" lon="6.02622">
        <ele>361</ele>
        <time>2015-11-04T14:15:08Z</time>
      </trkpt>
      <trkpt lat="43.42893" lon="6.02612">
        <ele>361.39999389648</ele>
        <time>2015-11-04T14:15:12Z</time>
      </trkpt>
      <trkpt lat="43.42892" lon="6.02607">
        <ele>361.79998779297</ele>
        <time>2015-11-04T14:15:14Z</time>
      </trkpt>
      <trkpt lat="43.42889" lon="6.02603">
        <ele>362.20001220703</ele>
        <time>2015-11-04T14:15:16Z</time>
      </trkpt>
      <trkpt lat="43.42888" lon="6.026">
        <ele>362.39999389648</ele>
        <time>2015-11-04T14:15:17Z</time>
      </trkpt>
      <trkpt lat="43.42886" lon="6.02598">
        <ele>362.60000610352</ele>
        <time>2015-11-04T14:15:18Z</time>
      </trkpt>
      <trkpt lat="43.42883" lon="6.02594">
        <ele>362.79998779297</ele>
        <time>2015-11-04T14:15:20Z</time>
      </trkpt>
      <trkpt lat="43.4288" lon="6.0259">
        <ele>363</ele>
        <time>2015-11-04T14:15:22Z</time>
      </trkpt>
      <trkpt lat="43.42879" lon="6.02588">
        <ele>363.20001220703</ele>
        <time>2015-11-04T14:15:23Z</time>
      </trkpt>
      <trkpt lat="43.42878" lon="6.02585">
        <ele>363.60000610352</ele>
        <time>2015-11-04T14:15:24Z</time>
      </trkpt>
      <trkpt lat="43.42875" lon="6.02581">
        <ele>363.79998779297</ele>
        <time>2015-11-04T14:15:26Z</time>
      </trkpt>
      <trkpt lat="43.42872" lon="6.02577">
        <ele>364.39999389648</ele>
        <time>2015-11-04T14:15:28Z</time>
      </trkpt>
      <trkpt lat="43.42869" lon="6.02573">
        <ele>364.79998779297</ele>
        <time>2015-11-04T14:15:30Z</time>
      </trkpt>
      <trkpt lat="43.42867" lon="6.0257">
        <ele>365.20001220703</ele>
        <time>2015-11-04T14:15:32Z</time>
      </trkpt>
      <trkpt lat="43.42864" lon="6.02565">
        <ele>365.20001220703</ele>
        <time>2015-11-04T14:15:34Z</time>
      </trkpt>
      <trkpt lat="43.42863" lon="6.02563">
        <ele>365.39999389648</ele>
        <time>2015-11-04T14:15:35Z</time>
      </trkpt>
      <trkpt lat="43.42862" lon="6.02561">
        <ele>365.39999389648</ele>
        <time>2015-11-04T14:15:36Z</time>
      </trkpt>
      <trkpt lat="43.42859" lon="6.02558">
        <ele>365.79998779297</ele>
        <time>2015-11-04T14:15:38Z</time>
      </trkpt>
      <trkpt lat="43.42856" lon="6.02556">
        <ele>366</ele>
        <time>2015-11-04T14:15:40Z</time>
      </trkpt>
      <trkpt lat="43.42853" lon="6.02553">
        <ele>366.60000610352</ele>
        <time>2015-11-04T14:15:42Z</time>
      </trkpt>
      <trkpt lat="43.42851" lon="6.02553">
        <ele>366.79998779297</ele>
        <time>2015-11-04T14:15:43Z</time>
      </trkpt>
      <trkpt lat="43.42849" lon="6.02552">
        <ele>367</ele>
        <time>2015-11-04T14:15:44Z</time>
      </trkpt>
      <trkpt lat="43.42848" lon="6.02551">
        <ele>367.20001220703</ele>
        <time>2015-11-04T14:15:45Z</time>
      </trkpt>
      <trkpt lat="43.42846" lon="6.02549">
        <ele>367.39999389648</ele>
        <time>2015-11-04T14:15:46Z</time>
      </trkpt>
      <trkpt lat="43.42845" lon="6.02545">
        <ele>367.60000610352</ele>
        <time>2015-11-04T14:15:48Z</time>
      </trkpt>
      <trkpt lat="43.42843" lon="6.02541">
        <ele>367.60000610352</ele>
        <time>2015-11-04T14:15:50Z</time>
      </trkpt>
      <trkpt lat="43.4284" lon="6.02537">
        <ele>367.60000610352</ele>
        <time>2015-11-04T14:15:52Z</time>
      </trkpt>
      <trkpt lat="43.42838" lon="6.02533">
        <ele>367.60000610352</ele>
        <time>2015-11-04T14:15:54Z</time>
      </trkpt>
      <trkpt lat="43.42836" lon="6.02529">
        <ele>367.79998779297</ele>
        <time>2015-11-04T14:15:56Z</time>
      </trkpt>
      <trkpt lat="43.42833" lon="6.02526">
        <ele>368</ele>
        <time>2015-11-04T14:15:58Z</time>
      </trkpt>
      <trkpt lat="43.42827" lon="6.02524">
        <ele>368.20001220703</ele>
        <time>2015-11-04T14:16:02Z</time>
      </trkpt>
      <trkpt lat="43.4282" lon="6.02525">
        <ele>368.39999389648</ele>
        <time>2015-11-04T14:16:06Z</time>
      </trkpt>
      <trkpt lat="43.42817" lon="6.02526">
        <ele>368.60000610352</ele>
        <time>2015-11-04T14:16:08Z</time>
      </trkpt>
      <trkpt lat="43.4281" lon="6.02526">
        <ele>368.79998779297</ele>
        <time>2015-11-04T14:16:12Z</time>
      </trkpt>
      <trkpt lat="43.42808" lon="6.02525">
        <ele>369</ele>
        <time>2015-11-04T14:16:13Z</time>
      </trkpt>
      <trkpt lat="43.42806" lon="6.02524">
        <ele>369</ele>
        <time>2015-11-04T14:16:14Z</time>
      </trkpt>
      <trkpt lat="43.42803" lon="6.02522">
        <ele>369.20001220703</ele>
        <time>2015-11-04T14:16:16Z</time>
      </trkpt>
      <trkpt lat="43.428" lon="6.0252">
        <ele>369.39999389648</ele>
        <time>2015-11-04T14:16:18Z</time>
      </trkpt>
      <trkpt lat="43.42799" lon="6.02519">
        <ele>369.60000610352</ele>
        <time>2015-11-04T14:16:19Z</time>
      </trkpt>
      <trkpt lat="43.42797" lon="6.02517">
        <ele>369.79998779297</ele>
        <time>2015-11-04T14:16:20Z</time>
      </trkpt>
      <trkpt lat="43.42797" lon="6.02512">
        <ele>369.79998779297</ele>
        <time>2015-11-04T14:16:22Z</time>
      </trkpt>
      <trkpt lat="43.42799" lon="6.02508">
        <ele>370.20001220703</ele>
        <time>2015-11-04T14:16:24Z</time>
      </trkpt>
      <trkpt lat="43.42801" lon="6.02501">
        <ele>370.60000610352</ele>
        <time>2015-11-04T14:16:27Z</time>
      </trkpt>
      <trkpt lat="43.42801" lon="6.02494">
        <ele>371</ele>
        <time>2015-11-04T14:16:30Z</time>
      </trkpt>
      <trkpt lat="43.42802" lon="6.02492">
        <ele>371.20001220703</ele>
        <time>2015-11-04T14:16:31Z</time>
      </trkpt>
      <trkpt lat="43.42802" lon="6.0249">
        <ele>371.39999389648</ele>
        <time>2015-11-04T14:16:32Z</time>
      </trkpt>
      <trkpt lat="43.42804" lon="6.02485">
        <ele>371.60000610352</ele>
        <time>2015-11-04T14:16:34Z</time>
      </trkpt>
      <trkpt lat="43.42804" lon="6.0248">
        <ele>371.79998779297</ele>
        <time>2015-11-04T14:16:36Z</time>
      </trkpt>
      <trkpt lat="43.42804" lon="6.02476">
        <ele>372.20001220703</ele>
        <time>2015-11-04T14:16:38Z</time>
      </trkpt>
      <trkpt lat="43.42805" lon="6.02471">
        <ele>372.60000610352</ele>
        <time>2015-11-04T14:16:40Z</time>
      </trkpt>
      <trkpt lat="43.42805" lon="6.02467">
        <ele>372.79998779297</ele>
        <time>2015-11-04T14:16:42Z</time>
      </trkpt>
      <trkpt lat="43.42805" lon="6.02464">
        <ele>373.20001220703</ele>
        <time>2015-11-04T14:16:44Z</time>
      </trkpt>
      <trkpt lat="43.42805" lon="6.02462">
        <ele>373.39999389648</ele>
        <time>2015-11-04T14:16:45Z</time>
      </trkpt>
      <trkpt lat="43.42804" lon="6.02461">
        <ele>373.39999389648</ele>
        <time>2015-11-04T14:16:46Z</time>
      </trkpt>
      <trkpt lat="43.42803" lon="6.02458">
        <ele>373.20001220703</ele>
        <time>2015-11-04T14:16:48Z</time>
      </trkpt>
      <trkpt lat="43.42802" lon="6.02455">
        <ele>373.39999389648</ele>
        <time>2015-11-04T14:16:50Z</time>
      </trkpt>
      <trkpt lat="43.42801" lon="6.02452">
        <ele>374</ele>
        <time>2015-11-04T14:16:52Z</time>
      </trkpt>
      <trkpt lat="43.42801" lon="6.02448">
        <ele>374.20001220703</ele>
        <time>2015-11-04T14:16:54Z</time>
      </trkpt>
      <trkpt lat="43.42801" lon="6.02447">
        <ele>374.20001220703</ele>
        <time>2015-11-04T14:16:55Z</time>
      </trkpt>
      <trkpt lat="43.42801" lon="6.02445">
        <ele>374.20001220703</ele>
        <time>2015-11-04T14:16:56Z</time>
      </trkpt>
      <trkpt lat="43.42801" lon="6.02441">
        <ele>374.60000610352</ele>
        <time>2015-11-04T14:16:58Z</time>
      </trkpt>
      <trkpt lat="43.42801" lon="6.02439">
        <ele>374.60000610352</ele>
        <time>2015-11-04T14:16:59Z</time>
      </trkpt>
      <trkpt lat="43.42803" lon="6.02433">
        <ele>375</ele>
        <time>2015-11-04T14:17:02Z</time>
      </trkpt>
      <trkpt lat="43.42803" lon="6.02429">
        <ele>375.20001220703</ele>
        <time>2015-11-04T14:17:04Z</time>
      </trkpt>
      <trkpt lat="43.42804" lon="6.02421">
        <ele>375.79998779297</ele>
        <time>2015-11-04T14:17:08Z</time>
      </trkpt>
      <trkpt lat="43.42804" lon="6.02416">
        <ele>376.20001220703</ele>
        <time>2015-11-04T14:17:10Z</time>
      </trkpt>
      <trkpt lat="43.42804" lon="6.02412">
        <ele>376.20001220703</ele>
        <time>2015-11-04T14:17:12Z</time>
      </trkpt>
      <trkpt lat="43.42803" lon="6.02409">
        <ele>376.39999389648</ele>
        <time>2015-11-04T14:17:14Z</time>
      </trkpt>
      <trkpt lat="43.42802" lon="6.02406">
        <ele>376.60000610352</ele>
        <time>2015-11-04T14:17:16Z</time>
      </trkpt>
      <trkpt lat="43.428" lon="6.02403">
        <ele>376.79998779297</ele>
        <time>2015-11-04T14:17:18Z</time>
      </trkpt>
      <trkpt lat="43.42799" lon="6.02395">
        <ele>377.20001220703</ele>
        <time>2015-11-04T14:17:22Z</time>
      </trkpt>
      <trkpt lat="43.42797" lon="6.02391">
        <ele>377.20001220703</ele>
        <time>2015-11-04T14:17:24Z</time>
      </trkpt>
      <trkpt lat="43.42796" lon="6.02389">
        <ele>377.39999389648</ele>
        <time>2015-11-04T14:17:25Z</time>
      </trkpt>
      <trkpt lat="43.42794" lon="6.02384">
        <ele>378.60000610352</ele>
        <time>2015-11-04T14:17:28Z</time>
      </trkpt>
      <trkpt lat="43.42794" lon="6.02382">
        <ele>378.79998779297</ele>
        <time>2015-11-04T14:17:29Z</time>
      </trkpt>
      <trkpt lat="43.42793" lon="6.0238">
        <ele>379</ele>
        <time>2015-11-04T14:17:30Z</time>
      </trkpt>
      <trkpt lat="43.42791" lon="6.02376">
        <ele>379.20001220703</ele>
        <time>2015-11-04T14:17:32Z</time>
      </trkpt>
      <trkpt lat="43.4279" lon="6.02372">
        <ele>379.39999389648</ele>
        <time>2015-11-04T14:17:34Z</time>
      </trkpt>
      <trkpt lat="43.42789" lon="6.02367">
        <ele>380</ele>
        <time>2015-11-04T14:17:36Z</time>
      </trkpt>
      <trkpt lat="43.42789" lon="6.02365">
        <ele>380.20001220703</ele>
        <time>2015-11-04T14:17:37Z</time>
      </trkpt>
      <trkpt lat="43.42789" lon="6.02363">
        <ele>380.39999389648</ele>
        <time>2015-11-04T14:17:38Z</time>
      </trkpt>
      <trkpt lat="43.42789" lon="6.02363">
        <ele>380.79998779297</ele>
        <time>2015-11-04T14:17:40Z</time>
      </trkpt>
      <trkpt lat="43.42789" lon="6.02363">
        <ele>380.79998779297</ele>
        <time>2015-11-04T14:17:41Z</time>
      </trkpt>
      <trkpt lat="43.42789" lon="6.02362">
        <ele>380.79998779297</ele>
        <time>2015-11-04T14:17:44Z</time>
      </trkpt>
      <trkpt lat="43.42789" lon="6.02362">
        <ele>381</ele>
        <time>2015-11-04T14:17:46Z</time>
      </trkpt>
      <trkpt lat="43.42789" lon="6.02362">
        <ele>381</ele>
        <time>2015-11-04T14:17:48Z</time>
      </trkpt>
      <trkpt lat="43.42789" lon="6.02359">
        <ele>381</ele>
        <time>2015-11-04T14:17:50Z</time>
      </trkpt>
      <trkpt lat="43.42789" lon="6.02357">
        <ele>381.20001220703</ele>
        <time>2015-11-04T14:17:52Z</time>
      </trkpt>
      <trkpt lat="43.42789" lon="6.02355">
        <ele>381.39999389648</ele>
        <time>2015-11-04T14:17:54Z</time>
      </trkpt>
      <trkpt lat="43.42789" lon="6.02355">
        <ele>381.60000610352</ele>
        <time>2015-11-04T14:17:55Z</time>
      </trkpt>
      <trkpt lat="43.42789" lon="6.02354">
        <ele>381.60000610352</ele>
        <time>2015-11-04T14:17:56Z</time>
      </trkpt>
      <trkpt lat="43.42789" lon="6.02354">
        <ele>381.60000610352</ele>
        <time>2015-11-04T14:18:01Z</time>
      </trkpt>
      <trkpt lat="43.42789" lon="6.02354">
        <ele>381.39999389648</ele>
        <time>2015-11-04T14:18:08Z</time>
      </trkpt>
      <trkpt lat="43.42789" lon="6.02354">
        <ele>381.60000610352</ele>
        <time>2015-11-04T14:18:10Z</time>
      </trkpt>
      <trkpt lat="43.4279" lon="6.02353">
        <ele>381.39999389648</ele>
        <time>2015-11-04T14:18:11Z</time>
      </trkpt>
      <trkpt lat="43.42791" lon="6.02351">
        <ele>381.39999389648</ele>
        <time>2015-11-04T14:18:12Z</time>
      </trkpt>
      <trkpt lat="43.42794" lon="6.02347">
        <ele>381.60000610352</ele>
        <time>2015-11-04T14:18:14Z</time>
      </trkpt>
      <trkpt lat="43.42796" lon="6.02344">
        <ele>381.79998779297</ele>
        <time>2015-11-04T14:18:16Z</time>
      </trkpt>
      <trkpt lat="43.42798" lon="6.0234">
        <ele>381.79998779297</ele>
        <time>2015-11-04T14:18:18Z</time>
      </trkpt>
      <trkpt lat="43.428" lon="6.02336">
        <ele>382</ele>
        <time>2015-11-04T14:18:20Z</time>
      </trkpt>
      <trkpt lat="43.42804" lon="6.02324">
        <ele>382.60000610352</ele>
        <time>2015-11-04T14:18:26Z</time>
      </trkpt>
      <trkpt lat="43.42806" lon="6.0232">
        <ele>383.20001220703</ele>
        <time>2015-11-04T14:18:28Z</time>
      </trkpt>
      <trkpt lat="43.42807" lon="6.02315">
        <ele>383.60000610352</ele>
        <time>2015-11-04T14:18:30Z</time>
      </trkpt>
      <trkpt lat="43.42808" lon="6.02311">
        <ele>383.60000610352</ele>
        <time>2015-11-04T14:18:32Z</time>
      </trkpt>
      <trkpt lat="43.42809" lon="6.02306">
        <ele>383.60000610352</ele>
        <time>2015-11-04T14:18:34Z</time>
      </trkpt>
      <trkpt lat="43.42808" lon="6.02303">
        <ele>384.20001220703</ele>
        <time>2015-11-04T14:18:36Z</time>
      </trkpt>
      <trkpt lat="43.42807" lon="6.02301">
        <ele>384.39999389648</ele>
        <time>2015-11-04T14:18:37Z</time>
      </trkpt>
      <trkpt lat="43.42806" lon="6.023">
        <ele>384.60000610352</ele>
        <time>2015-11-04T14:18:38Z</time>
      </trkpt>
      <trkpt lat="43.42803" lon="6.02298">
        <ele>384.60000610352</ele>
        <time>2015-11-04T14:18:40Z</time>
      </trkpt>
      <trkpt lat="43.428" lon="6.02297">
        <ele>384.60000610352</ele>
        <time>2015-11-04T14:18:42Z</time>
      </trkpt>
      <trkpt lat="43.42798" lon="6.02297">
        <ele>384.60000610352</ele>
        <time>2015-11-04T14:18:43Z</time>
      </trkpt>
      <trkpt lat="43.42796" lon="6.02297">
        <ele>384.39999389648</ele>
        <time>2015-11-04T14:18:44Z</time>
      </trkpt>
      <trkpt lat="43.42793" lon="6.02298">
        <ele>384.60000610352</ele>
        <time>2015-11-04T14:18:46Z</time>
      </trkpt>
      <trkpt lat="43.4279" lon="6.02297">
        <ele>384.79998779297</ele>
        <time>2015-11-04T14:18:48Z</time>
      </trkpt>
      <trkpt lat="43.42787" lon="6.02295">
        <ele>385</ele>
        <time>2015-11-04T14:18:50Z</time>
      </trkpt>
      <trkpt lat="43.42786" lon="6.02294">
        <ele>385.20001220703</ele>
        <time>2015-11-04T14:18:51Z</time>
      </trkpt>
      <trkpt lat="43.42786" lon="6.02287">
        <ele>385.79998779297</ele>
        <time>2015-11-04T14:18:54Z</time>
      </trkpt>
      <trkpt lat="43.42787" lon="6.02284">
        <ele>386</ele>
        <time>2015-11-04T14:18:55Z</time>
      </trkpt>
      <trkpt lat="43.42788" lon="6.02282">
        <ele>386.20001220703</ele>
        <time>2015-11-04T14:18:56Z</time>
      </trkpt>
      <trkpt lat="43.42791" lon="6.02278">
        <ele>386</ele>
        <time>2015-11-04T14:18:58Z</time>
      </trkpt>
      <trkpt lat="43.42794" lon="6.02273">
        <ele>386.39999389648</ele>
        <time>2015-11-04T14:19:01Z</time>
      </trkpt>
      <trkpt lat="43.42794" lon="6.02268">
        <ele>386.79998779297</ele>
        <time>2015-11-04T14:19:04Z</time>
      </trkpt>
      <trkpt lat="43.42794" lon="6.02264">
        <ele>387</ele>
        <time>2015-11-04T14:19:06Z</time>
      </trkpt>
      <trkpt lat="43.42792" lon="6.02261">
        <ele>387.20001220703</ele>
        <time>2015-11-04T14:19:08Z</time>
      </trkpt>
      <trkpt lat="43.4279" lon="6.02259">
        <ele>387.39999389648</ele>
        <time>2015-11-04T14:19:10Z</time>
      </trkpt>
      <trkpt lat="43.42789" lon="6.02258">
        <ele>387.60000610352</ele>
        <time>2015-11-04T14:19:11Z</time>
      </trkpt>
      <trkpt lat="43.42787" lon="6.02256">
        <ele>387.79998779297</ele>
        <time>2015-11-04T14:19:12Z</time>
      </trkpt>
      <trkpt lat="43.42785" lon="6.02254">
        <ele>388</ele>
        <time>2015-11-04T14:19:14Z</time>
      </trkpt>
      <trkpt lat="43.42783" lon="6.02251">
        <ele>388</ele>
        <time>2015-11-04T14:19:16Z</time>
      </trkpt>
      <trkpt lat="43.42781" lon="6.02247">
        <ele>388.39999389648</ele>
        <time>2015-11-04T14:19:18Z</time>
      </trkpt>
      <trkpt lat="43.4278" lon="6.02244">
        <ele>388.60000610352</ele>
        <time>2015-11-04T14:19:20Z</time>
      </trkpt>
      <trkpt lat="43.42779" lon="6.02242">
        <ele>388.79998779297</ele>
        <time>2015-11-04T14:19:22Z</time>
      </trkpt>
      <trkpt lat="43.42777" lon="6.02239">
        <ele>389</ele>
        <time>2015-11-04T14:19:24Z</time>
      </trkpt>
      <trkpt lat="43.42776" lon="6.02236">
        <ele>389.39999389648</ele>
        <time>2015-11-04T14:19:26Z</time>
      </trkpt>
      <trkpt lat="43.42775" lon="6.02232">
        <ele>389.60000610352</ele>
        <time>2015-11-04T14:19:28Z</time>
      </trkpt>
      <trkpt lat="43.42773" lon="6.02229">
        <ele>389.79998779297</ele>
        <time>2015-11-04T14:19:30Z</time>
      </trkpt>
      <trkpt lat="43.42772" lon="6.02225">
        <ele>390</ele>
        <time>2015-11-04T14:19:32Z</time>
      </trkpt>
      <trkpt lat="43.42771" lon="6.0222">
        <ele>390.39999389648</ele>
        <time>2015-11-04T14:19:34Z</time>
      </trkpt>
      <trkpt lat="43.4277" lon="6.02217">
        <ele>390.79998779297</ele>
        <time>2015-11-04T14:19:36Z</time>
      </trkpt>
      <trkpt lat="43.42768" lon="6.02214">
        <ele>391</ele>
        <time>2015-11-04T14:19:38Z</time>
      </trkpt>
      <trkpt lat="43.42767" lon="6.0221">
        <ele>391.20001220703</ele>
        <time>2015-11-04T14:19:40Z</time>
      </trkpt>
      <trkpt lat="43.42765" lon="6.02207">
        <ele>391.20001220703</ele>
        <time>2015-11-04T14:19:42Z</time>
      </trkpt>
      <trkpt lat="43.42762" lon="6.02204">
        <ele>391.39999389648</ele>
        <time>2015-11-04T14:19:44Z</time>
      </trkpt>
      <trkpt lat="43.42762" lon="6.02203">
        <ele>391.79998779297</ele>
        <time>2015-11-04T14:19:45Z</time>
      </trkpt>
      <trkpt lat="43.4276" lon="6.02202">
        <ele>391.79998779297</ele>
        <time>2015-11-04T14:19:46Z</time>
      </trkpt>
      <trkpt lat="43.42758" lon="6.022">
        <ele>392</ele>
        <time>2015-11-04T14:19:48Z</time>
      </trkpt>
      <trkpt lat="43.42757" lon="6.022">
        <ele>392.60000610352</ele>
        <time>2015-11-04T14:19:50Z</time>
      </trkpt>
      <trkpt lat="43.42757" lon="6.02199">
        <ele>392.60000610352</ele>
        <time>2015-11-04T14:19:52Z</time>
      </trkpt>
      <trkpt lat="43.42757" lon="6.02199">
        <ele>392.60000610352</ele>
        <time>2015-11-04T14:19:54Z</time>
      </trkpt>
      <trkpt lat="43.42757" lon="6.02199">
        <ele>392.79998779297</ele>
        <time>2015-11-04T14:19:56Z</time>
      </trkpt>
      <trkpt lat="43.42757" lon="6.02198">
        <ele>392.79998779297</ele>
        <time>2015-11-04T14:20:00Z</time>
      </trkpt>
      <trkpt lat="43.42756" lon="6.02197">
        <ele>392.79998779297</ele>
        <time>2015-11-04T14:20:02Z</time>
      </trkpt>
      <trkpt lat="43.42756" lon="6.02197">
        <ele>392.79998779297</ele>
        <time>2015-11-04T14:20:03Z</time>
      </trkpt>
      <trkpt lat="43.42756" lon="6.02197">
        <ele>392.79998779297</ele>
        <time>2015-11-04T14:20:04Z</time>
      </trkpt>
      <trkpt lat="43.42756" lon="6.02197">
        <ele>392.79998779297</ele>
        <time>2015-11-04T14:20:06Z</time>
      </trkpt>
      <trkpt lat="43.42754" lon="6.02196">
        <ele>392.79998779297</ele>
        <time>2015-11-04T14:20:08Z</time>
      </trkpt>
      <trkpt lat="43.42753" lon="6.02195">
        <ele>392.79998779297</ele>
        <time>2015-11-04T14:20:09Z</time>
      </trkpt>
      <trkpt lat="43.42752" lon="6.02194">
        <ele>392.79998779297</ele>
        <time>2015-11-04T14:20:10Z</time>
      </trkpt>
      <trkpt lat="43.4275" lon="6.02193">
        <ele>393.20001220703</ele>
        <time>2015-11-04T14:20:12Z</time>
      </trkpt>
      <trkpt lat="43.42747" lon="6.02191">
        <ele>393.60000610352</ele>
        <time>2015-11-04T14:20:14Z</time>
      </trkpt>
      <trkpt lat="43.42746" lon="6.0219">
        <ele>393.60000610352</ele>
        <time>2015-11-04T14:20:15Z</time>
      </trkpt>
      <trkpt lat="43.42745" lon="6.02189">
        <ele>393.79998779297</ele>
        <time>2015-11-04T14:20:16Z</time>
      </trkpt>
      <trkpt lat="43.42738" lon="6.02186">
        <ele>394.60000610352</ele>
        <time>2015-11-04T14:20:21Z</time>
      </trkpt>
      <trkpt lat="43.42737" lon="6.02185">
        <ele>394.60000610352</ele>
        <time>2015-11-04T14:20:22Z</time>
      </trkpt>
      <trkpt lat="43.42734" lon="6.02184">
        <ele>395.20001220703</ele>
        <time>2015-11-04T14:20:24Z</time>
      </trkpt>
      <trkpt lat="43.42731" lon="6.02183">
        <ele>395.60000610352</ele>
        <time>2015-11-04T14:20:26Z</time>
      </trkpt>
      <trkpt lat="43.42729" lon="6.02182">
        <ele>395.79998779297</ele>
        <time>2015-11-04T14:20:28Z</time>
      </trkpt>
      <trkpt lat="43.42728" lon="6.0218">
        <ele>396</ele>
        <time>2015-11-04T14:20:29Z</time>
      </trkpt>
      <trkpt lat="43.42727" lon="6.02179">
        <ele>396</ele>
        <time>2015-11-04T14:20:30Z</time>
      </trkpt>
      <trkpt lat="43.42725" lon="6.02177">
        <ele>396.20001220703</ele>
        <time>2015-11-04T14:20:31Z</time>
      </trkpt>
      <trkpt lat="43.42724" lon="6.02175">
        <ele>396.20001220703</ele>
        <time>2015-11-04T14:20:32Z</time>
      </trkpt>
      <trkpt lat="43.42723" lon="6.02173">
        <ele>396.39999389648</ele>
        <time>2015-11-04T14:20:34Z</time>
      </trkpt>
      <trkpt lat="43.42722" lon="6.0217">
        <ele>397</ele>
        <time>2015-11-04T14:20:36Z</time>
      </trkpt>
      <trkpt lat="43.4272" lon="6.02161">
        <ele>397.60000610352</ele>
        <time>2015-11-04T14:20:42Z</time>
      </trkpt>
      <trkpt lat="43.42719" lon="6.02159">
        <ele>397.79998779297</ele>
        <time>2015-11-04T14:20:43Z</time>
      </trkpt>
      <trkpt lat="43.42719" lon="6.02157">
        <ele>397.60000610352</ele>
        <time>2015-11-04T14:20:44Z</time>
      </trkpt>
      <trkpt lat="43.42719" lon="6.02156">
        <ele>398</ele>
        <time>2015-11-04T14:20:46Z</time>
      </trkpt>
      <trkpt lat="43.42719" lon="6.02156">
        <ele>398.20001220703</ele>
        <time>2015-11-04T14:20:47Z</time>
      </trkpt>
      <trkpt lat="43.42719" lon="6.02156">
        <ele>398.20001220703</ele>
        <time>2015-11-04T14:20:50Z</time>
      </trkpt>
      <trkpt lat="43.42718" lon="6.02155">
        <ele>398.20001220703</ele>
        <time>2015-11-04T14:20:52Z</time>
      </trkpt>
      <trkpt lat="43.42718" lon="6.02154">
        <ele>398.20001220703</ele>
        <time>2015-11-04T14:20:54Z</time>
      </trkpt>
      <trkpt lat="43.42717" lon="6.02154">
        <ele>398.20001220703</ele>
        <time>2015-11-04T14:20:55Z</time>
      </trkpt>
      <trkpt lat="43.42717" lon="6.02154">
        <ele>398.20001220703</ele>
        <time>2015-11-04T14:21:00Z</time>
      </trkpt>
      <trkpt lat="43.42717" lon="6.02154">
        <ele>397.39999389648</ele>
        <time>2015-11-04T14:21:32Z</time>
      </trkpt>
      <trkpt lat="43.42717" lon="6.02154">
        <ele>397.39999389648</ele>
        <time>2015-11-04T14:21:34Z</time>
      </trkpt>
      <trkpt lat="43.42717" lon="6.02154">
        <ele>397.39999389648</ele>
        <time>2015-11-04T14:21:40Z</time>
      </trkpt>
      <trkpt lat="43.42717" lon="6.02154">
        <ele>397.39999389648</ele>
        <time>2015-11-04T14:22:12Z</time>
      </trkpt>
      <trkpt lat="43.42717" lon="6.02154">
        <ele>397.60000610352</ele>
        <time>2015-11-04T14:22:14Z</time>
      </trkpt>
      <trkpt lat="43.42717" lon="6.02154">
        <ele>397.39999389648</ele>
        <time>2015-11-04T14:22:20Z</time>
      </trkpt>
      <trkpt lat="43.42717" lon="6.02154">
        <ele>397.60000610352</ele>
        <time>2015-11-04T14:22:52Z</time>
      </trkpt>
      <trkpt lat="43.42717" lon="6.02155">
        <ele>397.60000610352</ele>
        <time>2015-11-04T14:22:54Z</time>
      </trkpt>
      <trkpt lat="43.42717" lon="6.02155">
        <ele>397.60000610352</ele>
        <time>2015-11-04T14:23:00Z</time>
      </trkpt>
      <trkpt lat="43.42717" lon="6.02155">
        <ele>397.60000610352</ele>
        <time>2015-11-04T14:23:32Z</time>
      </trkpt>
      <trkpt lat="43.42717" lon="6.02155">
        <ele>397.60000610352</ele>
        <time>2015-11-04T14:23:34Z</time>
      </trkpt>
      <trkpt lat="43.42717" lon="6.02155">
        <ele>397.39999389648</ele>
        <time>2015-11-04T14:23:40Z</time>
      </trkpt>
      <trkpt lat="43.42717" lon="6.02155">
        <ele>397.79998779297</ele>
        <time>2015-11-04T14:24:12Z</time>
      </trkpt>
      <trkpt lat="43.42717" lon="6.02155">
        <ele>397.79998779297</ele>
        <time>2015-11-04T14:24:14Z</time>
      </trkpt>
      <trkpt lat="43.42717" lon="6.02155">
        <ele>397.60000610352</ele>
        <time>2015-11-04T14:24:20Z</time>
      </trkpt>
      <trkpt lat="43.42717" lon="6.02155">
        <ele>398.20001220703</ele>
        <time>2015-11-04T14:25:26Z</time>
      </trkpt>
      <trkpt lat="43.42717" lon="6.02154">
        <ele>398.39999389648</ele>
        <time>2015-11-04T14:25:27Z</time>
      </trkpt>
      <trkpt lat="43.42717" lon="6.02154">
        <ele>398.60000610352</ele>
        <time>2015-11-04T14:25:32Z</time>
      </trkpt>
      <trkpt lat="43.42717" lon="6.02154">
        <ele>398.60000610352</ele>
        <time>2015-11-04T14:26:04Z</time>
      </trkpt>
      <trkpt lat="43.42717" lon="6.02154">
        <ele>398.60000610352</ele>
        <time>2015-11-04T14:26:06Z</time>
      </trkpt>
      <trkpt lat="43.42717" lon="6.02154">
        <ele>398.60000610352</ele>
        <time>2015-11-04T14:26:12Z</time>
      </trkpt>
      <trkpt lat="43.42717" lon="6.02154">
        <ele>398.60000610352</ele>
        <time>2015-11-04T14:26:31Z</time>
      </trkpt>
      <trkpt lat="43.42718" lon="6.02153">
        <ele>398.60000610352</ele>
        <time>2015-11-04T14:26:33Z</time>
      </trkpt>
      <trkpt lat="43.42718" lon="6.02152">
        <ele>398.60000610352</ele>
        <time>2015-11-04T14:26:35Z</time>
      </trkpt>
      <trkpt lat="43.42719" lon="6.02152">
        <ele>398.39999389648</ele>
        <time>2015-11-04T14:26:37Z</time>
      </trkpt>
      <trkpt lat="43.42719" lon="6.02152">
        <ele>398.39999389648</ele>
        <time>2015-11-04T14:26:43Z</time>
      </trkpt>
      <trkpt lat="43.42719" lon="6.02152">
        <ele>398.60000610352</ele>
        <time>2015-11-04T14:27:21Z</time>
      </trkpt>
      <trkpt lat="43.42719" lon="6.02152">
        <ele>398.39999389648</ele>
        <time>2015-11-04T14:27:29Z</time>
      </trkpt>
      <trkpt lat="43.42719" lon="6.0215">
        <ele>398.39999389648</ele>
        <time>2015-11-04T14:27:31Z</time>
      </trkpt>
      <trkpt lat="43.42721" lon="6.02146">
        <ele>398.39999389648</ele>
        <time>2015-11-04T14:27:33Z</time>
      </trkpt>
      <trkpt lat="43.42723" lon="6.02142">
        <ele>398.60000610352</ele>
        <time>2015-11-04T14:27:35Z</time>
      </trkpt>
      <trkpt lat="43.42725" lon="6.02138">
        <ele>398.79998779297</ele>
        <time>2015-11-04T14:27:37Z</time>
      </trkpt>
      <trkpt lat="43.42727" lon="6.02134">
        <ele>398.79998779297</ele>
        <time>2015-11-04T14:27:39Z</time>
      </trkpt>
      <trkpt lat="43.42728" lon="6.0213">
        <ele>399.39999389648</ele>
        <time>2015-11-04T14:27:41Z</time>
      </trkpt>
      <trkpt lat="43.4273" lon="6.02127">
        <ele>399.60000610352</ele>
        <time>2015-11-04T14:27:43Z</time>
      </trkpt>
      <trkpt lat="43.42731" lon="6.02122">
        <ele>399.60000610352</ele>
        <time>2015-11-04T14:27:45Z</time>
      </trkpt>
      <trkpt lat="43.42733" lon="6.02118">
        <ele>399.39999389648</ele>
        <time>2015-11-04T14:27:47Z</time>
      </trkpt>
      <trkpt lat="43.42734" lon="6.02112">
        <ele>399.60000610352</ele>
        <time>2015-11-04T14:27:49Z</time>
      </trkpt>
      <trkpt lat="43.42735" lon="6.02107">
        <ele>399.79998779297</ele>
        <time>2015-11-04T14:27:51Z</time>
      </trkpt>
      <trkpt lat="43.42735" lon="6.02101">
        <ele>400</ele>
        <time>2015-11-04T14:27:53Z</time>
      </trkpt>
      <trkpt lat="43.42736" lon="6.02096">
        <ele>400.20001220703</ele>
        <time>2015-11-04T14:27:55Z</time>
      </trkpt>
      <trkpt lat="43.42736" lon="6.02091">
        <ele>400.39999389648</ele>
        <time>2015-11-04T14:27:57Z</time>
      </trkpt>
      <trkpt lat="43.42737" lon="6.02087">
        <ele>400.20001220703</ele>
        <time>2015-11-04T14:27:59Z</time>
      </trkpt>
      <trkpt lat="43.42737" lon="6.02082">
        <ele>400</ele>
        <time>2015-11-04T14:28:01Z</time>
      </trkpt>
      <trkpt lat="43.42738" lon="6.02076">
        <ele>400</ele>
        <time>2015-11-04T14:28:03Z</time>
      </trkpt>
      <trkpt lat="43.42739" lon="6.02071">
        <ele>399.79998779297</ele>
        <time>2015-11-04T14:28:05Z</time>
      </trkpt>
      <trkpt lat="43.42741" lon="6.0206">
        <ele>400</ele>
        <time>2015-11-04T14:28:09Z</time>
      </trkpt>
      <trkpt lat="43.42741" lon="6.02055">
        <ele>400</ele>
        <time>2015-11-04T14:28:11Z</time>
      </trkpt>
      <trkpt lat="43.42739" lon="6.0205">
        <ele>400</ele>
        <time>2015-11-04T14:28:13Z</time>
      </trkpt>
      <trkpt lat="43.4274" lon="6.02045">
        <ele>399.79998779297</ele>
        <time>2015-11-04T14:28:15Z</time>
      </trkpt>
      <trkpt lat="43.4274" lon="6.02043">
        <ele>399.79998779297</ele>
        <time>2015-11-04T14:28:16Z</time>
      </trkpt>
      <trkpt lat="43.42738" lon="6.02039">
        <ele>399.79998779297</ele>
        <time>2015-11-04T14:28:19Z</time>
      </trkpt>
      <trkpt lat="43.42736" lon="6.02039">
        <ele>400</ele>
        <time>2015-11-04T14:28:21Z</time>
      </trkpt>
      <trkpt lat="43.42733" lon="6.0204">
        <ele>400.20001220703</ele>
        <time>2015-11-04T14:28:23Z</time>
      </trkpt>
      <trkpt lat="43.4273" lon="6.02039">
        <ele>400.39999389648</ele>
        <time>2015-11-04T14:28:25Z</time>
      </trkpt>
      <trkpt lat="43.42728" lon="6.02039">
        <ele>400.39999389648</ele>
        <time>2015-11-04T14:28:26Z</time>
      </trkpt>
      <trkpt lat="43.42727" lon="6.02039">
        <ele>400.39999389648</ele>
        <time>2015-11-04T14:28:27Z</time>
      </trkpt>
      <trkpt lat="43.42723" lon="6.02038">
        <ele>400.60000610352</ele>
        <time>2015-11-04T14:28:29Z</time>
      </trkpt>
      <trkpt lat="43.4272" lon="6.02038">
        <ele>401</ele>
        <time>2015-11-04T14:28:31Z</time>
      </trkpt>
      <trkpt lat="43.42717" lon="6.02037">
        <ele>401.39999389648</ele>
        <time>2015-11-04T14:28:33Z</time>
      </trkpt>
      <trkpt lat="43.42712" lon="6.02036">
        <ele>402.20001220703</ele>
        <time>2015-11-04T14:28:37Z</time>
      </trkpt>
      <trkpt lat="43.42709" lon="6.02036">
        <ele>402.39999389648</ele>
        <time>2015-11-04T14:28:39Z</time>
      </trkpt>
      <trkpt lat="43.42704" lon="6.02036">
        <ele>403.20001220703</ele>
        <time>2015-11-04T14:28:42Z</time>
      </trkpt>
      <trkpt lat="43.42697" lon="6.02034">
        <ele>403.79998779297</ele>
        <time>2015-11-04T14:28:47Z</time>
      </trkpt>
      <trkpt lat="43.42694" lon="6.02033">
        <ele>403.79998779297</ele>
        <time>2015-11-04T14:28:49Z</time>
      </trkpt>
      <trkpt lat="43.42691" lon="6.02033">
        <ele>404.39999389648</ele>
        <time>2015-11-04T14:28:51Z</time>
      </trkpt>
      <trkpt lat="43.42689" lon="6.02033">
        <ele>404.79998779297</ele>
        <time>2015-11-04T14:28:53Z</time>
      </trkpt>
      <trkpt lat="43.42686" lon="6.02032">
        <ele>405</ele>
        <time>2015-11-04T14:28:55Z</time>
      </trkpt>
      <trkpt lat="43.4268" lon="6.02031">
        <ele>405.79998779297</ele>
        <time>2015-11-04T14:28:59Z</time>
      </trkpt>
      <trkpt lat="43.42677" lon="6.0203">
        <ele>406.20001220703</ele>
        <time>2015-11-04T14:29:01Z</time>
      </trkpt>
      <trkpt lat="43.42672" lon="6.0203">
        <ele>406.60000610352</ele>
        <time>2015-11-04T14:29:05Z</time>
      </trkpt>
      <trkpt lat="43.42671" lon="6.0203">
        <ele>406.79998779297</ele>
        <time>2015-11-04T14:29:06Z</time>
      </trkpt>
      <trkpt lat="43.42669" lon="6.0203">
        <ele>407</ele>
        <time>2015-11-04T14:29:07Z</time>
      </trkpt>
      <trkpt lat="43.42666" lon="6.02029">
        <ele>407.60000610352</ele>
        <time>2015-11-04T14:29:09Z</time>
      </trkpt>
      <trkpt lat="43.42664" lon="6.02029">
        <ele>408.39999389648</ele>
        <time>2015-11-04T14:29:11Z</time>
      </trkpt>
      <trkpt lat="43.42661" lon="6.02029">
        <ele>408.79998779297</ele>
        <time>2015-11-04T14:29:13Z</time>
      </trkpt>
      <trkpt lat="43.4266" lon="6.02028">
        <ele>409</ele>
        <time>2015-11-04T14:29:14Z</time>
      </trkpt>
      <trkpt lat="43.42659" lon="6.02028">
        <ele>409.20001220703</ele>
        <time>2015-11-04T14:29:15Z</time>
      </trkpt>
      <trkpt lat="43.42654" lon="6.02026">
        <ele>410</ele>
        <time>2015-11-04T14:29:18Z</time>
      </trkpt>
      <trkpt lat="43.42653" lon="6.02026">
        <ele>410</ele>
        <time>2015-11-04T14:29:19Z</time>
      </trkpt>
      <trkpt lat="43.42651" lon="6.02026">
        <ele>410.79998779297</ele>
        <time>2015-11-04T14:29:21Z</time>
      </trkpt>
      <trkpt lat="43.42649" lon="6.02026">
        <ele>411</ele>
        <time>2015-11-04T14:29:22Z</time>
      </trkpt>
      <trkpt lat="43.42648" lon="6.02027">
        <ele>411.20001220703</ele>
        <time>2015-11-04T14:29:23Z</time>
      </trkpt>
      <trkpt lat="43.42646" lon="6.02026">
        <ele>411.79998779297</ele>
        <time>2015-11-04T14:29:25Z</time>
      </trkpt>
      <trkpt lat="43.42643" lon="6.02026">
        <ele>412</ele>
        <time>2015-11-04T14:29:27Z</time>
      </trkpt>
      <trkpt lat="43.42637" lon="6.02025">
        <ele>413.20001220703</ele>
        <time>2015-11-04T14:29:32Z</time>
      </trkpt>
      <trkpt lat="43.42636" lon="6.02025">
        <ele>413.20001220703</ele>
        <time>2015-11-04T14:29:33Z</time>
      </trkpt>
      <trkpt lat="43.42634" lon="6.02025">
        <ele>414</ele>
        <time>2015-11-04T14:29:35Z</time>
      </trkpt>
      <trkpt lat="43.42632" lon="6.02025">
        <ele>414.20001220703</ele>
        <time>2015-11-04T14:29:37Z</time>
      </trkpt>
      <trkpt lat="43.4263" lon="6.02024">
        <ele>414.20001220703</ele>
        <time>2015-11-04T14:29:39Z</time>
      </trkpt>
      <trkpt lat="43.42625" lon="6.02023">
        <ele>415.20001220703</ele>
        <time>2015-11-04T14:29:43Z</time>
      </trkpt>
      <trkpt lat="43.42624" lon="6.02022">
        <ele>415.60000610352</ele>
        <time>2015-11-04T14:29:45Z</time>
      </trkpt>
      <trkpt lat="43.42621" lon="6.02022">
        <ele>415.79998779297</ele>
        <time>2015-11-04T14:29:47Z</time>
      </trkpt>
      <trkpt lat="43.42617" lon="6.02021">
        <ele>416.60000610352</ele>
        <time>2015-11-04T14:29:51Z</time>
      </trkpt>
      <trkpt lat="43.42615" lon="6.02021">
        <ele>416.79998779297</ele>
        <time>2015-11-04T14:29:53Z</time>
      </trkpt>
      <trkpt lat="43.42613" lon="6.0202">
        <ele>417.20001220703</ele>
        <time>2015-11-04T14:29:55Z</time>
      </trkpt>
      <trkpt lat="43.42611" lon="6.02021">
        <ele>417.39999389648</ele>
        <time>2015-11-04T14:29:57Z</time>
      </trkpt>
      <trkpt lat="43.42609" lon="6.0202">
        <ele>417.60000610352</ele>
        <time>2015-11-04T14:29:59Z</time>
      </trkpt>
      <trkpt lat="43.42607" lon="6.0202">
        <ele>417.79998779297</ele>
        <time>2015-11-04T14:30:01Z</time>
      </trkpt>
      <trkpt lat="43.42605" lon="6.02019">
        <ele>418.60000610352</ele>
        <time>2015-11-04T14:30:03Z</time>
      </trkpt>
      <trkpt lat="43.42603" lon="6.02019">
        <ele>418.79998779297</ele>
        <time>2015-11-04T14:30:05Z</time>
      </trkpt>
      <trkpt lat="43.42602" lon="6.02019">
        <ele>419</ele>
        <time>2015-11-04T14:30:07Z</time>
      </trkpt>
      <trkpt lat="43.426" lon="6.02018">
        <ele>419.20001220703</ele>
        <time>2015-11-04T14:30:09Z</time>
      </trkpt>
      <trkpt lat="43.42599" lon="6.02018">
        <ele>419.39999389648</ele>
        <time>2015-11-04T14:30:10Z</time>
      </trkpt>
      <trkpt lat="43.42598" lon="6.02018">
        <ele>419.60000610352</ele>
        <time>2015-11-04T14:30:11Z</time>
      </trkpt>
      <trkpt lat="43.42596" lon="6.02019">
        <ele>419.79998779297</ele>
        <time>2015-11-04T14:30:13Z</time>
      </trkpt>
      <trkpt lat="43.42595" lon="6.02018">
        <ele>420</ele>
        <time>2015-11-04T14:30:14Z</time>
      </trkpt>
      <trkpt lat="43.42594" lon="6.02018">
        <ele>420</ele>
        <time>2015-11-04T14:30:15Z</time>
      </trkpt>
      <trkpt lat="43.42592" lon="6.02018">
        <ele>420.39999389648</ele>
        <time>2015-11-04T14:30:17Z</time>
      </trkpt>
      <trkpt lat="43.42591" lon="6.02018">
        <ele>420.60000610352</ele>
        <time>2015-11-04T14:30:18Z</time>
      </trkpt>
      <trkpt lat="43.4259" lon="6.02018">
        <ele>420.79998779297</ele>
        <time>2015-11-04T14:30:19Z</time>
      </trkpt>
      <trkpt lat="43.42588" lon="6.02017">
        <ele>421</ele>
        <time>2015-11-04T14:30:21Z</time>
      </trkpt>
      <trkpt lat="43.42587" lon="6.02017">
        <ele>421</ele>
        <time>2015-11-04T14:30:22Z</time>
      </trkpt>
      <trkpt lat="43.42587" lon="6.02017">
        <ele>421.20001220703</ele>
        <time>2015-11-04T14:30:23Z</time>
      </trkpt>
      <trkpt lat="43.42585" lon="6.02017">
        <ele>421.39999389648</ele>
        <time>2015-11-04T14:30:25Z</time>
      </trkpt>
      <trkpt lat="43.42583" lon="6.02017">
        <ele>421.39999389648</ele>
        <time>2015-11-04T14:30:26Z</time>
      </trkpt>
      <trkpt lat="43.42582" lon="6.02017">
        <ele>421.60000610352</ele>
        <time>2015-11-04T14:30:28Z</time>
      </trkpt>
      <trkpt lat="43.42581" lon="6.02017">
        <ele>422</ele>
        <time>2015-11-04T14:30:29Z</time>
      </trkpt>
      <trkpt lat="43.42579" lon="6.02016">
        <ele>422.20001220703</ele>
        <time>2015-11-04T14:30:31Z</time>
      </trkpt>
      <trkpt lat="43.42576" lon="6.02015">
        <ele>423</ele>
        <time>2015-11-04T14:30:35Z</time>
      </trkpt>
      <trkpt lat="43.42574" lon="6.02014">
        <ele>423</ele>
        <time>2015-11-04T14:30:37Z</time>
      </trkpt>
      <trkpt lat="43.42573" lon="6.02014">
        <ele>423.60000610352</ele>
        <time>2015-11-04T14:30:38Z</time>
      </trkpt>
      <trkpt lat="43.4257" lon="6.02014">
        <ele>423.60000610352</ele>
        <time>2015-11-04T14:30:41Z</time>
      </trkpt>
      <trkpt lat="43.42568" lon="6.02013">
        <ele>424</ele>
        <time>2015-11-04T14:30:43Z</time>
      </trkpt>
      <trkpt lat="43.42566" lon="6.02013">
        <ele>424.20001220703</ele>
        <time>2015-11-04T14:30:45Z</time>
      </trkpt>
      <trkpt lat="43.42564" lon="6.02013">
        <ele>424.39999389648</ele>
        <time>2015-11-04T14:30:47Z</time>
      </trkpt>
      <trkpt lat="43.42563" lon="6.02013">
        <ele>424.79998779297</ele>
        <time>2015-11-04T14:30:48Z</time>
      </trkpt>
      <trkpt lat="43.42562" lon="6.02013">
        <ele>425</ele>
        <time>2015-11-04T14:30:49Z</time>
      </trkpt>
      <trkpt lat="43.4256" lon="6.02012">
        <ele>425</ele>
        <time>2015-11-04T14:30:51Z</time>
      </trkpt>
      <trkpt lat="43.42558" lon="6.02012">
        <ele>425.20001220703</ele>
        <time>2015-11-04T14:30:53Z</time>
      </trkpt>
      <trkpt lat="43.42556" lon="6.02012">
        <ele>425.39999389648</ele>
        <time>2015-11-04T14:30:55Z</time>
      </trkpt>
      <trkpt lat="43.42556" lon="6.02012">
        <ele>425.39999389648</ele>
        <time>2015-11-04T14:30:56Z</time>
      </trkpt>
      <trkpt lat="43.42554" lon="6.02012">
        <ele>425.60000610352</ele>
        <time>2015-11-04T14:30:57Z</time>
      </trkpt>
      <trkpt lat="43.42552" lon="6.02012">
        <ele>425.79998779297</ele>
        <time>2015-11-04T14:30:59Z</time>
      </trkpt>
      <trkpt lat="43.4255" lon="6.02012">
        <ele>426.20001220703</ele>
        <time>2015-11-04T14:31:01Z</time>
      </trkpt>
      <trkpt lat="43.42549" lon="6.02011">
        <ele>426.39999389648</ele>
        <time>2015-11-04T14:31:03Z</time>
      </trkpt>
      <trkpt lat="43.42547" lon="6.02011">
        <ele>426.60000610352</ele>
        <time>2015-11-04T14:31:05Z</time>
      </trkpt>
      <trkpt lat="43.42545" lon="6.0201">
        <ele>426.79998779297</ele>
        <time>2015-11-04T14:31:07Z</time>
      </trkpt>
      <trkpt lat="43.42542" lon="6.0201">
        <ele>427</ele>
        <time>2015-11-04T14:31:09Z</time>
      </trkpt>
      <trkpt lat="43.4254" lon="6.0201">
        <ele>427</ele>
        <time>2015-11-04T14:31:11Z</time>
      </trkpt>
      <trkpt lat="43.42533" lon="6.02009">
        <ele>427.79998779297</ele>
        <time>2015-11-04T14:31:17Z</time>
      </trkpt>
      <trkpt lat="43.42531" lon="6.02008">
        <ele>428</ele>
        <time>2015-11-04T14:31:19Z</time>
      </trkpt>
      <trkpt lat="43.42529" lon="6.02008">
        <ele>428.39999389648</ele>
        <time>2015-11-04T14:31:21Z</time>
      </trkpt>
      <trkpt lat="43.42527" lon="6.02007">
        <ele>428.39999389648</ele>
        <time>2015-11-04T14:31:23Z</time>
      </trkpt>
      <trkpt lat="43.42522" lon="6.02007">
        <ele>428.79998779297</ele>
        <time>2015-11-04T14:31:27Z</time>
      </trkpt>
      <trkpt lat="43.4252" lon="6.02006">
        <ele>429</ele>
        <time>2015-11-04T14:31:29Z</time>
      </trkpt>
      <trkpt lat="43.42518" lon="6.02006">
        <ele>429.20001220703</ele>
        <time>2015-11-04T14:31:30Z</time>
      </trkpt>
      <trkpt lat="43.42517" lon="6.02006">
        <ele>429</ele>
        <time>2015-11-04T14:31:31Z</time>
      </trkpt>
      <trkpt lat="43.42514" lon="6.02006">
        <ele>429.20001220703</ele>
        <time>2015-11-04T14:31:33Z</time>
      </trkpt>
      <trkpt lat="43.42512" lon="6.02005">
        <ele>429.20001220703</ele>
        <time>2015-11-04T14:31:35Z</time>
      </trkpt>
      <trkpt lat="43.42511" lon="6.02005">
        <ele>429.20001220703</ele>
        <time>2015-11-04T14:31:36Z</time>
      </trkpt>
      <trkpt lat="43.4251" lon="6.02005">
        <ele>429.20001220703</ele>
        <time>2015-11-04T14:31:37Z</time>
      </trkpt>
      <trkpt lat="43.42508" lon="6.02005">
        <ele>429.39999389648</ele>
        <time>2015-11-04T14:31:39Z</time>
      </trkpt>
      <trkpt lat="43.42505" lon="6.02005">
        <ele>429.39999389648</ele>
        <time>2015-11-04T14:31:41Z</time>
      </trkpt>
      <trkpt lat="43.42503" lon="6.02004">
        <ele>429.39999389648</ele>
        <time>2015-11-04T14:31:43Z</time>
      </trkpt>
      <trkpt lat="43.425" lon="6.02004">
        <ele>429.20001220703</ele>
        <time>2015-11-04T14:31:45Z</time>
      </trkpt>
      <trkpt lat="43.42498" lon="6.02004">
        <ele>429</ele>
        <time>2015-11-04T14:31:46Z</time>
      </trkpt>
      <trkpt lat="43.42497" lon="6.02004">
        <ele>429</ele>
        <time>2015-11-04T14:31:47Z</time>
      </trkpt>
      <trkpt lat="43.42493" lon="6.02004">
        <ele>429</ele>
        <time>2015-11-04T14:31:49Z</time>
      </trkpt>
      <trkpt lat="43.4249" lon="6.02004">
        <ele>428.79998779297</ele>
        <time>2015-11-04T14:31:51Z</time>
      </trkpt>
      <trkpt lat="43.42488" lon="6.02005">
        <ele>428.60000610352</ele>
        <time>2015-11-04T14:31:53Z</time>
      </trkpt>
      <trkpt lat="43.42487" lon="6.02006">
        <ele>428.39999389648</ele>
        <time>2015-11-04T14:31:54Z</time>
      </trkpt>
      <trkpt lat="43.42487" lon="6.02007">
        <ele>428.39999389648</ele>
        <time>2015-11-04T14:31:55Z</time>
      </trkpt>
      <trkpt lat="43.42487" lon="6.02008">
        <ele>428.39999389648</ele>
        <time>2015-11-04T14:31:57Z</time>
      </trkpt>
      <trkpt lat="43.42487" lon="6.02008">
        <ele>428.39999389648</ele>
        <time>2015-11-04T14:31:58Z</time>
      </trkpt>
      <trkpt lat="43.42487" lon="6.02008">
        <ele>428.20001220703</ele>
        <time>2015-11-04T14:32:03Z</time>
      </trkpt>
      <trkpt lat="43.42487" lon="6.02008">
        <ele>428.20001220703</ele>
        <time>2015-11-04T14:32:09Z</time>
      </trkpt>
      <trkpt lat="43.42487" lon="6.02007">
        <ele>428.39999389648</ele>
        <time>2015-11-04T14:32:10Z</time>
      </trkpt>
      <trkpt lat="43.42488" lon="6.02007">
        <ele>428.39999389648</ele>
        <time>2015-11-04T14:32:11Z</time>
      </trkpt>
      <trkpt lat="43.42488" lon="6.02007">
        <ele>428.60000610352</ele>
        <time>2015-11-04T14:32:13Z</time>
      </trkpt>
      <trkpt lat="43.42488" lon="6.02007">
        <ele>428.39999389648</ele>
        <time>2015-11-04T14:32:18Z</time>
      </trkpt>
      <trkpt lat="43.42488" lon="6.02007">
        <ele>428.79998779297</ele>
        <time>2015-11-04T14:32:50Z</time>
      </trkpt>
      <trkpt lat="43.42488" lon="6.02007">
        <ele>428.79998779297</ele>
        <time>2015-11-04T14:32:52Z</time>
      </trkpt>
      <trkpt lat="43.42488" lon="6.02007">
        <ele>428.60000610352</ele>
        <time>2015-11-04T14:32:58Z</time>
      </trkpt>
      <trkpt lat="43.42488" lon="6.02007">
        <ele>428.79998779297</ele>
        <time>2015-11-04T14:33:30Z</time>
      </trkpt>
      <trkpt lat="43.42488" lon="6.02006">
        <ele>428.60000610352</ele>
        <time>2015-11-04T14:33:32Z</time>
      </trkpt>
      <trkpt lat="43.42488" lon="6.02006">
        <ele>428.60000610352</ele>
        <time>2015-11-04T14:33:34Z</time>
      </trkpt>
      <trkpt lat="43.42487" lon="6.02006">
        <ele>428.79998779297</ele>
        <time>2015-11-04T14:33:35Z</time>
      </trkpt>
      <trkpt lat="43.42487" lon="6.02007">
        <ele>428.79998779297</ele>
        <time>2015-11-04T14:33:36Z</time>
      </trkpt>
      <trkpt lat="43.42487" lon="6.02008">
        <ele>428.60000610352</ele>
        <time>2015-11-04T14:33:37Z</time>
      </trkpt>
      <trkpt lat="43.42487" lon="6.02007">
        <ele>428.39999389648</ele>
        <time>2015-11-04T14:33:38Z</time>
      </trkpt>
      <trkpt lat="43.42487" lon="6.02007">
        <ele>428.39999389648</ele>
        <time>2015-11-04T14:33:39Z</time>
      </trkpt>
      <trkpt lat="43.42487" lon="6.02007">
        <ele>428.39999389648</ele>
        <time>2015-11-04T14:33:44Z</time>
      </trkpt>
      <trkpt lat="43.42487" lon="6.02007">
        <ele>428.60000610352</ele>
        <time>2015-11-04T14:34:16Z</time>
      </trkpt>
      <trkpt lat="43.42487" lon="6.02008">
        <ele>428.60000610352</ele>
        <time>2015-11-04T14:34:18Z</time>
      </trkpt>
      <trkpt lat="43.42487" lon="6.02008">
        <ele>428.39999389648</ele>
        <time>2015-11-04T14:34:24Z</time>
      </trkpt>
      <trkpt lat="43.42487" lon="6.02008">
        <ele>429.20001220703</ele>
        <time>2015-11-04T14:37:04Z</time>
      </trkpt>
      <trkpt lat="43.42487" lon="6.02008">
        <ele>429.20001220703</ele>
        <time>2015-11-04T14:37:08Z</time>
      </trkpt>
      <trkpt lat="43.42488" lon="6.02007">
        <ele>429.20001220703</ele>
        <time>2015-11-04T14:37:10Z</time>
      </trkpt>
      <trkpt lat="43.42487" lon="6.02007">
        <ele>429.20001220703</ele>
        <time>2015-11-04T14:37:12Z</time>
      </trkpt>
      <trkpt lat="43.42487" lon="6.02008">
        <ele>429.39999389648</ele>
        <time>2015-11-04T14:37:14Z</time>
      </trkpt>
      <trkpt lat="43.42487" lon="6.02008">
        <ele>429.39999389648</ele>
        <time>2015-11-04T14:37:20Z</time>
      </trkpt>
      <trkpt lat="43.42487" lon="6.02008">
        <ele>429.39999389648</ele>
        <time>2015-11-04T14:37:36Z</time>
      </trkpt>
      <trkpt lat="43.42488" lon="6.02006">
        <ele>429.39999389648</ele>
        <time>2015-11-04T14:37:38Z</time>
      </trkpt>
      <trkpt lat="43.42488" lon="6.02006">
        <ele>429.39999389648</ele>
        <time>2015-11-04T14:37:43Z</time>
      </trkpt>
      <trkpt lat="43.42488" lon="6.02006">
        <ele>429.60000610352</ele>
        <time>2015-11-04T14:38:16Z</time>
      </trkpt>
      <trkpt lat="43.42488" lon="6.02006">
        <ele>429.60000610352</ele>
        <time>2015-11-04T14:38:18Z</time>
      </trkpt>
      <trkpt lat="43.42488" lon="6.02006">
        <ele>429.39999389648</ele>
        <time>2015-11-04T14:38:24Z</time>
      </trkpt>
      <trkpt lat="43.42488" lon="6.02006">
        <ele>429.79998779297</ele>
        <time>2015-11-04T14:38:56Z</time>
      </trkpt>
      <trkpt lat="43.42488" lon="6.02006">
        <ele>429.60000610352</ele>
        <time>2015-11-04T14:38:58Z</time>
      </trkpt>
      <trkpt lat="43.42488" lon="6.02006">
        <ele>429.60000610352</ele>
        <time>2015-11-04T14:39:04Z</time>
      </trkpt>
      <trkpt lat="43.42488" lon="6.02006">
        <ele>429.79998779297</ele>
        <time>2015-11-04T14:39:08Z</time>
      </trkpt>
      <trkpt lat="43.42487" lon="6.02006">
        <ele>429.79998779297</ele>
        <time>2015-11-04T14:39:10Z</time>
      </trkpt>
      <trkpt lat="43.42488" lon="6.02006">
        <ele>429.79998779297</ele>
        <time>2015-11-04T14:39:12Z</time>
      </trkpt>
      <trkpt lat="43.42488" lon="6.02006">
        <ele>429.60000610352</ele>
        <time>2015-11-04T14:39:18Z</time>
      </trkpt>
      <trkpt lat="43.42488" lon="6.02006">
        <ele>429.79998779297</ele>
        <time>2015-11-04T14:39:36Z</time>
      </trkpt>
      <trkpt lat="43.42488" lon="6.02005">
        <ele>429.79998779297</ele>
        <time>2015-11-04T14:39:38Z</time>
      </trkpt>
      <trkpt lat="43.42488" lon="6.02005">
        <ele>429.79998779297</ele>
        <time>2015-11-04T14:39:44Z</time>
      </trkpt>
      <trkpt lat="43.42488" lon="6.02005">
        <ele>429.79998779297</ele>
        <time>2015-11-04T14:40:16Z</time>
      </trkpt>
      <trkpt lat="43.42488" lon="6.02005">
        <ele>430</ele>
        <time>2015-11-04T14:40:18Z</time>
      </trkpt>
      <trkpt lat="43.42488" lon="6.02005">
        <ele>430</ele>
        <time>2015-11-04T14:40:24Z</time>
      </trkpt>
      <trkpt lat="43.42488" lon="6.02005">
        <ele>430</ele>
        <time>2015-11-04T14:40:56Z</time>
      </trkpt>
      <trkpt lat="43.42487" lon="6.02004">
        <ele>429.79998779297</ele>
        <time>2015-11-04T14:40:58Z</time>
      </trkpt>
      <trkpt lat="43.42488" lon="6.02004">
        <ele>430.20001220703</ele>
        <time>2015-11-04T14:41:00Z</time>
      </trkpt>
      <trkpt lat="43.42488" lon="6.02004">
        <ele>430</ele>
        <time>2015-11-04T14:41:06Z</time>
      </trkpt>
      <trkpt lat="43.42488" lon="6.02004">
        <ele>430</ele>
        <time>2015-11-04T14:41:36Z</time>
      </trkpt>
      <trkpt lat="43.42488" lon="6.02004">
        <ele>430.20001220703</ele>
        <time>2015-11-04T14:41:38Z</time>
      </trkpt>
      <trkpt lat="43.42488" lon="6.02004">
        <ele>430</ele>
        <time>2015-11-04T14:41:44Z</time>
      </trkpt>
      <trkpt lat="43.42488" lon="6.02004">
        <ele>430</ele>
        <time>2015-11-04T14:42:12Z</time>
      </trkpt>
      <trkpt lat="43.42487" lon="6.02004">
        <ele>430</ele>
        <time>2015-11-04T14:42:14Z</time>
      </trkpt>
      <trkpt lat="43.42487" lon="6.02004">
        <ele>430</ele>
        <time>2015-11-04T14:42:16Z</time>
      </trkpt>
      <trkpt lat="43.42485" lon="6.02004">
        <ele>429.79998779297</ele>
        <time>2015-11-04T14:42:18Z</time>
      </trkpt>
      <trkpt lat="43.42485" lon="6.02005">
        <ele>429.79998779297</ele>
        <time>2015-11-04T14:42:19Z</time>
      </trkpt>
      <trkpt lat="43.42483" lon="6.02009">
        <ele>429.39999389648</ele>
        <time>2015-11-04T14:42:21Z</time>
      </trkpt>
      <trkpt lat="43.42483" lon="6.02012">
        <ele>429.20001220703</ele>
        <time>2015-11-04T14:42:23Z</time>
      </trkpt>
      <trkpt lat="43.42482" lon="6.02016">
        <ele>428.79998779297</ele>
        <time>2015-11-04T14:42:25Z</time>
      </trkpt>
      <trkpt lat="43.4248" lon="6.02022">
        <ele>428.60000610352</ele>
        <time>2015-11-04T14:42:27Z</time>
      </trkpt>
      <trkpt lat="43.4248" lon="6.02025">
        <ele>428.39999389648</ele>
        <time>2015-11-04T14:42:28Z</time>
      </trkpt>
      <trkpt lat="43.42481" lon="6.02037">
        <ele>427.79998779297</ele>
        <time>2015-11-04T14:42:31Z</time>
      </trkpt>
      <trkpt lat="43.42481" lon="6.02046">
        <ele>427.39999389648</ele>
        <time>2015-11-04T14:42:33Z</time>
      </trkpt>
      <trkpt lat="43.42481" lon="6.02051">
        <ele>427.20001220703</ele>
        <time>2015-11-04T14:42:34Z</time>
      </trkpt>
      <trkpt lat="43.42481" lon="6.02056">
        <ele>426.60000610352</ele>
        <time>2015-11-04T14:42:35Z</time>
      </trkpt>
      <trkpt lat="43.4248" lon="6.02076">
        <ele>425</ele>
        <time>2015-11-04T14:42:38Z</time>
      </trkpt>
      <trkpt lat="43.4248" lon="6.02083">
        <ele>424.39999389648</ele>
        <time>2015-11-04T14:42:39Z</time>
      </trkpt>
      <trkpt lat="43.4248" lon="6.02091">
        <ele>423.39999389648</ele>
        <time>2015-11-04T14:42:40Z</time>
      </trkpt>
      <trkpt lat="43.4248" lon="6.02099">
        <ele>422.20001220703</ele>
        <time>2015-11-04T14:42:41Z</time>
      </trkpt>
      <trkpt lat="43.4248" lon="6.02108">
        <ele>421</ele>
        <time>2015-11-04T14:42:42Z</time>
      </trkpt>
      <trkpt lat="43.4248" lon="6.02117">
        <ele>420.39999389648</ele>
        <time>2015-11-04T14:42:43Z</time>
      </trkpt>
      <trkpt lat="43.42481" lon="6.02127">
        <ele>419.39999389648</ele>
        <time>2015-11-04T14:42:44Z</time>
      </trkpt>
      <trkpt lat="43.4248" lon="6.02136">
        <ele>418.79998779297</ele>
        <time>2015-11-04T14:42:45Z</time>
      </trkpt>
      <trkpt lat="43.42479" lon="6.02146">
        <ele>418.20001220703</ele>
        <time>2015-11-04T14:42:46Z</time>
      </trkpt>
      <trkpt lat="43.42479" lon="6.02155">
        <ele>417.79998779297</ele>
        <time>2015-11-04T14:42:47Z</time>
      </trkpt>
      <trkpt lat="43.42479" lon="6.02164">
        <ele>417.60000610352</ele>
        <time>2015-11-04T14:42:48Z</time>
      </trkpt>
      <trkpt lat="43.42479" lon="6.02173">
        <ele>417.60000610352</ele>
        <time>2015-11-04T14:42:49Z</time>
      </trkpt>
      <trkpt lat="43.42478" lon="6.02189">
        <ele>417.60000610352</ele>
        <time>2015-11-04T14:42:51Z</time>
      </trkpt>
      <trkpt lat="43.42478" lon="6.02206">
        <ele>417.79998779297</ele>
        <time>2015-11-04T14:42:53Z</time>
      </trkpt>
      <trkpt lat="43.42477" lon="6.02224">
        <ele>417</ele>
        <time>2015-11-04T14:42:55Z</time>
      </trkpt>
      <trkpt lat="43.42476" lon="6.02244">
        <ele>416.79998779297</ele>
        <time>2015-11-04T14:42:57Z</time>
      </trkpt>
      <trkpt lat="43.42476" lon="6.02254">
        <ele>416</ele>
        <time>2015-11-04T14:42:58Z</time>
      </trkpt>
      <trkpt lat="43.42475" lon="6.02263">
        <ele>415.39999389648</ele>
        <time>2015-11-04T14:42:59Z</time>
      </trkpt>
      <trkpt lat="43.42475" lon="6.02282">
        <ele>414.60000610352</ele>
        <time>2015-11-04T14:43:01Z</time>
      </trkpt>
      <trkpt lat="43.42474" lon="6.02301">
        <ele>414</ele>
        <time>2015-11-04T14:43:03Z</time>
      </trkpt>
      <trkpt lat="43.42471" lon="6.02319">
        <ele>413.39999389648</ele>
        <time>2015-11-04T14:43:05Z</time>
      </trkpt>
      <trkpt lat="43.4247" lon="6.02327">
        <ele>413.39999389648</ele>
        <time>2015-11-04T14:43:06Z</time>
      </trkpt>
      <trkpt lat="43.42469" lon="6.02336">
        <ele>413</ele>
        <time>2015-11-04T14:43:07Z</time>
      </trkpt>
      <trkpt lat="43.42469" lon="6.02346">
        <ele>412.20001220703</ele>
        <time>2015-11-04T14:43:08Z</time>
      </trkpt>
      <trkpt lat="43.42468" lon="6.02356">
        <ele>411</ele>
        <time>2015-11-04T14:43:09Z</time>
      </trkpt>
      <trkpt lat="43.42467" lon="6.02367">
        <ele>409.79998779297</ele>
        <time>2015-11-04T14:43:10Z</time>
      </trkpt>
      <trkpt lat="43.42466" lon="6.02377">
        <ele>409</ele>
        <time>2015-11-04T14:43:11Z</time>
      </trkpt>
      <trkpt lat="43.42465" lon="6.02388">
        <ele>408.39999389648</ele>
        <time>2015-11-04T14:43:12Z</time>
      </trkpt>
      <trkpt lat="43.42455" lon="6.02413">
        <ele>408.60000610352</ele>
        <time>2015-11-04T14:43:15Z</time>
      </trkpt>
      <trkpt lat="43.42447" lon="6.02429">
        <ele>408.60000610352</ele>
        <time>2015-11-04T14:43:17Z</time>
      </trkpt>
      <trkpt lat="43.4244" lon="6.02447">
        <ele>408.20001220703</ele>
        <time>2015-11-04T14:43:19Z</time>
      </trkpt>
      <trkpt lat="43.42438" lon="6.02456">
        <ele>408.20001220703</ele>
        <time>2015-11-04T14:43:20Z</time>
      </trkpt>
      <trkpt lat="43.42432" lon="6.02485">
        <ele>408.20001220703</ele>
        <time>2015-11-04T14:43:23Z</time>
      </trkpt>
      <trkpt lat="43.4243" lon="6.02506">
        <ele>408</ele>
        <time>2015-11-04T14:43:25Z</time>
      </trkpt>
      <trkpt lat="43.42429" lon="6.02516">
        <ele>407.79998779297</ele>
        <time>2015-11-04T14:43:26Z</time>
      </trkpt>
      <trkpt lat="43.42429" lon="6.02526">
        <ele>407.60000610352</ele>
        <time>2015-11-04T14:43:27Z</time>
      </trkpt>
      <trkpt lat="43.42427" lon="6.02536">
        <ele>407.39999389648</ele>
        <time>2015-11-04T14:43:28Z</time>
      </trkpt>
      <trkpt lat="43.42425" lon="6.02546">
        <ele>407.20001220703</ele>
        <time>2015-11-04T14:43:29Z</time>
      </trkpt>
      <trkpt lat="43.42422" lon="6.02567">
        <ele>406</ele>
        <time>2015-11-04T14:43:31Z</time>
      </trkpt>
      <trkpt lat="43.42421" lon="6.02589">
        <ele>404.79998779297</ele>
        <time>2015-11-04T14:43:33Z</time>
      </trkpt>
      <trkpt lat="43.42421" lon="6.0261">
        <ele>403.60000610352</ele>
        <time>2015-11-04T14:43:35Z</time>
      </trkpt>
      <trkpt lat="43.42422" lon="6.02624">
        <ele>404.79998779297</ele>
        <time>2015-11-04T14:43:37Z</time>
      </trkpt>
      <trkpt lat="43.42426" lon="6.02627">
        <ele>405</ele>
        <time>2015-11-04T14:43:38Z</time>
      </trkpt>
      <trkpt lat="43.4243" lon="6.02629">
        <ele>405.20001220703</ele>
        <time>2015-11-04T14:43:39Z</time>
      </trkpt>
      <trkpt lat="43.42435" lon="6.02633">
        <ele>405.60000610352</ele>
        <time>2015-11-04T14:43:41Z</time>
      </trkpt>
      <trkpt lat="43.42438" lon="6.02636">
        <ele>405.79998779297</ele>
        <time>2015-11-04T14:43:42Z</time>
      </trkpt>
      <trkpt lat="43.42439" lon="6.02639">
        <ele>406.20001220703</ele>
        <time>2015-11-04T14:43:43Z</time>
      </trkpt>
      <trkpt lat="43.4244" lon="6.02648">
        <ele>406.39999389648</ele>
        <time>2015-11-04T14:43:45Z</time>
      </trkpt>
      <trkpt lat="43.42441" lon="6.02652">
        <ele>406.60000610352</ele>
        <time>2015-11-04T14:43:46Z</time>
      </trkpt>
      <trkpt lat="43.42442" lon="6.02656">
        <ele>406.60000610352</ele>
        <time>2015-11-04T14:43:47Z</time>
      </trkpt>
      <trkpt lat="43.42443" lon="6.02665">
        <ele>406.79998779297</ele>
        <time>2015-11-04T14:43:49Z</time>
      </trkpt>
      <trkpt lat="43.42445" lon="6.02675">
        <ele>406.60000610352</ele>
        <time>2015-11-04T14:43:51Z</time>
      </trkpt>
      <trkpt lat="43.42444" lon="6.0268">
        <ele>406.79998779297</ele>
        <time>2015-11-04T14:43:52Z</time>
      </trkpt>
      <trkpt lat="43.42444" lon="6.02685">
        <ele>407</ele>
        <time>2015-11-04T14:43:53Z</time>
      </trkpt>
      <trkpt lat="43.42443" lon="6.02695">
        <ele>407.39999389648</ele>
        <time>2015-11-04T14:43:55Z</time>
      </trkpt>
      <trkpt lat="43.42442" lon="6.02704">
        <ele>407.39999389648</ele>
        <time>2015-11-04T14:43:57Z</time>
      </trkpt>
      <trkpt lat="43.42442" lon="6.02713">
        <ele>407.79998779297</ele>
        <time>2015-11-04T14:43:59Z</time>
      </trkpt>
      <trkpt lat="43.42442" lon="6.02724">
        <ele>408.39999389648</ele>
        <time>2015-11-04T14:44:01Z</time>
      </trkpt>
      <trkpt lat="43.42442" lon="6.02734">
        <ele>408.79998779297</ele>
        <time>2015-11-04T14:44:03Z</time>
      </trkpt>
      <trkpt lat="43.4244" lon="6.02744">
        <ele>409.20001220703</ele>
        <time>2015-11-04T14:44:05Z</time>
      </trkpt>
      <trkpt lat="43.4244" lon="6.02749">
        <ele>409.39999389648</ele>
        <time>2015-11-04T14:44:06Z</time>
      </trkpt>
      <trkpt lat="43.42439" lon="6.02753">
        <ele>409.39999389648</ele>
        <time>2015-11-04T14:44:07Z</time>
      </trkpt>
      <trkpt lat="43.42435" lon="6.0276">
        <ele>409.79998779297</ele>
        <time>2015-11-04T14:44:09Z</time>
      </trkpt>
      <trkpt lat="43.42431" lon="6.02768">
        <ele>410.39999389648</ele>
        <time>2015-11-04T14:44:11Z</time>
      </trkpt>
      <trkpt lat="43.4243" lon="6.02776">
        <ele>410.79998779297</ele>
        <time>2015-11-04T14:44:13Z</time>
      </trkpt>
      <trkpt lat="43.42431" lon="6.02784">
        <ele>410.60000610352</ele>
        <time>2015-11-04T14:44:15Z</time>
      </trkpt>
      <trkpt lat="43.42432" lon="6.02797">
        <ele>411.20001220703</ele>
        <time>2015-11-04T14:44:18Z</time>
      </trkpt>
      <trkpt lat="43.42431" lon="6.028">
        <ele>411.20001220703</ele>
        <time>2015-11-04T14:44:19Z</time>
      </trkpt>
      <trkpt lat="43.42428" lon="6.02807">
        <ele>411.39999389648</ele>
        <time>2015-11-04T14:44:21Z</time>
      </trkpt>
      <trkpt lat="43.42423" lon="6.02822">
        <ele>412.20001220703</ele>
        <time>2015-11-04T14:44:25Z</time>
      </trkpt>
      <trkpt lat="43.42419" lon="6.02832">
        <ele>412.39999389648</ele>
        <time>2015-11-04T14:44:28Z</time>
      </trkpt>
      <trkpt lat="43.42415" lon="6.02841">
        <ele>412.79998779297</ele>
        <time>2015-11-04T14:44:31Z</time>
      </trkpt>
      <trkpt lat="43.4241" lon="6.02853">
        <ele>413.20001220703</ele>
        <time>2015-11-04T14:44:35Z</time>
      </trkpt>
      <trkpt lat="43.42408" lon="6.02859">
        <ele>413.60000610352</ele>
        <time>2015-11-04T14:44:37Z</time>
      </trkpt>
      <trkpt lat="43.42406" lon="6.02866">
        <ele>413.79998779297</ele>
        <time>2015-11-04T14:44:39Z</time>
      </trkpt>
      <trkpt lat="43.42403" lon="6.02872">
        <ele>414.20001220703</ele>
        <time>2015-11-04T14:44:41Z</time>
      </trkpt>
      <trkpt lat="43.42402" lon="6.02875">
        <ele>414</ele>
        <time>2015-11-04T14:44:42Z</time>
      </trkpt>
      <trkpt lat="43.424" lon="6.02878">
        <ele>414.20001220703</ele>
        <time>2015-11-04T14:44:43Z</time>
      </trkpt>
      <trkpt lat="43.42397" lon="6.02885">
        <ele>414.20001220703</ele>
        <time>2015-11-04T14:44:45Z</time>
      </trkpt>
      <trkpt lat="43.42394" lon="6.02892">
        <ele>414.20001220703</ele>
        <time>2015-11-04T14:44:47Z</time>
      </trkpt>
      <trkpt lat="43.42391" lon="6.02899">
        <ele>414.20001220703</ele>
        <time>2015-11-04T14:44:49Z</time>
      </trkpt>
      <trkpt lat="43.42388" lon="6.02907">
        <ele>414.39999389648</ele>
        <time>2015-11-04T14:44:51Z</time>
      </trkpt>
      <trkpt lat="43.42386" lon="6.02914">
        <ele>414.39999389648</ele>
        <time>2015-11-04T14:44:53Z</time>
      </trkpt>
      <trkpt lat="43.42383" lon="6.02928">
        <ele>414.39999389648</ele>
        <time>2015-11-04T14:44:56Z</time>
      </trkpt>
      <trkpt lat="43.4238" lon="6.02941">
        <ele>414.39999389648</ele>
        <time>2015-11-04T14:44:59Z</time>
      </trkpt>
      <trkpt lat="43.42378" lon="6.02951">
        <ele>414.39999389648</ele>
        <time>2015-11-04T14:45:01Z</time>
      </trkpt>
      <trkpt lat="43.42377" lon="6.02961">
        <ele>414</ele>
        <time>2015-11-04T14:45:03Z</time>
      </trkpt>
      <trkpt lat="43.42377" lon="6.02967">
        <ele>413.60000610352</ele>
        <time>2015-11-04T14:45:04Z</time>
      </trkpt>
      <trkpt lat="43.42377" lon="6.02973">
        <ele>413.20001220703</ele>
        <time>2015-11-04T14:45:05Z</time>
      </trkpt>
      <trkpt lat="43.42377" lon="6.02986">
        <ele>412.39999389648</ele>
        <time>2015-11-04T14:45:07Z</time>
      </trkpt>
      <trkpt lat="43.42377" lon="6.02993">
        <ele>412</ele>
        <time>2015-11-04T14:45:08Z</time>
      </trkpt>
      <trkpt lat="43.42377" lon="6.03">
        <ele>411.39999389648</ele>
        <time>2015-11-04T14:45:09Z</time>
      </trkpt>
      <trkpt lat="43.42379" lon="6.03006">
        <ele>410.60000610352</ele>
        <time>2015-11-04T14:45:10Z</time>
      </trkpt>
      <trkpt lat="43.42381" lon="6.03013">
        <ele>410</ele>
        <time>2015-11-04T14:45:11Z</time>
      </trkpt>
      <trkpt lat="43.42383" lon="6.0302">
        <ele>409.60000610352</ele>
        <time>2015-11-04T14:45:12Z</time>
      </trkpt>
      <trkpt lat="43.42384" lon="6.03029">
        <ele>409</ele>
        <time>2015-11-04T14:45:13Z</time>
      </trkpt>
      <trkpt lat="43.42384" lon="6.03037">
        <ele>408.20001220703</ele>
        <time>2015-11-04T14:45:14Z</time>
      </trkpt>
      <trkpt lat="43.42384" lon="6.03047">
        <ele>407</ele>
        <time>2015-11-04T14:45:15Z</time>
      </trkpt>
      <trkpt lat="43.42383" lon="6.03057">
        <ele>405.79998779297</ele>
        <time>2015-11-04T14:45:16Z</time>
      </trkpt>
      <trkpt lat="43.42382" lon="6.03068">
        <ele>404.79998779297</ele>
        <time>2015-11-04T14:45:17Z</time>
      </trkpt>
      <trkpt lat="43.4238" lon="6.03079">
        <ele>403.79998779297</ele>
        <time>2015-11-04T14:45:18Z</time>
      </trkpt>
      <trkpt lat="43.42379" lon="6.0309">
        <ele>402.60000610352</ele>
        <time>2015-11-04T14:45:19Z</time>
      </trkpt>
      <trkpt lat="43.42375" lon="6.03111">
        <ele>401.79998779297</ele>
        <time>2015-11-04T14:45:21Z</time>
      </trkpt>
      <trkpt lat="43.42374" lon="6.03122">
        <ele>400.79998779297</ele>
        <time>2015-11-04T14:45:22Z</time>
      </trkpt>
      <trkpt lat="43.42374" lon="6.03132">
        <ele>400.20001220703</ele>
        <time>2015-11-04T14:45:23Z</time>
      </trkpt>
      <trkpt lat="43.42372" lon="6.03164">
        <ele>398.60000610352</ele>
        <time>2015-11-04T14:45:26Z</time>
      </trkpt>
      <trkpt lat="43.42371" lon="6.03174">
        <ele>398</ele>
        <time>2015-11-04T14:45:27Z</time>
      </trkpt>
      <trkpt lat="43.4237" lon="6.03203">
        <ele>398.20001220703</ele>
        <time>2015-11-04T14:45:30Z</time>
      </trkpt>
      <trkpt lat="43.4237" lon="6.03212">
        <ele>398.39999389648</ele>
        <time>2015-11-04T14:45:31Z</time>
      </trkpt>
      <trkpt lat="43.42369" lon="6.03229">
        <ele>398.20001220703</ele>
        <time>2015-11-04T14:45:33Z</time>
      </trkpt>
      <trkpt lat="43.42369" lon="6.03246">
        <ele>398.20001220703</ele>
        <time>2015-11-04T14:45:35Z</time>
      </trkpt>
      <trkpt lat="43.42369" lon="6.03253">
        <ele>398.20001220703</ele>
        <time>2015-11-04T14:45:36Z</time>
      </trkpt>
      <trkpt lat="43.4237" lon="6.03259">
        <ele>398.39999389648</ele>
        <time>2015-11-04T14:45:37Z</time>
      </trkpt>
      <trkpt lat="43.42371" lon="6.03267">
        <ele>399.20001220703</ele>
        <time>2015-11-04T14:45:39Z</time>
      </trkpt>
      <trkpt lat="43.42372" lon="6.0327">
        <ele>399.39999389648</ele>
        <time>2015-11-04T14:45:40Z</time>
      </trkpt>
      <trkpt lat="43.42373" lon="6.03272">
        <ele>399.60000610352</ele>
        <time>2015-11-04T14:45:41Z</time>
      </trkpt>
      <trkpt lat="43.42374" lon="6.03277">
        <ele>399.60000610352</ele>
        <time>2015-11-04T14:45:43Z</time>
      </trkpt>
      <trkpt lat="43.42375" lon="6.03283">
        <ele>399.60000610352</ele>
        <time>2015-11-04T14:45:45Z</time>
      </trkpt>
      <trkpt lat="43.42377" lon="6.03291">
        <ele>399.39999389648</ele>
        <time>2015-11-04T14:45:47Z</time>
      </trkpt>
      <trkpt lat="43.42379" lon="6.03299">
        <ele>399.39999389648</ele>
        <time>2015-11-04T14:45:49Z</time>
      </trkpt>
      <trkpt lat="43.42379" lon="6.03309">
        <ele>399</ele>
        <time>2015-11-04T14:45:51Z</time>
      </trkpt>
      <trkpt lat="43.42377" lon="6.03314">
        <ele>399.20001220703</ele>
        <time>2015-11-04T14:45:52Z</time>
      </trkpt>
      <trkpt lat="43.42377" lon="6.03318">
        <ele>399.20001220703</ele>
        <time>2015-11-04T14:45:53Z</time>
      </trkpt>
      <trkpt lat="43.42379" lon="6.03326">
        <ele>399.20001220703</ele>
        <time>2015-11-04T14:45:55Z</time>
      </trkpt>
      <trkpt lat="43.42381" lon="6.03328">
        <ele>399.20001220703</ele>
        <time>2015-11-04T14:45:56Z</time>
      </trkpt>
      <trkpt lat="43.42384" lon="6.03329">
        <ele>399.20001220703</ele>
        <time>2015-11-04T14:45:57Z</time>
      </trkpt>
      <trkpt lat="43.42388" lon="6.03331">
        <ele>399.20001220703</ele>
        <time>2015-11-04T14:45:59Z</time>
      </trkpt>
      <trkpt lat="43.42388" lon="6.03331">
        <ele>399.20001220703</ele>
        <time>2015-11-04T14:46:01Z</time>
      </trkpt>
      <trkpt lat="43.42389" lon="6.03331">
        <ele>399.39999389648</ele>
        <time>2015-11-04T14:46:03Z</time>
      </trkpt>
      <trkpt lat="43.42389" lon="6.03331">
        <ele>399.20001220703</ele>
        <time>2015-11-04T14:46:08Z</time>
      </trkpt>
      <trkpt lat="43.42389" lon="6.03331">
        <ele>399.39999389648</ele>
        <time>2015-11-04T14:46:39Z</time>
      </trkpt>
      <trkpt lat="43.42388" lon="6.03331">
        <ele>399.39999389648</ele>
        <time>2015-11-04T14:46:41Z</time>
      </trkpt>
      <trkpt lat="43.42388" lon="6.03331">
        <ele>399.60000610352</ele>
        <time>2015-11-04T14:46:46Z</time>
      </trkpt>
      <trkpt lat="43.42388" lon="6.03331">
        <ele>399.60000610352</ele>
        <time>2015-11-04T14:47:19Z</time>
      </trkpt>
      <trkpt lat="43.42389" lon="6.03331">
        <ele>399.60000610352</ele>
        <time>2015-11-04T14:47:21Z</time>
      </trkpt>
      <trkpt lat="43.42389" lon="6.03331">
        <ele>399.60000610352</ele>
        <time>2015-11-04T14:47:25Z</time>
      </trkpt>
      <trkpt lat="43.42389" lon="6.03331">
        <ele>399.79998779297</ele>
        <time>2015-11-04T14:47:59Z</time>
      </trkpt>
      <trkpt lat="43.42389" lon="6.03331">
        <ele>399.79998779297</ele>
        <time>2015-11-04T14:48:01Z</time>
      </trkpt>
      <trkpt lat="43.42389" lon="6.03331">
        <ele>399.79998779297</ele>
        <time>2015-11-04T14:48:07Z</time>
      </trkpt>
      <trkpt lat="43.42389" lon="6.03331">
        <ele>399.79998779297</ele>
        <time>2015-11-04T14:48:39Z</time>
      </trkpt>
      <trkpt lat="43.42389" lon="6.03331">
        <ele>399.79998779297</ele>
        <time>2015-11-04T14:48:41Z</time>
      </trkpt>
      <trkpt lat="43.42389" lon="6.03331">
        <ele>400</ele>
        <time>2015-11-04T14:48:47Z</time>
      </trkpt>
      <trkpt lat="43.42389" lon="6.03331">
        <ele>400.20001220703</ele>
        <time>2015-11-04T14:49:13Z</time>
      </trkpt>
      <trkpt lat="43.42389" lon="6.03331">
        <ele>400.20001220703</ele>
        <time>2015-11-04T14:49:15Z</time>
      </trkpt>
      <trkpt lat="43.42393" lon="6.03329">
        <ele>400</ele>
        <time>2015-11-04T14:49:17Z</time>
      </trkpt>
      <trkpt lat="43.42395" lon="6.03327">
        <ele>399.79998779297</ele>
        <time>2015-11-04T14:49:18Z</time>
      </trkpt>
      <trkpt lat="43.42399" lon="6.03325">
        <ele>399.39999389648</ele>
        <time>2015-11-04T14:49:19Z</time>
      </trkpt>
      <trkpt lat="43.42408" lon="6.03324">
        <ele>398.39999389648</ele>
        <time>2015-11-04T14:49:21Z</time>
      </trkpt>
      <trkpt lat="43.42412" lon="6.03324">
        <ele>397.79998779297</ele>
        <time>2015-11-04T14:49:22Z</time>
      </trkpt>
      <trkpt lat="43.42416" lon="6.03323">
        <ele>397.20001220703</ele>
        <time>2015-11-04T14:49:23Z</time>
      </trkpt>
      <trkpt lat="43.42424" lon="6.0332">
        <ele>396</ele>
        <time>2015-11-04T14:49:25Z</time>
      </trkpt>
      <trkpt lat="43.4243" lon="6.03317">
        <ele>394.60000610352</ele>
        <time>2015-11-04T14:49:27Z</time>
      </trkpt>
      <trkpt lat="43.42439" lon="6.03316">
        <ele>393</ele>
        <time>2015-11-04T14:49:29Z</time>
      </trkpt>
      <trkpt lat="43.42451" lon="6.03315">
        <ele>390</ele>
        <time>2015-11-04T14:49:32Z</time>
      </trkpt>
      <trkpt lat="43.42462" lon="6.03313">
        <ele>388</ele>
        <time>2015-11-04T14:49:34Z</time>
      </trkpt>
      <trkpt lat="43.42466" lon="6.03309">
        <ele>387</ele>
        <time>2015-11-04T14:49:35Z</time>
      </trkpt>
      <trkpt lat="43.42471" lon="6.03304">
        <ele>386.20001220703</ele>
        <time>2015-11-04T14:49:36Z</time>
      </trkpt>
      <trkpt lat="43.42475" lon="6.033">
        <ele>385.60000610352</ele>
        <time>2015-11-04T14:49:37Z</time>
      </trkpt>
      <trkpt lat="43.42479" lon="6.03295">
        <ele>385</ele>
        <time>2015-11-04T14:49:38Z</time>
      </trkpt>
      <trkpt lat="43.42483" lon="6.03291">
        <ele>384.60000610352</ele>
        <time>2015-11-04T14:49:39Z</time>
      </trkpt>
      <trkpt lat="43.42487" lon="6.03286">
        <ele>384</ele>
        <time>2015-11-04T14:49:40Z</time>
      </trkpt>
      <trkpt lat="43.42489" lon="6.03282">
        <ele>383.60000610352</ele>
        <time>2015-11-04T14:49:41Z</time>
      </trkpt>
      <trkpt lat="43.42496" lon="6.03268">
        <ele>382.20001220703</ele>
        <time>2015-11-04T14:49:44Z</time>
      </trkpt>
      <trkpt lat="43.425" lon="6.03263">
        <ele>381.60000610352</ele>
        <time>2015-11-04T14:49:45Z</time>
      </trkpt>
      <trkpt lat="43.42507" lon="6.03256">
        <ele>380.79998779297</ele>
        <time>2015-11-04T14:49:47Z</time>
      </trkpt>
      <trkpt lat="43.42514" lon="6.03255">
        <ele>380</ele>
        <time>2015-11-04T14:49:49Z</time>
      </trkpt>
      <trkpt lat="43.42523" lon="6.03256">
        <ele>378.79998779297</ele>
        <time>2015-11-04T14:49:51Z</time>
      </trkpt>
      <trkpt lat="43.42528" lon="6.03258">
        <ele>378.39999389648</ele>
        <time>2015-11-04T14:49:52Z</time>
      </trkpt>
      <trkpt lat="43.42531" lon="6.03263">
        <ele>378.39999389648</ele>
        <time>2015-11-04T14:49:53Z</time>
      </trkpt>
      <trkpt lat="43.42535" lon="6.03271">
        <ele>378.60000610352</ele>
        <time>2015-11-04T14:49:55Z</time>
      </trkpt>
      <trkpt lat="43.42538" lon="6.03279">
        <ele>379.20001220703</ele>
        <time>2015-11-04T14:49:57Z</time>
      </trkpt>
      <trkpt lat="43.42539" lon="6.03287">
        <ele>379.39999389648</ele>
        <time>2015-11-04T14:49:59Z</time>
      </trkpt>
      <trkpt lat="43.4254" lon="6.03297">
        <ele>380.20001220703</ele>
        <time>2015-11-04T14:50:01Z</time>
      </trkpt>
      <trkpt lat="43.4254" lon="6.03307">
        <ele>380.39999389648</ele>
        <time>2015-11-04T14:50:03Z</time>
      </trkpt>
      <trkpt lat="43.4254" lon="6.03312">
        <ele>380.60000610352</ele>
        <time>2015-11-04T14:50:04Z</time>
      </trkpt>
      <trkpt lat="43.42538" lon="6.03317">
        <ele>381</ele>
        <time>2015-11-04T14:50:05Z</time>
      </trkpt>
      <trkpt lat="43.4254" lon="6.03327">
        <ele>381.39999389648</ele>
        <time>2015-11-04T14:50:07Z</time>
      </trkpt>
      <trkpt lat="43.4254" lon="6.03332">
        <ele>381.60000610352</ele>
        <time>2015-11-04T14:50:08Z</time>
      </trkpt>
      <trkpt lat="43.4254" lon="6.03341">
        <ele>382.20001220703</ele>
        <time>2015-11-04T14:50:10Z</time>
      </trkpt>
      <trkpt lat="43.42541" lon="6.03345">
        <ele>382.39999389648</ele>
        <time>2015-11-04T14:50:11Z</time>
      </trkpt>
      <trkpt lat="43.42543" lon="6.0335">
        <ele>382.79998779297</ele>
        <time>2015-11-04T14:50:12Z</time>
      </trkpt>
      <trkpt lat="43.42545" lon="6.03354">
        <ele>383.20001220703</ele>
        <time>2015-11-04T14:50:13Z</time>
      </trkpt>
      <trkpt lat="43.42548" lon="6.03363">
        <ele>383.60000610352</ele>
        <time>2015-11-04T14:50:15Z</time>
      </trkpt>
      <trkpt lat="43.42549" lon="6.03368">
        <ele>384</ele>
        <time>2015-11-04T14:50:16Z</time>
      </trkpt>
      <trkpt lat="43.42546" lon="6.03376">
        <ele>384.60000610352</ele>
        <time>2015-11-04T14:50:18Z</time>
      </trkpt>
      <trkpt lat="43.42545" lon="6.03379">
        <ele>384.60000610352</ele>
        <time>2015-11-04T14:50:19Z</time>
      </trkpt>
      <trkpt lat="43.42545" lon="6.03386">
        <ele>385</ele>
        <time>2015-11-04T14:50:21Z</time>
      </trkpt>
      <trkpt lat="43.42546" lon="6.03389">
        <ele>385.20001220703</ele>
        <time>2015-11-04T14:50:22Z</time>
      </trkpt>
      <trkpt lat="43.42547" lon="6.03391">
        <ele>385.79998779297</ele>
        <time>2015-11-04T14:50:23Z</time>
      </trkpt>
      <trkpt lat="43.4255" lon="6.03395">
        <ele>386</ele>
        <time>2015-11-04T14:50:25Z</time>
      </trkpt>
      <trkpt lat="43.42554" lon="6.03397">
        <ele>386</ele>
        <time>2015-11-04T14:50:27Z</time>
      </trkpt>
      <trkpt lat="43.42559" lon="6.03399">
        <ele>386.60000610352</ele>
        <time>2015-11-04T14:50:29Z</time>
      </trkpt>
      <trkpt lat="43.42563" lon="6.034">
        <ele>386.60000610352</ele>
        <time>2015-11-04T14:50:31Z</time>
      </trkpt>
      <trkpt lat="43.42567" lon="6.03404">
        <ele>386</ele>
        <time>2015-11-04T14:50:33Z</time>
      </trkpt>
      <trkpt lat="43.42571" lon="6.03411">
        <ele>386</ele>
        <time>2015-11-04T14:50:35Z</time>
      </trkpt>
      <trkpt lat="43.42574" lon="6.03414">
        <ele>385.79998779297</ele>
        <time>2015-11-04T14:50:36Z</time>
      </trkpt>
      <trkpt lat="43.42575" lon="6.03417">
        <ele>385.60000610352</ele>
        <time>2015-11-04T14:50:37Z</time>
      </trkpt>
      <trkpt lat="43.42579" lon="6.03422">
        <ele>385.60000610352</ele>
        <time>2015-11-04T14:50:39Z</time>
      </trkpt>
      <trkpt lat="43.42585" lon="6.03433">
        <ele>386</ele>
        <time>2015-11-04T14:50:43Z</time>
      </trkpt>
      <trkpt lat="43.42588" lon="6.03437">
        <ele>386.20001220703</ele>
        <time>2015-11-04T14:50:45Z</time>
      </trkpt>
      <trkpt lat="43.4259" lon="6.03439">
        <ele>386.60000610352</ele>
        <time>2015-11-04T14:50:47Z</time>
      </trkpt>
      <trkpt lat="43.42593" lon="6.03441">
        <ele>386.60000610352</ele>
        <time>2015-11-04T14:50:49Z</time>
      </trkpt>
      <trkpt lat="43.42595" lon="6.03444">
        <ele>386.39999389648</ele>
        <time>2015-11-04T14:50:51Z</time>
      </trkpt>
      <trkpt lat="43.42598" lon="6.03446">
        <ele>386.39999389648</ele>
        <time>2015-11-04T14:50:53Z</time>
      </trkpt>
      <trkpt lat="43.42603" lon="6.03451">
        <ele>386.60000610352</ele>
        <time>2015-11-04T14:50:57Z</time>
      </trkpt>
      <trkpt lat="43.42607" lon="6.03454">
        <ele>386.79998779297</ele>
        <time>2015-11-04T14:50:59Z</time>
      </trkpt>
      <trkpt lat="43.42609" lon="6.03456">
        <ele>387.20001220703</ele>
        <time>2015-11-04T14:51:01Z</time>
      </trkpt>
      <trkpt lat="43.42611" lon="6.03458">
        <ele>387.79998779297</ele>
        <time>2015-11-04T14:51:02Z</time>
      </trkpt>
      <trkpt lat="43.42612" lon="6.03459">
        <ele>388.39999389648</ele>
        <time>2015-11-04T14:51:03Z</time>
      </trkpt>
      <trkpt lat="43.42619" lon="6.03463">
        <ele>389.60000610352</ele>
        <time>2015-11-04T14:51:07Z</time>
      </trkpt>
      <trkpt lat="43.42622" lon="6.03466">
        <ele>390</ele>
        <time>2015-11-04T14:51:09Z</time>
      </trkpt>
      <trkpt lat="43.42624" lon="6.03468">
        <ele>390.39999389648</ele>
        <time>2015-11-04T14:51:11Z</time>
      </trkpt>
      <trkpt lat="43.42627" lon="6.03469">
        <ele>391.20001220703</ele>
        <time>2015-11-04T14:51:13Z</time>
      </trkpt>
      <trkpt lat="43.42629" lon="6.0347">
        <ele>391.60000610352</ele>
        <time>2015-11-04T14:51:15Z</time>
      </trkpt>
      <trkpt lat="43.42631" lon="6.03473">
        <ele>392</ele>
        <time>2015-11-04T14:51:17Z</time>
      </trkpt>
      <trkpt lat="43.42633" lon="6.03476">
        <ele>392.20001220703</ele>
        <time>2015-11-04T14:51:19Z</time>
      </trkpt>
      <trkpt lat="43.42633" lon="6.03477">
        <ele>392.39999389648</ele>
        <time>2015-11-04T14:51:20Z</time>
      </trkpt>
      <trkpt lat="43.42635" lon="6.0348">
        <ele>392.60000610352</ele>
        <time>2015-11-04T14:51:22Z</time>
      </trkpt>
      <trkpt lat="43.42636" lon="6.03481">
        <ele>392.79998779297</ele>
        <time>2015-11-04T14:51:23Z</time>
      </trkpt>
      <trkpt lat="43.42638" lon="6.03484">
        <ele>393</ele>
        <time>2015-11-04T14:51:25Z</time>
      </trkpt>
      <trkpt lat="43.42639" lon="6.03485">
        <ele>393</ele>
        <time>2015-11-04T14:51:26Z</time>
      </trkpt>
      <trkpt lat="43.4264" lon="6.03488">
        <ele>393.39999389648</ele>
        <time>2015-11-04T14:51:27Z</time>
      </trkpt>
      <trkpt lat="43.4264" lon="6.03489">
        <ele>393.60000610352</ele>
        <time>2015-11-04T14:51:28Z</time>
      </trkpt>
      <trkpt lat="43.42641" lon="6.03491">
        <ele>393.60000610352</ele>
        <time>2015-11-04T14:51:29Z</time>
      </trkpt>
      <trkpt lat="43.42643" lon="6.03495">
        <ele>393.60000610352</ele>
        <time>2015-11-04T14:51:31Z</time>
      </trkpt>
      <trkpt lat="43.42644" lon="6.03497">
        <ele>393.60000610352</ele>
        <time>2015-11-04T14:51:32Z</time>
      </trkpt>
      <trkpt lat="43.42644" lon="6.035">
        <ele>393.79998779297</ele>
        <time>2015-11-04T14:51:33Z</time>
      </trkpt>
      <trkpt lat="43.42646" lon="6.03504">
        <ele>393.79998779297</ele>
        <time>2015-11-04T14:51:35Z</time>
      </trkpt>
      <trkpt lat="43.42646" lon="6.03508">
        <ele>394.20001220703</ele>
        <time>2015-11-04T14:51:37Z</time>
      </trkpt>
      <trkpt lat="43.42647" lon="6.03512">
        <ele>394</ele>
        <time>2015-11-04T14:51:39Z</time>
      </trkpt>
      <trkpt lat="43.42648" lon="6.03515">
        <ele>394</ele>
        <time>2015-11-04T14:51:40Z</time>
      </trkpt>
      <trkpt lat="43.42649" lon="6.03517">
        <ele>393.79998779297</ele>
        <time>2015-11-04T14:51:41Z</time>
      </trkpt>
      <trkpt lat="43.4265" lon="6.03523">
        <ele>394</ele>
        <time>2015-11-04T14:51:43Z</time>
      </trkpt>
      <trkpt lat="43.42651" lon="6.03528">
        <ele>393.79998779297</ele>
        <time>2015-11-04T14:51:45Z</time>
      </trkpt>
      <trkpt lat="43.42653" lon="6.03535">
        <ele>393.20001220703</ele>
        <time>2015-11-04T14:51:47Z</time>
      </trkpt>
      <trkpt lat="43.42654" lon="6.0355">
        <ele>393</ele>
        <time>2015-11-04T14:51:51Z</time>
      </trkpt>
      <trkpt lat="43.42656" lon="6.03562">
        <ele>392.39999389648</ele>
        <time>2015-11-04T14:51:54Z</time>
      </trkpt>
      <trkpt lat="43.42658" lon="6.03576">
        <ele>392</ele>
        <time>2015-11-04T14:51:57Z</time>
      </trkpt>
      <trkpt lat="43.42661" lon="6.03587">
        <ele>391.39999389648</ele>
        <time>2015-11-04T14:51:59Z</time>
      </trkpt>
      <trkpt lat="43.42661" lon="6.03592">
        <ele>391.20001220703</ele>
        <time>2015-11-04T14:52:00Z</time>
      </trkpt>
      <trkpt lat="43.42662" lon="6.03597">
        <ele>391.20001220703</ele>
        <time>2015-11-04T14:52:01Z</time>
      </trkpt>
      <trkpt lat="43.42664" lon="6.03604">
        <ele>391.39999389648</ele>
        <time>2015-11-04T14:52:03Z</time>
      </trkpt>
      <trkpt lat="43.42668" lon="6.03609">
        <ele>391.60000610352</ele>
        <time>2015-11-04T14:52:05Z</time>
      </trkpt>
      <trkpt lat="43.42673" lon="6.03614">
        <ele>391.39999389648</ele>
        <time>2015-11-04T14:52:07Z</time>
      </trkpt>
      <trkpt lat="43.42676" lon="6.0362">
        <ele>391.39999389648</ele>
        <time>2015-11-04T14:52:09Z</time>
      </trkpt>
      <trkpt lat="43.42678" lon="6.03626">
        <ele>391.20001220703</ele>
        <time>2015-11-04T14:52:11Z</time>
      </trkpt>
      <trkpt lat="43.4268" lon="6.03633">
        <ele>391.20001220703</ele>
        <time>2015-11-04T14:52:13Z</time>
      </trkpt>
      <trkpt lat="43.42681" lon="6.03636">
        <ele>391.39999389648</ele>
        <time>2015-11-04T14:52:14Z</time>
      </trkpt>
      <trkpt lat="43.42682" lon="6.0364">
        <ele>391.39999389648</ele>
        <time>2015-11-04T14:52:15Z</time>
      </trkpt>
      <trkpt lat="43.42683" lon="6.03647">
        <ele>391.39999389648</ele>
        <time>2015-11-04T14:52:17Z</time>
      </trkpt>
      <trkpt lat="43.42682" lon="6.03653">
        <ele>391</ele>
        <time>2015-11-04T14:52:19Z</time>
      </trkpt>
      <trkpt lat="43.42683" lon="6.0366">
        <ele>390.60000610352</ele>
        <time>2015-11-04T14:52:21Z</time>
      </trkpt>
      <trkpt lat="43.42683" lon="6.03667">
        <ele>390.20001220703</ele>
        <time>2015-11-04T14:52:23Z</time>
      </trkpt>
      <trkpt lat="43.42683" lon="6.03672">
        <ele>390.39999389648</ele>
        <time>2015-11-04T14:52:25Z</time>
      </trkpt>
      <trkpt lat="43.42683" lon="6.03677">
        <ele>390</ele>
        <time>2015-11-04T14:52:27Z</time>
      </trkpt>
      <trkpt lat="43.42683" lon="6.03685">
        <ele>389.39999389648</ele>
        <time>2015-11-04T14:52:29Z</time>
      </trkpt>
      <trkpt lat="43.42683" lon="6.03687">
        <ele>389.20001220703</ele>
        <time>2015-11-04T14:52:30Z</time>
      </trkpt>
      <trkpt lat="43.42683" lon="6.03691">
        <ele>389.20001220703</ele>
        <time>2015-11-04T14:52:31Z</time>
      </trkpt>
      <trkpt lat="43.42682" lon="6.03695">
        <ele>388.60000610352</ele>
        <time>2015-11-04T14:52:33Z</time>
      </trkpt>
      <trkpt lat="43.42681" lon="6.03701">
        <ele>388</ele>
        <time>2015-11-04T14:52:35Z</time>
      </trkpt>
      <trkpt lat="43.42681" lon="6.03708">
        <ele>387.39999389648</ele>
        <time>2015-11-04T14:52:37Z</time>
      </trkpt>
      <trkpt lat="43.42681" lon="6.03717">
        <ele>387</ele>
        <time>2015-11-04T14:52:39Z</time>
      </trkpt>
      <trkpt lat="43.42682" lon="6.03721">
        <ele>386.60000610352</ele>
        <time>2015-11-04T14:52:40Z</time>
      </trkpt>
      <trkpt lat="43.42682" lon="6.03725">
        <ele>386.39999389648</ele>
        <time>2015-11-04T14:52:41Z</time>
      </trkpt>
      <trkpt lat="43.42683" lon="6.0373">
        <ele>386</ele>
        <time>2015-11-04T14:52:42Z</time>
      </trkpt>
      <trkpt lat="43.42683" lon="6.03735">
        <ele>385.39999389648</ele>
        <time>2015-11-04T14:52:43Z</time>
      </trkpt>
      <trkpt lat="43.42682" lon="6.03739">
        <ele>384.79998779297</ele>
        <time>2015-11-04T14:52:44Z</time>
      </trkpt>
      <trkpt lat="43.4268" lon="6.03751">
        <ele>384</ele>
        <time>2015-11-04T14:52:47Z</time>
      </trkpt>
      <trkpt lat="43.4268" lon="6.03755">
        <ele>383.60000610352</ele>
        <time>2015-11-04T14:52:48Z</time>
      </trkpt>
      <trkpt lat="43.4268" lon="6.03758">
        <ele>383</ele>
        <time>2015-11-04T14:52:49Z</time>
      </trkpt>
      <trkpt lat="43.42679" lon="6.03763">
        <ele>382</ele>
        <time>2015-11-04T14:52:50Z</time>
      </trkpt>
      <trkpt lat="43.42678" lon="6.03767">
        <ele>381.60000610352</ele>
        <time>2015-11-04T14:52:51Z</time>
      </trkpt>
      <trkpt lat="43.42678" lon="6.03771">
        <ele>381.60000610352</ele>
        <time>2015-11-04T14:52:53Z</time>
      </trkpt>
      <trkpt lat="43.42679" lon="6.03775">
        <ele>381</ele>
        <time>2015-11-04T14:52:54Z</time>
      </trkpt>
      <trkpt lat="43.42679" lon="6.0378">
        <ele>380.39999389648</ele>
        <time>2015-11-04T14:52:55Z</time>
      </trkpt>
      <trkpt lat="43.42679" lon="6.03785">
        <ele>379.60000610352</ele>
        <time>2015-11-04T14:52:56Z</time>
      </trkpt>
      <trkpt lat="43.42678" lon="6.03788">
        <ele>379</ele>
        <time>2015-11-04T14:52:57Z</time>
      </trkpt>
      <trkpt lat="43.42678" lon="6.03791">
        <ele>378.60000610352</ele>
        <time>2015-11-04T14:52:58Z</time>
      </trkpt>
      <trkpt lat="43.42676" lon="6.03794">
        <ele>378</ele>
        <time>2015-11-04T14:52:59Z</time>
      </trkpt>
      <trkpt lat="43.42675" lon="6.03799">
        <ele>377.60000610352</ele>
        <time>2015-11-04T14:53:01Z</time>
      </trkpt>
      <trkpt lat="43.42674" lon="6.03804">
        <ele>377</ele>
        <time>2015-11-04T14:53:02Z</time>
      </trkpt>
      <trkpt lat="43.42674" lon="6.03807">
        <ele>376.60000610352</ele>
        <time>2015-11-04T14:53:03Z</time>
      </trkpt>
      <trkpt lat="43.42677" lon="6.0381">
        <ele>376</ele>
        <time>2015-11-04T14:53:05Z</time>
      </trkpt>
      <trkpt lat="43.42678" lon="6.03811">
        <ele>375.79998779297</ele>
        <time>2015-11-04T14:53:06Z</time>
      </trkpt>
      <trkpt lat="43.42682" lon="6.03814">
        <ele>375.20001220703</ele>
        <time>2015-11-04T14:53:08Z</time>
      </trkpt>
      <trkpt lat="43.42683" lon="6.03818">
        <ele>374.60000610352</ele>
        <time>2015-11-04T14:53:09Z</time>
      </trkpt>
      <trkpt lat="43.42685" lon="6.03821">
        <ele>373.20001220703</ele>
        <time>2015-11-04T14:53:10Z</time>
      </trkpt>
      <trkpt lat="43.42686" lon="6.03825">
        <ele>372.60000610352</ele>
        <time>2015-11-04T14:53:11Z</time>
      </trkpt>
      <trkpt lat="43.42686" lon="6.03829">
        <ele>372.20001220703</ele>
        <time>2015-11-04T14:53:12Z</time>
      </trkpt>
      <trkpt lat="43.42685" lon="6.03837">
        <ele>371.20001220703</ele>
        <time>2015-11-04T14:53:14Z</time>
      </trkpt>
      <trkpt lat="43.42686" lon="6.03843">
        <ele>370.39999389648</ele>
        <time>2015-11-04T14:53:15Z</time>
      </trkpt>
      <trkpt lat="43.42686" lon="6.03849">
        <ele>369.60000610352</ele>
        <time>2015-11-04T14:53:16Z</time>
      </trkpt>
      <trkpt lat="43.42687" lon="6.03854">
        <ele>369.20001220703</ele>
        <time>2015-11-04T14:53:17Z</time>
      </trkpt>
      <trkpt lat="43.42688" lon="6.03859">
        <ele>368.79998779297</ele>
        <time>2015-11-04T14:53:18Z</time>
      </trkpt>
      <trkpt lat="43.42688" lon="6.03865">
        <ele>368.39999389648</ele>
        <time>2015-11-04T14:53:19Z</time>
      </trkpt>
      <trkpt lat="43.42687" lon="6.0387">
        <ele>367.60000610352</ele>
        <time>2015-11-04T14:53:20Z</time>
      </trkpt>
      <trkpt lat="43.42687" lon="6.03875">
        <ele>367</ele>
        <time>2015-11-04T14:53:21Z</time>
      </trkpt>
      <trkpt lat="43.42687" lon="6.03881">
        <ele>366.60000610352</ele>
        <time>2015-11-04T14:53:22Z</time>
      </trkpt>
      <trkpt lat="43.42686" lon="6.03887">
        <ele>366.20001220703</ele>
        <time>2015-11-04T14:53:23Z</time>
      </trkpt>
      <trkpt lat="43.42686" lon="6.03897">
        <ele>366</ele>
        <time>2015-11-04T14:53:25Z</time>
      </trkpt>
      <trkpt lat="43.42688" lon="6.03906">
        <ele>365.60000610352</ele>
        <time>2015-11-04T14:53:27Z</time>
      </trkpt>
      <trkpt lat="43.42691" lon="6.03909">
        <ele>365.20001220703</ele>
        <time>2015-11-04T14:53:28Z</time>
      </trkpt>
      <trkpt lat="43.42693" lon="6.03913">
        <ele>364.79998779297</ele>
        <time>2015-11-04T14:53:29Z</time>
      </trkpt>
      <trkpt lat="43.42692" lon="6.0392">
        <ele>364.39999389648</ele>
        <time>2015-11-04T14:53:31Z</time>
      </trkpt>
      <trkpt lat="43.42691" lon="6.03925">
        <ele>364</ele>
        <time>2015-11-04T14:53:32Z</time>
      </trkpt>
      <trkpt lat="43.4269" lon="6.03928">
        <ele>363.60000610352</ele>
        <time>2015-11-04T14:53:33Z</time>
      </trkpt>
      <trkpt lat="43.42693" lon="6.03936">
        <ele>363.20001220703</ele>
        <time>2015-11-04T14:53:35Z</time>
      </trkpt>
      <trkpt lat="43.42695" lon="6.03939">
        <ele>362.20001220703</ele>
        <time>2015-11-04T14:53:36Z</time>
      </trkpt>
      <trkpt lat="43.42698" lon="6.03943">
        <ele>361.79998779297</ele>
        <time>2015-11-04T14:53:37Z</time>
      </trkpt>
      <trkpt lat="43.42701" lon="6.03947">
        <ele>361.60000610352</ele>
        <time>2015-11-04T14:53:38Z</time>
      </trkpt>
      <trkpt lat="43.42704" lon="6.0395">
        <ele>361.20001220703</ele>
        <time>2015-11-04T14:53:39Z</time>
      </trkpt>
      <trkpt lat="43.42707" lon="6.03952">
        <ele>361</ele>
        <time>2015-11-04T14:53:40Z</time>
      </trkpt>
      <trkpt lat="43.42719" lon="6.03952">
        <ele>360.60000610352</ele>
        <time>2015-11-04T14:53:43Z</time>
      </trkpt>
      <trkpt lat="43.42725" lon="6.03953">
        <ele>360.20001220703</ele>
        <time>2015-11-04T14:53:45Z</time>
      </trkpt>
      <trkpt lat="43.42729" lon="6.03956">
        <ele>360.20001220703</ele>
        <time>2015-11-04T14:53:46Z</time>
      </trkpt>
      <trkpt lat="43.42729" lon="6.03962">
        <ele>359.79998779297</ele>
        <time>2015-11-04T14:53:47Z</time>
      </trkpt>
      <trkpt lat="43.42727" lon="6.03971">
        <ele>359.39999389648</ele>
        <time>2015-11-04T14:53:49Z</time>
      </trkpt>
      <trkpt lat="43.42724" lon="6.03979">
        <ele>359.79998779297</ele>
        <time>2015-11-04T14:53:51Z</time>
      </trkpt>
      <trkpt lat="43.42722" lon="6.03987">
        <ele>360.20001220703</ele>
        <time>2015-11-04T14:53:53Z</time>
      </trkpt>
      <trkpt lat="43.4272" lon="6.03993">
        <ele>360.20001220703</ele>
        <time>2015-11-04T14:53:55Z</time>
      </trkpt>
      <trkpt lat="43.4272" lon="6.03997">
        <ele>360</ele>
        <time>2015-11-04T14:53:56Z</time>
      </trkpt>
      <trkpt lat="43.4272" lon="6.03999">
        <ele>360</ele>
        <time>2015-11-04T14:53:57Z</time>
      </trkpt>
      <trkpt lat="43.42718" lon="6.04005">
        <ele>359.79998779297</ele>
        <time>2015-11-04T14:53:59Z</time>
      </trkpt>
      <trkpt lat="43.42716" lon="6.04011">
        <ele>359.39999389648</ele>
        <time>2015-11-04T14:54:01Z</time>
      </trkpt>
      <trkpt lat="43.42712" lon="6.04018">
        <ele>358.79998779297</ele>
        <time>2015-11-04T14:54:03Z</time>
      </trkpt>
      <trkpt lat="43.42706" lon="6.04026">
        <ele>357.79998779297</ele>
        <time>2015-11-04T14:54:05Z</time>
      </trkpt>
      <trkpt lat="43.42702" lon="6.04031">
        <ele>357.39999389648</ele>
        <time>2015-11-04T14:54:06Z</time>
      </trkpt>
      <trkpt lat="43.42701" lon="6.04036">
        <ele>357.20001220703</ele>
        <time>2015-11-04T14:54:07Z</time>
      </trkpt>
      <trkpt lat="43.42697" lon="6.04047">
        <ele>357</ele>
        <time>2015-11-04T14:54:09Z</time>
      </trkpt>
      <trkpt lat="43.42696" lon="6.04054">
        <ele>356.79998779297</ele>
        <time>2015-11-04T14:54:10Z</time>
      </trkpt>
      <trkpt lat="43.42694" lon="6.04059">
        <ele>356.79998779297</ele>
        <time>2015-11-04T14:54:11Z</time>
      </trkpt>
      <trkpt lat="43.42692" lon="6.04069">
        <ele>357.20001220703</ele>
        <time>2015-11-04T14:54:13Z</time>
      </trkpt>
      <trkpt lat="43.42694" lon="6.04078">
        <ele>357.20001220703</ele>
        <time>2015-11-04T14:54:15Z</time>
      </trkpt>
      <trkpt lat="43.42694" lon="6.04088">
        <ele>357</ele>
        <time>2015-11-04T14:54:17Z</time>
      </trkpt>
      <trkpt lat="43.42696" lon="6.04097">
        <ele>357.20001220703</ele>
        <time>2015-11-04T14:54:19Z</time>
      </trkpt>
      <trkpt lat="43.42694" lon="6.04104">
        <ele>358.20001220703</ele>
        <time>2015-11-04T14:54:21Z</time>
      </trkpt>
      <trkpt lat="43.42692" lon="6.0411">
        <ele>358.39999389648</ele>
        <time>2015-11-04T14:54:23Z</time>
      </trkpt>
      <trkpt lat="43.42686" lon="6.04116">
        <ele>358</ele>
        <time>2015-11-04T14:54:25Z</time>
      </trkpt>
      <trkpt lat="43.42682" lon="6.04118">
        <ele>356.60000610352</ele>
        <time>2015-11-04T14:54:26Z</time>
      </trkpt>
      <trkpt lat="43.42677" lon="6.0412">
        <ele>355.79998779297</ele>
        <time>2015-11-04T14:54:27Z</time>
      </trkpt>
      <trkpt lat="43.42667" lon="6.04124">
        <ele>354.79998779297</ele>
        <time>2015-11-04T14:54:29Z</time>
      </trkpt>
      <trkpt lat="43.42663" lon="6.04128">
        <ele>354.60000610352</ele>
        <time>2015-11-04T14:54:30Z</time>
      </trkpt>
      <trkpt lat="43.42659" lon="6.04142">
        <ele>354</ele>
        <time>2015-11-04T14:54:32Z</time>
      </trkpt>
      <trkpt lat="43.42656" lon="6.04149">
        <ele>353.79998779297</ele>
        <time>2015-11-04T14:54:33Z</time>
      </trkpt>
      <trkpt lat="43.42654" lon="6.04155">
        <ele>353.60000610352</ele>
        <time>2015-11-04T14:54:34Z</time>
      </trkpt>
      <trkpt lat="43.42652" lon="6.04162">
        <ele>353.20001220703</ele>
        <time>2015-11-04T14:54:35Z</time>
      </trkpt>
      <trkpt lat="43.42648" lon="6.04168">
        <ele>352.79998779297</ele>
        <time>2015-11-04T14:54:36Z</time>
      </trkpt>
      <trkpt lat="43.42645" lon="6.04175">
        <ele>352.20001220703</ele>
        <time>2015-11-04T14:54:37Z</time>
      </trkpt>
      <trkpt lat="43.42641" lon="6.04181">
        <ele>351.60000610352</ele>
        <time>2015-11-04T14:54:38Z</time>
      </trkpt>
      <trkpt lat="43.42637" lon="6.04188">
        <ele>351.20001220703</ele>
        <time>2015-11-04T14:54:39Z</time>
      </trkpt>
      <trkpt lat="43.42633" lon="6.04193">
        <ele>351</ele>
        <time>2015-11-04T14:54:40Z</time>
      </trkpt>
      <trkpt lat="43.42633" lon="6.04198">
        <ele>351.20001220703</ele>
        <time>2015-11-04T14:54:41Z</time>
      </trkpt>
      <trkpt lat="43.42635" lon="6.04204">
        <ele>351.39999389648</ele>
        <time>2015-11-04T14:54:42Z</time>
      </trkpt>
      <trkpt lat="43.42635" lon="6.04209">
        <ele>351.39999389648</ele>
        <time>2015-11-04T14:54:43Z</time>
      </trkpt>
      <trkpt lat="43.42637" lon="6.0422">
        <ele>351.20001220703</ele>
        <time>2015-11-04T14:54:45Z</time>
      </trkpt>
      <trkpt lat="43.42638" lon="6.04226">
        <ele>351</ele>
        <time>2015-11-04T14:54:46Z</time>
      </trkpt>
      <trkpt lat="43.42639" lon="6.04232">
        <ele>350.79998779297</ele>
        <time>2015-11-04T14:54:47Z</time>
      </trkpt>
      <trkpt lat="43.42638" lon="6.04238">
        <ele>350.39999389648</ele>
        <time>2015-11-04T14:54:48Z</time>
      </trkpt>
      <trkpt lat="43.42639" lon="6.04244">
        <ele>350</ele>
        <time>2015-11-04T14:54:49Z</time>
      </trkpt>
      <trkpt lat="43.42644" lon="6.04257">
        <ele>349.20001220703</ele>
        <time>2015-11-04T14:54:51Z</time>
      </trkpt>
      <trkpt lat="43.42647" lon="6.04265">
        <ele>348</ele>
        <time>2015-11-04T14:54:52Z</time>
      </trkpt>
      <trkpt lat="43.42649" lon="6.04272">
        <ele>347.60000610352</ele>
        <time>2015-11-04T14:54:53Z</time>
      </trkpt>
      <trkpt lat="43.42651" lon="6.04288">
        <ele>347</ele>
        <time>2015-11-04T14:54:55Z</time>
      </trkpt>
      <trkpt lat="43.42652" lon="6.04295">
        <ele>346.60000610352</ele>
        <time>2015-11-04T14:54:56Z</time>
      </trkpt>
      <trkpt lat="43.42655" lon="6.04301">
        <ele>346.60000610352</ele>
        <time>2015-11-04T14:54:57Z</time>
      </trkpt>
      <trkpt lat="43.42658" lon="6.0431">
        <ele>346.60000610352</ele>
        <time>2015-11-04T14:54:59Z</time>
      </trkpt>
      <trkpt lat="43.42658" lon="6.04315">
        <ele>347</ele>
        <time>2015-11-04T14:55:01Z</time>
      </trkpt>
      <trkpt lat="43.42657" lon="6.04316">
        <ele>346.79998779297</ele>
        <time>2015-11-04T14:55:02Z</time>
      </trkpt>
      <trkpt lat="43.42656" lon="6.04318">
        <ele>346.60000610352</ele>
        <time>2015-11-04T14:55:03Z</time>
      </trkpt>
      <trkpt lat="43.42656" lon="6.0432">
        <ele>346.60000610352</ele>
        <time>2015-11-04T14:55:04Z</time>
      </trkpt>
      <trkpt lat="43.42654" lon="6.04322">
        <ele>346.60000610352</ele>
        <time>2015-11-04T14:55:05Z</time>
      </trkpt>
      <trkpt lat="43.42653" lon="6.04326">
        <ele>346.39999389648</ele>
        <time>2015-11-04T14:55:07Z</time>
      </trkpt>
      <trkpt lat="43.42653" lon="6.04329">
        <ele>346</ele>
        <time>2015-11-04T14:55:09Z</time>
      </trkpt>
      <trkpt lat="43.42653" lon="6.04331">
        <ele>346</ele>
        <time>2015-11-04T14:55:10Z</time>
      </trkpt>
      <trkpt lat="43.42653" lon="6.04333">
        <ele>345.60000610352</ele>
        <time>2015-11-04T14:55:11Z</time>
      </trkpt>
      <trkpt lat="43.42653" lon="6.04339">
        <ele>345.39999389648</ele>
        <time>2015-11-04T14:55:13Z</time>
      </trkpt>
      <trkpt lat="43.42653" lon="6.04342">
        <ele>345.20001220703</ele>
        <time>2015-11-04T14:55:14Z</time>
      </trkpt>
      <trkpt lat="43.42654" lon="6.04353">
        <ele>344.60000610352</ele>
        <time>2015-11-04T14:55:17Z</time>
      </trkpt>
      <trkpt lat="43.42657" lon="6.04362">
        <ele>343.79998779297</ele>
        <time>2015-11-04T14:55:19Z</time>
      </trkpt>
      <trkpt lat="43.42661" lon="6.0437">
        <ele>343</ele>
        <time>2015-11-04T14:55:21Z</time>
      </trkpt>
      <trkpt lat="43.42664" lon="6.0438">
        <ele>342.60000610352</ele>
        <time>2015-11-04T14:55:23Z</time>
      </trkpt>
      <trkpt lat="43.42665" lon="6.04386">
        <ele>342</ele>
        <time>2015-11-04T14:55:24Z</time>
      </trkpt>
      <trkpt lat="43.42665" lon="6.04392">
        <ele>341.60000610352</ele>
        <time>2015-11-04T14:55:25Z</time>
      </trkpt>
      <trkpt lat="43.42664" lon="6.04398">
        <ele>341</ele>
        <time>2015-11-04T14:55:26Z</time>
      </trkpt>
      <trkpt lat="43.42663" lon="6.04404">
        <ele>340.79998779297</ele>
        <time>2015-11-04T14:55:27Z</time>
      </trkpt>
      <trkpt lat="43.42662" lon="6.0441">
        <ele>340.39999389648</ele>
        <time>2015-11-04T14:55:28Z</time>
      </trkpt>
      <trkpt lat="43.42662" lon="6.04416">
        <ele>340.39999389648</ele>
        <time>2015-11-04T14:55:29Z</time>
      </trkpt>
      <trkpt lat="43.42661" lon="6.04422">
        <ele>340.20001220703</ele>
        <time>2015-11-04T14:55:30Z</time>
      </trkpt>
      <trkpt lat="43.42661" lon="6.04428">
        <ele>340</ele>
        <time>2015-11-04T14:55:31Z</time>
      </trkpt>
      <trkpt lat="43.42662" lon="6.04433">
        <ele>339.79998779297</ele>
        <time>2015-11-04T14:55:32Z</time>
      </trkpt>
      <trkpt lat="43.42663" lon="6.04439">
        <ele>339.60000610352</ele>
        <time>2015-11-04T14:55:33Z</time>
      </trkpt>
      <trkpt lat="43.42664" lon="6.04446">
        <ele>339</ele>
        <time>2015-11-04T14:55:34Z</time>
      </trkpt>
      <trkpt lat="43.42666" lon="6.0445">
        <ele>338.39999389648</ele>
        <time>2015-11-04T14:55:35Z</time>
      </trkpt>
      <trkpt lat="43.42668" lon="6.04462">
        <ele>337.79998779297</ele>
        <time>2015-11-04T14:55:37Z</time>
      </trkpt>
      <trkpt lat="43.42669" lon="6.04469">
        <ele>337.39999389648</ele>
        <time>2015-11-04T14:55:38Z</time>
      </trkpt>
      <trkpt lat="43.42671" lon="6.04494">
        <ele>335.60000610352</ele>
        <time>2015-11-04T14:55:42Z</time>
      </trkpt>
      <trkpt lat="43.42672" lon="6.04501">
        <ele>334.39999389648</ele>
        <time>2015-11-04T14:55:43Z</time>
      </trkpt>
      <trkpt lat="43.42673" lon="6.04509">
        <ele>333.39999389648</ele>
        <time>2015-11-04T14:55:44Z</time>
      </trkpt>
      <trkpt lat="43.42675" lon="6.04517">
        <ele>332.79998779297</ele>
        <time>2015-11-04T14:55:45Z</time>
      </trkpt>
      <trkpt lat="43.42678" lon="6.04523">
        <ele>332.20001220703</ele>
        <time>2015-11-04T14:55:46Z</time>
      </trkpt>
      <trkpt lat="43.42688" lon="6.04542">
        <ele>330.60000610352</ele>
        <time>2015-11-04T14:55:49Z</time>
      </trkpt>
      <trkpt lat="43.42693" lon="6.04557">
        <ele>329.20001220703</ele>
        <time>2015-11-04T14:55:51Z</time>
      </trkpt>
      <trkpt lat="43.42695" lon="6.04565">
        <ele>328.79998779297</ele>
        <time>2015-11-04T14:55:52Z</time>
      </trkpt>
      <trkpt lat="43.42697" lon="6.04573">
        <ele>328.60000610352</ele>
        <time>2015-11-04T14:55:53Z</time>
      </trkpt>
      <trkpt lat="43.42699" lon="6.0459">
        <ele>327.79998779297</ele>
        <time>2015-11-04T14:55:55Z</time>
      </trkpt>
      <trkpt lat="43.42701" lon="6.04607">
        <ele>327.20001220703</ele>
        <time>2015-11-04T14:55:57Z</time>
      </trkpt>
      <trkpt lat="43.42702" lon="6.04616">
        <ele>326.79998779297</ele>
        <time>2015-11-04T14:55:58Z</time>
      </trkpt>
      <trkpt lat="43.42703" lon="6.04624">
        <ele>326.60000610352</ele>
        <time>2015-11-04T14:55:59Z</time>
      </trkpt>
      <trkpt lat="43.42702" lon="6.04633">
        <ele>326.39999389648</ele>
        <time>2015-11-04T14:56:00Z</time>
      </trkpt>
      <trkpt lat="43.427" lon="6.0464">
        <ele>326.20001220703</ele>
        <time>2015-11-04T14:56:01Z</time>
      </trkpt>
      <trkpt lat="43.42699" lon="6.04647">
        <ele>326</ele>
        <time>2015-11-04T14:56:02Z</time>
      </trkpt>
      <trkpt lat="43.42699" lon="6.04653">
        <ele>325.79998779297</ele>
        <time>2015-11-04T14:56:03Z</time>
      </trkpt>
      <trkpt lat="43.42701" lon="6.04664">
        <ele>325.60000610352</ele>
        <time>2015-11-04T14:56:05Z</time>
      </trkpt>
      <trkpt lat="43.42702" lon="6.04675">
        <ele>325.20001220703</ele>
        <time>2015-11-04T14:56:07Z</time>
      </trkpt>
      <trkpt lat="43.42704" lon="6.04686">
        <ele>324.60000610352</ele>
        <time>2015-11-04T14:56:09Z</time>
      </trkpt>
      <trkpt lat="43.42703" lon="6.04697">
        <ele>324.39999389648</ele>
        <time>2015-11-04T14:56:11Z</time>
      </trkpt>
      <trkpt lat="43.42701" lon="6.04708">
        <ele>323.79998779297</ele>
        <time>2015-11-04T14:56:13Z</time>
      </trkpt>
      <trkpt lat="43.42702" lon="6.04714">
        <ele>323.60000610352</ele>
        <time>2015-11-04T14:56:14Z</time>
      </trkpt>
      <trkpt lat="43.42702" lon="6.0472">
        <ele>323.39999389648</ele>
        <time>2015-11-04T14:56:15Z</time>
      </trkpt>
      <trkpt lat="43.42703" lon="6.04726">
        <ele>323.20001220703</ele>
        <time>2015-11-04T14:56:16Z</time>
      </trkpt>
      <trkpt lat="43.42704" lon="6.04732">
        <ele>323</ele>
        <time>2015-11-04T14:56:17Z</time>
      </trkpt>
      <trkpt lat="43.42706" lon="6.04741">
        <ele>322.39999389648</ele>
        <time>2015-11-04T14:56:19Z</time>
      </trkpt>
      <trkpt lat="43.42707" lon="6.04746">
        <ele>322</ele>
        <time>2015-11-04T14:56:20Z</time>
      </trkpt>
      <trkpt lat="43.42707" lon="6.04751">
        <ele>321.60000610352</ele>
        <time>2015-11-04T14:56:21Z</time>
      </trkpt>
      <trkpt lat="43.42707" lon="6.0476">
        <ele>321</ele>
        <time>2015-11-04T14:56:23Z</time>
      </trkpt>
      <trkpt lat="43.42706" lon="6.04772">
        <ele>320.20001220703</ele>
        <time>2015-11-04T14:56:25Z</time>
      </trkpt>
      <trkpt lat="43.42707" lon="6.04778">
        <ele>319.79998779297</ele>
        <time>2015-11-04T14:56:26Z</time>
      </trkpt>
      <trkpt lat="43.42708" lon="6.04784">
        <ele>319.20001220703</ele>
        <time>2015-11-04T14:56:27Z</time>
      </trkpt>
      <trkpt lat="43.4271" lon="6.04794">
        <ele>318.60000610352</ele>
        <time>2015-11-04T14:56:29Z</time>
      </trkpt>
      <trkpt lat="43.42712" lon="6.04803">
        <ele>318.20001220703</ele>
        <time>2015-11-04T14:56:31Z</time>
      </trkpt>
      <trkpt lat="43.42713" lon="6.04804">
        <ele>318</ele>
        <time>2015-11-04T14:56:32Z</time>
      </trkpt>
      <trkpt lat="43.42715" lon="6.04805">
        <ele>318</ele>
        <time>2015-11-04T14:56:33Z</time>
      </trkpt>
      <trkpt lat="43.42718" lon="6.04806">
        <ele>317.39999389648</ele>
        <time>2015-11-04T14:56:35Z</time>
      </trkpt>
      <trkpt lat="43.4273" lon="6.04811">
        <ele>317</ele>
        <time>2015-11-04T14:56:39Z</time>
      </trkpt>
      <trkpt lat="43.42737" lon="6.04812">
        <ele>317</ele>
        <time>2015-11-04T14:56:41Z</time>
      </trkpt>
      <trkpt lat="43.42741" lon="6.04812">
        <ele>317.20001220703</ele>
        <time>2015-11-04T14:56:42Z</time>
      </trkpt>
      <trkpt lat="43.42744" lon="6.04811">
        <ele>317.39999389648</ele>
        <time>2015-11-04T14:56:43Z</time>
      </trkpt>
      <trkpt lat="43.42749" lon="6.04809">
        <ele>318.20001220703</ele>
        <time>2015-11-04T14:56:45Z</time>
      </trkpt>
      <trkpt lat="43.4275" lon="6.04809">
        <ele>318.60000610352</ele>
        <time>2015-11-04T14:56:46Z</time>
      </trkpt>
      <trkpt lat="43.42752" lon="6.04808">
        <ele>318.60000610352</ele>
        <time>2015-11-04T14:56:47Z</time>
      </trkpt>
      <trkpt lat="43.42756" lon="6.04808">
        <ele>318.79998779297</ele>
        <time>2015-11-04T14:56:49Z</time>
      </trkpt>
      <trkpt lat="43.42757" lon="6.04809">
        <ele>318.79998779297</ele>
        <time>2015-11-04T14:56:50Z</time>
      </trkpt>
      <trkpt lat="43.42759" lon="6.0481">
        <ele>318.79998779297</ele>
        <time>2015-11-04T14:56:51Z</time>
      </trkpt>
      <trkpt lat="43.42759" lon="6.0481">
        <ele>318.79998779297</ele>
        <time>2015-11-04T14:56:52Z</time>
      </trkpt>
      <trkpt lat="43.42759" lon="6.0481">
        <ele>318.79998779297</ele>
        <time>2015-11-04T14:56:53Z</time>
      </trkpt>
      <trkpt lat="43.42759" lon="6.0481">
        <ele>318.79998779297</ele>
        <time>2015-11-04T14:56:55Z</time>
      </trkpt>
      <trkpt lat="43.42759" lon="6.0481">
        <ele>318.79998779297</ele>
        <time>2015-11-04T14:57:01Z</time>
      </trkpt>
      <trkpt lat="43.42759" lon="6.0481">
        <ele>319.20001220703</ele>
        <time>2015-11-04T14:57:09Z</time>
      </trkpt>
      <trkpt lat="43.42758" lon="6.0481">
        <ele>319</ele>
        <time>2015-11-04T14:57:11Z</time>
      </trkpt>
      <trkpt lat="43.42759" lon="6.0481">
        <ele>319.20001220703</ele>
        <time>2015-11-04T14:57:13Z</time>
      </trkpt>
      <trkpt lat="43.42758" lon="6.0481">
        <ele>319</ele>
        <time>2015-11-04T14:57:15Z</time>
      </trkpt>
      <trkpt lat="43.42759" lon="6.0481">
        <ele>319</ele>
        <time>2015-11-04T14:57:17Z</time>
      </trkpt>
      <trkpt lat="43.42759" lon="6.0481">
        <ele>319.20001220703</ele>
        <time>2015-11-04T14:57:23Z</time>
      </trkpt>
      <trkpt lat="43.42759" lon="6.0481">
        <ele>319.20001220703</ele>
        <time>2015-11-04T14:57:55Z</time>
      </trkpt>
      <trkpt lat="43.42759" lon="6.04809">
        <ele>319</ele>
        <time>2015-11-04T14:57:59Z</time>
      </trkpt>
      <trkpt lat="43.42759" lon="6.04809">
        <ele>319.20001220703</ele>
        <time>2015-11-04T14:58:01Z</time>
      </trkpt>
      <trkpt lat="43.42758" lon="6.04809">
        <ele>319.20001220703</ele>
        <time>2015-11-04T14:58:03Z</time>
      </trkpt>
      <trkpt lat="43.42758" lon="6.04809">
        <ele>319.20001220703</ele>
        <time>2015-11-04T14:58:05Z</time>
      </trkpt>
      <trkpt lat="43.42758" lon="6.04809">
        <ele>319.20001220703</ele>
        <time>2015-11-04T14:58:06Z</time>
      </trkpt>
      <trkpt lat="43.42758" lon="6.04809">
        <ele>319.39999389648</ele>
        <time>2015-11-04T14:58:07Z</time>
      </trkpt>
      <trkpt lat="43.42759" lon="6.04809">
        <ele>319.20001220703</ele>
        <time>2015-11-04T14:58:09Z</time>
      </trkpt>
      <trkpt lat="43.42759" lon="6.04809">
        <ele>318.79998779297</ele>
        <time>2015-11-04T14:58:15Z</time>
      </trkpt>
      <trkpt lat="43.42759" lon="6.04809">
        <ele>318.79998779297</ele>
        <time>2015-11-04T14:58:35Z</time>
      </trkpt>
      <trkpt lat="43.42758" lon="6.04809">
        <ele>318.79998779297</ele>
        <time>2015-11-04T14:58:37Z</time>
      </trkpt>
      <trkpt lat="43.42758" lon="6.04809">
        <ele>318.60000610352</ele>
        <time>2015-11-04T14:58:43Z</time>
      </trkpt>
      <trkpt lat="43.42758" lon="6.04809">
        <ele>318.79998779297</ele>
        <time>2015-11-04T14:59:15Z</time>
      </trkpt>
      <trkpt lat="43.42758" lon="6.04809">
        <ele>319.20001220703</ele>
        <time>2015-11-04T14:59:17Z</time>
      </trkpt>
      <trkpt lat="43.42758" lon="6.04809">
        <ele>319.39999389648</ele>
        <time>2015-11-04T14:59:23Z</time>
      </trkpt>
      <trkpt lat="43.42758" lon="6.04809">
        <ele>319.39999389648</ele>
        <time>2015-11-04T14:59:55Z</time>
      </trkpt>
      <trkpt lat="43.42757" lon="6.04809">
        <ele>319.39999389648</ele>
        <time>2015-11-04T14:59:57Z</time>
      </trkpt>
      <trkpt lat="43.42757" lon="6.04809">
        <ele>319.20001220703</ele>
        <time>2015-11-04T15:00:01Z</time>
      </trkpt>
      <trkpt lat="43.42757" lon="6.04809">
        <ele>319.39999389648</ele>
        <time>2015-11-04T15:00:05Z</time>
      </trkpt>
      <trkpt lat="43.42757" lon="6.0481">
        <ele>319.60000610352</ele>
        <time>2015-11-04T15:00:07Z</time>
      </trkpt>
      <trkpt lat="43.42757" lon="6.0481">
        <ele>319.60000610352</ele>
        <time>2015-11-04T15:00:09Z</time>
      </trkpt>
      <trkpt lat="43.42757" lon="6.04809">
        <ele>319.60000610352</ele>
        <time>2015-11-04T15:00:10Z</time>
      </trkpt>
      <trkpt lat="43.42757" lon="6.04809">
        <ele>319.60000610352</ele>
        <time>2015-11-04T15:00:11Z</time>
      </trkpt>
      <trkpt lat="43.42756" lon="6.04809">
        <ele>319.60000610352</ele>
        <time>2015-11-04T15:00:13Z</time>
      </trkpt>
      <trkpt lat="43.42756" lon="6.04809">
        <ele>319.39999389648</ele>
        <time>2015-11-04T15:00:17Z</time>
      </trkpt>
      <trkpt lat="43.42752" lon="6.0481">
        <ele>319.39999389648</ele>
        <time>2015-11-04T15:00:19Z</time>
      </trkpt>
      <trkpt lat="43.42749" lon="6.0481">
        <ele>319.20001220703</ele>
        <time>2015-11-04T15:00:20Z</time>
      </trkpt>
      <trkpt lat="43.42746" lon="6.04812">
        <ele>319</ele>
        <time>2015-11-04T15:00:21Z</time>
      </trkpt>
      <trkpt lat="43.42742" lon="6.04812">
        <ele>318.60000610352</ele>
        <time>2015-11-04T15:00:23Z</time>
      </trkpt>
      <trkpt lat="43.42742" lon="6.04812">
        <ele>318.39999389648</ele>
        <time>2015-11-04T15:00:24Z</time>
      </trkpt>
      <trkpt lat="43.42742" lon="6.04812">
        <ele>318.39999389648</ele>
        <time>2015-11-04T15:00:25Z</time>
      </trkpt>
      <trkpt lat="43.42742" lon="6.04812">
        <ele>318.39999389648</ele>
        <time>2015-11-04T15:00:29Z</time>
      </trkpt>
      <trkpt lat="43.42742" lon="6.04812">
        <ele>318.39999389648</ele>
        <time>2015-11-04T15:00:31Z</time>
      </trkpt>
      <trkpt lat="43.42742" lon="6.04812">
        <ele>318.39999389648</ele>
        <time>2015-11-04T15:00:33Z</time>
      </trkpt>
      <trkpt lat="43.42744" lon="6.04812">
        <ele>318.39999389648</ele>
        <time>2015-11-04T15:00:35Z</time>
      </trkpt>
      <trkpt lat="43.42745" lon="6.04811">
        <ele>318.39999389648</ele>
        <time>2015-11-04T15:00:36Z</time>
      </trkpt>
      <trkpt lat="43.42746" lon="6.04811">
        <ele>318.60000610352</ele>
        <time>2015-11-04T15:00:37Z</time>
      </trkpt>
      <trkpt lat="43.42747" lon="6.0481">
        <ele>318.79998779297</ele>
        <time>2015-11-04T15:00:39Z</time>
      </trkpt>
      <trkpt lat="43.42748" lon="6.0481">
        <ele>319.20001220703</ele>
        <time>2015-11-04T15:00:41Z</time>
      </trkpt>
      <trkpt lat="43.42749" lon="6.04809">
        <ele>319.39999389648</ele>
        <time>2015-11-04T15:00:42Z</time>
      </trkpt>
      <trkpt lat="43.42751" lon="6.04807">
        <ele>319.60000610352</ele>
        <time>2015-11-04T15:00:45Z</time>
      </trkpt>
      <trkpt lat="43.42756" lon="6.04807">
        <ele>319.39999389648</ele>
        <time>2015-11-04T15:00:49Z</time>
      </trkpt>
      <trkpt lat="43.42757" lon="6.04808">
        <ele>319.20001220703</ele>
        <time>2015-11-04T15:00:51Z</time>
      </trkpt>
      <trkpt lat="43.42759" lon="6.04809">
        <ele>319.39999389648</ele>
        <time>2015-11-04T15:00:53Z</time>
      </trkpt>
      <trkpt lat="43.4276" lon="6.0481">
        <ele>319.39999389648</ele>
        <time>2015-11-04T15:00:55Z</time>
      </trkpt>
      <trkpt lat="43.42761" lon="6.04811">
        <ele>319.39999389648</ele>
        <time>2015-11-04T15:00:56Z</time>
      </trkpt>
      <trkpt lat="43.42763" lon="6.04812">
        <ele>319</ele>
        <time>2015-11-04T15:00:57Z</time>
      </trkpt>
      <trkpt lat="43.42766" lon="6.04815">
        <ele>318.39999389648</ele>
        <time>2015-11-04T15:00:59Z</time>
      </trkpt>
      <trkpt lat="43.42769" lon="6.04817">
        <ele>318.39999389648</ele>
        <time>2015-11-04T15:01:01Z</time>
      </trkpt>
      <trkpt lat="43.42772" lon="6.0482">
        <ele>318</ele>
        <time>2015-11-04T15:01:03Z</time>
      </trkpt>
      <trkpt lat="43.42776" lon="6.04824">
        <ele>317.20001220703</ele>
        <time>2015-11-04T15:01:05Z</time>
      </trkpt>
      <trkpt lat="43.42778" lon="6.04825">
        <ele>316.79998779297</ele>
        <time>2015-11-04T15:01:06Z</time>
      </trkpt>
      <trkpt lat="43.4278" lon="6.04826">
        <ele>316.60000610352</ele>
        <time>2015-11-04T15:01:07Z</time>
      </trkpt>
      <trkpt lat="43.42781" lon="6.04827">
        <ele>316.39999389648</ele>
        <time>2015-11-04T15:01:08Z</time>
      </trkpt>
      <trkpt lat="43.42783" lon="6.04827">
        <ele>316.39999389648</ele>
        <time>2015-11-04T15:01:09Z</time>
      </trkpt>
      <trkpt lat="43.42782" lon="6.04827">
        <ele>316.39999389648</ele>
        <time>2015-11-04T15:01:11Z</time>
      </trkpt>
      <trkpt lat="43.42782" lon="6.04827">
        <ele>316.20001220703</ele>
        <time>2015-11-04T15:01:17Z</time>
      </trkpt>
      <trkpt lat="43.42782" lon="6.04827">
        <ele>316.39999389648</ele>
        <time>2015-11-04T15:01:25Z</time>
      </trkpt>
      <trkpt lat="43.42784" lon="6.04828">
        <ele>316.60000610352</ele>
        <time>2015-11-04T15:01:27Z</time>
      </trkpt>
      <trkpt lat="43.42784" lon="6.04828">
        <ele>316.39999389648</ele>
        <time>2015-11-04T15:01:29Z</time>
      </trkpt>
      <trkpt lat="43.42784" lon="6.04828">
        <ele>316</ele>
        <time>2015-11-04T15:01:35Z</time>
      </trkpt>
      <trkpt lat="43.42784" lon="6.04828">
        <ele>316.20001220703</ele>
        <time>2015-11-04T15:02:13Z</time>
      </trkpt>
      <trkpt lat="43.42784" lon="6.04828">
        <ele>316</ele>
        <time>2015-11-04T15:02:46Z</time>
      </trkpt>
      <trkpt lat="43.42784" lon="6.04828">
        <ele>316</ele>
        <time>2015-11-04T15:02:47Z</time>
      </trkpt>
      <trkpt lat="43.42784" lon="6.04828">
        <ele>316.20001220703</ele>
        <time>2015-11-04T15:02:53Z</time>
      </trkpt>
      <trkpt lat="43.42784" lon="6.04828">
        <ele>316.20001220703</ele>
        <time>2015-11-04T15:03:25Z</time>
      </trkpt>
      <trkpt lat="43.42784" lon="6.04828">
        <ele>316.39999389648</ele>
        <time>2015-11-04T15:03:27Z</time>
      </trkpt>
      <trkpt lat="43.42784" lon="6.04828">
        <ele>316.39999389648</ele>
        <time>2015-11-04T15:03:33Z</time>
      </trkpt>
      <trkpt lat="43.42784" lon="6.04828">
        <ele>316.20001220703</ele>
        <time>2015-11-04T15:04:05Z</time>
      </trkpt>
      <trkpt lat="43.42784" lon="6.04829">
        <ele>316.39999389648</ele>
        <time>2015-11-04T15:04:07Z</time>
      </trkpt>
      <trkpt lat="43.42784" lon="6.04829">
        <ele>316.20001220703</ele>
        <time>2015-11-04T15:04:13Z</time>
      </trkpt>
      <trkpt lat="43.42784" lon="6.04829">
        <ele>316.20001220703</ele>
        <time>2015-11-04T15:04:53Z</time>
      </trkpt>
      <trkpt lat="43.42784" lon="6.04829">
        <ele>316.20001220703</ele>
        <time>2015-11-04T15:05:25Z</time>
      </trkpt>
      <trkpt lat="43.42783" lon="6.04828">
        <ele>316.39999389648</ele>
        <time>2015-11-04T15:05:27Z</time>
      </trkpt>
      <trkpt lat="43.42783" lon="6.04828">
        <ele>316.39999389648</ele>
        <time>2015-11-04T15:05:33Z</time>
      </trkpt>
      <trkpt lat="43.42783" lon="6.04828">
        <ele>316.39999389648</ele>
        <time>2015-11-04T15:06:05Z</time>
      </trkpt>
      <trkpt lat="43.42784" lon="6.04828">
        <ele>316.39999389648</ele>
        <time>2015-11-04T15:06:07Z</time>
      </trkpt>
      <trkpt lat="43.42784" lon="6.04828">
        <ele>316.60000610352</ele>
        <time>2015-11-04T15:06:11Z</time>
      </trkpt>
      <trkpt lat="43.42784" lon="6.04828">
        <ele>316.39999389648</ele>
        <time>2015-11-04T15:06:53Z</time>
      </trkpt>
      <trkpt lat="43.42784" lon="6.04828">
        <ele>316.39999389648</ele>
        <time>2015-11-04T15:07:25Z</time>
      </trkpt>
      <trkpt lat="43.42784" lon="6.04828">
        <ele>316.39999389648</ele>
        <time>2015-11-04T15:07:27Z</time>
      </trkpt>
      <trkpt lat="43.42784" lon="6.04828">
        <ele>316.60000610352</ele>
        <time>2015-11-04T15:07:33Z</time>
      </trkpt>
      <trkpt lat="43.42784" lon="6.04828">
        <ele>316.60000610352</ele>
        <time>2015-11-04T15:08:05Z</time>
      </trkpt>
      <trkpt lat="43.42784" lon="6.04828">
        <ele>316.39999389648</ele>
        <time>2015-11-04T15:08:07Z</time>
      </trkpt>
      <trkpt lat="43.42784" lon="6.04828">
        <ele>316.60000610352</ele>
        <time>2015-11-04T15:08:13Z</time>
      </trkpt>
      <trkpt lat="43.42784" lon="6.04828">
        <ele>316.39999389648</ele>
        <time>2015-11-04T15:08:45Z</time>
      </trkpt>
      <trkpt lat="43.42784" lon="6.04828">
        <ele>316.20001220703</ele>
        <time>2015-11-04T15:08:47Z</time>
      </trkpt>
      <trkpt lat="43.42784" lon="6.04828">
        <ele>316.60000610352</ele>
        <time>2015-11-04T15:08:53Z</time>
      </trkpt>
      <trkpt lat="43.42784" lon="6.04828">
        <ele>316.60000610352</ele>
        <time>2015-11-04T15:10:05Z</time>
      </trkpt>
      <trkpt lat="43.42784" lon="6.04828">
        <ele>316.39999389648</ele>
        <time>2015-11-04T15:10:07Z</time>
      </trkpt>
      <trkpt lat="43.42784" lon="6.04828">
        <ele>316.60000610352</ele>
        <time>2015-11-04T15:10:13Z</time>
      </trkpt>
      <trkpt lat="43.42784" lon="6.04828">
        <ele>316.60000610352</ele>
        <time>2015-11-04T15:10:45Z</time>
      </trkpt>
      <trkpt lat="43.42784" lon="6.04828">
        <ele>316.60000610352</ele>
        <time>2015-11-04T15:10:47Z</time>
      </trkpt>
      <trkpt lat="43.42784" lon="6.04828">
        <ele>316.60000610352</ele>
        <time>2015-11-04T15:10:53Z</time>
      </trkpt>
      <trkpt lat="43.42784" lon="6.04828">
        <ele>316.79998779297</ele>
        <time>2015-11-04T15:11:25Z</time>
      </trkpt>
      <trkpt lat="43.42784" lon="6.04828">
        <ele>316.79998779297</ele>
        <time>2015-11-04T15:11:27Z</time>
      </trkpt>
      <trkpt lat="43.42784" lon="6.04828">
        <ele>316.60000610352</ele>
        <time>2015-11-04T15:11:31Z</time>
      </trkpt>
      <trkpt lat="43.42784" lon="6.04828">
        <ele>316.60000610352</ele>
        <time>2015-11-04T15:12:05Z</time>
      </trkpt>
      <trkpt lat="43.42785" lon="6.04828">
        <ele>316.79998779297</ele>
        <time>2015-11-04T15:12:07Z</time>
      </trkpt>
      <trkpt lat="43.42785" lon="6.04828">
        <ele>316.79998779297</ele>
        <time>2015-11-04T15:12:13Z</time>
      </trkpt>
      <trkpt lat="43.42785" lon="6.04828">
        <ele>316.79998779297</ele>
        <time>2015-11-04T15:12:45Z</time>
      </trkpt>
      <trkpt lat="43.42785" lon="6.04828">
        <ele>316.79998779297</ele>
        <time>2015-11-04T15:12:47Z</time>
      </trkpt>
      <trkpt lat="43.42785" lon="6.04828">
        <ele>317</ele>
        <time>2015-11-04T15:12:53Z</time>
      </trkpt>
      <trkpt lat="43.42785" lon="6.04828">
        <ele>316.79998779297</ele>
        <time>2015-11-04T15:13:25Z</time>
      </trkpt>
      <trkpt lat="43.42785" lon="6.04828">
        <ele>316.79998779297</ele>
        <time>2015-11-04T15:13:27Z</time>
      </trkpt>
      <trkpt lat="43.42785" lon="6.04828">
        <ele>316.79998779297</ele>
        <time>2015-11-04T15:13:31Z</time>
      </trkpt>
      <trkpt lat="43.42785" lon="6.04828">
        <ele>316.60000610352</ele>
        <time>2015-11-04T15:14:05Z</time>
      </trkpt>
      <trkpt lat="43.42785" lon="6.04828">
        <ele>316.79998779297</ele>
        <time>2015-11-04T15:14:07Z</time>
      </trkpt>
      <trkpt lat="43.42785" lon="6.04828">
        <ele>317</ele>
        <time>2015-11-04T15:14:13Z</time>
      </trkpt>
      <trkpt lat="43.42785" lon="6.04828">
        <ele>316.79998779297</ele>
        <time>2015-11-04T15:15:25Z</time>
      </trkpt>
      <trkpt lat="43.42785" lon="6.04828">
        <ele>317</ele>
        <time>2015-11-04T15:15:27Z</time>
      </trkpt>
      <trkpt lat="43.42785" lon="6.04828">
        <ele>317.39999389648</ele>
        <time>2015-11-04T15:15:33Z</time>
      </trkpt>
      <trkpt lat="43.42785" lon="6.04828">
        <ele>317</ele>
        <time>2015-11-04T15:16:05Z</time>
      </trkpt>
      <trkpt lat="43.42785" lon="6.04828">
        <ele>317.20001220703</ele>
        <time>2015-11-04T15:16:07Z</time>
      </trkpt>
      <trkpt lat="43.42785" lon="6.04828">
        <ele>317.20001220703</ele>
        <time>2015-11-04T15:16:12Z</time>
      </trkpt>
      <trkpt lat="43.42785" lon="6.04828">
        <ele>317.20001220703</ele>
        <time>2015-11-04T15:16:46Z</time>
      </trkpt>
      <trkpt lat="43.42785" lon="6.04827">
        <ele>317.20001220703</ele>
        <time>2015-11-04T15:16:47Z</time>
      </trkpt>
      <trkpt lat="43.42785" lon="6.04827">
        <ele>317.39999389648</ele>
        <time>2015-11-04T15:16:53Z</time>
      </trkpt>
      <trkpt lat="43.42785" lon="6.04827">
        <ele>317.20001220703</ele>
        <time>2015-11-04T15:17:26Z</time>
      </trkpt>
      <trkpt lat="43.42785" lon="6.04827">
        <ele>317.20001220703</ele>
        <time>2015-11-04T15:17:27Z</time>
      </trkpt>
      <trkpt lat="43.42785" lon="6.04827">
        <ele>317.39999389648</ele>
        <time>2015-11-04T15:17:33Z</time>
      </trkpt>
      <trkpt lat="43.42785" lon="6.04827">
        <ele>317.39999389648</ele>
        <time>2015-11-04T15:18:05Z</time>
      </trkpt>
      <trkpt lat="43.42784" lon="6.04827">
        <ele>317.39999389648</ele>
        <time>2015-11-04T15:18:07Z</time>
      </trkpt>
      <trkpt lat="43.42784" lon="6.04827">
        <ele>317.39999389648</ele>
        <time>2015-11-04T15:18:13Z</time>
      </trkpt>
      <trkpt lat="43.42784" lon="6.04827">
        <ele>317.39999389648</ele>
        <time>2015-11-04T15:18:53Z</time>
      </trkpt>
      <trkpt lat="43.42784" lon="6.04827">
        <ele>317.60000610352</ele>
        <time>2015-11-04T15:19:25Z</time>
      </trkpt>
      <trkpt lat="43.42785" lon="6.04827">
        <ele>317.39999389648</ele>
        <time>2015-11-04T15:19:27Z</time>
      </trkpt>
      <trkpt lat="43.42785" lon="6.04827">
        <ele>317.39999389648</ele>
        <time>2015-11-04T15:19:33Z</time>
      </trkpt>
      <trkpt lat="43.42785" lon="6.04827">
        <ele>317.60000610352</ele>
        <time>2015-11-04T15:20:05Z</time>
      </trkpt>
      <trkpt lat="43.42785" lon="6.04827">
        <ele>317.39999389648</ele>
        <time>2015-11-04T15:20:07Z</time>
      </trkpt>
      <trkpt lat="43.42785" lon="6.04827">
        <ele>317.20001220703</ele>
        <time>2015-11-04T15:20:13Z</time>
      </trkpt>
      <trkpt lat="43.42785" lon="6.04827">
        <ele>317.39999389648</ele>
        <time>2015-11-04T15:20:31Z</time>
      </trkpt>
      <trkpt lat="43.42785" lon="6.04827">
        <ele>317.39999389648</ele>
        <time>2015-11-04T15:20:33Z</time>
      </trkpt>
      <trkpt lat="43.42785" lon="6.04827">
        <ele>317.60000610352</ele>
        <time>2015-11-04T15:20:35Z</time>
      </trkpt>
      <trkpt lat="43.42785" lon="6.04827">
        <ele>318</ele>
        <time>2015-11-04T15:20:39Z</time>
      </trkpt>
      <trkpt lat="43.42785" lon="6.04827">
        <ele>317.79998779297</ele>
        <time>2015-11-04T15:20:45Z</time>
      </trkpt>
      <trkpt lat="43.42785" lon="6.04828">
        <ele>317.79998779297</ele>
        <time>2015-11-04T15:20:47Z</time>
      </trkpt>
      <trkpt lat="43.42783" lon="6.04829">
        <ele>317.79998779297</ele>
        <time>2015-11-04T15:20:49Z</time>
      </trkpt>
      <trkpt lat="43.42784" lon="6.04829">
        <ele>317.79998779297</ele>
        <time>2015-11-04T15:20:50Z</time>
      </trkpt>
      <trkpt lat="43.42783" lon="6.0483">
        <ele>318</ele>
        <time>2015-11-04T15:20:51Z</time>
      </trkpt>
      <trkpt lat="43.42783" lon="6.0483">
        <ele>317.79998779297</ele>
        <time>2015-11-04T15:20:57Z</time>
      </trkpt>
      <trkpt lat="43.42783" lon="6.0483">
        <ele>318</ele>
        <time>2015-11-04T15:21:29Z</time>
      </trkpt>
      <trkpt lat="43.42783" lon="6.0483">
        <ele>318</ele>
        <time>2015-11-04T15:21:31Z</time>
      </trkpt>
      <trkpt lat="43.42783" lon="6.0483">
        <ele>318.20001220703</ele>
        <time>2015-11-04T15:21:36Z</time>
      </trkpt>
      <trkpt lat="43.42783" lon="6.0483">
        <ele>318</ele>
        <time>2015-11-04T15:22:09Z</time>
      </trkpt>
      <trkpt lat="43.42783" lon="6.04831">
        <ele>317.79998779297</ele>
        <time>2015-11-04T15:22:11Z</time>
      </trkpt>
      <trkpt lat="43.42783" lon="6.04831">
        <ele>318.20001220703</ele>
        <time>2015-11-04T15:22:17Z</time>
      </trkpt>
      <trkpt lat="43.42783" lon="6.04831">
        <ele>318</ele>
        <time>2015-11-04T15:22:49Z</time>
      </trkpt>
      <trkpt lat="43.42783" lon="6.04831">
        <ele>318</ele>
        <time>2015-11-04T15:22:51Z</time>
      </trkpt>
      <trkpt lat="43.42783" lon="6.04831">
        <ele>318.20001220703</ele>
        <time>2015-11-04T15:22:57Z</time>
      </trkpt>
      <trkpt lat="43.42783" lon="6.04831">
        <ele>318.20001220703</ele>
        <time>2015-11-04T15:23:29Z</time>
      </trkpt>
      <trkpt lat="43.42782" lon="6.04832">
        <ele>318.60000610352</ele>
        <time>2015-11-04T15:23:31Z</time>
      </trkpt>
      <trkpt lat="43.42782" lon="6.04832">
        <ele>318.39999389648</ele>
        <time>2015-11-04T15:23:37Z</time>
      </trkpt>
      <trkpt lat="43.42782" lon="6.04832">
        <ele>318.39999389648</ele>
        <time>2015-11-04T15:24:09Z</time>
      </trkpt>
      <trkpt lat="43.42783" lon="6.04831">
        <ele>318.20001220703</ele>
        <time>2015-11-04T15:24:11Z</time>
      </trkpt>
      <trkpt lat="43.42783" lon="6.04831">
        <ele>318.20001220703</ele>
        <time>2015-11-04T15:24:13Z</time>
      </trkpt>
      <trkpt lat="43.42783" lon="6.04831">
        <ele>318.39999389648</ele>
        <time>2015-11-04T15:24:17Z</time>
      </trkpt>
      <trkpt lat="43.42783" lon="6.04831">
        <ele>318.60000610352</ele>
        <time>2015-11-04T15:24:45Z</time>
      </trkpt>
      <trkpt lat="43.42783" lon="6.04831">
        <ele>318.60000610352</ele>
        <time>2015-11-04T15:24:49Z</time>
      </trkpt>
      <trkpt lat="43.42782" lon="6.04832">
        <ele>318.60000610352</ele>
        <time>2015-11-04T15:24:51Z</time>
      </trkpt>
      <trkpt lat="43.42782" lon="6.04832">
        <ele>318.39999389648</ele>
        <time>2015-11-04T15:24:53Z</time>
      </trkpt>
      <trkpt lat="43.42782" lon="6.04832">
        <ele>318.60000610352</ele>
        <time>2015-11-04T15:24:55Z</time>
      </trkpt>
      <trkpt lat="43.42781" lon="6.04837">
        <ele>318.20001220703</ele>
        <time>2015-11-04T15:24:57Z</time>
      </trkpt>
      <trkpt lat="43.42781" lon="6.04843">
        <ele>318</ele>
        <time>2015-11-04T15:24:59Z</time>
      </trkpt>
      <trkpt lat="43.42781" lon="6.04848">
        <ele>317.79998779297</ele>
        <time>2015-11-04T15:25:01Z</time>
      </trkpt>
      <trkpt lat="43.42778" lon="6.04857">
        <ele>316.60000610352</ele>
        <time>2015-11-04T15:25:03Z</time>
      </trkpt>
      <trkpt lat="43.42775" lon="6.04868">
        <ele>316</ele>
        <time>2015-11-04T15:25:05Z</time>
      </trkpt>
      <trkpt lat="43.42773" lon="6.04874">
        <ele>315.60000610352</ele>
        <time>2015-11-04T15:25:06Z</time>
      </trkpt>
      <trkpt lat="43.4277" lon="6.04879">
        <ele>315.20001220703</ele>
        <time>2015-11-04T15:25:07Z</time>
      </trkpt>
      <trkpt lat="43.42765" lon="6.0489">
        <ele>314.39999389648</ele>
        <time>2015-11-04T15:25:09Z</time>
      </trkpt>
      <trkpt lat="43.42763" lon="6.04895">
        <ele>314.20001220703</ele>
        <time>2015-11-04T15:25:10Z</time>
      </trkpt>
      <trkpt lat="43.4276" lon="6.049">
        <ele>313.79998779297</ele>
        <time>2015-11-04T15:25:11Z</time>
      </trkpt>
      <trkpt lat="43.42759" lon="6.04906">
        <ele>313.60000610352</ele>
        <time>2015-11-04T15:25:13Z</time>
      </trkpt>
      <trkpt lat="43.42759" lon="6.04908">
        <ele>313.79998779297</ele>
        <time>2015-11-04T15:25:14Z</time>
      </trkpt>
      <trkpt lat="43.42758" lon="6.04911">
        <ele>314</ele>
        <time>2015-11-04T15:25:15Z</time>
      </trkpt>
      <trkpt lat="43.4276" lon="6.04922">
        <ele>313.39999389648</ele>
        <time>2015-11-04T15:25:17Z</time>
      </trkpt>
      <trkpt lat="43.42762" lon="6.04928">
        <ele>312.79998779297</ele>
        <time>2015-11-04T15:25:18Z</time>
      </trkpt>
      <trkpt lat="43.42763" lon="6.04934">
        <ele>312.20001220703</ele>
        <time>2015-11-04T15:25:19Z</time>
      </trkpt>
      <trkpt lat="43.42764" lon="6.04941">
        <ele>311.60000610352</ele>
        <time>2015-11-04T15:25:20Z</time>
      </trkpt>
      <trkpt lat="43.42763" lon="6.04948">
        <ele>311.20001220703</ele>
        <time>2015-11-04T15:25:21Z</time>
      </trkpt>
      <trkpt lat="43.42764" lon="6.04963">
        <ele>311</ele>
        <time>2015-11-04T15:25:23Z</time>
      </trkpt>
      <trkpt lat="43.42765" lon="6.04978">
        <ele>310.60000610352</ele>
        <time>2015-11-04T15:25:25Z</time>
      </trkpt>
      <trkpt lat="43.42765" lon="6.04994">
        <ele>309.60000610352</ele>
        <time>2015-11-04T15:25:27Z</time>
      </trkpt>
      <trkpt lat="43.42768" lon="6.0501">
        <ele>308.39999389648</ele>
        <time>2015-11-04T15:25:29Z</time>
      </trkpt>
      <trkpt lat="43.42768" lon="6.05018">
        <ele>308.20001220703</ele>
        <time>2015-11-04T15:25:30Z</time>
      </trkpt>
      <trkpt lat="43.42762" lon="6.0504">
        <ele>307</ele>
        <time>2015-11-04T15:25:33Z</time>
      </trkpt>
      <trkpt lat="43.42756" lon="6.05054">
        <ele>307</ele>
        <time>2015-11-04T15:25:35Z</time>
      </trkpt>
      <trkpt lat="43.42752" lon="6.05068">
        <ele>307</ele>
        <time>2015-11-04T15:25:37Z</time>
      </trkpt>
      <trkpt lat="43.42751" lon="6.05082">
        <ele>306.39999389648</ele>
        <time>2015-11-04T15:25:39Z</time>
      </trkpt>
      <trkpt lat="43.42751" lon="6.05088">
        <ele>306.20001220703</ele>
        <time>2015-11-04T15:25:40Z</time>
      </trkpt>
      <trkpt lat="43.42754" lon="6.05103">
        <ele>305.79998779297</ele>
        <time>2015-11-04T15:25:43Z</time>
      </trkpt>
      <trkpt lat="43.42755" lon="6.05111">
        <ele>305.39999389648</ele>
        <time>2015-11-04T15:25:45Z</time>
      </trkpt>
      <trkpt lat="43.42754" lon="6.05122">
        <ele>304.79998779297</ele>
        <time>2015-11-04T15:25:47Z</time>
      </trkpt>
      <trkpt lat="43.42749" lon="6.05131">
        <ele>304</ele>
        <time>2015-11-04T15:25:49Z</time>
      </trkpt>
      <trkpt lat="43.42747" lon="6.05137">
        <ele>303.60000610352</ele>
        <time>2015-11-04T15:25:50Z</time>
      </trkpt>
      <trkpt lat="43.42738" lon="6.05153">
        <ele>302.79998779297</ele>
        <time>2015-11-04T15:25:53Z</time>
      </trkpt>
      <trkpt lat="43.42735" lon="6.05158">
        <ele>302.60000610352</ele>
        <time>2015-11-04T15:25:54Z</time>
      </trkpt>
      <trkpt lat="43.42733" lon="6.05164">
        <ele>302</ele>
        <time>2015-11-04T15:25:55Z</time>
      </trkpt>
      <trkpt lat="43.42731" lon="6.05171">
        <ele>301.39999389648</ele>
        <time>2015-11-04T15:25:56Z</time>
      </trkpt>
      <trkpt lat="43.42729" lon="6.05178">
        <ele>300.60000610352</ele>
        <time>2015-11-04T15:25:57Z</time>
      </trkpt>
      <trkpt lat="43.42727" lon="6.05184">
        <ele>300</ele>
        <time>2015-11-04T15:25:58Z</time>
      </trkpt>
      <trkpt lat="43.42726" lon="6.05189">
        <ele>299.60000610352</ele>
        <time>2015-11-04T15:25:59Z</time>
      </trkpt>
      <trkpt lat="43.42722" lon="6.05196">
        <ele>299.39999389648</ele>
        <time>2015-11-04T15:26:01Z</time>
      </trkpt>
      <trkpt lat="43.42719" lon="6.052">
        <ele>299.20001220703</ele>
        <time>2015-11-04T15:26:02Z</time>
      </trkpt>
      <trkpt lat="43.42716" lon="6.05203">
        <ele>298.60000610352</ele>
        <time>2015-11-04T15:26:03Z</time>
      </trkpt>
      <trkpt lat="43.4271" lon="6.05211">
        <ele>297.60000610352</ele>
        <time>2015-11-04T15:26:05Z</time>
      </trkpt>
      <trkpt lat="43.42707" lon="6.05214">
        <ele>297.39999389648</ele>
        <time>2015-11-04T15:26:06Z</time>
      </trkpt>
      <trkpt lat="43.42706" lon="6.05216">
        <ele>297.20001220703</ele>
        <time>2015-11-04T15:26:07Z</time>
      </trkpt>
      <trkpt lat="43.427" lon="6.05218">
        <ele>297</ele>
        <time>2015-11-04T15:26:09Z</time>
      </trkpt>
      <trkpt lat="43.42692" lon="6.05221">
        <ele>296.20001220703</ele>
        <time>2015-11-04T15:26:11Z</time>
      </trkpt>
      <trkpt lat="43.42688" lon="6.05224">
        <ele>295.60000610352</ele>
        <time>2015-11-04T15:26:12Z</time>
      </trkpt>
      <trkpt lat="43.42684" lon="6.05226">
        <ele>295.20001220703</ele>
        <time>2015-11-04T15:26:13Z</time>
      </trkpt>
      <trkpt lat="43.42676" lon="6.05232">
        <ele>293.79998779297</ele>
        <time>2015-11-04T15:26:15Z</time>
      </trkpt>
      <trkpt lat="43.42672" lon="6.05236">
        <ele>293</ele>
        <time>2015-11-04T15:26:16Z</time>
      </trkpt>
      <trkpt lat="43.42662" lon="6.05244">
        <ele>292</ele>
        <time>2015-11-04T15:26:18Z</time>
      </trkpt>
      <trkpt lat="43.42658" lon="6.05248">
        <ele>291.79998779297</ele>
        <time>2015-11-04T15:26:19Z</time>
      </trkpt>
      <trkpt lat="43.4265" lon="6.05256">
        <ele>291.39999389648</ele>
        <time>2015-11-04T15:26:21Z</time>
      </trkpt>
      <trkpt lat="43.42645" lon="6.05258">
        <ele>291.39999389648</ele>
        <time>2015-11-04T15:26:22Z</time>
      </trkpt>
      <trkpt lat="43.42641" lon="6.05259">
        <ele>291</ele>
        <time>2015-11-04T15:26:23Z</time>
      </trkpt>
      <trkpt lat="43.42633" lon="6.0526">
        <ele>290.60000610352</ele>
        <time>2015-11-04T15:26:25Z</time>
      </trkpt>
      <trkpt lat="43.42625" lon="6.05258">
        <ele>290.20001220703</ele>
        <time>2015-11-04T15:26:27Z</time>
      </trkpt>
      <trkpt lat="43.42617" lon="6.05251">
        <ele>289.79998779297</ele>
        <time>2015-11-04T15:26:29Z</time>
      </trkpt>
      <trkpt lat="43.42608" lon="6.05244">
        <ele>288.39999389648</ele>
        <time>2015-11-04T15:26:31Z</time>
      </trkpt>
      <trkpt lat="43.42604" lon="6.0524">
        <ele>288</ele>
        <time>2015-11-04T15:26:32Z</time>
      </trkpt>
      <trkpt lat="43.42599" lon="6.05236">
        <ele>287.60000610352</ele>
        <time>2015-11-04T15:26:33Z</time>
      </trkpt>
      <trkpt lat="43.42589" lon="6.05226">
        <ele>287.39999389648</ele>
        <time>2015-11-04T15:26:35Z</time>
      </trkpt>
      <trkpt lat="43.42584" lon="6.05222">
        <ele>287.20001220703</ele>
        <time>2015-11-04T15:26:36Z</time>
      </trkpt>
      <trkpt lat="43.42574" lon="6.05217">
        <ele>287.20001220703</ele>
        <time>2015-11-04T15:26:38Z</time>
      </trkpt>
      <trkpt lat="43.42562" lon="6.05215">
        <ele>287.60000610352</ele>
        <time>2015-11-04T15:26:40Z</time>
      </trkpt>
      <trkpt lat="43.42551" lon="6.05219">
        <ele>287.79998779297</ele>
        <time>2015-11-04T15:26:42Z</time>
      </trkpt>
      <trkpt lat="43.42539" lon="6.05222">
        <ele>286.60000610352</ele>
        <time>2015-11-04T15:26:44Z</time>
      </trkpt>
      <trkpt lat="43.42534" lon="6.05223">
        <ele>285</ele>
        <time>2015-11-04T15:26:45Z</time>
      </trkpt>
      <trkpt lat="43.42529" lon="6.05223">
        <ele>284.60000610352</ele>
        <time>2015-11-04T15:26:46Z</time>
      </trkpt>
      <trkpt lat="43.42517" lon="6.05224">
        <ele>284.60000610352</ele>
        <time>2015-11-04T15:26:48Z</time>
      </trkpt>
      <trkpt lat="43.42511" lon="6.05223">
        <ele>284.60000610352</ele>
        <time>2015-11-04T15:26:49Z</time>
      </trkpt>
      <trkpt lat="43.42505" lon="6.05222">
        <ele>284.39999389648</ele>
        <time>2015-11-04T15:26:50Z</time>
      </trkpt>
      <trkpt lat="43.425" lon="6.05221">
        <ele>284.39999389648</ele>
        <time>2015-11-04T15:26:51Z</time>
      </trkpt>
      <trkpt lat="43.42495" lon="6.05218">
        <ele>284.20001220703</ele>
        <time>2015-11-04T15:26:52Z</time>
      </trkpt>
      <trkpt lat="43.42486" lon="6.05214">
        <ele>285</ele>
        <time>2015-11-04T15:26:54Z</time>
      </trkpt>
      <trkpt lat="43.42477" lon="6.05213">
        <ele>285.60000610352</ele>
        <time>2015-11-04T15:26:56Z</time>
      </trkpt>
      <trkpt lat="43.42472" lon="6.05213">
        <ele>285.60000610352</ele>
        <time>2015-11-04T15:26:57Z</time>
      </trkpt>
      <trkpt lat="43.42467" lon="6.05212">
        <ele>285.79998779297</ele>
        <time>2015-11-04T15:26:58Z</time>
      </trkpt>
      <trkpt lat="43.42462" lon="6.05213">
        <ele>285.39999389648</ele>
        <time>2015-11-04T15:26:59Z</time>
      </trkpt>
      <trkpt lat="43.42456" lon="6.05216">
        <ele>285</ele>
        <time>2015-11-04T15:27:00Z</time>
      </trkpt>
      <trkpt lat="43.4245" lon="6.05219">
        <ele>283.60000610352</ele>
        <time>2015-11-04T15:27:01Z</time>
      </trkpt>
      <trkpt lat="43.42443" lon="6.05222">
        <ele>282</ele>
        <time>2015-11-04T15:27:02Z</time>
      </trkpt>
      <trkpt lat="43.42435" lon="6.05222">
        <ele>280.60000610352</ele>
        <time>2015-11-04T15:27:03Z</time>
      </trkpt>
      <trkpt lat="43.42428" lon="6.05222">
        <ele>280</ele>
        <time>2015-11-04T15:27:04Z</time>
      </trkpt>
      <trkpt lat="43.42421" lon="6.05221">
        <ele>280</ele>
        <time>2015-11-04T15:27:05Z</time>
      </trkpt>
      <trkpt lat="43.42414" lon="6.05221">
        <ele>280</ele>
        <time>2015-11-04T15:27:06Z</time>
      </trkpt>
      <trkpt lat="43.42407" lon="6.05221">
        <ele>280</ele>
        <time>2015-11-04T15:27:07Z</time>
      </trkpt>
      <trkpt lat="43.424" lon="6.05223">
        <ele>279.79998779297</ele>
        <time>2015-11-04T15:27:08Z</time>
      </trkpt>
      <trkpt lat="43.42385" lon="6.05226">
        <ele>279.20001220703</ele>
        <time>2015-11-04T15:27:10Z</time>
      </trkpt>
      <trkpt lat="43.42379" lon="6.05227">
        <ele>279</ele>
        <time>2015-11-04T15:27:11Z</time>
      </trkpt>
      <trkpt lat="43.42371" lon="6.05228">
        <ele>278.60000610352</ele>
        <time>2015-11-04T15:27:12Z</time>
      </trkpt>
      <trkpt lat="43.42364" lon="6.0523">
        <ele>278</ele>
        <time>2015-11-04T15:27:13Z</time>
      </trkpt>
      <trkpt lat="43.42357" lon="6.05232">
        <ele>277.39999389648</ele>
        <time>2015-11-04T15:27:14Z</time>
      </trkpt>
      <trkpt lat="43.4235" lon="6.05233">
        <ele>276.79998779297</ele>
        <time>2015-11-04T15:27:15Z</time>
      </trkpt>
      <trkpt lat="43.42342" lon="6.05232">
        <ele>276.39999389648</ele>
        <time>2015-11-04T15:27:16Z</time>
      </trkpt>
      <trkpt lat="43.42335" lon="6.05229">
        <ele>275.60000610352</ele>
        <time>2015-11-04T15:27:17Z</time>
      </trkpt>
      <trkpt lat="43.42327" lon="6.05227">
        <ele>274.79998779297</ele>
        <time>2015-11-04T15:27:18Z</time>
      </trkpt>
      <trkpt lat="43.42319" lon="6.05224">
        <ele>273.79998779297</ele>
        <time>2015-11-04T15:27:19Z</time>
      </trkpt>
      <trkpt lat="43.42311" lon="6.05223">
        <ele>273</ele>
        <time>2015-11-04T15:27:20Z</time>
      </trkpt>
      <trkpt lat="43.42303" lon="6.05221">
        <ele>272.39999389648</ele>
        <time>2015-11-04T15:27:21Z</time>
      </trkpt>
      <trkpt lat="43.42294" lon="6.05218">
        <ele>271.60000610352</ele>
        <time>2015-11-04T15:27:22Z</time>
      </trkpt>
      <trkpt lat="43.42286" lon="6.05216">
        <ele>271</ele>
        <time>2015-11-04T15:27:23Z</time>
      </trkpt>
      <trkpt lat="43.42278" lon="6.05214">
        <ele>270.60000610352</ele>
        <time>2015-11-04T15:27:24Z</time>
      </trkpt>
      <trkpt lat="43.4227" lon="6.05213">
        <ele>270.79998779297</ele>
        <time>2015-11-04T15:27:25Z</time>
      </trkpt>
      <trkpt lat="43.42262" lon="6.05213">
        <ele>270.60000610352</ele>
        <time>2015-11-04T15:27:26Z</time>
      </trkpt>
      <trkpt lat="43.42254" lon="6.05214">
        <ele>270.60000610352</ele>
        <time>2015-11-04T15:27:27Z</time>
      </trkpt>
      <trkpt lat="43.42245" lon="6.05213">
        <ele>270.20001220703</ele>
        <time>2015-11-04T15:27:28Z</time>
      </trkpt>
      <trkpt lat="43.42238" lon="6.05212">
        <ele>269.79998779297</ele>
        <time>2015-11-04T15:27:29Z</time>
      </trkpt>
      <trkpt lat="43.42233" lon="6.05208">
        <ele>269.79998779297</ele>
        <time>2015-11-04T15:27:30Z</time>
      </trkpt>
      <trkpt lat="43.42225" lon="6.05196">
        <ele>269.60000610352</ele>
        <time>2015-11-04T15:27:32Z</time>
      </trkpt>
      <trkpt lat="43.42221" lon="6.05191">
        <ele>269.39999389648</ele>
        <time>2015-11-04T15:27:33Z</time>
      </trkpt>
      <trkpt lat="43.42216" lon="6.05187">
        <ele>269.20001220703</ele>
        <time>2015-11-04T15:27:34Z</time>
      </trkpt>
      <trkpt lat="43.42204" lon="6.0518">
        <ele>268.79998779297</ele>
        <time>2015-11-04T15:27:36Z</time>
      </trkpt>
      <trkpt lat="43.42199" lon="6.05176">
        <ele>268</ele>
        <time>2015-11-04T15:27:37Z</time>
      </trkpt>
      <trkpt lat="43.42192" lon="6.05171">
        <ele>267.60000610352</ele>
        <time>2015-11-04T15:27:38Z</time>
      </trkpt>
      <trkpt lat="43.4218" lon="6.05163">
        <ele>266.79998779297</ele>
        <time>2015-11-04T15:27:40Z</time>
      </trkpt>
      <trkpt lat="43.42173" lon="6.0516">
        <ele>266.39999389648</ele>
        <time>2015-11-04T15:27:41Z</time>
      </trkpt>
      <trkpt lat="43.42167" lon="6.05156">
        <ele>266.39999389648</ele>
        <time>2015-11-04T15:27:42Z</time>
      </trkpt>
      <trkpt lat="43.4216" lon="6.05152">
        <ele>266.39999389648</ele>
        <time>2015-11-04T15:27:43Z</time>
      </trkpt>
      <trkpt lat="43.42155" lon="6.05147">
        <ele>266.60000610352</ele>
        <time>2015-11-04T15:27:44Z</time>
      </trkpt>
      <trkpt lat="43.42146" lon="6.05136">
        <ele>266.39999389648</ele>
        <time>2015-11-04T15:27:46Z</time>
      </trkpt>
      <trkpt lat="43.42139" lon="6.05127">
        <ele>267</ele>
        <time>2015-11-04T15:27:48Z</time>
      </trkpt>
      <trkpt lat="43.42138" lon="6.05123">
        <ele>267.20001220703</ele>
        <time>2015-11-04T15:27:49Z</time>
      </trkpt>
      <trkpt lat="43.42136" lon="6.05121">
        <ele>267.39999389648</ele>
        <time>2015-11-04T15:27:50Z</time>
      </trkpt>
      <trkpt lat="43.42136" lon="6.0512">
        <ele>267.39999389648</ele>
        <time>2015-11-04T15:27:51Z</time>
      </trkpt>
      <trkpt lat="43.42135" lon="6.05119">
        <ele>267.39999389648</ele>
        <time>2015-11-04T15:27:52Z</time>
      </trkpt>
      <trkpt lat="43.42135" lon="6.0512">
        <ele>267.39999389648</ele>
        <time>2015-11-04T15:27:53Z</time>
      </trkpt>
      <trkpt lat="43.42134" lon="6.05119">
        <ele>267.60000610352</ele>
        <time>2015-11-04T15:27:54Z</time>
      </trkpt>
      <trkpt lat="43.42134" lon="6.05119">
        <ele>267.39999389648</ele>
        <time>2015-11-04T15:28:00Z</time>
      </trkpt>
      <trkpt lat="43.42134" lon="6.05119">
        <ele>267.39999389648</ele>
        <time>2015-11-04T15:28:32Z</time>
      </trkpt>
      <trkpt lat="43.42135" lon="6.0512">
        <ele>267.20001220703</ele>
        <time>2015-11-04T15:28:33Z</time>
      </trkpt>
      <trkpt lat="43.42135" lon="6.0512">
        <ele>267.39999389648</ele>
        <time>2015-11-04T15:28:38Z</time>
      </trkpt>
      <trkpt lat="43.42135" lon="6.0512">
        <ele>267.60000610352</ele>
        <time>2015-11-04T15:28:48Z</time>
      </trkpt>
      <trkpt lat="43.42134" lon="6.0512">
        <ele>267.39999389648</ele>
        <time>2015-11-04T15:28:50Z</time>
      </trkpt>
      <trkpt lat="43.42135" lon="6.0512">
        <ele>267.20001220703</ele>
        <time>2015-11-04T15:28:52Z</time>
      </trkpt>
      <trkpt lat="43.42135" lon="6.0512">
        <ele>267.39999389648</ele>
        <time>2015-11-04T15:28:58Z</time>
      </trkpt>
      <trkpt lat="43.42135" lon="6.0512">
        <ele>267.60000610352</ele>
        <time>2015-11-04T15:29:28Z</time>
      </trkpt>
      <trkpt lat="43.42135" lon="6.05119">
        <ele>267.60000610352</ele>
        <time>2015-11-04T15:29:30Z</time>
      </trkpt>
      <trkpt lat="43.42135" lon="6.0512">
        <ele>267.20001220703</ele>
        <time>2015-11-04T15:29:32Z</time>
      </trkpt>
      <trkpt lat="43.42135" lon="6.0512">
        <ele>267.39999389648</ele>
        <time>2015-11-04T15:29:38Z</time>
      </trkpt>
      <trkpt lat="43.42135" lon="6.0512">
        <ele>267.39999389648</ele>
        <time>2015-11-04T15:29:52Z</time>
      </trkpt>
      <trkpt lat="43.42134" lon="6.05119">
        <ele>267.39999389648</ele>
        <time>2015-11-04T15:29:54Z</time>
      </trkpt>
      <trkpt lat="43.42134" lon="6.05119">
        <ele>267.39999389648</ele>
        <time>2015-11-04T15:29:56Z</time>
      </trkpt>
      <trkpt lat="43.42134" lon="6.05119">
        <ele>267.39999389648</ele>
        <time>2015-11-04T15:30:00Z</time>
      </trkpt>
      <trkpt lat="43.42132" lon="6.05119">
        <ele>267.39999389648</ele>
        <time>2015-11-04T15:30:02Z</time>
      </trkpt>
      <trkpt lat="43.42133" lon="6.05119">
        <ele>267.20001220703</ele>
        <time>2015-11-04T15:30:04Z</time>
      </trkpt>
      <trkpt lat="43.42133" lon="6.05119">
        <ele>267.20001220703</ele>
        <time>2015-11-04T15:30:06Z</time>
      </trkpt>
      <trkpt lat="43.42133" lon="6.05119">
        <ele>267.20001220703</ele>
        <time>2015-11-04T15:30:12Z</time>
      </trkpt>
      <trkpt lat="43.42133" lon="6.05119">
        <ele>267.60000610352</ele>
        <time>2015-11-04T15:30:26Z</time>
      </trkpt>
      <trkpt lat="43.42132" lon="6.05119">
        <ele>267.20001220703</ele>
        <time>2015-11-04T15:30:28Z</time>
      </trkpt>
      <trkpt lat="43.42126" lon="6.05117">
        <ele>267</ele>
        <time>2015-11-04T15:30:30Z</time>
      </trkpt>
      <trkpt lat="43.42119" lon="6.05115">
        <ele>266.60000610352</ele>
        <time>2015-11-04T15:30:32Z</time>
      </trkpt>
      <trkpt lat="43.42114" lon="6.05115">
        <ele>266.20001220703</ele>
        <time>2015-11-04T15:30:33Z</time>
      </trkpt>
      <trkpt lat="43.42104" lon="6.05115">
        <ele>265.20001220703</ele>
        <time>2015-11-04T15:30:35Z</time>
      </trkpt>
      <trkpt lat="43.42099" lon="6.05115">
        <ele>264.39999389648</ele>
        <time>2015-11-04T15:30:36Z</time>
      </trkpt>
      <trkpt lat="43.42088" lon="6.05114">
        <ele>264</ele>
        <time>2015-11-04T15:30:38Z</time>
      </trkpt>
      <trkpt lat="43.42079" lon="6.05113">
        <ele>264</ele>
        <time>2015-11-04T15:30:40Z</time>
      </trkpt>
      <trkpt lat="43.42076" lon="6.05113">
        <ele>264.20001220703</ele>
        <time>2015-11-04T15:30:42Z</time>
      </trkpt>
      <trkpt lat="43.42076" lon="6.05113">
        <ele>264.20001220703</ele>
        <time>2015-11-04T15:30:43Z</time>
      </trkpt>
      <trkpt lat="43.42075" lon="6.05113">
        <ele>264.20001220703</ele>
        <time>2015-11-04T15:30:44Z</time>
      </trkpt>
      <trkpt lat="43.42075" lon="6.05114">
        <ele>264.20001220703</ele>
        <time>2015-11-04T15:30:46Z</time>
      </trkpt>
      <trkpt lat="43.42075" lon="6.05113">
        <ele>264</ele>
        <time>2015-11-04T15:30:48Z</time>
      </trkpt>
      <trkpt lat="43.42075" lon="6.05113">
        <ele>263.60000610352</ele>
        <time>2015-11-04T15:30:52Z</time>
      </trkpt>
      <trkpt lat="43.42075" lon="6.05113">
        <ele>263.60000610352</ele>
        <time>2015-11-04T15:31:22Z</time>
      </trkpt>
      <trkpt lat="43.42075" lon="6.05114">
        <ele>263.60000610352</ele>
        <time>2015-11-04T15:31:24Z</time>
      </trkpt>
      <trkpt lat="43.42075" lon="6.05114">
        <ele>263.60000610352</ele>
        <time>2015-11-04T15:31:30Z</time>
      </trkpt>
      <trkpt lat="43.42075" lon="6.05114">
        <ele>263.39999389648</ele>
        <time>2015-11-04T15:32:02Z</time>
      </trkpt>
      <trkpt lat="43.42075" lon="6.05113">
        <ele>263.39999389648</ele>
        <time>2015-11-04T15:32:04Z</time>
      </trkpt>
      <trkpt lat="43.42075" lon="6.05113">
        <ele>263.39999389648</ele>
        <time>2015-11-04T15:32:10Z</time>
      </trkpt>
      <trkpt lat="43.42075" lon="6.05113">
        <ele>263.60000610352</ele>
        <time>2015-11-04T15:32:42Z</time>
      </trkpt>
      <trkpt lat="43.42075" lon="6.05113">
        <ele>263.60000610352</ele>
        <time>2015-11-04T15:32:44Z</time>
      </trkpt>
      <trkpt lat="43.42075" lon="6.05113">
        <ele>263.60000610352</ele>
        <time>2015-11-04T15:32:50Z</time>
      </trkpt>
      <trkpt lat="43.42075" lon="6.05113">
        <ele>263.60000610352</ele>
        <time>2015-11-04T15:33:22Z</time>
      </trkpt>
      <trkpt lat="43.42075" lon="6.05113">
        <ele>263.39999389648</ele>
        <time>2015-11-04T15:33:24Z</time>
      </trkpt>
      <trkpt lat="43.42075" lon="6.05113">
        <ele>263.60000610352</ele>
        <time>2015-11-04T15:33:30Z</time>
      </trkpt>
      <trkpt lat="43.42075" lon="6.05113">
        <ele>263.60000610352</ele>
        <time>2015-11-04T15:34:02Z</time>
      </trkpt>
      <trkpt lat="43.42075" lon="6.05113">
        <ele>263.39999389648</ele>
        <time>2015-11-04T15:34:04Z</time>
      </trkpt>
      <trkpt lat="43.42075" lon="6.05113">
        <ele>263.39999389648</ele>
        <time>2015-11-04T15:34:10Z</time>
      </trkpt>
      <trkpt lat="43.42075" lon="6.05113">
        <ele>263.39999389648</ele>
        <time>2015-11-04T15:34:42Z</time>
      </trkpt>
      <trkpt lat="43.42075" lon="6.05113">
        <ele>263.60000610352</ele>
        <time>2015-11-04T15:34:44Z</time>
      </trkpt>
      <trkpt lat="43.42075" lon="6.05113">
        <ele>263.60000610352</ele>
        <time>2015-11-04T15:34:50Z</time>
      </trkpt>
      <trkpt lat="43.42075" lon="6.05113">
        <ele>263.39999389648</ele>
        <time>2015-11-04T15:35:22Z</time>
      </trkpt>
      <trkpt lat="43.42075" lon="6.05113">
        <ele>263.20001220703</ele>
        <time>2015-11-04T15:35:23Z</time>
      </trkpt>
      <trkpt lat="43.42075" lon="6.05113">
        <ele>263.60000610352</ele>
        <time>2015-11-04T15:35:28Z</time>
      </trkpt>
      <trkpt lat="43.42075" lon="6.05113">
        <ele>263.39999389648</ele>
        <time>2015-11-04T15:36:02Z</time>
      </trkpt>
      <trkpt lat="43.42075" lon="6.05113">
        <ele>263.39999389648</ele>
        <time>2015-11-04T15:36:04Z</time>
      </trkpt>
      <trkpt lat="43.42075" lon="6.05113">
        <ele>263.60000610352</ele>
        <time>2015-11-04T15:36:08Z</time>
      </trkpt>
      <trkpt lat="43.42075" lon="6.05113">
        <ele>263.39999389648</ele>
        <time>2015-11-04T15:36:42Z</time>
      </trkpt>
      <trkpt lat="43.42075" lon="6.05113">
        <ele>263.39999389648</ele>
        <time>2015-11-04T15:36:44Z</time>
      </trkpt>
      <trkpt lat="43.42075" lon="6.05113">
        <ele>263.39999389648</ele>
        <time>2015-11-04T15:36:50Z</time>
      </trkpt>
      <trkpt lat="43.42075" lon="6.05113">
        <ele>263.79998779297</ele>
        <time>2015-11-04T15:37:04Z</time>
      </trkpt>
      <trkpt lat="43.42075" lon="6.05113">
        <ele>263.79998779297</ele>
        <time>2015-11-04T15:37:06Z</time>
      </trkpt>
      <trkpt lat="43.42075" lon="6.05113">
        <ele>263.79998779297</ele>
        <time>2015-11-04T15:37:08Z</time>
      </trkpt>
      <trkpt lat="43.42075" lon="6.05113">
        <ele>263.60000610352</ele>
        <time>2015-11-04T15:37:12Z</time>
      </trkpt>
      <trkpt lat="43.42075" lon="6.05113">
        <ele>263.39999389648</ele>
        <time>2015-11-04T15:37:22Z</time>
      </trkpt>
      <trkpt lat="43.42075" lon="6.05113">
        <ele>263.39999389648</ele>
        <time>2015-11-04T15:37:24Z</time>
      </trkpt>
      <trkpt lat="43.42075" lon="6.05113">
        <ele>263.39999389648</ele>
        <time>2015-11-04T15:37:30Z</time>
      </trkpt>
      <trkpt lat="43.42075" lon="6.05113">
        <ele>263.39999389648</ele>
        <time>2015-11-04T15:38:02Z</time>
      </trkpt>
      <trkpt lat="43.42075" lon="6.05113">
        <ele>263.39999389648</ele>
        <time>2015-11-04T15:38:04Z</time>
      </trkpt>
      <trkpt lat="43.42075" lon="6.05113">
        <ele>263.39999389648</ele>
        <time>2015-11-04T15:38:10Z</time>
      </trkpt>
      <trkpt lat="43.42075" lon="6.05113">
        <ele>263.20001220703</ele>
        <time>2015-11-04T15:38:42Z</time>
      </trkpt>
      <trkpt lat="43.42075" lon="6.05112">
        <ele>263.39999389648</ele>
        <time>2015-11-04T15:38:44Z</time>
      </trkpt>
      <trkpt lat="43.42075" lon="6.05112">
        <ele>263.20001220703</ele>
        <time>2015-11-04T15:38:50Z</time>
      </trkpt>
      <trkpt lat="43.42075" lon="6.05112">
        <ele>263.20001220703</ele>
        <time>2015-11-04T15:39:30Z</time>
      </trkpt>
      <trkpt lat="43.42075" lon="6.05112">
        <ele>263.39999389648</ele>
        <time>2015-11-04T15:40:02Z</time>
      </trkpt>
      <trkpt lat="43.42075" lon="6.05113">
        <ele>263.39999389648</ele>
        <time>2015-11-04T15:40:04Z</time>
      </trkpt>
      <trkpt lat="43.42075" lon="6.05113">
        <ele>263.39999389648</ele>
        <time>2015-11-04T15:40:10Z</time>
      </trkpt>
      <trkpt lat="43.42075" lon="6.05113">
        <ele>263.20001220703</ele>
        <time>2015-11-04T15:40:42Z</time>
      </trkpt>
      <trkpt lat="43.42075" lon="6.05112">
        <ele>263.20001220703</ele>
        <time>2015-11-04T15:40:43Z</time>
      </trkpt>
      <trkpt lat="43.42075" lon="6.05112">
        <ele>263.20001220703</ele>
        <time>2015-11-04T15:40:48Z</time>
      </trkpt>
      <trkpt lat="43.42075" lon="6.05112">
        <ele>263.20001220703</ele>
        <time>2015-11-04T15:41:30Z</time>
      </trkpt>
      <trkpt lat="43.42075" lon="6.05112">
        <ele>263</ele>
        <time>2015-11-04T15:42:02Z</time>
      </trkpt>
      <trkpt lat="43.42075" lon="6.05112">
        <ele>263.20001220703</ele>
        <time>2015-11-04T15:42:04Z</time>
      </trkpt>
      <trkpt lat="43.42075" lon="6.05112">
        <ele>263.20001220703</ele>
        <time>2015-11-04T15:42:08Z</time>
      </trkpt>
      <trkpt lat="43.42075" lon="6.05112">
        <ele>263</ele>
        <time>2015-11-04T15:42:42Z</time>
      </trkpt>
      <trkpt lat="43.42075" lon="6.05112">
        <ele>263</ele>
        <time>2015-11-04T15:42:44Z</time>
      </trkpt>
      <trkpt lat="43.42075" lon="6.05112">
        <ele>262.60000610352</ele>
        <time>2015-11-04T15:42:49Z</time>
      </trkpt>
      <trkpt lat="43.42075" lon="6.05112">
        <ele>263.20001220703</ele>
        <time>2015-11-04T15:43:52Z</time>
      </trkpt>
      <trkpt lat="43.42075" lon="6.05112">
        <ele>263.39999389648</ele>
        <time>2015-11-04T15:43:54Z</time>
      </trkpt>
      <trkpt lat="43.42074" lon="6.05112">
        <ele>263.60000610352</ele>
        <time>2015-11-04T15:43:56Z</time>
      </trkpt>
      <trkpt lat="43.42074" lon="6.05112">
        <ele>263.79998779297</ele>
        <time>2015-11-04T15:43:58Z</time>
      </trkpt>
      <trkpt lat="43.42073" lon="6.05111">
        <ele>263.60000610352</ele>
        <time>2015-11-04T15:44:00Z</time>
      </trkpt>
      <trkpt lat="43.42073" lon="6.05111">
        <ele>263.79998779297</ele>
        <time>2015-11-04T15:44:06Z</time>
      </trkpt>
      <trkpt lat="43.42073" lon="6.05111">
        <ele>263.79998779297</ele>
        <time>2015-11-04T15:44:08Z</time>
      </trkpt>
      <trkpt lat="43.42073" lon="6.05111">
        <ele>263.60000610352</ele>
        <time>2015-11-04T15:44:10Z</time>
      </trkpt>
      <trkpt lat="43.42073" lon="6.05112">
        <ele>263.60000610352</ele>
        <time>2015-11-04T15:44:12Z</time>
      </trkpt>
      <trkpt lat="43.4207" lon="6.05112">
        <ele>263.39999389648</ele>
        <time>2015-11-04T15:44:14Z</time>
      </trkpt>
      <trkpt lat="43.42066" lon="6.05112">
        <ele>263.39999389648</ele>
        <time>2015-11-04T15:44:16Z</time>
      </trkpt>
      <trkpt lat="43.42061" lon="6.05113">
        <ele>263.20001220703</ele>
        <time>2015-11-04T15:44:18Z</time>
      </trkpt>
      <trkpt lat="43.42057" lon="6.05113">
        <ele>263</ele>
        <time>2015-11-04T15:44:20Z</time>
      </trkpt>
      <trkpt lat="43.42055" lon="6.05114">
        <ele>263</ele>
        <time>2015-11-04T15:44:22Z</time>
      </trkpt>
      <trkpt lat="43.42055" lon="6.05114">
        <ele>262.79998779297</ele>
        <time>2015-11-04T15:44:24Z</time>
      </trkpt>
      <trkpt lat="43.42055" lon="6.05114">
        <ele>262.79998779297</ele>
        <time>2015-11-04T15:44:26Z</time>
      </trkpt>
      <trkpt lat="43.42054" lon="6.05114">
        <ele>262.79998779297</ele>
        <time>2015-11-04T15:44:28Z</time>
      </trkpt>
      <trkpt lat="43.42055" lon="6.05114">
        <ele>262.79998779297</ele>
        <time>2015-11-04T15:44:30Z</time>
      </trkpt>
      <trkpt lat="43.42055" lon="6.05113">
        <ele>262.60000610352</ele>
        <time>2015-11-04T15:44:32Z</time>
      </trkpt>
      <trkpt lat="43.42055" lon="6.05114">
        <ele>262.60000610352</ele>
        <time>2015-11-04T15:44:34Z</time>
      </trkpt>
      <trkpt lat="43.42055" lon="6.05114">
        <ele>262.79998779297</ele>
        <time>2015-11-04T15:44:40Z</time>
      </trkpt>
      <trkpt lat="43.42055" lon="6.05114">
        <ele>262.60000610352</ele>
        <time>2015-11-04T15:45:02Z</time>
      </trkpt>
      <trkpt lat="43.42055" lon="6.05114">
        <ele>262.60000610352</ele>
        <time>2015-11-04T15:45:04Z</time>
      </trkpt>
      <trkpt lat="43.42055" lon="6.05114">
        <ele>262.79998779297</ele>
        <time>2015-11-04T15:45:10Z</time>
      </trkpt>
      <trkpt lat="43.42055" lon="6.05114">
        <ele>262.60000610352</ele>
        <time>2015-11-04T15:45:20Z</time>
      </trkpt>
      <trkpt lat="43.42054" lon="6.05115">
        <ele>262.60000610352</ele>
        <time>2015-11-04T15:45:22Z</time>
      </trkpt>
      <trkpt lat="43.4205" lon="6.05116">
        <ele>262.39999389648</ele>
        <time>2015-11-04T15:45:24Z</time>
      </trkpt>
      <trkpt lat="43.42046" lon="6.05117">
        <ele>262.20001220703</ele>
        <time>2015-11-04T15:45:26Z</time>
      </trkpt>
      <trkpt lat="43.42041" lon="6.05119">
        <ele>261.79998779297</ele>
        <time>2015-11-04T15:45:28Z</time>
      </trkpt>
      <trkpt lat="43.42039" lon="6.05119">
        <ele>261.60000610352</ele>
        <time>2015-11-04T15:45:29Z</time>
      </trkpt>
      <trkpt lat="43.42036" lon="6.05119">
        <ele>261.39999389648</ele>
        <time>2015-11-04T15:45:30Z</time>
      </trkpt>
      <trkpt lat="43.4203" lon="6.05121">
        <ele>261.20001220703</ele>
        <time>2015-11-04T15:45:32Z</time>
      </trkpt>
      <trkpt lat="43.42023" lon="6.05122">
        <ele>261</ele>
        <time>2015-11-04T15:45:34Z</time>
      </trkpt>
      <trkpt lat="43.4202" lon="6.05123">
        <ele>261</ele>
        <time>2015-11-04T15:45:35Z</time>
      </trkpt>
      <trkpt lat="43.42017" lon="6.05125">
        <ele>261.20001220703</ele>
        <time>2015-11-04T15:45:36Z</time>
      </trkpt>
      <trkpt lat="43.42011" lon="6.05126">
        <ele>261.39999389648</ele>
        <time>2015-11-04T15:45:38Z</time>
      </trkpt>
      <trkpt lat="43.42005" lon="6.05127">
        <ele>261</ele>
        <time>2015-11-04T15:45:40Z</time>
      </trkpt>
      <trkpt lat="43.42002" lon="6.05127">
        <ele>261.20001220703</ele>
        <time>2015-11-04T15:45:42Z</time>
      </trkpt>
      <trkpt lat="43.41999" lon="6.05129">
        <ele>261</ele>
        <time>2015-11-04T15:45:44Z</time>
      </trkpt>
      <trkpt lat="43.41999" lon="6.05129">
        <ele>261</ele>
        <time>2015-11-04T15:45:46Z</time>
      </trkpt>
      <trkpt lat="43.41999" lon="6.05129">
        <ele>260.79998779297</ele>
        <time>2015-11-04T15:45:52Z</time>
      </trkpt>
      <trkpt lat="43.41999" lon="6.05129">
        <ele>260.79998779297</ele>
        <time>2015-11-04T15:46:24Z</time>
      </trkpt>
      <trkpt lat="43.41999" lon="6.05129">
        <ele>260.79998779297</ele>
        <time>2015-11-04T15:46:26Z</time>
      </trkpt>
      <trkpt lat="43.41998" lon="6.05129">
        <ele>260.60000610352</ele>
        <time>2015-11-04T15:46:28Z</time>
      </trkpt>
      <trkpt lat="43.41996" lon="6.0513">
        <ele>260.60000610352</ele>
        <time>2015-11-04T15:46:29Z</time>
      </trkpt>
      <trkpt lat="43.4199" lon="6.05131">
        <ele>260.39999389648</ele>
        <time>2015-11-04T15:46:31Z</time>
      </trkpt>
      <trkpt lat="43.41986" lon="6.05131">
        <ele>260.20001220703</ele>
        <time>2015-11-04T15:46:32Z</time>
      </trkpt>
      <trkpt lat="43.41982" lon="6.05132">
        <ele>260.20001220703</ele>
        <time>2015-11-04T15:46:33Z</time>
      </trkpt>
      <trkpt lat="43.41978" lon="6.05134">
        <ele>260</ele>
        <time>2015-11-04T15:46:34Z</time>
      </trkpt>
      <trkpt lat="43.4197" lon="6.05136">
        <ele>259.39999389648</ele>
        <time>2015-11-04T15:46:36Z</time>
      </trkpt>
      <trkpt lat="43.41965" lon="6.05138">
        <ele>259.20001220703</ele>
        <time>2015-11-04T15:46:37Z</time>
      </trkpt>
      <trkpt lat="43.41961" lon="6.0514">
        <ele>259</ele>
        <time>2015-11-04T15:46:38Z</time>
      </trkpt>
      <trkpt lat="43.41956" lon="6.05142">
        <ele>258.60000610352</ele>
        <time>2015-11-04T15:46:39Z</time>
      </trkpt>
      <trkpt lat="43.41951" lon="6.05144">
        <ele>258.39999389648</ele>
        <time>2015-11-04T15:46:40Z</time>
      </trkpt>
      <trkpt lat="43.41946" lon="6.05148">
        <ele>258.20001220703</ele>
        <time>2015-11-04T15:46:41Z</time>
      </trkpt>
      <trkpt lat="43.41938" lon="6.05152">
        <ele>257.60000610352</ele>
        <time>2015-11-04T15:46:43Z</time>
      </trkpt>
      <trkpt lat="43.41933" lon="6.05154">
        <ele>257.20001220703</ele>
        <time>2015-11-04T15:46:44Z</time>
      </trkpt>
      <trkpt lat="43.41928" lon="6.05155">
        <ele>256.60000610352</ele>
        <time>2015-11-04T15:46:45Z</time>
      </trkpt>
      <trkpt lat="43.41924" lon="6.05157">
        <ele>256.39999389648</ele>
        <time>2015-11-04T15:46:46Z</time>
      </trkpt>
      <trkpt lat="43.41913" lon="6.05161">
        <ele>256</ele>
        <time>2015-11-04T15:46:48Z</time>
      </trkpt>
      <trkpt lat="43.41903" lon="6.05165">
        <ele>255.39999389648</ele>
        <time>2015-11-04T15:46:50Z</time>
      </trkpt>
      <trkpt lat="43.41894" lon="6.05169">
        <ele>254.80000305176</ele>
        <time>2015-11-04T15:46:52Z</time>
      </trkpt>
      <trkpt lat="43.41883" lon="6.05175">
        <ele>254.19999694824</ele>
        <time>2015-11-04T15:46:54Z</time>
      </trkpt>
      <trkpt lat="43.41875" lon="6.05177">
        <ele>253.80000305176</ele>
        <time>2015-11-04T15:46:55Z</time>
      </trkpt>
      <trkpt lat="43.41867" lon="6.05178">
        <ele>253.39999389648</ele>
        <time>2015-11-04T15:46:56Z</time>
      </trkpt>
      <trkpt lat="43.41859" lon="6.0518">
        <ele>252.80000305176</ele>
        <time>2015-11-04T15:46:57Z</time>
      </trkpt>
      <trkpt lat="43.41851" lon="6.0518">
        <ele>252.19999694824</ele>
        <time>2015-11-04T15:46:58Z</time>
      </trkpt>
      <trkpt lat="43.41842" lon="6.05181">
        <ele>251.39999389648</ele>
        <time>2015-11-04T15:46:59Z</time>
      </trkpt>
      <trkpt lat="43.41825" lon="6.05181">
        <ele>250.60000610352</ele>
        <time>2015-11-04T15:47:01Z</time>
      </trkpt>
      <trkpt lat="43.41818" lon="6.05181">
        <ele>250.19999694824</ele>
        <time>2015-11-04T15:47:02Z</time>
      </trkpt>
      <trkpt lat="43.41803" lon="6.0518">
        <ele>249.39999389648</ele>
        <time>2015-11-04T15:47:04Z</time>
      </trkpt>
      <trkpt lat="43.41788" lon="6.05179">
        <ele>248.80000305176</ele>
        <time>2015-11-04T15:47:06Z</time>
      </trkpt>
      <trkpt lat="43.41774" lon="6.05178">
        <ele>248.19999694824</ele>
        <time>2015-11-04T15:47:08Z</time>
      </trkpt>
      <trkpt lat="43.41768" lon="6.05177">
        <ele>247.60000610352</ele>
        <time>2015-11-04T15:47:09Z</time>
      </trkpt>
      <trkpt lat="43.41762" lon="6.05177">
        <ele>247.39999389648</ele>
        <time>2015-11-04T15:47:10Z</time>
      </trkpt>
      <trkpt lat="43.41742" lon="6.05172">
        <ele>247.39999389648</ele>
        <time>2015-11-04T15:47:14Z</time>
      </trkpt>
      <trkpt lat="43.41737" lon="6.05162">
        <ele>247</ele>
        <time>2015-11-04T15:47:16Z</time>
      </trkpt>
      <trkpt lat="43.41736" lon="6.05157">
        <ele>246.80000305176</ele>
        <time>2015-11-04T15:47:17Z</time>
      </trkpt>
      <trkpt lat="43.41736" lon="6.05151">
        <ele>246.39999389648</ele>
        <time>2015-11-04T15:47:18Z</time>
      </trkpt>
      <trkpt lat="43.41737" lon="6.05138">
        <ele>246.19999694824</ele>
        <time>2015-11-04T15:47:20Z</time>
      </trkpt>
      <trkpt lat="43.41737" lon="6.05126">
        <ele>246</ele>
        <time>2015-11-04T15:47:22Z</time>
      </trkpt>
      <trkpt lat="43.41737" lon="6.05114">
        <ele>245.80000305176</ele>
        <time>2015-11-04T15:47:24Z</time>
      </trkpt>
      <trkpt lat="43.41735" lon="6.05108">
        <ele>245.80000305176</ele>
        <time>2015-11-04T15:47:25Z</time>
      </trkpt>
      <trkpt lat="43.41732" lon="6.05104">
        <ele>245.60000610352</ele>
        <time>2015-11-04T15:47:26Z</time>
      </trkpt>
      <trkpt lat="43.41727" lon="6.05105">
        <ele>245.39999389648</ele>
        <time>2015-11-04T15:47:27Z</time>
      </trkpt>
      <trkpt lat="43.41722" lon="6.05108">
        <ele>244.80000305176</ele>
        <time>2015-11-04T15:47:28Z</time>
      </trkpt>
      <trkpt lat="43.41711" lon="6.05116">
        <ele>243.60000610352</ele>
        <time>2015-11-04T15:47:30Z</time>
      </trkpt>
      <trkpt lat="43.417" lon="6.05124">
        <ele>243</ele>
        <time>2015-11-04T15:47:32Z</time>
      </trkpt>
      <trkpt lat="43.41689" lon="6.05134">
        <ele>241.80000305176</ele>
        <time>2015-11-04T15:47:34Z</time>
      </trkpt>
      <trkpt lat="43.41684" lon="6.0514">
        <ele>241.39999389648</ele>
        <time>2015-11-04T15:47:35Z</time>
      </trkpt>
      <trkpt lat="43.41679" lon="6.05147">
        <ele>241.19999694824</ele>
        <time>2015-11-04T15:47:36Z</time>
      </trkpt>
      <trkpt lat="43.41669" lon="6.05161">
        <ele>240.60000610352</ele>
        <time>2015-11-04T15:47:38Z</time>
      </trkpt>
      <trkpt lat="43.41662" lon="6.05165">
        <ele>240.19999694824</ele>
        <time>2015-11-04T15:47:39Z</time>
      </trkpt>
      <trkpt lat="43.41655" lon="6.05166">
        <ele>239.60000610352</ele>
        <time>2015-11-04T15:47:40Z</time>
      </trkpt>
      <trkpt lat="43.41647" lon="6.05165">
        <ele>239</ele>
        <time>2015-11-04T15:47:41Z</time>
      </trkpt>
      <trkpt lat="43.41639" lon="6.05165">
        <ele>238.19999694824</ele>
        <time>2015-11-04T15:47:42Z</time>
      </trkpt>
      <trkpt lat="43.41632" lon="6.05164">
        <ele>237.60000610352</ele>
        <time>2015-11-04T15:47:43Z</time>
      </trkpt>
      <trkpt lat="43.41624" lon="6.05163">
        <ele>237.19999694824</ele>
        <time>2015-11-04T15:47:44Z</time>
      </trkpt>
      <trkpt lat="43.4161" lon="6.05161">
        <ele>237</ele>
        <time>2015-11-04T15:47:46Z</time>
      </trkpt>
      <trkpt lat="43.41604" lon="6.05161">
        <ele>236.60000610352</ele>
        <time>2015-11-04T15:47:47Z</time>
      </trkpt>
      <trkpt lat="43.41599" lon="6.0516">
        <ele>236.60000610352</ele>
        <time>2015-11-04T15:47:48Z</time>
      </trkpt>
      <trkpt lat="43.41594" lon="6.05159">
        <ele>236.39999389648</ele>
        <time>2015-11-04T15:47:49Z</time>
      </trkpt>
      <trkpt lat="43.4159" lon="6.05159">
        <ele>236.19999694824</ele>
        <time>2015-11-04T15:47:50Z</time>
      </trkpt>
      <trkpt lat="43.41581" lon="6.05157">
        <ele>235.39999389648</ele>
        <time>2015-11-04T15:47:52Z</time>
      </trkpt>
      <trkpt lat="43.41571" lon="6.05155">
        <ele>234.80000305176</ele>
        <time>2015-11-04T15:47:54Z</time>
      </trkpt>
      <trkpt lat="43.41559" lon="6.05153">
        <ele>233.60000610352</ele>
        <time>2015-11-04T15:47:56Z</time>
      </trkpt>
      <trkpt lat="43.41552" lon="6.05152">
        <ele>232.80000305176</ele>
        <time>2015-11-04T15:47:57Z</time>
      </trkpt>
      <trkpt lat="43.41545" lon="6.05152">
        <ele>232.19999694824</ele>
        <time>2015-11-04T15:47:58Z</time>
      </trkpt>
      <trkpt lat="43.41537" lon="6.05152">
        <ele>231.60000610352</ele>
        <time>2015-11-04T15:47:59Z</time>
      </trkpt>
      <trkpt lat="43.4153" lon="6.05153">
        <ele>230.39999389648</ele>
        <time>2015-11-04T15:48:00Z</time>
      </trkpt>
      <trkpt lat="43.41515" lon="6.05156">
        <ele>230</ele>
        <time>2015-11-04T15:48:02Z</time>
      </trkpt>
      <trkpt lat="43.41504" lon="6.05159">
        <ele>230.39999389648</ele>
        <time>2015-11-04T15:48:04Z</time>
      </trkpt>
      <trkpt lat="43.415" lon="6.05161">
        <ele>230.39999389648</ele>
        <time>2015-11-04T15:48:05Z</time>
      </trkpt>
      <trkpt lat="43.41497" lon="6.05163">
        <ele>230.60000610352</ele>
        <time>2015-11-04T15:48:06Z</time>
      </trkpt>
      <trkpt lat="43.41492" lon="6.05169">
        <ele>230.80000305176</ele>
        <time>2015-11-04T15:48:08Z</time>
      </trkpt>
      <trkpt lat="43.41496" lon="6.05178">
        <ele>230.39999389648</ele>
        <time>2015-11-04T15:48:10Z</time>
      </trkpt>
      <trkpt lat="43.415" lon="6.05187">
        <ele>230</ele>
        <time>2015-11-04T15:48:12Z</time>
      </trkpt>
      <trkpt lat="43.41504" lon="6.05198">
        <ele>230.19999694824</ele>
        <time>2015-11-04T15:48:14Z</time>
      </trkpt>
      <trkpt lat="43.41509" lon="6.05209">
        <ele>230.19999694824</ele>
        <time>2015-11-04T15:48:16Z</time>
      </trkpt>
      <trkpt lat="43.41512" lon="6.05214">
        <ele>230.39999389648</ele>
        <time>2015-11-04T15:48:17Z</time>
      </trkpt>
      <trkpt lat="43.4152" lon="6.0523">
        <ele>230.80000305176</ele>
        <time>2015-11-04T15:48:20Z</time>
      </trkpt>
      <trkpt lat="43.41525" lon="6.05242">
        <ele>230.80000305176</ele>
        <time>2015-11-04T15:48:22Z</time>
      </trkpt>
      <trkpt lat="43.4153" lon="6.05254">
        <ele>231.19999694824</ele>
        <time>2015-11-04T15:48:24Z</time>
      </trkpt>
      <trkpt lat="43.41532" lon="6.05259">
        <ele>231.60000610352</ele>
        <time>2015-11-04T15:48:25Z</time>
      </trkpt>
      <trkpt lat="43.41534" lon="6.05265">
        <ele>231.80000305176</ele>
        <time>2015-11-04T15:48:26Z</time>
      </trkpt>
      <trkpt lat="43.41537" lon="6.05276">
        <ele>232.19999694824</ele>
        <time>2015-11-04T15:48:28Z</time>
      </trkpt>
      <trkpt lat="43.41541" lon="6.05288">
        <ele>232.19999694824</ele>
        <time>2015-11-04T15:48:30Z</time>
      </trkpt>
      <trkpt lat="43.41545" lon="6.05301">
        <ele>232.60000610352</ele>
        <time>2015-11-04T15:48:32Z</time>
      </trkpt>
      <trkpt lat="43.41548" lon="6.05314">
        <ele>232.60000610352</ele>
        <time>2015-11-04T15:48:34Z</time>
      </trkpt>
      <trkpt lat="43.4155" lon="6.0532">
        <ele>232.80000305176</ele>
        <time>2015-11-04T15:48:35Z</time>
      </trkpt>
      <trkpt lat="43.41552" lon="6.05326">
        <ele>233</ele>
        <time>2015-11-04T15:48:36Z</time>
      </trkpt>
      <trkpt lat="43.41556" lon="6.05337">
        <ele>233.19999694824</ele>
        <time>2015-11-04T15:48:38Z</time>
      </trkpt>
      <trkpt lat="43.4156" lon="6.05347">
        <ele>233.19999694824</ele>
        <time>2015-11-04T15:48:40Z</time>
      </trkpt>
      <trkpt lat="43.41564" lon="6.05356">
        <ele>233.60000610352</ele>
        <time>2015-11-04T15:48:42Z</time>
      </trkpt>
      <trkpt lat="43.41568" lon="6.05366">
        <ele>233.80000305176</ele>
        <time>2015-11-04T15:48:44Z</time>
      </trkpt>
      <trkpt lat="43.41572" lon="6.05376">
        <ele>234</ele>
        <time>2015-11-04T15:48:46Z</time>
      </trkpt>
      <trkpt lat="43.41576" lon="6.05386">
        <ele>233.80000305176</ele>
        <time>2015-11-04T15:48:48Z</time>
      </trkpt>
      <trkpt lat="43.4158" lon="6.05397">
        <ele>233.80000305176</ele>
        <time>2015-11-04T15:48:50Z</time>
      </trkpt>
      <trkpt lat="43.41583" lon="6.05407">
        <ele>234.19999694824</ele>
        <time>2015-11-04T15:48:52Z</time>
      </trkpt>
      <trkpt lat="43.41586" lon="6.05417">
        <ele>234.39999389648</ele>
        <time>2015-11-04T15:48:54Z</time>
      </trkpt>
      <trkpt lat="43.41588" lon="6.05422">
        <ele>234.39999389648</ele>
        <time>2015-11-04T15:48:55Z</time>
      </trkpt>
      <trkpt lat="43.41593" lon="6.05439">
        <ele>234.19999694824</ele>
        <time>2015-11-04T15:48:58Z</time>
      </trkpt>
      <trkpt lat="43.41596" lon="6.0545">
        <ele>234.19999694824</ele>
        <time>2015-11-04T15:49:00Z</time>
      </trkpt>
      <trkpt lat="43.41603" lon="6.05471">
        <ele>234.39999389648</ele>
        <time>2015-11-04T15:49:04Z</time>
      </trkpt>
      <trkpt lat="43.41608" lon="6.05493">
        <ele>234.19999694824</ele>
        <time>2015-11-04T15:49:08Z</time>
      </trkpt>
      <trkpt lat="43.41613" lon="6.05513">
        <ele>234.80000305176</ele>
        <time>2015-11-04T15:49:12Z</time>
      </trkpt>
      <trkpt lat="43.41616" lon="6.05523">
        <ele>235</ele>
        <time>2015-11-04T15:49:14Z</time>
      </trkpt>
      <trkpt lat="43.41618" lon="6.05528">
        <ele>234.80000305176</ele>
        <time>2015-11-04T15:49:15Z</time>
      </trkpt>
      <trkpt lat="43.41619" lon="6.05533">
        <ele>235</ele>
        <time>2015-11-04T15:49:16Z</time>
      </trkpt>
      <trkpt lat="43.41623" lon="6.05542">
        <ele>234.60000610352</ele>
        <time>2015-11-04T15:49:18Z</time>
      </trkpt>
      <trkpt lat="43.41628" lon="6.05564">
        <ele>234.39999389648</ele>
        <time>2015-11-04T15:49:22Z</time>
      </trkpt>
      <trkpt lat="43.41631" lon="6.05574">
        <ele>234.80000305176</ele>
        <time>2015-11-04T15:49:24Z</time>
      </trkpt>
      <trkpt lat="43.41632" lon="6.05584">
        <ele>234.80000305176</ele>
        <time>2015-11-04T15:49:26Z</time>
      </trkpt>
      <trkpt lat="43.41634" lon="6.05595">
        <ele>235</ele>
        <time>2015-11-04T15:49:28Z</time>
      </trkpt>
      <trkpt lat="43.41636" lon="6.05615">
        <ele>235</ele>
        <time>2015-11-04T15:49:32Z</time>
      </trkpt>
      <trkpt lat="43.41638" lon="6.05625">
        <ele>235.39999389648</ele>
        <time>2015-11-04T15:49:34Z</time>
      </trkpt>
      <trkpt lat="43.41639" lon="6.05635">
        <ele>235.39999389648</ele>
        <time>2015-11-04T15:49:36Z</time>
      </trkpt>
      <trkpt lat="43.41639" lon="6.05644">
        <ele>235.39999389648</ele>
        <time>2015-11-04T15:49:38Z</time>
      </trkpt>
      <trkpt lat="43.4164" lon="6.05652">
        <ele>235.39999389648</ele>
        <time>2015-11-04T15:49:40Z</time>
      </trkpt>
      <trkpt lat="43.41642" lon="6.05662">
        <ele>235.60000610352</ele>
        <time>2015-11-04T15:49:42Z</time>
      </trkpt>
      <trkpt lat="43.41643" lon="6.05671">
        <ele>235.80000305176</ele>
        <time>2015-11-04T15:49:44Z</time>
      </trkpt>
      <trkpt lat="43.41645" lon="6.05694">
        <ele>236</ele>
        <time>2015-11-04T15:49:49Z</time>
      </trkpt>
      <trkpt lat="43.41645" lon="6.05708">
        <ele>236.19999694824</ele>
        <time>2015-11-04T15:49:52Z</time>
      </trkpt>
      <trkpt lat="43.41646" lon="6.05713">
        <ele>236.19999694824</ele>
        <time>2015-11-04T15:49:53Z</time>
      </trkpt>
      <trkpt lat="43.41645" lon="6.05726">
        <ele>236.19999694824</ele>
        <time>2015-11-04T15:49:56Z</time>
      </trkpt>
      <trkpt lat="43.41646" lon="6.05735">
        <ele>236.39999389648</ele>
        <time>2015-11-04T15:49:58Z</time>
      </trkpt>
      <trkpt lat="43.41647" lon="6.05744">
        <ele>236.60000610352</ele>
        <time>2015-11-04T15:50:00Z</time>
      </trkpt>
      <trkpt lat="43.41647" lon="6.05754">
        <ele>236.19999694824</ele>
        <time>2015-11-04T15:50:02Z</time>
      </trkpt>
      <trkpt lat="43.41647" lon="6.05764">
        <ele>236.19999694824</ele>
        <time>2015-11-04T15:50:04Z</time>
      </trkpt>
      <trkpt lat="43.41647" lon="6.05773">
        <ele>236.19999694824</ele>
        <time>2015-11-04T15:50:06Z</time>
      </trkpt>
      <trkpt lat="43.41647" lon="6.05778">
        <ele>236.19999694824</ele>
        <time>2015-11-04T15:50:07Z</time>
      </trkpt>
      <trkpt lat="43.41647" lon="6.05782">
        <ele>236.19999694824</ele>
        <time>2015-11-04T15:50:08Z</time>
      </trkpt>
      <trkpt lat="43.41646" lon="6.05792">
        <ele>236.19999694824</ele>
        <time>2015-11-04T15:50:10Z</time>
      </trkpt>
      <trkpt lat="43.41646" lon="6.05801">
        <ele>236.19999694824</ele>
        <time>2015-11-04T15:50:12Z</time>
      </trkpt>
      <trkpt lat="43.41646" lon="6.05811">
        <ele>236.19999694824</ele>
        <time>2015-11-04T15:50:14Z</time>
      </trkpt>
      <trkpt lat="43.41645" lon="6.0582">
        <ele>236.39999389648</ele>
        <time>2015-11-04T15:50:16Z</time>
      </trkpt>
      <trkpt lat="43.41645" lon="6.05829">
        <ele>236.19999694824</ele>
        <time>2015-11-04T15:50:18Z</time>
      </trkpt>
      <trkpt lat="43.41644" lon="6.05839">
        <ele>236</ele>
        <time>2015-11-04T15:50:20Z</time>
      </trkpt>
      <trkpt lat="43.41644" lon="6.0585">
        <ele>235.60000610352</ele>
        <time>2015-11-04T15:50:22Z</time>
      </trkpt>
      <trkpt lat="43.41642" lon="6.05862">
        <ele>235.39999389648</ele>
        <time>2015-11-04T15:50:24Z</time>
      </trkpt>
      <trkpt lat="43.41641" lon="6.05876">
        <ele>235.19999694824</ele>
        <time>2015-11-04T15:50:26Z</time>
      </trkpt>
      <trkpt lat="43.4164" lon="6.0589">
        <ele>234.80000305176</ele>
        <time>2015-11-04T15:50:28Z</time>
      </trkpt>
      <trkpt lat="43.41638" lon="6.05905">
        <ele>234.80000305176</ele>
        <time>2015-11-04T15:50:30Z</time>
      </trkpt>
      <trkpt lat="43.41636" lon="6.05922">
        <ele>234.39999389648</ele>
        <time>2015-11-04T15:50:32Z</time>
      </trkpt>
      <trkpt lat="43.41634" lon="6.05938">
        <ele>233.80000305176</ele>
        <time>2015-11-04T15:50:34Z</time>
      </trkpt>
      <trkpt lat="43.41631" lon="6.05956">
        <ele>233.19999694824</ele>
        <time>2015-11-04T15:50:36Z</time>
      </trkpt>
      <trkpt lat="43.41629" lon="6.05965">
        <ele>232.80000305176</ele>
        <time>2015-11-04T15:50:37Z</time>
      </trkpt>
      <trkpt lat="43.41625" lon="6.05993">
        <ele>232</ele>
        <time>2015-11-04T15:50:40Z</time>
      </trkpt>
      <trkpt lat="43.41624" lon="6.06003">
        <ele>231.39999389648</ele>
        <time>2015-11-04T15:50:41Z</time>
      </trkpt>
      <trkpt lat="43.41623" lon="6.06013">
        <ele>230.80000305176</ele>
        <time>2015-11-04T15:50:42Z</time>
      </trkpt>
      <trkpt lat="43.41621" lon="6.06024">
        <ele>230.39999389648</ele>
        <time>2015-11-04T15:50:43Z</time>
      </trkpt>
      <trkpt lat="43.41619" lon="6.06034">
        <ele>230.19999694824</ele>
        <time>2015-11-04T15:50:44Z</time>
      </trkpt>
      <trkpt lat="43.41617" lon="6.06057">
        <ele>229.60000610352</ele>
        <time>2015-11-04T15:50:46Z</time>
      </trkpt>
      <trkpt lat="43.41616" lon="6.06068">
        <ele>229</ele>
        <time>2015-11-04T15:50:47Z</time>
      </trkpt>
      <trkpt lat="43.41616" lon="6.06079">
        <ele>228.39999389648</ele>
        <time>2015-11-04T15:50:48Z</time>
      </trkpt>
      <trkpt lat="43.41617" lon="6.0609">
        <ele>228.19999694824</ele>
        <time>2015-11-04T15:50:49Z</time>
      </trkpt>
      <trkpt lat="43.41618" lon="6.061">
        <ele>228.39999389648</ele>
        <time>2015-11-04T15:50:50Z</time>
      </trkpt>
      <trkpt lat="43.41623" lon="6.06115">
        <ele>228.80000305176</ele>
        <time>2015-11-04T15:50:52Z</time>
      </trkpt>
      <trkpt lat="43.41628" lon="6.06123">
        <ele>229.60000610352</ele>
        <time>2015-11-04T15:50:54Z</time>
      </trkpt>
      <trkpt lat="43.41628" lon="6.06125">
        <ele>230.19999694824</ele>
        <time>2015-11-04T15:50:55Z</time>
      </trkpt>
      <trkpt lat="43.41629" lon="6.06127">
        <ele>230.60000610352</ele>
        <time>2015-11-04T15:50:56Z</time>
      </trkpt>
      <trkpt lat="43.41629" lon="6.0613">
        <ele>231</ele>
        <time>2015-11-04T15:50:57Z</time>
      </trkpt>
      <trkpt lat="43.41628" lon="6.06132">
        <ele>231</ele>
        <time>2015-11-04T15:50:58Z</time>
      </trkpt>
      <trkpt lat="43.41625" lon="6.06138">
        <ele>231</ele>
        <time>2015-11-04T15:51:00Z</time>
      </trkpt>
      <trkpt lat="43.41624" lon="6.06142">
        <ele>230.80000305176</ele>
        <time>2015-11-04T15:51:01Z</time>
      </trkpt>
      <trkpt lat="43.4162" lon="6.06145">
        <ele>230.60000610352</ele>
        <time>2015-11-04T15:51:02Z</time>
      </trkpt>
      <trkpt lat="43.41613" lon="6.06154">
        <ele>230.19999694824</ele>
        <time>2015-11-04T15:51:04Z</time>
      </trkpt>
      <trkpt lat="43.41606" lon="6.06162">
        <ele>230</ele>
        <time>2015-11-04T15:51:06Z</time>
      </trkpt>
      <trkpt lat="43.41603" lon="6.06167">
        <ele>230</ele>
        <time>2015-11-04T15:51:07Z</time>
      </trkpt>
      <trkpt lat="43.41601" lon="6.06172">
        <ele>230.19999694824</ele>
        <time>2015-11-04T15:51:08Z</time>
      </trkpt>
      <trkpt lat="43.416" lon="6.06183">
        <ele>230.80000305176</ele>
        <time>2015-11-04T15:51:10Z</time>
      </trkpt>
      <trkpt lat="43.41601" lon="6.06193">
        <ele>231.19999694824</ele>
        <time>2015-11-04T15:51:12Z</time>
      </trkpt>
      <trkpt lat="43.41604" lon="6.06201">
        <ele>231.39999389648</ele>
        <time>2015-11-04T15:51:14Z</time>
      </trkpt>
      <trkpt lat="43.41608" lon="6.06209">
        <ele>231.60000610352</ele>
        <time>2015-11-04T15:51:16Z</time>
      </trkpt>
      <trkpt lat="43.41609" lon="6.06217">
        <ele>232.19999694824</ele>
        <time>2015-11-04T15:51:18Z</time>
      </trkpt>
      <trkpt lat="43.41609" lon="6.06221">
        <ele>232.39999389648</ele>
        <time>2015-11-04T15:51:19Z</time>
      </trkpt>
      <trkpt lat="43.41608" lon="6.06224">
        <ele>232.60000610352</ele>
        <time>2015-11-04T15:51:20Z</time>
      </trkpt>
      <trkpt lat="43.41607" lon="6.0623">
        <ele>232.80000305176</ele>
        <time>2015-11-04T15:51:22Z</time>
      </trkpt>
      <trkpt lat="43.41608" lon="6.06235">
        <ele>232.39999389648</ele>
        <time>2015-11-04T15:51:24Z</time>
      </trkpt>
      <trkpt lat="43.41608" lon="6.06238">
        <ele>232.39999389648</ele>
        <time>2015-11-04T15:51:25Z</time>
      </trkpt>
      <trkpt lat="43.41607" lon="6.06239">
        <ele>232.39999389648</ele>
        <time>2015-11-04T15:51:26Z</time>
      </trkpt>
      <trkpt lat="43.41607" lon="6.06241">
        <ele>232.19999694824</ele>
        <time>2015-11-04T15:51:28Z</time>
      </trkpt>
      <trkpt lat="43.41605" lon="6.06241">
        <ele>232.60000610352</ele>
        <time>2015-11-04T15:51:29Z</time>
      </trkpt>
      <trkpt lat="43.41605" lon="6.06243">
        <ele>232.60000610352</ele>
        <time>2015-11-04T15:51:30Z</time>
      </trkpt>
      <trkpt lat="43.41604" lon="6.06248">
        <ele>232.39999389648</ele>
        <time>2015-11-04T15:51:32Z</time>
      </trkpt>
      <trkpt lat="43.41604" lon="6.06252">
        <ele>232.39999389648</ele>
        <time>2015-11-04T15:51:34Z</time>
      </trkpt>
      <trkpt lat="43.41603" lon="6.06254">
        <ele>232.39999389648</ele>
        <time>2015-11-04T15:51:35Z</time>
      </trkpt>
      <trkpt lat="43.41603" lon="6.06257">
        <ele>232.60000610352</ele>
        <time>2015-11-04T15:51:37Z</time>
      </trkpt>
      <trkpt lat="43.41602" lon="6.06258">
        <ele>232.60000610352</ele>
        <time>2015-11-04T15:51:38Z</time>
      </trkpt>
      <trkpt lat="43.41601" lon="6.0626">
        <ele>232.39999389648</ele>
        <time>2015-11-04T15:51:40Z</time>
      </trkpt>
      <trkpt lat="43.41597" lon="6.06261">
        <ele>232.39999389648</ele>
        <time>2015-11-04T15:51:42Z</time>
      </trkpt>
      <trkpt lat="43.41591" lon="6.06267">
        <ele>232</ele>
        <time>2015-11-04T15:51:44Z</time>
      </trkpt>
      <trkpt lat="43.41585" lon="6.06275">
        <ele>231.60000610352</ele>
        <time>2015-11-04T15:51:46Z</time>
      </trkpt>
      <trkpt lat="43.41586" lon="6.06281">
        <ele>231.39999389648</ele>
        <time>2015-11-04T15:51:47Z</time>
      </trkpt>
      <trkpt lat="43.41586" lon="6.06286">
        <ele>230.80000305176</ele>
        <time>2015-11-04T15:51:48Z</time>
      </trkpt>
      <trkpt lat="43.41586" lon="6.06298">
        <ele>230.60000610352</ele>
        <time>2015-11-04T15:51:50Z</time>
      </trkpt>
      <trkpt lat="43.41585" lon="6.06305">
        <ele>230</ele>
        <time>2015-11-04T15:51:51Z</time>
      </trkpt>
      <trkpt lat="43.41584" lon="6.06312">
        <ele>229.80000305176</ele>
        <time>2015-11-04T15:51:52Z</time>
      </trkpt>
      <trkpt lat="43.41581" lon="6.06319">
        <ele>229.39999389648</ele>
        <time>2015-11-04T15:51:53Z</time>
      </trkpt>
      <trkpt lat="43.41577" lon="6.06326">
        <ele>229</ele>
        <time>2015-11-04T15:51:54Z</time>
      </trkpt>
      <trkpt lat="43.41573" lon="6.06332">
        <ele>228.60000610352</ele>
        <time>2015-11-04T15:51:55Z</time>
      </trkpt>
      <trkpt lat="43.41568" lon="6.06338">
        <ele>228.39999389648</ele>
        <time>2015-11-04T15:51:56Z</time>
      </trkpt>
      <trkpt lat="43.41563" lon="6.06346">
        <ele>227.60000610352</ele>
        <time>2015-11-04T15:51:57Z</time>
      </trkpt>
      <trkpt lat="43.41559" lon="6.06355">
        <ele>227</ele>
        <time>2015-11-04T15:51:58Z</time>
      </trkpt>
      <trkpt lat="43.41556" lon="6.06365">
        <ele>226.39999389648</ele>
        <time>2015-11-04T15:51:59Z</time>
      </trkpt>
      <trkpt lat="43.41554" lon="6.06375">
        <ele>225.80000305176</ele>
        <time>2015-11-04T15:52:00Z</time>
      </trkpt>
      <trkpt lat="43.41552" lon="6.06386">
        <ele>225.19999694824</ele>
        <time>2015-11-04T15:52:01Z</time>
      </trkpt>
      <trkpt lat="43.4155" lon="6.06397">
        <ele>224.80000305176</ele>
        <time>2015-11-04T15:52:02Z</time>
      </trkpt>
      <trkpt lat="43.41548" lon="6.06408">
        <ele>224.60000610352</ele>
        <time>2015-11-04T15:52:03Z</time>
      </trkpt>
      <trkpt lat="43.41546" lon="6.06419">
        <ele>223.80000305176</ele>
        <time>2015-11-04T15:52:04Z</time>
      </trkpt>
      <trkpt lat="43.41542" lon="6.0644">
        <ele>222.80000305176</ele>
        <time>2015-11-04T15:52:06Z</time>
      </trkpt>
      <trkpt lat="43.41542" lon="6.0645">
        <ele>222.60000610352</ele>
        <time>2015-11-04T15:52:07Z</time>
      </trkpt>
      <trkpt lat="43.41545" lon="6.06471">
        <ele>221.39999389648</ele>
        <time>2015-11-04T15:52:09Z</time>
      </trkpt>
      <trkpt lat="43.41546" lon="6.06478">
        <ele>221.60000610352</ele>
        <time>2015-11-04T15:52:10Z</time>
      </trkpt>
      <trkpt lat="43.41545" lon="6.06484">
        <ele>222.19999694824</ele>
        <time>2015-11-04T15:52:11Z</time>
      </trkpt>
      <trkpt lat="43.41541" lon="6.06489">
        <ele>222.80000305176</ele>
        <time>2015-11-04T15:52:12Z</time>
      </trkpt>
      <trkpt lat="43.41533" lon="6.06499">
        <ele>222.80000305176</ele>
        <time>2015-11-04T15:52:14Z</time>
      </trkpt>
      <trkpt lat="43.41527" lon="6.06514">
        <ele>221.60000610352</ele>
        <time>2015-11-04T15:52:16Z</time>
      </trkpt>
      <trkpt lat="43.41523" lon="6.0653">
        <ele>221.60000610352</ele>
        <time>2015-11-04T15:52:18Z</time>
      </trkpt>
      <trkpt lat="43.41522" lon="6.06538">
        <ele>221.39999389648</ele>
        <time>2015-11-04T15:52:19Z</time>
      </trkpt>
      <trkpt lat="43.4152" lon="6.06546">
        <ele>221</ele>
        <time>2015-11-04T15:52:20Z</time>
      </trkpt>
      <trkpt lat="43.41518" lon="6.06562">
        <ele>220.60000610352</ele>
        <time>2015-11-04T15:52:22Z</time>
      </trkpt>
      <trkpt lat="43.41516" lon="6.06571">
        <ele>220.60000610352</ele>
        <time>2015-11-04T15:52:23Z</time>
      </trkpt>
      <trkpt lat="43.41515" lon="6.0658">
        <ele>220.39999389648</ele>
        <time>2015-11-04T15:52:24Z</time>
      </trkpt>
      <trkpt lat="43.41513" lon="6.06589">
        <ele>220.19999694824</ele>
        <time>2015-11-04T15:52:25Z</time>
      </trkpt>
      <trkpt lat="43.41512" lon="6.06599">
        <ele>220.19999694824</ele>
        <time>2015-11-04T15:52:26Z</time>
      </trkpt>
      <trkpt lat="43.4151" lon="6.06609">
        <ele>220</ele>
        <time>2015-11-04T15:52:27Z</time>
      </trkpt>
      <trkpt lat="43.41508" lon="6.06618">
        <ele>219.80000305176</ele>
        <time>2015-11-04T15:52:28Z</time>
      </trkpt>
      <trkpt lat="43.41505" lon="6.06637">
        <ele>219.60000610352</ele>
        <time>2015-11-04T15:52:30Z</time>
      </trkpt>
      <trkpt lat="43.41501" lon="6.06655">
        <ele>219.80000305176</ele>
        <time>2015-11-04T15:52:32Z</time>
      </trkpt>
      <trkpt lat="43.41498" lon="6.06672">
        <ele>219.80000305176</ele>
        <time>2015-11-04T15:52:34Z</time>
      </trkpt>
      <trkpt lat="43.41497" lon="6.06681">
        <ele>219.80000305176</ele>
        <time>2015-11-04T15:52:35Z</time>
      </trkpt>
      <trkpt lat="43.41497" lon="6.06689">
        <ele>219.80000305176</ele>
        <time>2015-11-04T15:52:36Z</time>
      </trkpt>
      <trkpt lat="43.41497" lon="6.06706">
        <ele>219.60000610352</ele>
        <time>2015-11-04T15:52:38Z</time>
      </trkpt>
      <trkpt lat="43.41496" lon="6.06739">
        <ele>219.19999694824</ele>
        <time>2015-11-04T15:52:42Z</time>
      </trkpt>
      <trkpt lat="43.41494" lon="6.06755">
        <ele>218.80000305176</ele>
        <time>2015-11-04T15:52:44Z</time>
      </trkpt>
      <trkpt lat="43.41493" lon="6.06771">
        <ele>218.39999389648</ele>
        <time>2015-11-04T15:52:46Z</time>
      </trkpt>
      <trkpt lat="43.4149" lon="6.06787">
        <ele>218.19999694824</ele>
        <time>2015-11-04T15:52:48Z</time>
      </trkpt>
      <trkpt lat="43.41488" lon="6.06796">
        <ele>218</ele>
        <time>2015-11-04T15:52:49Z</time>
      </trkpt>
      <trkpt lat="43.41486" lon="6.06803">
        <ele>217.80000305176</ele>
        <time>2015-11-04T15:52:50Z</time>
      </trkpt>
      <trkpt lat="43.41484" lon="6.06813">
        <ele>218.19999694824</ele>
        <time>2015-11-04T15:52:52Z</time>
      </trkpt>
      <trkpt lat="43.41484" lon="6.06817">
        <ele>218.19999694824</ele>
        <time>2015-11-04T15:52:53Z</time>
      </trkpt>
      <trkpt lat="43.41483" lon="6.06821">
        <ele>218.19999694824</ele>
        <time>2015-11-04T15:52:54Z</time>
      </trkpt>
      <trkpt lat="43.41479" lon="6.0683">
        <ele>218</ele>
        <time>2015-11-04T15:52:56Z</time>
      </trkpt>
      <trkpt lat="43.41477" lon="6.06839">
        <ele>218</ele>
        <time>2015-11-04T15:52:58Z</time>
      </trkpt>
      <trkpt lat="43.41476" lon="6.06844">
        <ele>218</ele>
        <time>2015-11-04T15:52:59Z</time>
      </trkpt>
      <trkpt lat="43.41475" lon="6.06849">
        <ele>218.19999694824</ele>
        <time>2015-11-04T15:53:00Z</time>
      </trkpt>
      <trkpt lat="43.41474" lon="6.06858">
        <ele>218.39999389648</ele>
        <time>2015-11-04T15:53:02Z</time>
      </trkpt>
      <trkpt lat="43.41476" lon="6.06865">
        <ele>218.60000610352</ele>
        <time>2015-11-04T15:53:04Z</time>
      </trkpt>
      <trkpt lat="43.41476" lon="6.06869">
        <ele>218.80000305176</ele>
        <time>2015-11-04T15:53:05Z</time>
      </trkpt>
      <trkpt lat="43.41477" lon="6.06872">
        <ele>219</ele>
        <time>2015-11-04T15:53:06Z</time>
      </trkpt>
      <trkpt lat="43.41478" lon="6.06877">
        <ele>218.80000305176</ele>
        <time>2015-11-04T15:53:08Z</time>
      </trkpt>
      <trkpt lat="43.41478" lon="6.06882">
        <ele>218.80000305176</ele>
        <time>2015-11-04T15:53:10Z</time>
      </trkpt>
      <trkpt lat="43.41477" lon="6.06885">
        <ele>218.60000610352</ele>
        <time>2015-11-04T15:53:11Z</time>
      </trkpt>
      <trkpt lat="43.41476" lon="6.06888">
        <ele>218.60000610352</ele>
        <time>2015-11-04T15:53:12Z</time>
      </trkpt>
      <trkpt lat="43.41477" lon="6.06894">
        <ele>218.80000305176</ele>
        <time>2015-11-04T15:53:14Z</time>
      </trkpt>
      <trkpt lat="43.41478" lon="6.06902">
        <ele>218.39999389648</ele>
        <time>2015-11-04T15:53:16Z</time>
      </trkpt>
      <trkpt lat="43.41477" lon="6.06906">
        <ele>218.39999389648</ele>
        <time>2015-11-04T15:53:17Z</time>
      </trkpt>
      <trkpt lat="43.41475" lon="6.06909">
        <ele>218.60000610352</ele>
        <time>2015-11-04T15:53:18Z</time>
      </trkpt>
      <trkpt lat="43.41473" lon="6.06916">
        <ele>218.60000610352</ele>
        <time>2015-11-04T15:53:20Z</time>
      </trkpt>
      <trkpt lat="43.41471" lon="6.0692">
        <ele>218.80000305176</ele>
        <time>2015-11-04T15:53:22Z</time>
      </trkpt>
      <trkpt lat="43.4147" lon="6.06922">
        <ele>218.80000305176</ele>
        <time>2015-11-04T15:53:23Z</time>
      </trkpt>
      <trkpt lat="43.4147" lon="6.06925">
        <ele>218.80000305176</ele>
        <time>2015-11-04T15:53:24Z</time>
      </trkpt>
      <trkpt lat="43.41469" lon="6.06929">
        <ele>218.60000610352</ele>
        <time>2015-11-04T15:53:26Z</time>
      </trkpt>
      <trkpt lat="43.41469" lon="6.0693">
        <ele>218.60000610352</ele>
        <time>2015-11-04T15:53:27Z</time>
      </trkpt>
      <trkpt lat="43.4147" lon="6.06933">
        <ele>218.60000610352</ele>
        <time>2015-11-04T15:53:28Z</time>
      </trkpt>
      <trkpt lat="43.41473" lon="6.06938">
        <ele>218.60000610352</ele>
        <time>2015-11-04T15:53:30Z</time>
      </trkpt>
      <trkpt lat="43.41474" lon="6.0694">
        <ele>218.39999389648</ele>
        <time>2015-11-04T15:53:31Z</time>
      </trkpt>
      <trkpt lat="43.41475" lon="6.06942">
        <ele>218.19999694824</ele>
        <time>2015-11-04T15:53:32Z</time>
      </trkpt>
      <trkpt lat="43.41477" lon="6.06945">
        <ele>218.19999694824</ele>
        <time>2015-11-04T15:53:33Z</time>
      </trkpt>
      <trkpt lat="43.41478" lon="6.06948">
        <ele>218</ele>
        <time>2015-11-04T15:53:34Z</time>
      </trkpt>
      <trkpt lat="43.41483" lon="6.06954">
        <ele>217.80000305176</ele>
        <time>2015-11-04T15:53:36Z</time>
      </trkpt>
      <trkpt lat="43.41487" lon="6.06961">
        <ele>217.80000305176</ele>
        <time>2015-11-04T15:53:38Z</time>
      </trkpt>
      <trkpt lat="43.41488" lon="6.06964">
        <ele>217.80000305176</ele>
        <time>2015-11-04T15:53:39Z</time>
      </trkpt>
      <trkpt lat="43.41491" lon="6.06967">
        <ele>217.80000305176</ele>
        <time>2015-11-04T15:53:40Z</time>
      </trkpt>
      <trkpt lat="43.41495" lon="6.06966">
        <ele>217.80000305176</ele>
        <time>2015-11-04T15:53:42Z</time>
      </trkpt>
      <trkpt lat="43.41497" lon="6.06964">
        <ele>217.80000305176</ele>
        <time>2015-11-04T15:53:43Z</time>
      </trkpt>
      <trkpt lat="43.41499" lon="6.06964">
        <ele>217.80000305176</ele>
        <time>2015-11-04T15:53:44Z</time>
      </trkpt>
      <trkpt lat="43.41502" lon="6.06966">
        <ele>218.19999694824</ele>
        <time>2015-11-04T15:53:46Z</time>
      </trkpt>
      <trkpt lat="43.41504" lon="6.06968">
        <ele>218.19999694824</ele>
        <time>2015-11-04T15:53:47Z</time>
      </trkpt>
      <trkpt lat="43.41505" lon="6.0697">
        <ele>218.19999694824</ele>
        <time>2015-11-04T15:53:48Z</time>
      </trkpt>
      <trkpt lat="43.4151" lon="6.06972">
        <ele>218</ele>
        <time>2015-11-04T15:53:50Z</time>
      </trkpt>
      <trkpt lat="43.41516" lon="6.06973">
        <ele>218</ele>
        <time>2015-11-04T15:53:52Z</time>
      </trkpt>
      <trkpt lat="43.41521" lon="6.06973">
        <ele>217.80000305176</ele>
        <time>2015-11-04T15:53:54Z</time>
      </trkpt>
      <trkpt lat="43.41528" lon="6.06973">
        <ele>217.80000305176</ele>
        <time>2015-11-04T15:53:56Z</time>
      </trkpt>
      <trkpt lat="43.41534" lon="6.06972">
        <ele>218</ele>
        <time>2015-11-04T15:53:58Z</time>
      </trkpt>
      <trkpt lat="43.4154" lon="6.06972">
        <ele>218.19999694824</ele>
        <time>2015-11-04T15:54:00Z</time>
      </trkpt>
      <trkpt lat="43.41545" lon="6.06973">
        <ele>218.19999694824</ele>
        <time>2015-11-04T15:54:02Z</time>
      </trkpt>
      <trkpt lat="43.41549" lon="6.06973">
        <ele>218.39999389648</ele>
        <time>2015-11-04T15:54:04Z</time>
      </trkpt>
      <trkpt lat="43.41555" lon="6.06972">
        <ele>218.60000610352</ele>
        <time>2015-11-04T15:54:06Z</time>
      </trkpt>
      <trkpt lat="43.4156" lon="6.06971">
        <ele>218.60000610352</ele>
        <time>2015-11-04T15:54:08Z</time>
      </trkpt>
      <trkpt lat="43.41565" lon="6.06971">
        <ele>218.80000305176</ele>
        <time>2015-11-04T15:54:10Z</time>
      </trkpt>
      <trkpt lat="43.41569" lon="6.06974">
        <ele>218.80000305176</ele>
        <time>2015-11-04T15:54:12Z</time>
      </trkpt>
      <trkpt lat="43.41574" lon="6.06991">
        <ele>218.60000610352</ele>
        <time>2015-11-04T15:54:16Z</time>
      </trkpt>
      <trkpt lat="43.41576" lon="6.07001">
        <ele>218.60000610352</ele>
        <time>2015-11-04T15:54:18Z</time>
      </trkpt>
      <trkpt lat="43.41577" lon="6.07011">
        <ele>218.60000610352</ele>
        <time>2015-11-04T15:54:20Z</time>
      </trkpt>
      <trkpt lat="43.41578" lon="6.0702">
        <ele>218.60000610352</ele>
        <time>2015-11-04T15:54:22Z</time>
      </trkpt>
      <trkpt lat="43.41579" lon="6.07028">
        <ele>218.80000305176</ele>
        <time>2015-11-04T15:54:24Z</time>
      </trkpt>
      <trkpt lat="43.4158" lon="6.07032">
        <ele>219.19999694824</ele>
        <time>2015-11-04T15:54:26Z</time>
      </trkpt>
      <trkpt lat="43.41581" lon="6.07034">
        <ele>219.39999389648</ele>
        <time>2015-11-04T15:54:28Z</time>
      </trkpt>
      <trkpt lat="43.41581" lon="6.07034">
        <ele>219.19999694824</ele>
        <time>2015-11-04T15:54:30Z</time>
      </trkpt>
      <trkpt lat="43.41581" lon="6.07034">
        <ele>219.19999694824</ele>
        <time>2015-11-04T15:54:33Z</time>
      </trkpt>
      <trkpt lat="43.41581" lon="6.07035">
        <ele>219.19999694824</ele>
        <time>2015-11-04T15:54:35Z</time>
      </trkpt>
      <trkpt lat="43.41581" lon="6.07035">
        <ele>219.39999389648</ele>
        <time>2015-11-04T15:54:36Z</time>
      </trkpt>
      <trkpt lat="43.41581" lon="6.07034">
        <ele>219.39999389648</ele>
        <time>2015-11-04T15:54:37Z</time>
      </trkpt>
      <trkpt lat="43.41581" lon="6.07034">
        <ele>219.19999694824</ele>
        <time>2015-11-04T15:54:39Z</time>
      </trkpt>
      <trkpt lat="43.41581" lon="6.07034">
        <ele>219.39999389648</ele>
        <time>2015-11-04T15:55:03Z</time>
      </trkpt>
    </trkseg>
  </trk>
</gpx>